<?xml version="1.0" encoding="UTF-8" standalone="no" ?>
<gpx xmlns="http://www.topografix.com/GPX/1/1" xmlns:xsi="http://www.w3.org/2001/XMLSchema-instance" xsi:schemaLocation="http://www.topografix.com/GPX/1/1 http://www.topografix.com/GPX/1/1/gpx.xsd" version="1.1" creator="VisuGPX - https://www.visugpx.com">
  <metadata>
    <name>Esquino d'aze</name>
  </metadata>
  <trk>
    <name><![CDATA[Randonnée]]></name>
    <desc><![CDATA[]]></desc>
    <extensions>
      <line xmlns="http://www.topografix.com/GPX/gpx_style/0/2">
        <color>00FF00</color>
        <width>4</width>
      </line>
    </extensions>
    <trkseg>
      <trkpt lat="43.58015" lon="3.01294">
        <ele>212.10059</ele>
        <time>2026-08-30T07:45:33+02:00</time>
      </trkpt>
      <trkpt lat="43.58023" lon="3.01289">
        <ele>212.60059</ele>
        <time>2026-08-30T07:45:37+02:00</time>
      </trkpt>
      <trkpt lat="43.58025" lon="3.01288">
        <ele>212.60059</ele>
        <time>2026-08-30T07:45:38+02:00</time>
      </trkpt>
      <trkpt lat="43.58032" lon="3.01289">
        <ele>213.60059</ele>
        <time>2026-08-30T07:45:43+02:00</time>
      </trkpt>
      <trkpt lat="43.58033" lon="3.01288">
        <ele>213.60059</ele>
        <time>2026-08-30T07:45:44+02:00</time>
      </trkpt>
      <trkpt lat="43.58038" lon="3.01286">
        <ele>214.60059</ele>
        <time>2026-08-30T07:45:48+02:00</time>
      </trkpt>
      <trkpt lat="43.5804" lon="3.01285">
        <ele>215.60059</ele>
        <time>2026-08-30T07:45:49+02:00</time>
      </trkpt>
      <trkpt lat="43.58044" lon="3.01281">
        <ele>215.5</ele>
        <time>2026-08-30T07:45:53+02:00</time>
      </trkpt>
      <trkpt lat="43.58045" lon="3.01279">
        <ele>215.5</ele>
        <time>2026-08-30T07:45:54+02:00</time>
      </trkpt>
      <trkpt lat="43.58048" lon="3.01274">
        <ele>216.2998</ele>
        <time>2026-08-30T07:45:58+02:00</time>
      </trkpt>
      <trkpt lat="43.58049" lon="3.01273">
        <ele>216.2998</ele>
        <time>2026-08-30T07:45:59+02:00</time>
      </trkpt>
      <trkpt lat="43.58054" lon="3.01271">
        <ele>217.2002</ele>
        <time>2026-08-30T07:46:03+02:00</time>
      </trkpt>
      <trkpt lat="43.58056" lon="3.0127">
        <ele>217.2002</ele>
        <time>2026-08-30T07:46:04+02:00</time>
      </trkpt>
      <trkpt lat="43.58061" lon="3.01271">
        <ele>218.10059</ele>
        <time>2026-08-30T07:46:08+02:00</time>
      </trkpt>
      <trkpt lat="43.58062" lon="3.0127">
        <ele>218.10059</ele>
        <time>2026-08-30T07:46:09+02:00</time>
      </trkpt>
      <trkpt lat="43.58067" lon="3.01269">
        <ele>219</ele>
        <time>2026-08-30T07:46:13+02:00</time>
      </trkpt>
      <trkpt lat="43.58068" lon="3.01269">
        <ele>219</ele>
        <time>2026-08-30T07:46:14+02:00</time>
      </trkpt>
      <trkpt lat="43.58072" lon="3.01267">
        <ele>219.90039</ele>
        <time>2026-08-30T07:46:18+02:00</time>
      </trkpt>
      <trkpt lat="43.58074" lon="3.01267">
        <ele>219.90039</ele>
        <time>2026-08-30T07:46:19+02:00</time>
      </trkpt>
      <trkpt lat="43.58079" lon="3.01267">
        <ele>220.7998</ele>
        <time>2026-08-30T07:46:23+02:00</time>
      </trkpt>
      <trkpt lat="43.58081" lon="3.01267">
        <ele>220.7998</ele>
        <time>2026-08-30T07:46:24+02:00</time>
      </trkpt>
      <trkpt lat="43.58086" lon="3.01266">
        <ele>221.7998</ele>
        <time>2026-08-30T07:46:28+02:00</time>
      </trkpt>
      <trkpt lat="43.58087" lon="3.01265">
        <ele>221.60059</ele>
        <time>2026-08-30T07:46:29+02:00</time>
      </trkpt>
      <trkpt lat="43.58092" lon="3.01261">
        <ele>222.60059</ele>
        <time>2026-08-30T07:46:33+02:00</time>
      </trkpt>
      <trkpt lat="43.58093" lon="3.0126">
        <ele>222.60059</ele>
        <time>2026-08-30T07:46:34+02:00</time>
      </trkpt>
      <trkpt lat="43.58094" lon="3.01253">
        <ele>222.2002</ele>
        <time>2026-08-30T07:46:38+02:00</time>
      </trkpt>
      <trkpt lat="43.58095" lon="3.0125">
        <ele>222.2002</ele>
        <time>2026-08-30T07:46:39+02:00</time>
      </trkpt>
      <trkpt lat="43.58093" lon="3.01242">
        <ele>221.40039</ele>
        <time>2026-08-30T07:46:43+02:00</time>
      </trkpt>
      <trkpt lat="43.58093" lon="3.0124">
        <ele>220.7002</ele>
        <time>2026-08-30T07:46:44+02:00</time>
      </trkpt>
      <trkpt lat="43.5809" lon="3.01232">
        <ele>220.7002</ele>
        <time>2026-08-30T07:46:48+02:00</time>
      </trkpt>
      <trkpt lat="43.5809" lon="3.0123">
        <ele>219.90039</ele>
        <time>2026-08-30T07:46:49+02:00</time>
      </trkpt>
      <trkpt lat="43.58087" lon="3.01223">
        <ele>218.7998</ele>
        <time>2026-08-30T07:46:53+02:00</time>
      </trkpt>
      <trkpt lat="43.58087" lon="3.01222">
        <ele>217.90039</ele>
        <time>2026-08-30T07:46:54+02:00</time>
      </trkpt>
      <trkpt lat="43.58086" lon="3.01213">
        <ele>216.7002</ele>
        <time>2026-08-30T07:46:58+02:00</time>
      </trkpt>
      <trkpt lat="43.58085" lon="3.01211">
        <ele>216.7002</ele>
        <time>2026-08-30T07:46:59+02:00</time>
      </trkpt>
      <trkpt lat="43.58083" lon="3.01202">
        <ele>215.60059</ele>
        <time>2026-08-30T07:47:03+02:00</time>
      </trkpt>
      <trkpt lat="43.58083" lon="3.012">
        <ele>215.60059</ele>
        <time>2026-08-30T07:47:04+02:00</time>
      </trkpt>
      <trkpt lat="43.58082" lon="3.0119">
        <ele>214.40039</ele>
        <time>2026-08-30T07:47:08+02:00</time>
      </trkpt>
      <trkpt lat="43.58083" lon="3.01188">
        <ele>214.7998</ele>
        <time>2026-08-30T07:47:09+02:00</time>
      </trkpt>
      <trkpt lat="43.58087" lon="3.0118">
        <ele>215.60059</ele>
        <time>2026-08-30T07:47:13+02:00</time>
      </trkpt>
      <trkpt lat="43.58088" lon="3.01179">
        <ele>217.5</ele>
        <time>2026-08-30T07:47:14+02:00</time>
      </trkpt>
      <trkpt lat="43.58093" lon="3.01177">
        <ele>218.2998</ele>
        <time>2026-08-30T07:47:18+02:00</time>
      </trkpt>
      <trkpt lat="43.58094" lon="3.01177">
        <ele>218.2998</ele>
        <time>2026-08-30T07:47:19+02:00</time>
      </trkpt>
      <trkpt lat="43.581" lon="3.01177">
        <ele>219.10059</ele>
        <time>2026-08-30T07:47:23+02:00</time>
      </trkpt>
      <trkpt lat="43.58101" lon="3.01176">
        <ele>219.10059</ele>
        <time>2026-08-30T07:47:24+02:00</time>
      </trkpt>
      <trkpt lat="43.58105" lon="3.01176">
        <ele>219.7998</ele>
        <time>2026-08-30T07:47:28+02:00</time>
      </trkpt>
      <trkpt lat="43.58105" lon="3.01176">
        <ele>219.7998</ele>
        <time>2026-08-30T07:47:29+02:00</time>
      </trkpt>
      <trkpt lat="43.58101" lon="3.01176">
        <ele>219.7998</ele>
        <time>2026-08-30T07:47:33+02:00</time>
      </trkpt>
      <trkpt lat="43.581" lon="3.01176">
        <ele>219.10059</ele>
        <time>2026-08-30T07:47:34+02:00</time>
      </trkpt>
      <trkpt lat="43.58094" lon="3.01178">
        <ele>218.2998</ele>
        <time>2026-08-30T07:47:38+02:00</time>
      </trkpt>
      <trkpt lat="43.58092" lon="3.01179">
        <ele>218.2998</ele>
        <time>2026-08-30T07:47:39+02:00</time>
      </trkpt>
      <trkpt lat="43.58086" lon="3.01182">
        <ele>215.60059</ele>
        <time>2026-08-30T07:47:43+02:00</time>
      </trkpt>
      <trkpt lat="43.58084" lon="3.01183">
        <ele>215.60059</ele>
        <time>2026-08-30T07:47:44+02:00</time>
      </trkpt>
      <trkpt lat="43.58078" lon="3.01186">
        <ele>214.7998</ele>
        <time>2026-08-30T07:47:48+02:00</time>
      </trkpt>
      <trkpt lat="43.58077" lon="3.01185">
        <ele>214.7998</ele>
        <time>2026-08-30T07:47:49+02:00</time>
      </trkpt>
      <trkpt lat="43.58072" lon="3.01179">
        <ele>215.7998</ele>
        <time>2026-08-30T07:47:53+02:00</time>
      </trkpt>
      <trkpt lat="43.58072" lon="3.01177">
        <ele>215.7998</ele>
        <time>2026-08-30T07:47:54+02:00</time>
      </trkpt>
      <trkpt lat="43.58068" lon="3.01169">
        <ele>217.10059</ele>
        <time>2026-08-30T07:47:58+02:00</time>
      </trkpt>
      <trkpt lat="43.58067" lon="3.01167">
        <ele>217.10059</ele>
        <time>2026-08-30T07:47:59+02:00</time>
      </trkpt>
      <trkpt lat="43.58064" lon="3.01161">
        <ele>219</ele>
        <time>2026-08-30T07:48:03+02:00</time>
      </trkpt>
      <trkpt lat="43.58063" lon="3.01159">
        <ele>217.90039</ele>
        <time>2026-08-30T07:48:04+02:00</time>
      </trkpt>
      <trkpt lat="43.5806" lon="3.01153">
        <ele>220</ele>
        <time>2026-08-30T07:48:08+02:00</time>
      </trkpt>
      <trkpt lat="43.58059" lon="3.01151">
        <ele>220</ele>
        <time>2026-08-30T07:48:09+02:00</time>
      </trkpt>
      <trkpt lat="43.58056" lon="3.01144">
        <ele>220.60059</ele>
        <time>2026-08-30T07:48:13+02:00</time>
      </trkpt>
      <trkpt lat="43.58055" lon="3.01143">
        <ele>220.60059</ele>
        <time>2026-08-30T07:48:14+02:00</time>
      </trkpt>
      <trkpt lat="43.58051" lon="3.01137">
        <ele>220.60059</ele>
        <time>2026-08-30T07:48:18+02:00</time>
      </trkpt>
      <trkpt lat="43.58051" lon="3.01135">
        <ele>220.60059</ele>
        <time>2026-08-30T07:48:19+02:00</time>
      </trkpt>
      <trkpt lat="43.58048" lon="3.01128">
        <ele>221.7998</ele>
        <time>2026-08-30T07:48:23+02:00</time>
      </trkpt>
      <trkpt lat="43.58047" lon="3.01126">
        <ele>221.7998</ele>
        <time>2026-08-30T07:48:24+02:00</time>
      </trkpt>
      <trkpt lat="43.58043" lon="3.01119">
        <ele>221.2998</ele>
        <time>2026-08-30T07:48:28+02:00</time>
      </trkpt>
      <trkpt lat="43.58042" lon="3.01117">
        <ele>221.2998</ele>
        <time>2026-08-30T07:48:29+02:00</time>
      </trkpt>
      <trkpt lat="43.58038" lon="3.01111">
        <ele>221.10059</ele>
        <time>2026-08-30T07:48:33+02:00</time>
      </trkpt>
      <trkpt lat="43.58038" lon="3.01109">
        <ele>221.10059</ele>
        <time>2026-08-30T07:48:34+02:00</time>
      </trkpt>
      <trkpt lat="43.58034" lon="3.01104">
        <ele>221.10059</ele>
        <time>2026-08-30T07:48:38+02:00</time>
      </trkpt>
      <trkpt lat="43.58033" lon="3.01103">
        <ele>221.10059</ele>
        <time>2026-08-30T07:48:39+02:00</time>
      </trkpt>
      <trkpt lat="43.58028" lon="3.01098">
        <ele>220.60059</ele>
        <time>2026-08-30T07:48:43+02:00</time>
      </trkpt>
      <trkpt lat="43.58027" lon="3.01097">
        <ele>220.60059</ele>
        <time>2026-08-30T07:48:44+02:00</time>
      </trkpt>
      <trkpt lat="43.58021" lon="3.01093">
        <ele>220</ele>
        <time>2026-08-30T07:48:48+02:00</time>
      </trkpt>
      <trkpt lat="43.5802" lon="3.01091">
        <ele>218.40039</ele>
        <time>2026-08-30T07:48:49+02:00</time>
      </trkpt>
      <trkpt lat="43.58017" lon="3.01084">
        <ele>219.2002</ele>
        <time>2026-08-30T07:48:53+02:00</time>
      </trkpt>
      <trkpt lat="43.58016" lon="3.01082">
        <ele>219.2002</ele>
        <time>2026-08-30T07:48:54+02:00</time>
      </trkpt>
      <trkpt lat="43.58013" lon="3.01076">
        <ele>218.40039</ele>
        <time>2026-08-30T07:48:58+02:00</time>
      </trkpt>
      <trkpt lat="43.58012" lon="3.01075">
        <ele>218.40039</ele>
        <time>2026-08-30T07:48:59+02:00</time>
      </trkpt>
      <trkpt lat="43.58009" lon="3.01069">
        <ele>218.40039</ele>
        <time>2026-08-30T07:49:03+02:00</time>
      </trkpt>
      <trkpt lat="43.58009" lon="3.01067">
        <ele>219.2998</ele>
        <time>2026-08-30T07:49:04+02:00</time>
      </trkpt>
      <trkpt lat="43.58005" lon="3.0106">
        <ele>217.7002</ele>
        <time>2026-08-30T07:49:08+02:00</time>
      </trkpt>
      <trkpt lat="43.58004" lon="3.01059">
        <ele>218.5</ele>
        <time>2026-08-30T07:49:09+02:00</time>
      </trkpt>
      <trkpt lat="43.58001" lon="3.01052">
        <ele>217</ele>
        <time>2026-08-30T07:49:13+02:00</time>
      </trkpt>
      <trkpt lat="43.58" lon="3.0105">
        <ele>217.7002</ele>
        <time>2026-08-30T07:49:14+02:00</time>
      </trkpt>
      <trkpt lat="43.57997" lon="3.01042">
        <ele>218.5</ele>
        <time>2026-08-30T07:49:18+02:00</time>
      </trkpt>
      <trkpt lat="43.57997" lon="3.0104">
        <ele>218.5</ele>
        <time>2026-08-30T07:49:19+02:00</time>
      </trkpt>
      <trkpt lat="43.57995" lon="3.01032">
        <ele>217.7002</ele>
        <time>2026-08-30T07:49:23+02:00</time>
      </trkpt>
      <trkpt lat="43.57995" lon="3.01031">
        <ele>217.7002</ele>
        <time>2026-08-30T07:49:24+02:00</time>
      </trkpt>
      <trkpt lat="43.57993" lon="3.01025">
        <ele>218.60059</ele>
        <time>2026-08-30T07:49:28+02:00</time>
      </trkpt>
      <trkpt lat="43.57992" lon="3.01022">
        <ele>218.60059</ele>
        <time>2026-08-30T07:49:29+02:00</time>
      </trkpt>
      <trkpt lat="43.57991" lon="3.01013">
        <ele>219.60059</ele>
        <time>2026-08-30T07:49:33+02:00</time>
      </trkpt>
      <trkpt lat="43.57991" lon="3.01011">
        <ele>219.60059</ele>
        <time>2026-08-30T07:49:34+02:00</time>
      </trkpt>
      <trkpt lat="43.57992" lon="3.01004">
        <ele>220.60059</ele>
        <time>2026-08-30T07:49:38+02:00</time>
      </trkpt>
      <trkpt lat="43.57992" lon="3.01002">
        <ele>220.60059</ele>
        <time>2026-08-30T07:49:39+02:00</time>
      </trkpt>
      <trkpt lat="43.5799" lon="3.00995">
        <ele>221.90039</ele>
        <time>2026-08-30T07:49:43+02:00</time>
      </trkpt>
      <trkpt lat="43.5799" lon="3.00994">
        <ele>221.90039</ele>
        <time>2026-08-30T07:49:44+02:00</time>
      </trkpt>
      <trkpt lat="43.57988" lon="3.00987">
        <ele>221.2998</ele>
        <time>2026-08-30T07:49:48+02:00</time>
      </trkpt>
      <trkpt lat="43.57987" lon="3.00985">
        <ele>221.2998</ele>
        <time>2026-08-30T07:49:49+02:00</time>
      </trkpt>
      <trkpt lat="43.57985" lon="3.00976">
        <ele>222.7002</ele>
        <time>2026-08-30T07:49:53+02:00</time>
      </trkpt>
      <trkpt lat="43.57984" lon="3.00974">
        <ele>224</ele>
        <time>2026-08-30T07:49:54+02:00</time>
      </trkpt>
      <trkpt lat="43.57982" lon="3.00966">
        <ele>222.10059</ele>
        <time>2026-08-30T07:49:58+02:00</time>
      </trkpt>
      <trkpt lat="43.57981" lon="3.00965">
        <ele>223.5</ele>
        <time>2026-08-30T07:49:59+02:00</time>
      </trkpt>
      <trkpt lat="43.5798" lon="3.00958">
        <ele>223.5</ele>
        <time>2026-08-30T07:50:03+02:00</time>
      </trkpt>
      <trkpt lat="43.5798" lon="3.00956">
        <ele>224.7998</ele>
        <time>2026-08-30T07:50:04+02:00</time>
      </trkpt>
      <trkpt lat="43.57978" lon="3.00948">
        <ele>226.2998</ele>
        <time>2026-08-30T07:50:08+02:00</time>
      </trkpt>
      <trkpt lat="43.57977" lon="3.00946">
        <ele>224.2002</ele>
        <time>2026-08-30T07:50:09+02:00</time>
      </trkpt>
      <trkpt lat="43.57973" lon="3.00942">
        <ele>224.2002</ele>
        <time>2026-08-30T07:50:13+02:00</time>
      </trkpt>
      <trkpt lat="43.57972" lon="3.00941">
        <ele>224.2002</ele>
        <time>2026-08-30T07:50:14+02:00</time>
      </trkpt>
      <trkpt lat="43.57968" lon="3.00933">
        <ele>223.40039</ele>
        <time>2026-08-30T07:50:18+02:00</time>
      </trkpt>
      <trkpt lat="43.57967" lon="3.00932">
        <ele>223.40039</ele>
        <time>2026-08-30T07:50:19+02:00</time>
      </trkpt>
      <trkpt lat="43.57964" lon="3.00923">
        <ele>222.60059</ele>
        <time>2026-08-30T07:50:23+02:00</time>
      </trkpt>
      <trkpt lat="43.57963" lon="3.00922">
        <ele>223.7998</ele>
        <time>2026-08-30T07:50:24+02:00</time>
      </trkpt>
      <trkpt lat="43.5796" lon="3.00916">
        <ele>223.7998</ele>
        <time>2026-08-30T07:50:28+02:00</time>
      </trkpt>
      <trkpt lat="43.57959" lon="3.00914">
        <ele>223.7998</ele>
        <time>2026-08-30T07:50:29+02:00</time>
      </trkpt>
      <trkpt lat="43.57957" lon="3.00905">
        <ele>224</ele>
        <time>2026-08-30T07:50:33+02:00</time>
      </trkpt>
      <trkpt lat="43.57957" lon="3.00903">
        <ele>224</ele>
        <time>2026-08-30T07:50:34+02:00</time>
      </trkpt>
      <trkpt lat="43.57954" lon="3.00896">
        <ele>225.2998</ele>
        <time>2026-08-30T07:50:38+02:00</time>
      </trkpt>
      <trkpt lat="43.57953" lon="3.00894">
        <ele>225.2998</ele>
        <time>2026-08-30T07:50:39+02:00</time>
      </trkpt>
      <trkpt lat="43.5795" lon="3.00888">
        <ele>224.2998</ele>
        <time>2026-08-30T07:50:43+02:00</time>
      </trkpt>
      <trkpt lat="43.57949" lon="3.00886">
        <ele>224.2998</ele>
        <time>2026-08-30T07:50:44+02:00</time>
      </trkpt>
      <trkpt lat="43.57948" lon="3.00878">
        <ele>225.60059</ele>
        <time>2026-08-30T07:50:48+02:00</time>
      </trkpt>
      <trkpt lat="43.57948" lon="3.00877">
        <ele>225.60059</ele>
        <time>2026-08-30T07:50:49+02:00</time>
      </trkpt>
      <trkpt lat="43.57945" lon="3.0087">
        <ele>224.5</ele>
        <time>2026-08-30T07:50:53+02:00</time>
      </trkpt>
      <trkpt lat="43.57944" lon="3.00868">
        <ele>224.5</ele>
        <time>2026-08-30T07:50:54+02:00</time>
      </trkpt>
      <trkpt lat="43.57942" lon="3.00859">
        <ele>225.90039</ele>
        <time>2026-08-30T07:50:58+02:00</time>
      </trkpt>
      <trkpt lat="43.57941" lon="3.00857">
        <ele>225.90039</ele>
        <time>2026-08-30T07:50:59+02:00</time>
      </trkpt>
      <trkpt lat="43.57939" lon="3.0085">
        <ele>224.7998</ele>
        <time>2026-08-30T07:51:03+02:00</time>
      </trkpt>
      <trkpt lat="43.57939" lon="3.00848">
        <ele>224.7998</ele>
        <time>2026-08-30T07:51:04+02:00</time>
      </trkpt>
      <trkpt lat="43.57936" lon="3.00841">
        <ele>226.2002</ele>
        <time>2026-08-30T07:51:08+02:00</time>
      </trkpt>
      <trkpt lat="43.57936" lon="3.00839">
        <ele>226.2002</ele>
        <time>2026-08-30T07:51:09+02:00</time>
      </trkpt>
      <trkpt lat="43.57933" lon="3.00832">
        <ele>225</ele>
        <time>2026-08-30T07:51:13+02:00</time>
      </trkpt>
      <trkpt lat="43.57932" lon="3.0083">
        <ele>225</ele>
        <time>2026-08-30T07:51:14+02:00</time>
      </trkpt>
      <trkpt lat="43.5793" lon="3.00821">
        <ele>226.2998</ele>
        <time>2026-08-30T07:51:18+02:00</time>
      </trkpt>
      <trkpt lat="43.5793" lon="3.00819">
        <ele>226.2998</ele>
        <time>2026-08-30T07:51:19+02:00</time>
      </trkpt>
      <trkpt lat="43.57928" lon="3.00811">
        <ele>228.7998</ele>
        <time>2026-08-30T07:51:23+02:00</time>
      </trkpt>
      <trkpt lat="43.57928" lon="3.00809">
        <ele>228.7998</ele>
        <time>2026-08-30T07:51:24+02:00</time>
      </trkpt>
      <trkpt lat="43.57925" lon="3.00804">
        <ele>226.10059</ele>
        <time>2026-08-30T07:51:28+02:00</time>
      </trkpt>
      <trkpt lat="43.57924" lon="3.00802">
        <ele>227.2998</ele>
        <time>2026-08-30T07:51:29+02:00</time>
      </trkpt>
      <trkpt lat="43.57922" lon="3.00793">
        <ele>228.40039</ele>
        <time>2026-08-30T07:51:33+02:00</time>
      </trkpt>
      <trkpt lat="43.57921" lon="3.00792">
        <ele>228.40039</ele>
        <time>2026-08-30T07:51:34+02:00</time>
      </trkpt>
      <trkpt lat="43.57919" lon="3.00785">
        <ele>226.90039</ele>
        <time>2026-08-30T07:51:38+02:00</time>
      </trkpt>
      <trkpt lat="43.57918" lon="3.00783">
        <ele>226.90039</ele>
        <time>2026-08-30T07:51:39+02:00</time>
      </trkpt>
      <trkpt lat="43.57916" lon="3.00775">
        <ele>228</ele>
        <time>2026-08-30T07:51:43+02:00</time>
      </trkpt>
      <trkpt lat="43.57915" lon="3.00773">
        <ele>228</ele>
        <time>2026-08-30T07:51:44+02:00</time>
      </trkpt>
      <trkpt lat="43.57914" lon="3.00767">
        <ele>226.60059</ele>
        <time>2026-08-30T07:51:48+02:00</time>
      </trkpt>
      <trkpt lat="43.57913" lon="3.00765">
        <ele>226.60059</ele>
        <time>2026-08-30T07:51:49+02:00</time>
      </trkpt>
      <trkpt lat="43.57911" lon="3.00756">
        <ele>227.5</ele>
        <time>2026-08-30T07:51:53+02:00</time>
      </trkpt>
      <trkpt lat="43.57911" lon="3.00754">
        <ele>227.5</ele>
        <time>2026-08-30T07:51:54+02:00</time>
      </trkpt>
      <trkpt lat="43.57908" lon="3.00747">
        <ele>226.2002</ele>
        <time>2026-08-30T07:51:58+02:00</time>
      </trkpt>
      <trkpt lat="43.57907" lon="3.00746">
        <ele>226.2002</ele>
        <time>2026-08-30T07:51:59+02:00</time>
      </trkpt>
      <trkpt lat="43.57905" lon="3.00739">
        <ele>227</ele>
        <time>2026-08-30T07:52:03+02:00</time>
      </trkpt>
      <trkpt lat="43.57904" lon="3.00738">
        <ele>227</ele>
        <time>2026-08-30T07:52:04+02:00</time>
      </trkpt>
      <trkpt lat="43.57902" lon="3.00731">
        <ele>225.60059</ele>
        <time>2026-08-30T07:52:08+02:00</time>
      </trkpt>
      <trkpt lat="43.57901" lon="3.00729">
        <ele>225.60059</ele>
        <time>2026-08-30T07:52:09+02:00</time>
      </trkpt>
      <trkpt lat="43.57898" lon="3.00721">
        <ele>226.40039</ele>
        <time>2026-08-30T07:52:13+02:00</time>
      </trkpt>
      <trkpt lat="43.57897" lon="3.00719">
        <ele>226.40039</ele>
        <time>2026-08-30T07:52:14+02:00</time>
      </trkpt>
      <trkpt lat="43.57894" lon="3.00713">
        <ele>225</ele>
        <time>2026-08-30T07:52:18+02:00</time>
      </trkpt>
      <trkpt lat="43.57893" lon="3.00712">
        <ele>225</ele>
        <time>2026-08-30T07:52:19+02:00</time>
      </trkpt>
      <trkpt lat="43.5789" lon="3.00706">
        <ele>223.7998</ele>
        <time>2026-08-30T07:52:23+02:00</time>
      </trkpt>
      <trkpt lat="43.57889" lon="3.00705">
        <ele>223.7998</ele>
        <time>2026-08-30T07:52:24+02:00</time>
      </trkpt>
      <trkpt lat="43.57888" lon="3.00697">
        <ele>224.60059</ele>
        <time>2026-08-30T07:52:28+02:00</time>
      </trkpt>
      <trkpt lat="43.57887" lon="3.00695">
        <ele>224.60059</ele>
        <time>2026-08-30T07:52:29+02:00</time>
      </trkpt>
      <trkpt lat="43.57886" lon="3.00688">
        <ele>225.2998</ele>
        <time>2026-08-30T07:52:33+02:00</time>
      </trkpt>
      <trkpt lat="43.57885" lon="3.00687">
        <ele>225.2998</ele>
        <time>2026-08-30T07:52:34+02:00</time>
      </trkpt>
      <trkpt lat="43.57883" lon="3.0068">
        <ele>224.10059</ele>
        <time>2026-08-30T07:52:38+02:00</time>
      </trkpt>
      <trkpt lat="43.57883" lon="3.00679">
        <ele>224.10059</ele>
        <time>2026-08-30T07:52:39+02:00</time>
      </trkpt>
      <trkpt lat="43.57884" lon="3.00671">
        <ele>226.60059</ele>
        <time>2026-08-30T07:52:43+02:00</time>
      </trkpt>
      <trkpt lat="43.57884" lon="3.0067">
        <ele>226.60059</ele>
        <time>2026-08-30T07:52:44+02:00</time>
      </trkpt>
      <trkpt lat="43.57886" lon="3.00663">
        <ele>227.10059</ele>
        <time>2026-08-30T07:52:48+02:00</time>
      </trkpt>
      <trkpt lat="43.57887" lon="3.00661">
        <ele>227.10059</ele>
        <time>2026-08-30T07:52:49+02:00</time>
      </trkpt>
      <trkpt lat="43.57889" lon="3.00654">
        <ele>227.60059</ele>
        <time>2026-08-30T07:52:53+02:00</time>
      </trkpt>
      <trkpt lat="43.57889" lon="3.00652">
        <ele>227.60059</ele>
        <time>2026-08-30T07:52:54+02:00</time>
      </trkpt>
      <trkpt lat="43.57888" lon="3.00645">
        <ele>228.10059</ele>
        <time>2026-08-30T07:52:58+02:00</time>
      </trkpt>
      <trkpt lat="43.57888" lon="3.00644">
        <ele>228.10059</ele>
        <time>2026-08-30T07:52:59+02:00</time>
      </trkpt>
      <trkpt lat="43.5789" lon="3.00637">
        <ele>228.5</ele>
        <time>2026-08-30T07:53:03+02:00</time>
      </trkpt>
      <trkpt lat="43.57889" lon="3.00635">
        <ele>228.5</ele>
        <time>2026-08-30T07:53:04+02:00</time>
      </trkpt>
      <trkpt lat="43.57889" lon="3.00628">
        <ele>228.90039</ele>
        <time>2026-08-30T07:53:08+02:00</time>
      </trkpt>
      <trkpt lat="43.57889" lon="3.00626">
        <ele>228.90039</ele>
        <time>2026-08-30T07:53:09+02:00</time>
      </trkpt>
      <trkpt lat="43.5789" lon="3.0062">
        <ele>231.2002</ele>
        <time>2026-08-30T07:53:13+02:00</time>
      </trkpt>
      <trkpt lat="43.5789" lon="3.00618">
        <ele>231.2002</ele>
        <time>2026-08-30T07:53:14+02:00</time>
      </trkpt>
      <trkpt lat="43.57891" lon="3.00612">
        <ele>231.5</ele>
        <time>2026-08-30T07:53:18+02:00</time>
      </trkpt>
      <trkpt lat="43.57892" lon="3.0061">
        <ele>231.5</ele>
        <time>2026-08-30T07:53:19+02:00</time>
      </trkpt>
      <trkpt lat="43.57892" lon="3.00602">
        <ele>231.7002</ele>
        <time>2026-08-30T07:53:23+02:00</time>
      </trkpt>
      <trkpt lat="43.57892" lon="3.006">
        <ele>231.7002</ele>
        <time>2026-08-30T07:53:24+02:00</time>
      </trkpt>
      <trkpt lat="43.57892" lon="3.00593">
        <ele>232</ele>
        <time>2026-08-30T07:53:28+02:00</time>
      </trkpt>
      <trkpt lat="43.57892" lon="3.00592">
        <ele>232</ele>
        <time>2026-08-30T07:53:29+02:00</time>
      </trkpt>
      <trkpt lat="43.57892" lon="3.00585">
        <ele>232.2998</ele>
        <time>2026-08-30T07:53:33+02:00</time>
      </trkpt>
      <trkpt lat="43.57892" lon="3.00583">
        <ele>232.2998</ele>
        <time>2026-08-30T07:53:34+02:00</time>
      </trkpt>
      <trkpt lat="43.5789" lon="3.00577">
        <ele>232.7002</ele>
        <time>2026-08-30T07:53:38+02:00</time>
      </trkpt>
      <trkpt lat="43.5789" lon="3.00576">
        <ele>230.7998</ele>
        <time>2026-08-30T07:53:39+02:00</time>
      </trkpt>
      <trkpt lat="43.57888" lon="3.00569">
        <ele>231.10059</ele>
        <time>2026-08-30T07:53:43+02:00</time>
      </trkpt>
      <trkpt lat="43.57887" lon="3.00568">
        <ele>231.10059</ele>
        <time>2026-08-30T07:53:44+02:00</time>
      </trkpt>
      <trkpt lat="43.57886" lon="3.00561">
        <ele>231.2998</ele>
        <time>2026-08-30T07:53:48+02:00</time>
      </trkpt>
      <trkpt lat="43.57886" lon="3.00559">
        <ele>231.2998</ele>
        <time>2026-08-30T07:53:49+02:00</time>
      </trkpt>
      <trkpt lat="43.5789" lon="3.00554">
        <ele>233.2998</ele>
        <time>2026-08-30T07:53:53+02:00</time>
      </trkpt>
      <trkpt lat="43.57892" lon="3.00553">
        <ele>233.5</ele>
        <time>2026-08-30T07:53:54+02:00</time>
      </trkpt>
      <trkpt lat="43.57897" lon="3.00551">
        <ele>235.5</ele>
        <time>2026-08-30T07:53:58+02:00</time>
      </trkpt>
      <trkpt lat="43.57898" lon="3.00551">
        <ele>235.5</ele>
        <time>2026-08-30T07:53:59+02:00</time>
      </trkpt>
      <trkpt lat="43.57902" lon="3.0055">
        <ele>235.5</ele>
        <time>2026-08-30T07:54:03+02:00</time>
      </trkpt>
      <trkpt lat="43.57903" lon="3.00549">
        <ele>237.60059</ele>
        <time>2026-08-30T07:54:04+02:00</time>
      </trkpt>
      <trkpt lat="43.57906" lon="3.00548">
        <ele>237.60059</ele>
        <time>2026-08-30T07:54:08+02:00</time>
      </trkpt>
      <trkpt lat="43.57907" lon="3.00548">
        <ele>237.60059</ele>
        <time>2026-08-30T07:54:09+02:00</time>
      </trkpt>
      <trkpt lat="43.57911" lon="3.00548">
        <ele>239.7998</ele>
        <time>2026-08-30T07:54:13+02:00</time>
      </trkpt>
      <trkpt lat="43.57911" lon="3.00548">
        <ele>239.7998</ele>
        <time>2026-08-30T07:54:14+02:00</time>
      </trkpt>
      <trkpt lat="43.57913" lon="3.00546">
        <ele>239.7998</ele>
        <time>2026-08-30T07:54:18+02:00</time>
      </trkpt>
      <trkpt lat="43.57914" lon="3.00546">
        <ele>239.7998</ele>
        <time>2026-08-30T07:54:19+02:00</time>
      </trkpt>
      <trkpt lat="43.57918" lon="3.00549">
        <ele>241.90039</ele>
        <time>2026-08-30T07:54:23+02:00</time>
      </trkpt>
      <trkpt lat="43.57919" lon="3.00549">
        <ele>241.90039</ele>
        <time>2026-08-30T07:54:24+02:00</time>
      </trkpt>
      <trkpt lat="43.57923" lon="3.0055">
        <ele>244</ele>
        <time>2026-08-30T07:54:28+02:00</time>
      </trkpt>
      <trkpt lat="43.57924" lon="3.0055">
        <ele>244</ele>
        <time>2026-08-30T07:54:29+02:00</time>
      </trkpt>
      <trkpt lat="43.57927" lon="3.00551">
        <ele>244</ele>
        <time>2026-08-30T07:54:33+02:00</time>
      </trkpt>
      <trkpt lat="43.57928" lon="3.00551">
        <ele>246.2002</ele>
        <time>2026-08-30T07:54:34+02:00</time>
      </trkpt>
      <trkpt lat="43.5793" lon="3.00551">
        <ele>246.2002</ele>
        <time>2026-08-30T07:54:38+02:00</time>
      </trkpt>
      <trkpt lat="43.57931" lon="3.00551">
        <ele>246.2002</ele>
        <time>2026-08-30T07:54:39+02:00</time>
      </trkpt>
      <trkpt lat="43.57935" lon="3.00554">
        <ele>248.10059</ele>
        <time>2026-08-30T07:54:43+02:00</time>
      </trkpt>
      <trkpt lat="43.57935" lon="3.00555">
        <ele>248.10059</ele>
        <time>2026-08-30T07:54:44+02:00</time>
      </trkpt>
      <trkpt lat="43.57939" lon="3.00557">
        <ele>248.10059</ele>
        <time>2026-08-30T07:54:48+02:00</time>
      </trkpt>
      <trkpt lat="43.57939" lon="3.00557">
        <ele>248.10059</ele>
        <time>2026-08-30T07:54:49+02:00</time>
      </trkpt>
      <trkpt lat="43.57942" lon="3.00555">
        <ele>250.2002</ele>
        <time>2026-08-30T07:54:53+02:00</time>
      </trkpt>
      <trkpt lat="43.57942" lon="3.00554">
        <ele>250.2002</ele>
        <time>2026-08-30T07:54:54+02:00</time>
      </trkpt>
      <trkpt lat="43.57943" lon="3.0055">
        <ele>250.5</ele>
        <time>2026-08-30T07:54:58+02:00</time>
      </trkpt>
      <trkpt lat="43.57944" lon="3.0055">
        <ele>250.5</ele>
        <time>2026-08-30T07:54:59+02:00</time>
      </trkpt>
      <trkpt lat="43.57947" lon="3.00548">
        <ele>252.60059</ele>
        <time>2026-08-30T07:55:03+02:00</time>
      </trkpt>
      <trkpt lat="43.57947" lon="3.00548">
        <ele>252.60059</ele>
        <time>2026-08-30T07:55:04+02:00</time>
      </trkpt>
      <trkpt lat="43.57948" lon="3.00542">
        <ele>253</ele>
        <time>2026-08-30T07:55:08+02:00</time>
      </trkpt>
      <trkpt lat="43.57947" lon="3.0054">
        <ele>253</ele>
        <time>2026-08-30T07:55:09+02:00</time>
      </trkpt>
      <trkpt lat="43.57947" lon="3.00534">
        <ele>253.2998</ele>
        <time>2026-08-30T07:55:13+02:00</time>
      </trkpt>
      <trkpt lat="43.57947" lon="3.00532">
        <ele>253.2998</ele>
        <time>2026-08-30T07:55:14+02:00</time>
      </trkpt>
      <trkpt lat="43.57948" lon="3.00527">
        <ele>253.60059</ele>
        <time>2026-08-30T07:55:18+02:00</time>
      </trkpt>
      <trkpt lat="43.57949" lon="3.00525">
        <ele>253.60059</ele>
        <time>2026-08-30T07:55:19+02:00</time>
      </trkpt>
      <trkpt lat="43.5795" lon="3.00519">
        <ele>253.60059</ele>
        <time>2026-08-30T07:55:23+02:00</time>
      </trkpt>
      <trkpt lat="43.5795" lon="3.00517">
        <ele>253.90039</ele>
        <time>2026-08-30T07:55:24+02:00</time>
      </trkpt>
      <trkpt lat="43.5795" lon="3.0051">
        <ele>254.2998</ele>
        <time>2026-08-30T07:55:28+02:00</time>
      </trkpt>
      <trkpt lat="43.5795" lon="3.00508">
        <ele>254.2998</ele>
        <time>2026-08-30T07:55:29+02:00</time>
      </trkpt>
      <trkpt lat="43.57952" lon="3.00501">
        <ele>254.60059</ele>
        <time>2026-08-30T07:55:33+02:00</time>
      </trkpt>
      <trkpt lat="43.57952" lon="3.005">
        <ele>254.60059</ele>
        <time>2026-08-30T07:55:34+02:00</time>
      </trkpt>
      <trkpt lat="43.57952" lon="3.00492">
        <ele>257.2002</ele>
        <time>2026-08-30T07:55:38+02:00</time>
      </trkpt>
      <trkpt lat="43.57953" lon="3.0049">
        <ele>257.2002</ele>
        <time>2026-08-30T07:55:39+02:00</time>
      </trkpt>
      <trkpt lat="43.57953" lon="3.00482">
        <ele>257.4004</ele>
        <time>2026-08-30T07:55:43+02:00</time>
      </trkpt>
      <trkpt lat="43.57952" lon="3.0048">
        <ele>257.4004</ele>
        <time>2026-08-30T07:55:44+02:00</time>
      </trkpt>
      <trkpt lat="43.57951" lon="3.00472">
        <ele>255.5</ele>
        <time>2026-08-30T07:55:48+02:00</time>
      </trkpt>
      <trkpt lat="43.5795" lon="3.0047">
        <ele>255.5</ele>
        <time>2026-08-30T07:55:49+02:00</time>
      </trkpt>
      <trkpt lat="43.57949" lon="3.00463">
        <ele>255.7002</ele>
        <time>2026-08-30T07:55:53+02:00</time>
      </trkpt>
      <trkpt lat="43.57949" lon="3.00462">
        <ele>255.7002</ele>
        <time>2026-08-30T07:55:54+02:00</time>
      </trkpt>
      <trkpt lat="43.57948" lon="3.00454">
        <ele>255.90039</ele>
        <time>2026-08-30T07:55:58+02:00</time>
      </trkpt>
      <trkpt lat="43.57948" lon="3.00452">
        <ele>255.90039</ele>
        <time>2026-08-30T07:55:59+02:00</time>
      </trkpt>
      <trkpt lat="43.57948" lon="3.00444">
        <ele>256.1006</ele>
        <time>2026-08-30T07:56:03+02:00</time>
      </trkpt>
      <trkpt lat="43.57948" lon="3.00442">
        <ele>256.1006</ele>
        <time>2026-08-30T07:56:04+02:00</time>
      </trkpt>
      <trkpt lat="43.57946" lon="3.00435">
        <ele>256.4004</ele>
        <time>2026-08-30T07:56:08+02:00</time>
      </trkpt>
      <trkpt lat="43.57946" lon="3.00433">
        <ele>254.40039</ele>
        <time>2026-08-30T07:56:09+02:00</time>
      </trkpt>
      <trkpt lat="43.57944" lon="3.00427">
        <ele>254.7998</ele>
        <time>2026-08-30T07:56:13+02:00</time>
      </trkpt>
      <trkpt lat="43.57944" lon="3.00426">
        <ele>254.7998</ele>
        <time>2026-08-30T07:56:14+02:00</time>
      </trkpt>
      <trkpt lat="43.57944" lon="3.00418">
        <ele>255.10059</ele>
        <time>2026-08-30T07:56:18+02:00</time>
      </trkpt>
      <trkpt lat="43.57944" lon="3.00416">
        <ele>255.2998</ele>
        <time>2026-08-30T07:56:19+02:00</time>
      </trkpt>
      <trkpt lat="43.57943" lon="3.00407">
        <ele>255.60059</ele>
        <time>2026-08-30T07:56:23+02:00</time>
      </trkpt>
      <trkpt lat="43.57943" lon="3.00405">
        <ele>255.60059</ele>
        <time>2026-08-30T07:56:24+02:00</time>
      </trkpt>
      <trkpt lat="43.57941" lon="3.00398">
        <ele>255.90039</ele>
        <time>2026-08-30T07:56:28+02:00</time>
      </trkpt>
      <trkpt lat="43.57941" lon="3.00396">
        <ele>255.90039</ele>
        <time>2026-08-30T07:56:29+02:00</time>
      </trkpt>
      <trkpt lat="43.5794" lon="3.00388">
        <ele>256.2998</ele>
        <time>2026-08-30T07:56:33+02:00</time>
      </trkpt>
      <trkpt lat="43.5794" lon="3.00386">
        <ele>256.2998</ele>
        <time>2026-08-30T07:56:34+02:00</time>
      </trkpt>
      <trkpt lat="43.57938" lon="3.00379">
        <ele>254.5</ele>
        <time>2026-08-30T07:56:38+02:00</time>
      </trkpt>
      <trkpt lat="43.57938" lon="3.00378">
        <ele>254.5</ele>
        <time>2026-08-30T07:56:39+02:00</time>
      </trkpt>
      <trkpt lat="43.57936" lon="3.00372">
        <ele>254.7002</ele>
        <time>2026-08-30T07:56:43+02:00</time>
      </trkpt>
      <trkpt lat="43.57935" lon="3.0037">
        <ele>254.7002</ele>
        <time>2026-08-30T07:56:44+02:00</time>
      </trkpt>
      <trkpt lat="43.57933" lon="3.00364">
        <ele>252.7998</ele>
        <time>2026-08-30T07:56:48+02:00</time>
      </trkpt>
      <trkpt lat="43.57932" lon="3.00362">
        <ele>252.7998</ele>
        <time>2026-08-30T07:56:49+02:00</time>
      </trkpt>
      <trkpt lat="43.57931" lon="3.00356">
        <ele>252.7998</ele>
        <time>2026-08-30T07:56:53+02:00</time>
      </trkpt>
      <trkpt lat="43.5793" lon="3.00354">
        <ele>253.10059</ele>
        <time>2026-08-30T07:56:54+02:00</time>
      </trkpt>
      <trkpt lat="43.57927" lon="3.00346">
        <ele>253.2998</ele>
        <time>2026-08-30T07:56:58+02:00</time>
      </trkpt>
      <trkpt lat="43.57927" lon="3.00344">
        <ele>251.2002</ele>
        <time>2026-08-30T07:56:59+02:00</time>
      </trkpt>
      <trkpt lat="43.57926" lon="3.00335">
        <ele>251.40039</ele>
        <time>2026-08-30T07:57:03+02:00</time>
      </trkpt>
      <trkpt lat="43.57926" lon="3.00333">
        <ele>251.40039</ele>
        <time>2026-08-30T07:57:04+02:00</time>
      </trkpt>
      <trkpt lat="43.57926" lon="3.00325">
        <ele>251.60059</ele>
        <time>2026-08-30T07:57:08+02:00</time>
      </trkpt>
      <trkpt lat="43.57926" lon="3.00323">
        <ele>251.60059</ele>
        <time>2026-08-30T07:57:09+02:00</time>
      </trkpt>
      <trkpt lat="43.57925" lon="3.00315">
        <ele>251.7998</ele>
        <time>2026-08-30T07:57:13+02:00</time>
      </trkpt>
      <trkpt lat="43.57925" lon="3.00313">
        <ele>251.7998</ele>
        <time>2026-08-30T07:57:14+02:00</time>
      </trkpt>
      <trkpt lat="43.57924" lon="3.00305">
        <ele>251.90039</ele>
        <time>2026-08-30T07:57:18+02:00</time>
      </trkpt>
      <trkpt lat="43.57924" lon="3.00303">
        <ele>252.10059</ele>
        <time>2026-08-30T07:57:19+02:00</time>
      </trkpt>
      <trkpt lat="43.57924" lon="3.00296">
        <ele>252.10059</ele>
        <time>2026-08-30T07:57:23+02:00</time>
      </trkpt>
      <trkpt lat="43.57925" lon="3.00294">
        <ele>252.2998</ele>
        <time>2026-08-30T07:57:24+02:00</time>
      </trkpt>
      <trkpt lat="43.57927" lon="3.00289">
        <ele>252.2998</ele>
        <time>2026-08-30T07:57:28+02:00</time>
      </trkpt>
      <trkpt lat="43.57927" lon="3.00287">
        <ele>252.2998</ele>
        <time>2026-08-30T07:57:29+02:00</time>
      </trkpt>
      <trkpt lat="43.57925" lon="3.0028">
        <ele>252.40039</ele>
        <time>2026-08-30T07:57:33+02:00</time>
      </trkpt>
      <trkpt lat="43.57925" lon="3.00277">
        <ele>252.60059</ele>
        <time>2026-08-30T07:57:34+02:00</time>
      </trkpt>
      <trkpt lat="43.57925" lon="3.00268">
        <ele>252.7002</ele>
        <time>2026-08-30T07:57:38+02:00</time>
      </trkpt>
      <trkpt lat="43.57925" lon="3.00265">
        <ele>252.7002</ele>
        <time>2026-08-30T07:57:39+02:00</time>
      </trkpt>
      <trkpt lat="43.57926" lon="3.00257">
        <ele>252.7998</ele>
        <time>2026-08-30T07:57:43+02:00</time>
      </trkpt>
      <trkpt lat="43.57927" lon="3.00255">
        <ele>252.7998</ele>
        <time>2026-08-30T07:57:44+02:00</time>
      </trkpt>
      <trkpt lat="43.57928" lon="3.00249">
        <ele>255.2998</ele>
        <time>2026-08-30T07:57:48+02:00</time>
      </trkpt>
      <trkpt lat="43.57928" lon="3.00247">
        <ele>255.2998</ele>
        <time>2026-08-30T07:57:49+02:00</time>
      </trkpt>
      <trkpt lat="43.5793" lon="3.00241">
        <ele>255.2002</ele>
        <time>2026-08-30T07:57:53+02:00</time>
      </trkpt>
      <trkpt lat="43.57931" lon="3.00239">
        <ele>255.2002</ele>
        <time>2026-08-30T07:57:54+02:00</time>
      </trkpt>
      <trkpt lat="43.57933" lon="3.00233">
        <ele>255.10059</ele>
        <time>2026-08-30T07:57:58+02:00</time>
      </trkpt>
      <trkpt lat="43.57934" lon="3.00232">
        <ele>257.6006</ele>
        <time>2026-08-30T07:57:59+02:00</time>
      </trkpt>
      <trkpt lat="43.57936" lon="3.00232">
        <ele>257.6006</ele>
        <time>2026-08-30T07:58:03+02:00</time>
      </trkpt>
      <trkpt lat="43.57937" lon="3.00233">
        <ele>257.6006</ele>
        <time>2026-08-30T07:58:04+02:00</time>
      </trkpt>
      <trkpt lat="43.5794" lon="3.00232">
        <ele>260.1006</ele>
        <time>2026-08-30T07:58:08+02:00</time>
      </trkpt>
      <trkpt lat="43.5794" lon="3.00232">
        <ele>260.1006</ele>
        <time>2026-08-30T07:58:09+02:00</time>
      </trkpt>
      <trkpt lat="43.57942" lon="3.00235">
        <ele>260.1006</ele>
        <time>2026-08-30T07:58:13+02:00</time>
      </trkpt>
      <trkpt lat="43.57943" lon="3.00236">
        <ele>260.1006</ele>
        <time>2026-08-30T07:58:14+02:00</time>
      </trkpt>
      <trkpt lat="43.57946" lon="3.00237">
        <ele>262.6006</ele>
        <time>2026-08-30T07:58:18+02:00</time>
      </trkpt>
      <trkpt lat="43.57947" lon="3.00237">
        <ele>262.6006</ele>
        <time>2026-08-30T07:58:19+02:00</time>
      </trkpt>
      <trkpt lat="43.57949" lon="3.00239">
        <ele>262.6006</ele>
        <time>2026-08-30T07:58:23+02:00</time>
      </trkpt>
      <trkpt lat="43.57949" lon="3.0024">
        <ele>262.6006</ele>
        <time>2026-08-30T07:58:24+02:00</time>
      </trkpt>
      <trkpt lat="43.5795" lon="3.00244">
        <ele>262.6006</ele>
        <time>2026-08-30T07:58:28+02:00</time>
      </trkpt>
      <trkpt lat="43.57951" lon="3.00245">
        <ele>262.5</ele>
        <time>2026-08-30T07:58:29+02:00</time>
      </trkpt>
      <trkpt lat="43.57953" lon="3.00248">
        <ele>265</ele>
        <time>2026-08-30T07:58:33+02:00</time>
      </trkpt>
      <trkpt lat="43.57953" lon="3.00249">
        <ele>265</ele>
        <time>2026-08-30T07:58:34+02:00</time>
      </trkpt>
      <trkpt lat="43.57956" lon="3.00253">
        <ele>264.7998</ele>
        <time>2026-08-30T07:58:38+02:00</time>
      </trkpt>
      <trkpt lat="43.57956" lon="3.00254">
        <ele>264.7998</ele>
        <time>2026-08-30T07:58:39+02:00</time>
      </trkpt>
      <trkpt lat="43.57958" lon="3.00257">
        <ele>264.7998</ele>
        <time>2026-08-30T07:58:43+02:00</time>
      </trkpt>
      <trkpt lat="43.57958" lon="3.00257">
        <ele>264.7998</ele>
        <time>2026-08-30T07:58:44+02:00</time>
      </trkpt>
      <trkpt lat="43.57959" lon="3.00259">
        <ele>267.2998</ele>
        <time>2026-08-30T07:58:48+02:00</time>
      </trkpt>
      <trkpt lat="43.5796" lon="3.0026">
        <ele>267.2998</ele>
        <time>2026-08-30T07:58:49+02:00</time>
      </trkpt>
      <trkpt lat="43.5796" lon="3.00261">
        <ele>267.2998</ele>
        <time>2026-08-30T07:58:53+02:00</time>
      </trkpt>
      <trkpt lat="43.57961" lon="3.00261">
        <ele>267.2998</ele>
        <time>2026-08-30T07:58:54+02:00</time>
      </trkpt>
      <trkpt lat="43.57962" lon="3.00263">
        <ele>267.1006</ele>
        <time>2026-08-30T07:58:56+02:00</time>
        <extensions>
          <gpxtpx:TrackPointExtension xmlns:gpxtpx="http://www.garmin.com/xmlschemas/TrackPointExtension/v1">
            <gpxtpx:hr>123</gpxtpx:hr>
          </gpxtpx:TrackPointExtension>
        </extensions>
      </trkpt>
      <trkpt lat="43.57965" lon="3.00265">
        <ele>269.6006</ele>
        <time>2026-08-30T07:58:57+02:00</time>
      </trkpt>
      <trkpt lat="43.57967" lon="3.00267">
        <ele>269.6006</ele>
        <time>2026-08-30T07:59:01+02:00</time>
        <extensions>
          <gpxtpx:TrackPointExtension xmlns:gpxtpx="http://www.garmin.com/xmlschemas/TrackPointExtension/v1">
            <gpxtpx:hr>124</gpxtpx:hr>
          </gpxtpx:TrackPointExtension>
        </extensions>
      </trkpt>
      <trkpt lat="43.57968" lon="3.00267">
        <ele>269.6006</ele>
        <time>2026-08-30T07:59:02+02:00</time>
      </trkpt>
      <trkpt lat="43.5797" lon="3.0027">
        <ele>269.4004</ele>
        <time>2026-08-30T07:59:06+02:00</time>
        <extensions>
          <gpxtpx:TrackPointExtension xmlns:gpxtpx="http://www.garmin.com/xmlschemas/TrackPointExtension/v1">
            <gpxtpx:hr>124</gpxtpx:hr>
          </gpxtpx:TrackPointExtension>
        </extensions>
      </trkpt>
      <trkpt lat="43.5797" lon="3.00271">
        <ele>269.4004</ele>
        <time>2026-08-30T07:59:07+02:00</time>
      </trkpt>
      <trkpt lat="43.57971" lon="3.00273">
        <ele>272</ele>
        <time>2026-08-30T07:59:11+02:00</time>
        <extensions>
          <gpxtpx:TrackPointExtension xmlns:gpxtpx="http://www.garmin.com/xmlschemas/TrackPointExtension/v1">
            <gpxtpx:hr>122</gpxtpx:hr>
          </gpxtpx:TrackPointExtension>
        </extensions>
      </trkpt>
      <trkpt lat="43.57975" lon="3.00275">
        <ele>272</ele>
        <time>2026-08-30T07:59:12+02:00</time>
      </trkpt>
      <trkpt lat="43.57979" lon="3.00279">
        <ele>274.6006</ele>
        <time>2026-08-30T07:59:16+02:00</time>
      </trkpt>
      <trkpt lat="43.5798" lon="3.00279">
        <ele>274.2998</ele>
        <time>2026-08-30T07:59:17+02:00</time>
        <extensions>
          <gpxtpx:TrackPointExtension xmlns:gpxtpx="http://www.garmin.com/xmlschemas/TrackPointExtension/v1">
            <gpxtpx:hr>121</gpxtpx:hr>
          </gpxtpx:TrackPointExtension>
        </extensions>
      </trkpt>
      <trkpt lat="43.57982" lon="3.00281">
        <ele>274.2998</ele>
        <time>2026-08-30T07:59:21+02:00</time>
      </trkpt>
      <trkpt lat="43.57983" lon="3.00281">
        <ele>274.2998</ele>
        <time>2026-08-30T07:59:22+02:00</time>
        <extensions>
          <gpxtpx:TrackPointExtension xmlns:gpxtpx="http://www.garmin.com/xmlschemas/TrackPointExtension/v1">
            <gpxtpx:hr>122</gpxtpx:hr>
          </gpxtpx:TrackPointExtension>
        </extensions>
      </trkpt>
      <trkpt lat="43.57983" lon="3.00282">
        <ele>277</ele>
        <time>2026-08-30T07:59:26+02:00</time>
        <extensions>
          <gpxtpx:TrackPointExtension xmlns:gpxtpx="http://www.garmin.com/xmlschemas/TrackPointExtension/v1">
            <gpxtpx:hr>121</gpxtpx:hr>
          </gpxtpx:TrackPointExtension>
        </extensions>
      </trkpt>
      <trkpt lat="43.57983" lon="3.00282">
        <ele>277</ele>
        <time>2026-08-30T07:59:27+02:00</time>
      </trkpt>
      <trkpt lat="43.57984" lon="3.00282">
        <ele>277</ele>
        <time>2026-08-30T07:59:31+02:00</time>
      </trkpt>
      <trkpt lat="43.57984" lon="3.00283">
        <ele>277</ele>
        <time>2026-08-30T07:59:32+02:00</time>
        <extensions>
          <gpxtpx:TrackPointExtension xmlns:gpxtpx="http://www.garmin.com/xmlschemas/TrackPointExtension/v1">
            <gpxtpx:hr>122</gpxtpx:hr>
          </gpxtpx:TrackPointExtension>
        </extensions>
      </trkpt>
      <trkpt lat="43.57982" lon="3.00289">
        <ele>273.9004</ele>
        <time>2026-08-30T07:59:36+02:00</time>
        <extensions>
          <gpxtpx:TrackPointExtension xmlns:gpxtpx="http://www.garmin.com/xmlschemas/TrackPointExtension/v1">
            <gpxtpx:hr>121</gpxtpx:hr>
          </gpxtpx:TrackPointExtension>
        </extensions>
      </trkpt>
      <trkpt lat="43.57982" lon="3.00291">
        <ele>273.9004</ele>
        <time>2026-08-30T07:59:37+02:00</time>
      </trkpt>
      <trkpt lat="43.57983" lon="3.00298">
        <ele>273.6006</ele>
        <time>2026-08-30T07:59:41+02:00</time>
      </trkpt>
      <trkpt lat="43.57983" lon="3.00299">
        <ele>273.6006</ele>
        <time>2026-08-30T07:59:42+02:00</time>
        <extensions>
          <gpxtpx:TrackPointExtension xmlns:gpxtpx="http://www.garmin.com/xmlschemas/TrackPointExtension/v1">
            <gpxtpx:hr>122</gpxtpx:hr>
          </gpxtpx:TrackPointExtension>
        </extensions>
      </trkpt>
      <trkpt lat="43.57984" lon="3.00305">
        <ele>275.7002</ele>
        <time>2026-08-30T07:59:46+02:00</time>
        <extensions>
          <gpxtpx:TrackPointExtension xmlns:gpxtpx="http://www.garmin.com/xmlschemas/TrackPointExtension/v1">
            <gpxtpx:hr>119</gpxtpx:hr>
          </gpxtpx:TrackPointExtension>
        </extensions>
      </trkpt>
      <trkpt lat="43.57984" lon="3.00307">
        <ele>275.7002</ele>
        <time>2026-08-30T07:59:47+02:00</time>
      </trkpt>
      <trkpt lat="43.57985" lon="3.00313">
        <ele>275.7002</ele>
        <time>2026-08-30T07:59:51+02:00</time>
      </trkpt>
      <trkpt lat="43.57985" lon="3.00314">
        <ele>275.1006</ele>
        <time>2026-08-30T07:59:52+02:00</time>
        <extensions>
          <gpxtpx:TrackPointExtension xmlns:gpxtpx="http://www.garmin.com/xmlschemas/TrackPointExtension/v1">
            <gpxtpx:hr>115</gpxtpx:hr>
          </gpxtpx:TrackPointExtension>
        </extensions>
      </trkpt>
      <trkpt lat="43.57987" lon="3.00319">
        <ele>275.1006</ele>
        <time>2026-08-30T07:59:56+02:00</time>
        <extensions>
          <gpxtpx:TrackPointExtension xmlns:gpxtpx="http://www.garmin.com/xmlschemas/TrackPointExtension/v1">
            <gpxtpx:hr>115</gpxtpx:hr>
          </gpxtpx:TrackPointExtension>
        </extensions>
      </trkpt>
      <trkpt lat="43.57987" lon="3.00319">
        <ele>275.1006</ele>
        <time>2026-08-30T07:59:57+02:00</time>
      </trkpt>
      <trkpt lat="43.57986" lon="3.00319">
        <ele>275.1006</ele>
        <time>2026-08-30T08:00:01+02:00</time>
      </trkpt>
      <trkpt lat="43.57986" lon="3.00319">
        <ele>275.1006</ele>
        <time>2026-08-30T08:00:02+02:00</time>
        <extensions>
          <gpxtpx:TrackPointExtension xmlns:gpxtpx="http://www.garmin.com/xmlschemas/TrackPointExtension/v1">
            <gpxtpx:hr>120</gpxtpx:hr>
          </gpxtpx:TrackPointExtension>
        </extensions>
      </trkpt>
      <trkpt lat="43.57986" lon="3.00319">
        <ele>275.1006</ele>
        <time>2026-08-30T08:00:06+02:00</time>
        <extensions>
          <gpxtpx:TrackPointExtension xmlns:gpxtpx="http://www.garmin.com/xmlschemas/TrackPointExtension/v1">
            <gpxtpx:hr>129</gpxtpx:hr>
          </gpxtpx:TrackPointExtension>
        </extensions>
      </trkpt>
      <trkpt lat="43.57986" lon="3.0033">
        <ele>273.7998</ele>
        <time>2026-08-30T08:00:07+02:00</time>
      </trkpt>
      <trkpt lat="43.57986" lon="3.00337">
        <ele>273.7998</ele>
        <time>2026-08-30T08:00:11+02:00</time>
        <extensions>
          <gpxtpx:TrackPointExtension xmlns:gpxtpx="http://www.garmin.com/xmlschemas/TrackPointExtension/v1">
            <gpxtpx:hr>128</gpxtpx:hr>
          </gpxtpx:TrackPointExtension>
        </extensions>
      </trkpt>
      <trkpt lat="43.57986" lon="3.00338">
        <ele>273.7998</ele>
        <time>2026-08-30T08:00:12+02:00</time>
      </trkpt>
      <trkpt lat="43.57986" lon="3.00344">
        <ele>273.2002</ele>
        <time>2026-08-30T08:00:16+02:00</time>
        <extensions>
          <gpxtpx:TrackPointExtension xmlns:gpxtpx="http://www.garmin.com/xmlschemas/TrackPointExtension/v1">
            <gpxtpx:hr>127</gpxtpx:hr>
          </gpxtpx:TrackPointExtension>
        </extensions>
      </trkpt>
      <trkpt lat="43.57986" lon="3.00344">
        <ele>273.2002</ele>
        <time>2026-08-30T08:00:17+02:00</time>
      </trkpt>
      <trkpt lat="43.57985" lon="3.00339">
        <ele>273.7998</ele>
        <time>2026-08-30T08:00:21+02:00</time>
        <extensions>
          <gpxtpx:TrackPointExtension xmlns:gpxtpx="http://www.garmin.com/xmlschemas/TrackPointExtension/v1">
            <gpxtpx:hr>124</gpxtpx:hr>
          </gpxtpx:TrackPointExtension>
        </extensions>
      </trkpt>
      <trkpt lat="43.57985" lon="3.00337">
        <ele>273.7998</ele>
        <time>2026-08-30T08:00:22+02:00</time>
      </trkpt>
      <trkpt lat="43.57984" lon="3.0033">
        <ele>273.7998</ele>
        <time>2026-08-30T08:00:26+02:00</time>
        <extensions>
          <gpxtpx:TrackPointExtension xmlns:gpxtpx="http://www.garmin.com/xmlschemas/TrackPointExtension/v1">
            <gpxtpx:hr>122</gpxtpx:hr>
          </gpxtpx:TrackPointExtension>
        </extensions>
      </trkpt>
      <trkpt lat="43.57983" lon="3.00328">
        <ele>274.4004</ele>
        <time>2026-08-30T08:00:27+02:00</time>
      </trkpt>
      <trkpt lat="43.57983" lon="3.00322">
        <ele>272.1006</ele>
        <time>2026-08-30T08:00:31+02:00</time>
        <extensions>
          <gpxtpx:TrackPointExtension xmlns:gpxtpx="http://www.garmin.com/xmlschemas/TrackPointExtension/v1">
            <gpxtpx:hr>122</gpxtpx:hr>
          </gpxtpx:TrackPointExtension>
        </extensions>
      </trkpt>
      <trkpt lat="43.57982" lon="3.0032">
        <ele>272.7002</ele>
        <time>2026-08-30T08:00:32+02:00</time>
      </trkpt>
      <trkpt lat="43.5798" lon="3.00312">
        <ele>273.2002</ele>
        <time>2026-08-30T08:00:36+02:00</time>
        <extensions>
          <gpxtpx:TrackPointExtension xmlns:gpxtpx="http://www.garmin.com/xmlschemas/TrackPointExtension/v1">
            <gpxtpx:hr>121</gpxtpx:hr>
          </gpxtpx:TrackPointExtension>
        </extensions>
      </trkpt>
      <trkpt lat="43.5798" lon="3.0031">
        <ele>273.2002</ele>
        <time>2026-08-30T08:00:37+02:00</time>
      </trkpt>
      <trkpt lat="43.57978" lon="3.00304">
        <ele>273.6006</ele>
        <time>2026-08-30T08:00:41+02:00</time>
        <extensions>
          <gpxtpx:TrackPointExtension xmlns:gpxtpx="http://www.garmin.com/xmlschemas/TrackPointExtension/v1">
            <gpxtpx:hr>120</gpxtpx:hr>
          </gpxtpx:TrackPointExtension>
        </extensions>
      </trkpt>
      <trkpt lat="43.57977" lon="3.00302">
        <ele>273.6006</ele>
        <time>2026-08-30T08:00:42+02:00</time>
      </trkpt>
      <trkpt lat="43.57977" lon="3.00297">
        <ele>273.6006</ele>
        <time>2026-08-30T08:00:46+02:00</time>
        <extensions>
          <gpxtpx:TrackPointExtension xmlns:gpxtpx="http://www.garmin.com/xmlschemas/TrackPointExtension/v1">
            <gpxtpx:hr>117</gpxtpx:hr>
          </gpxtpx:TrackPointExtension>
        </extensions>
      </trkpt>
      <trkpt lat="43.57977" lon="3.00296">
        <ele>273.9004</ele>
        <time>2026-08-30T08:00:47+02:00</time>
      </trkpt>
      <trkpt lat="43.57979" lon="3.0029">
        <ele>273.9004</ele>
        <time>2026-08-30T08:00:51+02:00</time>
        <extensions>
          <gpxtpx:TrackPointExtension xmlns:gpxtpx="http://www.garmin.com/xmlschemas/TrackPointExtension/v1">
            <gpxtpx:hr>116</gpxtpx:hr>
          </gpxtpx:TrackPointExtension>
        </extensions>
      </trkpt>
      <trkpt lat="43.57979" lon="3.00288">
        <ele>273.9004</ele>
        <time>2026-08-30T08:00:52+02:00</time>
      </trkpt>
      <trkpt lat="43.57977" lon="3.00283">
        <ele>274.2998</ele>
        <time>2026-08-30T08:00:56+02:00</time>
        <extensions>
          <gpxtpx:TrackPointExtension xmlns:gpxtpx="http://www.garmin.com/xmlschemas/TrackPointExtension/v1">
            <gpxtpx:hr>116</gpxtpx:hr>
          </gpxtpx:TrackPointExtension>
        </extensions>
      </trkpt>
      <trkpt lat="43.57977" lon="3.00282">
        <ele>271.7002</ele>
        <time>2026-08-30T08:00:57+02:00</time>
      </trkpt>
      <trkpt lat="43.57973" lon="3.00279">
        <ele>271.7002</ele>
        <time>2026-08-30T08:01:01+02:00</time>
        <extensions>
          <gpxtpx:TrackPointExtension xmlns:gpxtpx="http://www.garmin.com/xmlschemas/TrackPointExtension/v1">
            <gpxtpx:hr>116</gpxtpx:hr>
          </gpxtpx:TrackPointExtension>
        </extensions>
      </trkpt>
      <trkpt lat="43.57972" lon="3.00278">
        <ele>272</ele>
        <time>2026-08-30T08:01:02+02:00</time>
      </trkpt>
      <trkpt lat="43.57968" lon="3.00274">
        <ele>269.4004</ele>
        <time>2026-08-30T08:01:06+02:00</time>
        <extensions>
          <gpxtpx:TrackPointExtension xmlns:gpxtpx="http://www.garmin.com/xmlschemas/TrackPointExtension/v1">
            <gpxtpx:hr>114</gpxtpx:hr>
          </gpxtpx:TrackPointExtension>
        </extensions>
      </trkpt>
      <trkpt lat="43.57967" lon="3.00273">
        <ele>269.4004</ele>
        <time>2026-08-30T08:01:07+02:00</time>
      </trkpt>
      <trkpt lat="43.57963" lon="3.0027">
        <ele>267.1006</ele>
        <time>2026-08-30T08:01:11+02:00</time>
        <extensions>
          <gpxtpx:TrackPointExtension xmlns:gpxtpx="http://www.garmin.com/xmlschemas/TrackPointExtension/v1">
            <gpxtpx:hr>116</gpxtpx:hr>
          </gpxtpx:TrackPointExtension>
        </extensions>
      </trkpt>
      <trkpt lat="43.57963" lon="3.00269">
        <ele>267.1006</ele>
        <time>2026-08-30T08:01:12+02:00</time>
      </trkpt>
      <trkpt lat="43.57965" lon="3.00263">
        <ele>267.1006</ele>
        <time>2026-08-30T08:01:16+02:00</time>
        <extensions>
          <gpxtpx:TrackPointExtension xmlns:gpxtpx="http://www.garmin.com/xmlschemas/TrackPointExtension/v1">
            <gpxtpx:hr>114</gpxtpx:hr>
          </gpxtpx:TrackPointExtension>
        </extensions>
      </trkpt>
      <trkpt lat="43.57965" lon="3.00261">
        <ele>269.9004</ele>
        <time>2026-08-30T08:01:17+02:00</time>
      </trkpt>
      <trkpt lat="43.57965" lon="3.00254">
        <ele>269.9004</ele>
        <time>2026-08-30T08:01:21+02:00</time>
        <extensions>
          <gpxtpx:TrackPointExtension xmlns:gpxtpx="http://www.garmin.com/xmlschemas/TrackPointExtension/v1">
            <gpxtpx:hr>114</gpxtpx:hr>
          </gpxtpx:TrackPointExtension>
        </extensions>
      </trkpt>
      <trkpt lat="43.57965" lon="3.00252">
        <ele>270.2002</ele>
        <time>2026-08-30T08:01:22+02:00</time>
      </trkpt>
      <trkpt lat="43.57964" lon="3.00246">
        <ele>267.5</ele>
        <time>2026-08-30T08:01:26+02:00</time>
        <extensions>
          <gpxtpx:TrackPointExtension xmlns:gpxtpx="http://www.garmin.com/xmlschemas/TrackPointExtension/v1">
            <gpxtpx:hr>114</gpxtpx:hr>
          </gpxtpx:TrackPointExtension>
        </extensions>
      </trkpt>
      <trkpt lat="43.57964" lon="3.00244">
        <ele>267.7002</ele>
        <time>2026-08-30T08:01:27+02:00</time>
      </trkpt>
      <trkpt lat="43.57964" lon="3.00238">
        <ele>267.7002</ele>
        <time>2026-08-30T08:01:31+02:00</time>
        <extensions>
          <gpxtpx:TrackPointExtension xmlns:gpxtpx="http://www.garmin.com/xmlschemas/TrackPointExtension/v1">
            <gpxtpx:hr>115</gpxtpx:hr>
          </gpxtpx:TrackPointExtension>
        </extensions>
      </trkpt>
      <trkpt lat="43.57964" lon="3.00237">
        <ele>267.7002</ele>
        <time>2026-08-30T08:01:32+02:00</time>
      </trkpt>
      <trkpt lat="43.57963" lon="3.00231">
        <ele>267.9004</ele>
        <time>2026-08-30T08:01:36+02:00</time>
        <extensions>
          <gpxtpx:TrackPointExtension xmlns:gpxtpx="http://www.garmin.com/xmlschemas/TrackPointExtension/v1">
            <gpxtpx:hr>116</gpxtpx:hr>
          </gpxtpx:TrackPointExtension>
        </extensions>
      </trkpt>
      <trkpt lat="43.57963" lon="3.00229">
        <ele>267.9004</ele>
        <time>2026-08-30T08:01:37+02:00</time>
      </trkpt>
      <trkpt lat="43.57962" lon="3.00223">
        <ele>268.1006</ele>
        <time>2026-08-30T08:01:41+02:00</time>
        <extensions>
          <gpxtpx:TrackPointExtension xmlns:gpxtpx="http://www.garmin.com/xmlschemas/TrackPointExtension/v1">
            <gpxtpx:hr>115</gpxtpx:hr>
          </gpxtpx:TrackPointExtension>
        </extensions>
      </trkpt>
      <trkpt lat="43.57962" lon="3.00221">
        <ele>268.1006</ele>
        <time>2026-08-30T08:01:42+02:00</time>
      </trkpt>
      <trkpt lat="43.57964" lon="3.00215">
        <ele>268.2002</ele>
        <time>2026-08-30T08:01:46+02:00</time>
        <extensions>
          <gpxtpx:TrackPointExtension xmlns:gpxtpx="http://www.garmin.com/xmlschemas/TrackPointExtension/v1">
            <gpxtpx:hr>115</gpxtpx:hr>
          </gpxtpx:TrackPointExtension>
        </extensions>
      </trkpt>
      <trkpt lat="43.57964" lon="3.00214">
        <ele>268.2002</ele>
        <time>2026-08-30T08:01:47+02:00</time>
      </trkpt>
      <trkpt lat="43.57966" lon="3.00211">
        <ele>271</ele>
        <time>2026-08-30T08:01:51+02:00</time>
        <extensions>
          <gpxtpx:TrackPointExtension xmlns:gpxtpx="http://www.garmin.com/xmlschemas/TrackPointExtension/v1">
            <gpxtpx:hr>116</gpxtpx:hr>
          </gpxtpx:TrackPointExtension>
        </extensions>
      </trkpt>
      <trkpt lat="43.57966" lon="3.0021">
        <ele>271</ele>
        <time>2026-08-30T08:01:52+02:00</time>
      </trkpt>
      <trkpt lat="43.57967" lon="3.00206">
        <ele>271</ele>
        <time>2026-08-30T08:01:56+02:00</time>
        <extensions>
          <gpxtpx:TrackPointExtension xmlns:gpxtpx="http://www.garmin.com/xmlschemas/TrackPointExtension/v1">
            <gpxtpx:hr>115</gpxtpx:hr>
          </gpxtpx:TrackPointExtension>
        </extensions>
      </trkpt>
      <trkpt lat="43.57967" lon="3.00205">
        <ele>271</ele>
        <time>2026-08-30T08:01:57+02:00</time>
      </trkpt>
      <trkpt lat="43.57969" lon="3.00197">
        <ele>270.9004</ele>
        <time>2026-08-30T08:02:01+02:00</time>
        <extensions>
          <gpxtpx:TrackPointExtension xmlns:gpxtpx="http://www.garmin.com/xmlschemas/TrackPointExtension/v1">
            <gpxtpx:hr>117</gpxtpx:hr>
          </gpxtpx:TrackPointExtension>
        </extensions>
      </trkpt>
      <trkpt lat="43.57969" lon="3.00196">
        <ele>270.9004</ele>
        <time>2026-08-30T08:02:02+02:00</time>
      </trkpt>
      <trkpt lat="43.57971" lon="3.00192">
        <ele>273.7002</ele>
        <time>2026-08-30T08:02:06+02:00</time>
        <extensions>
          <gpxtpx:TrackPointExtension xmlns:gpxtpx="http://www.garmin.com/xmlschemas/TrackPointExtension/v1">
            <gpxtpx:hr>119</gpxtpx:hr>
          </gpxtpx:TrackPointExtension>
        </extensions>
      </trkpt>
      <trkpt lat="43.57971" lon="3.00192">
        <ele>273.7002</ele>
        <time>2026-08-30T08:02:07+02:00</time>
      </trkpt>
      <trkpt lat="43.5797" lon="3.00185">
        <ele>270.7002</ele>
        <time>2026-08-30T08:02:11+02:00</time>
        <extensions>
          <gpxtpx:TrackPointExtension xmlns:gpxtpx="http://www.garmin.com/xmlschemas/TrackPointExtension/v1">
            <gpxtpx:hr>122</gpxtpx:hr>
          </gpxtpx:TrackPointExtension>
        </extensions>
      </trkpt>
      <trkpt lat="43.5797" lon="3.00184">
        <ele>270.5</ele>
        <time>2026-08-30T08:02:12+02:00</time>
      </trkpt>
      <trkpt lat="43.57971" lon="3.00178">
        <ele>273.4004</ele>
        <time>2026-08-30T08:02:16+02:00</time>
        <extensions>
          <gpxtpx:TrackPointExtension xmlns:gpxtpx="http://www.garmin.com/xmlschemas/TrackPointExtension/v1">
            <gpxtpx:hr>123</gpxtpx:hr>
          </gpxtpx:TrackPointExtension>
        </extensions>
      </trkpt>
      <trkpt lat="43.57971" lon="3.00178">
        <ele>273.4004</ele>
        <time>2026-08-30T08:02:17+02:00</time>
      </trkpt>
      <trkpt lat="43.57973" lon="3.00173">
        <ele>273.1006</ele>
        <time>2026-08-30T08:02:21+02:00</time>
        <extensions>
          <gpxtpx:TrackPointExtension xmlns:gpxtpx="http://www.garmin.com/xmlschemas/TrackPointExtension/v1">
            <gpxtpx:hr>123</gpxtpx:hr>
          </gpxtpx:TrackPointExtension>
        </extensions>
      </trkpt>
      <trkpt lat="43.57973" lon="3.00172">
        <ele>273.1006</ele>
        <time>2026-08-30T08:02:22+02:00</time>
      </trkpt>
      <trkpt lat="43.57975" lon="3.00169">
        <ele>273.1006</ele>
        <time>2026-08-30T08:02:26+02:00</time>
        <extensions>
          <gpxtpx:TrackPointExtension xmlns:gpxtpx="http://www.garmin.com/xmlschemas/TrackPointExtension/v1">
            <gpxtpx:hr>123</gpxtpx:hr>
          </gpxtpx:TrackPointExtension>
        </extensions>
      </trkpt>
      <trkpt lat="43.57975" lon="3.00168">
        <ele>273.1006</ele>
        <time>2026-08-30T08:02:27+02:00</time>
      </trkpt>
      <trkpt lat="43.57977" lon="3.00163">
        <ele>272.7002</ele>
        <time>2026-08-30T08:02:31+02:00</time>
        <extensions>
          <gpxtpx:TrackPointExtension xmlns:gpxtpx="http://www.garmin.com/xmlschemas/TrackPointExtension/v1">
            <gpxtpx:hr>123</gpxtpx:hr>
          </gpxtpx:TrackPointExtension>
        </extensions>
      </trkpt>
      <trkpt lat="43.57977" lon="3.00162">
        <ele>272.7002</ele>
        <time>2026-08-30T08:02:32+02:00</time>
      </trkpt>
      <trkpt lat="43.57977" lon="3.00157">
        <ele>275.4004</ele>
        <time>2026-08-30T08:02:36+02:00</time>
        <extensions>
          <gpxtpx:TrackPointExtension xmlns:gpxtpx="http://www.garmin.com/xmlschemas/TrackPointExtension/v1">
            <gpxtpx:hr>126</gpxtpx:hr>
          </gpxtpx:TrackPointExtension>
        </extensions>
      </trkpt>
      <trkpt lat="43.57978" lon="3.00156">
        <ele>275.4004</ele>
        <time>2026-08-30T08:02:37+02:00</time>
      </trkpt>
      <trkpt lat="43.5798" lon="3.00153">
        <ele>275.4004</ele>
        <time>2026-08-30T08:02:41+02:00</time>
        <extensions>
          <gpxtpx:TrackPointExtension xmlns:gpxtpx="http://www.garmin.com/xmlschemas/TrackPointExtension/v1">
            <gpxtpx:hr>127</gpxtpx:hr>
          </gpxtpx:TrackPointExtension>
        </extensions>
      </trkpt>
      <trkpt lat="43.5798" lon="3.00152">
        <ele>275.4004</ele>
        <time>2026-08-30T08:02:42+02:00</time>
      </trkpt>
      <trkpt lat="43.57983" lon="3.00149">
        <ele>274.7998</ele>
        <time>2026-08-30T08:02:46+02:00</time>
        <extensions>
          <gpxtpx:TrackPointExtension xmlns:gpxtpx="http://www.garmin.com/xmlschemas/TrackPointExtension/v1">
            <gpxtpx:hr>128</gpxtpx:hr>
          </gpxtpx:TrackPointExtension>
        </extensions>
      </trkpt>
      <trkpt lat="43.57983" lon="3.00148">
        <ele>278</ele>
        <time>2026-08-30T08:02:47+02:00</time>
      </trkpt>
      <trkpt lat="43.57987" lon="3.00144">
        <ele>278</ele>
        <time>2026-08-30T08:02:51+02:00</time>
        <extensions>
          <gpxtpx:TrackPointExtension xmlns:gpxtpx="http://www.garmin.com/xmlschemas/TrackPointExtension/v1">
            <gpxtpx:hr>130</gpxtpx:hr>
          </gpxtpx:TrackPointExtension>
        </extensions>
      </trkpt>
      <trkpt lat="43.57988" lon="3.00143">
        <ele>278</ele>
        <time>2026-08-30T08:02:52+02:00</time>
      </trkpt>
      <trkpt lat="43.57989" lon="3.00139">
        <ele>277.2998</ele>
        <time>2026-08-30T08:02:56+02:00</time>
        <extensions>
          <gpxtpx:TrackPointExtension xmlns:gpxtpx="http://www.garmin.com/xmlschemas/TrackPointExtension/v1">
            <gpxtpx:hr>129</gpxtpx:hr>
          </gpxtpx:TrackPointExtension>
        </extensions>
      </trkpt>
      <trkpt lat="43.57989" lon="3.00138">
        <ele>277.2998</ele>
        <time>2026-08-30T08:02:57+02:00</time>
      </trkpt>
      <trkpt lat="43.57991" lon="3.00136">
        <ele>280.6006</ele>
        <time>2026-08-30T08:03:01+02:00</time>
        <extensions>
          <gpxtpx:TrackPointExtension xmlns:gpxtpx="http://www.garmin.com/xmlschemas/TrackPointExtension/v1">
            <gpxtpx:hr>130</gpxtpx:hr>
          </gpxtpx:TrackPointExtension>
        </extensions>
      </trkpt>
      <trkpt lat="43.57991" lon="3.00136">
        <ele>280.6006</ele>
        <time>2026-08-30T08:03:02+02:00</time>
      </trkpt>
      <trkpt lat="43.57993" lon="3.00134">
        <ele>280.6006</ele>
        <time>2026-08-30T08:03:06+02:00</time>
        <extensions>
          <gpxtpx:TrackPointExtension xmlns:gpxtpx="http://www.garmin.com/xmlschemas/TrackPointExtension/v1">
            <gpxtpx:hr>130</gpxtpx:hr>
          </gpxtpx:TrackPointExtension>
        </extensions>
      </trkpt>
      <trkpt lat="43.57994" lon="3.00133">
        <ele>280.6006</ele>
        <time>2026-08-30T08:03:07+02:00</time>
      </trkpt>
      <trkpt lat="43.57998" lon="3.00132">
        <ele>283.2002</ele>
        <time>2026-08-30T08:03:11+02:00</time>
        <extensions>
          <gpxtpx:TrackPointExtension xmlns:gpxtpx="http://www.garmin.com/xmlschemas/TrackPointExtension/v1">
            <gpxtpx:hr>131</gpxtpx:hr>
          </gpxtpx:TrackPointExtension>
        </extensions>
      </trkpt>
      <trkpt lat="43.57999" lon="3.00132">
        <ele>283.2002</ele>
        <time>2026-08-30T08:03:12+02:00</time>
      </trkpt>
      <trkpt lat="43.58002" lon="3.00131">
        <ele>286.5</ele>
        <time>2026-08-30T08:03:16+02:00</time>
        <extensions>
          <gpxtpx:TrackPointExtension xmlns:gpxtpx="http://www.garmin.com/xmlschemas/TrackPointExtension/v1">
            <gpxtpx:hr>130</gpxtpx:hr>
          </gpxtpx:TrackPointExtension>
        </extensions>
      </trkpt>
      <trkpt lat="43.58003" lon="3.0013">
        <ele>286.5</ele>
        <time>2026-08-30T08:03:17+02:00</time>
      </trkpt>
      <trkpt lat="43.58004" lon="3.00128">
        <ele>286.5</ele>
        <time>2026-08-30T08:03:21+02:00</time>
        <extensions>
          <gpxtpx:TrackPointExtension xmlns:gpxtpx="http://www.garmin.com/xmlschemas/TrackPointExtension/v1">
            <gpxtpx:hr>131</gpxtpx:hr>
          </gpxtpx:TrackPointExtension>
        </extensions>
      </trkpt>
      <trkpt lat="43.58004" lon="3.00127">
        <ele>286.5</ele>
        <time>2026-08-30T08:03:22+02:00</time>
      </trkpt>
      <trkpt lat="43.58007" lon="3.00126">
        <ele>286.5</ele>
        <time>2026-08-30T08:03:26+02:00</time>
        <extensions>
          <gpxtpx:TrackPointExtension xmlns:gpxtpx="http://www.garmin.com/xmlschemas/TrackPointExtension/v1">
            <gpxtpx:hr>131</gpxtpx:hr>
          </gpxtpx:TrackPointExtension>
        </extensions>
      </trkpt>
      <trkpt lat="43.58008" lon="3.00126">
        <ele>286.5</ele>
        <time>2026-08-30T08:03:27+02:00</time>
      </trkpt>
      <trkpt lat="43.58012" lon="3.00125">
        <ele>289.9004</ele>
        <time>2026-08-30T08:03:31+02:00</time>
        <extensions>
          <gpxtpx:TrackPointExtension xmlns:gpxtpx="http://www.garmin.com/xmlschemas/TrackPointExtension/v1">
            <gpxtpx:hr>132</gpxtpx:hr>
          </gpxtpx:TrackPointExtension>
        </extensions>
      </trkpt>
      <trkpt lat="43.58013" lon="3.00125">
        <ele>289.9004</ele>
        <time>2026-08-30T08:03:32+02:00</time>
      </trkpt>
      <trkpt lat="43.58016" lon="3.00123">
        <ele>292.2002</ele>
        <time>2026-08-30T08:03:36+02:00</time>
        <extensions>
          <gpxtpx:TrackPointExtension xmlns:gpxtpx="http://www.garmin.com/xmlschemas/TrackPointExtension/v1">
            <gpxtpx:hr>133</gpxtpx:hr>
          </gpxtpx:TrackPointExtension>
        </extensions>
      </trkpt>
      <trkpt lat="43.58016" lon="3.00123">
        <ele>292.2002</ele>
        <time>2026-08-30T08:03:37+02:00</time>
      </trkpt>
      <trkpt lat="43.58018" lon="3.00122">
        <ele>292.2002</ele>
        <time>2026-08-30T08:03:41+02:00</time>
        <extensions>
          <gpxtpx:TrackPointExtension xmlns:gpxtpx="http://www.garmin.com/xmlschemas/TrackPointExtension/v1">
            <gpxtpx:hr>133</gpxtpx:hr>
          </gpxtpx:TrackPointExtension>
        </extensions>
      </trkpt>
      <trkpt lat="43.58019" lon="3.00121">
        <ele>292.2002</ele>
        <time>2026-08-30T08:03:42+02:00</time>
      </trkpt>
      <trkpt lat="43.58022" lon="3.00119">
        <ele>295.5</ele>
        <time>2026-08-30T08:03:46+02:00</time>
        <extensions>
          <gpxtpx:TrackPointExtension xmlns:gpxtpx="http://www.garmin.com/xmlschemas/TrackPointExtension/v1">
            <gpxtpx:hr>134</gpxtpx:hr>
          </gpxtpx:TrackPointExtension>
        </extensions>
      </trkpt>
      <trkpt lat="43.58023" lon="3.00119">
        <ele>295.5</ele>
        <time>2026-08-30T08:03:47+02:00</time>
      </trkpt>
      <trkpt lat="43.58024" lon="3.00117">
        <ele>295.5</ele>
        <time>2026-08-30T08:03:51+02:00</time>
        <extensions>
          <gpxtpx:TrackPointExtension xmlns:gpxtpx="http://www.garmin.com/xmlschemas/TrackPointExtension/v1">
            <gpxtpx:hr>135</gpxtpx:hr>
          </gpxtpx:TrackPointExtension>
        </extensions>
      </trkpt>
      <trkpt lat="43.58025" lon="3.00116">
        <ele>295.5</ele>
        <time>2026-08-30T08:03:52+02:00</time>
      </trkpt>
      <trkpt lat="43.58029" lon="3.00114">
        <ele>297.7002</ele>
        <time>2026-08-30T08:03:56+02:00</time>
        <extensions>
          <gpxtpx:TrackPointExtension xmlns:gpxtpx="http://www.garmin.com/xmlschemas/TrackPointExtension/v1">
            <gpxtpx:hr>136</gpxtpx:hr>
          </gpxtpx:TrackPointExtension>
        </extensions>
      </trkpt>
      <trkpt lat="43.58029" lon="3.00113">
        <ele>297.7002</ele>
        <time>2026-08-30T08:03:57+02:00</time>
      </trkpt>
      <trkpt lat="43.5803" lon="3.00112">
        <ele>297.7002</ele>
        <time>2026-08-30T08:04:01+02:00</time>
        <extensions>
          <gpxtpx:TrackPointExtension xmlns:gpxtpx="http://www.garmin.com/xmlschemas/TrackPointExtension/v1">
            <gpxtpx:hr>138</gpxtpx:hr>
          </gpxtpx:TrackPointExtension>
        </extensions>
      </trkpt>
      <trkpt lat="43.5803" lon="3.00112">
        <ele>297.7002</ele>
        <time>2026-08-30T08:04:02+02:00</time>
      </trkpt>
      <trkpt lat="43.58031" lon="3.00112">
        <ele>297.7002</ele>
        <time>2026-08-30T08:04:06+02:00</time>
        <extensions>
          <gpxtpx:TrackPointExtension xmlns:gpxtpx="http://www.garmin.com/xmlschemas/TrackPointExtension/v1">
            <gpxtpx:hr>139</gpxtpx:hr>
          </gpxtpx:TrackPointExtension>
        </extensions>
      </trkpt>
      <trkpt lat="43.58035" lon="3.00106">
        <ele>299.9004</ele>
        <time>2026-08-30T08:04:07+02:00</time>
        <extensions>
          <gpxtpx:TrackPointExtension xmlns:gpxtpx="http://www.garmin.com/xmlschemas/TrackPointExtension/v1">
            <gpxtpx:hr>133</gpxtpx:hr>
          </gpxtpx:TrackPointExtension>
        </extensions>
      </trkpt>
      <trkpt lat="43.58039" lon="3.00105">
        <ele>299.9004</ele>
        <time>2026-08-30T08:04:11+02:00</time>
      </trkpt>
      <trkpt lat="43.58039" lon="3.00104">
        <ele>303.2002</ele>
        <time>2026-08-30T08:04:12+02:00</time>
        <extensions>
          <gpxtpx:TrackPointExtension xmlns:gpxtpx="http://www.garmin.com/xmlschemas/TrackPointExtension/v1">
            <gpxtpx:hr>130</gpxtpx:hr>
          </gpxtpx:TrackPointExtension>
        </extensions>
      </trkpt>
      <trkpt lat="43.58043" lon="3.00101">
        <ele>303.2002</ele>
        <time>2026-08-30T08:04:16+02:00</time>
      </trkpt>
      <trkpt lat="43.58043" lon="3.00101">
        <ele>303.2002</ele>
        <time>2026-08-30T08:04:17+02:00</time>
        <extensions>
          <gpxtpx:TrackPointExtension xmlns:gpxtpx="http://www.garmin.com/xmlschemas/TrackPointExtension/v1">
            <gpxtpx:hr>127</gpxtpx:hr>
          </gpxtpx:TrackPointExtension>
        </extensions>
      </trkpt>
      <trkpt lat="43.58046" lon="3.00098">
        <ele>306.6006</ele>
        <time>2026-08-30T08:04:21+02:00</time>
      </trkpt>
      <trkpt lat="43.58046" lon="3.00098">
        <ele>305.4004</ele>
        <time>2026-08-30T08:04:22+02:00</time>
        <extensions>
          <gpxtpx:TrackPointExtension xmlns:gpxtpx="http://www.garmin.com/xmlschemas/TrackPointExtension/v1">
            <gpxtpx:hr>125</gpxtpx:hr>
          </gpxtpx:TrackPointExtension>
        </extensions>
      </trkpt>
      <trkpt lat="43.58049" lon="3.00095">
        <ele>305.4004</ele>
        <time>2026-08-30T08:04:26+02:00</time>
      </trkpt>
      <trkpt lat="43.5805" lon="3.00095">
        <ele>305.4004</ele>
        <time>2026-08-30T08:04:27+02:00</time>
        <extensions>
          <gpxtpx:TrackPointExtension xmlns:gpxtpx="http://www.garmin.com/xmlschemas/TrackPointExtension/v1">
            <gpxtpx:hr>123</gpxtpx:hr>
          </gpxtpx:TrackPointExtension>
        </extensions>
      </trkpt>
      <trkpt lat="43.58053" lon="3.00094">
        <ele>308.7002</ele>
        <time>2026-08-30T08:04:31+02:00</time>
      </trkpt>
      <trkpt lat="43.58053" lon="3.00093">
        <ele>308.7002</ele>
        <time>2026-08-30T08:04:32+02:00</time>
        <extensions>
          <gpxtpx:TrackPointExtension xmlns:gpxtpx="http://www.garmin.com/xmlschemas/TrackPointExtension/v1">
            <gpxtpx:hr>122</gpxtpx:hr>
          </gpxtpx:TrackPointExtension>
        </extensions>
      </trkpt>
      <trkpt lat="43.58056" lon="3.00092">
        <ele>308.7002</ele>
        <time>2026-08-30T08:04:36+02:00</time>
      </trkpt>
      <trkpt lat="43.58057" lon="3.00091">
        <ele>308.7002</ele>
        <time>2026-08-30T08:04:37+02:00</time>
        <extensions>
          <gpxtpx:TrackPointExtension xmlns:gpxtpx="http://www.garmin.com/xmlschemas/TrackPointExtension/v1">
            <gpxtpx:hr>123</gpxtpx:hr>
          </gpxtpx:TrackPointExtension>
        </extensions>
      </trkpt>
      <trkpt lat="43.58061" lon="3.00091">
        <ele>312.2002</ele>
        <time>2026-08-30T08:04:41+02:00</time>
      </trkpt>
      <trkpt lat="43.58062" lon="3.00091">
        <ele>312.2002</ele>
        <time>2026-08-30T08:04:42+02:00</time>
        <extensions>
          <gpxtpx:TrackPointExtension xmlns:gpxtpx="http://www.garmin.com/xmlschemas/TrackPointExtension/v1">
            <gpxtpx:hr>124</gpxtpx:hr>
          </gpxtpx:TrackPointExtension>
        </extensions>
      </trkpt>
      <trkpt lat="43.58066" lon="3.00089">
        <ele>314.2998</ele>
        <time>2026-08-30T08:04:46+02:00</time>
      </trkpt>
      <trkpt lat="43.58067" lon="3.00088">
        <ele>314.2998</ele>
        <time>2026-08-30T08:04:47+02:00</time>
        <extensions>
          <gpxtpx:TrackPointExtension xmlns:gpxtpx="http://www.garmin.com/xmlschemas/TrackPointExtension/v1">
            <gpxtpx:hr>124</gpxtpx:hr>
          </gpxtpx:TrackPointExtension>
        </extensions>
      </trkpt>
      <trkpt lat="43.58069" lon="3.00085">
        <ele>314.2998</ele>
        <time>2026-08-30T08:04:51+02:00</time>
      </trkpt>
      <trkpt lat="43.58069" lon="3.00084">
        <ele>314.2998</ele>
        <time>2026-08-30T08:04:52+02:00</time>
        <extensions>
          <gpxtpx:TrackPointExtension xmlns:gpxtpx="http://www.garmin.com/xmlschemas/TrackPointExtension/v1">
            <gpxtpx:hr>123</gpxtpx:hr>
          </gpxtpx:TrackPointExtension>
        </extensions>
      </trkpt>
      <trkpt lat="43.58071" lon="3.00079">
        <ele>316.2998</ele>
        <time>2026-08-30T08:04:56+02:00</time>
        <extensions>
          <gpxtpx:TrackPointExtension xmlns:gpxtpx="http://www.garmin.com/xmlschemas/TrackPointExtension/v1">
            <gpxtpx:hr>116</gpxtpx:hr>
          </gpxtpx:TrackPointExtension>
        </extensions>
      </trkpt>
      <trkpt lat="43.58072" lon="3.00079">
        <ele>316.2998</ele>
        <time>2026-08-30T08:04:57+02:00</time>
      </trkpt>
      <trkpt lat="43.58075" lon="3.0008">
        <ele>316.2998</ele>
        <time>2026-08-30T08:05:01+02:00</time>
      </trkpt>
      <trkpt lat="43.58076" lon="3.0008">
        <ele>319.6006</ele>
        <time>2026-08-30T08:05:02+02:00</time>
        <extensions>
          <gpxtpx:TrackPointExtension xmlns:gpxtpx="http://www.garmin.com/xmlschemas/TrackPointExtension/v1">
            <gpxtpx:hr>115</gpxtpx:hr>
          </gpxtpx:TrackPointExtension>
        </extensions>
      </trkpt>
      <trkpt lat="43.58081" lon="3.0008">
        <ele>319.6006</ele>
        <time>2026-08-30T08:05:06+02:00</time>
        <extensions>
          <gpxtpx:TrackPointExtension xmlns:gpxtpx="http://www.garmin.com/xmlschemas/TrackPointExtension/v1">
            <gpxtpx:hr>121</gpxtpx:hr>
          </gpxtpx:TrackPointExtension>
        </extensions>
      </trkpt>
      <trkpt lat="43.58081" lon="3.0008">
        <ele>319.6006</ele>
        <time>2026-08-30T08:05:07+02:00</time>
      </trkpt>
      <trkpt lat="43.58083" lon="3.00078">
        <ele>322.6006</ele>
        <time>2026-08-30T08:05:11+02:00</time>
      </trkpt>
      <trkpt lat="43.58084" lon="3.00077">
        <ele>322.6006</ele>
        <time>2026-08-30T08:05:12+02:00</time>
        <extensions>
          <gpxtpx:TrackPointExtension xmlns:gpxtpx="http://www.garmin.com/xmlschemas/TrackPointExtension/v1">
            <gpxtpx:hr>123</gpxtpx:hr>
          </gpxtpx:TrackPointExtension>
        </extensions>
      </trkpt>
      <trkpt lat="43.58085" lon="3.00074">
        <ele>322.6006</ele>
        <time>2026-08-30T08:05:16+02:00</time>
        <extensions>
          <gpxtpx:TrackPointExtension xmlns:gpxtpx="http://www.garmin.com/xmlschemas/TrackPointExtension/v1">
            <gpxtpx:hr>122</gpxtpx:hr>
          </gpxtpx:TrackPointExtension>
        </extensions>
      </trkpt>
      <trkpt lat="43.58086" lon="3.00074">
        <ele>322.6006</ele>
        <time>2026-08-30T08:05:17+02:00</time>
      </trkpt>
      <trkpt lat="43.58089" lon="3.00071">
        <ele>324.2002</ele>
        <time>2026-08-30T08:05:21+02:00</time>
      </trkpt>
      <trkpt lat="43.5809" lon="3.00071">
        <ele>324.2002</ele>
        <time>2026-08-30T08:05:22+02:00</time>
        <extensions>
          <gpxtpx:TrackPointExtension xmlns:gpxtpx="http://www.garmin.com/xmlschemas/TrackPointExtension/v1">
            <gpxtpx:hr>120</gpxtpx:hr>
          </gpxtpx:TrackPointExtension>
        </extensions>
      </trkpt>
      <trkpt lat="43.58092" lon="3.00067">
        <ele>324.2002</ele>
        <time>2026-08-30T08:05:26+02:00</time>
        <extensions>
          <gpxtpx:TrackPointExtension xmlns:gpxtpx="http://www.garmin.com/xmlschemas/TrackPointExtension/v1">
            <gpxtpx:hr>118</gpxtpx:hr>
          </gpxtpx:TrackPointExtension>
        </extensions>
      </trkpt>
      <trkpt lat="43.58092" lon="3.00067">
        <ele>324.2002</ele>
        <time>2026-08-30T08:05:27+02:00</time>
      </trkpt>
      <trkpt lat="43.58094" lon="3.00064">
        <ele>324.2002</ele>
        <time>2026-08-30T08:05:31+02:00</time>
      </trkpt>
      <trkpt lat="43.58094" lon="3.00064">
        <ele>322.7998</ele>
        <time>2026-08-30T08:05:32+02:00</time>
        <extensions>
          <gpxtpx:TrackPointExtension xmlns:gpxtpx="http://www.garmin.com/xmlschemas/TrackPointExtension/v1">
            <gpxtpx:hr>116</gpxtpx:hr>
          </gpxtpx:TrackPointExtension>
        </extensions>
      </trkpt>
      <trkpt lat="43.58095" lon="3.00059">
        <ele>325.6006</ele>
        <time>2026-08-30T08:05:36+02:00</time>
        <extensions>
          <gpxtpx:TrackPointExtension xmlns:gpxtpx="http://www.garmin.com/xmlschemas/TrackPointExtension/v1">
            <gpxtpx:hr>117</gpxtpx:hr>
          </gpxtpx:TrackPointExtension>
        </extensions>
      </trkpt>
      <trkpt lat="43.58096" lon="3.00058">
        <ele>325.6006</ele>
        <time>2026-08-30T08:05:37+02:00</time>
      </trkpt>
      <trkpt lat="43.58098" lon="3.00055">
        <ele>324.2002</ele>
        <time>2026-08-30T08:05:41+02:00</time>
      </trkpt>
      <trkpt lat="43.58099" lon="3.00055">
        <ele>324.2002</ele>
        <time>2026-08-30T08:05:42+02:00</time>
        <extensions>
          <gpxtpx:TrackPointExtension xmlns:gpxtpx="http://www.garmin.com/xmlschemas/TrackPointExtension/v1">
            <gpxtpx:hr>118</gpxtpx:hr>
          </gpxtpx:TrackPointExtension>
        </extensions>
      </trkpt>
      <trkpt lat="43.58103" lon="3.00056">
        <ele>328.4004</ele>
        <time>2026-08-30T08:05:46+02:00</time>
        <extensions>
          <gpxtpx:TrackPointExtension xmlns:gpxtpx="http://www.garmin.com/xmlschemas/TrackPointExtension/v1">
            <gpxtpx:hr>114</gpxtpx:hr>
          </gpxtpx:TrackPointExtension>
        </extensions>
      </trkpt>
      <trkpt lat="43.58103" lon="3.00056">
        <ele>328.4004</ele>
        <time>2026-08-30T08:05:47+02:00</time>
      </trkpt>
      <trkpt lat="43.58107" lon="3.00054">
        <ele>327</ele>
        <time>2026-08-30T08:05:51+02:00</time>
      </trkpt>
      <trkpt lat="43.58107" lon="3.00054">
        <ele>327</ele>
        <time>2026-08-30T08:05:52+02:00</time>
        <extensions>
          <gpxtpx:TrackPointExtension xmlns:gpxtpx="http://www.garmin.com/xmlschemas/TrackPointExtension/v1">
            <gpxtpx:hr>113</gpxtpx:hr>
          </gpxtpx:TrackPointExtension>
        </extensions>
      </trkpt>
      <trkpt lat="43.5811" lon="3.0005">
        <ele>329.6006</ele>
        <time>2026-08-30T08:05:56+02:00</time>
        <extensions>
          <gpxtpx:TrackPointExtension xmlns:gpxtpx="http://www.garmin.com/xmlschemas/TrackPointExtension/v1">
            <gpxtpx:hr>113</gpxtpx:hr>
          </gpxtpx:TrackPointExtension>
        </extensions>
      </trkpt>
      <trkpt lat="43.5811" lon="3.00049">
        <ele>329.6006</ele>
        <time>2026-08-30T08:05:57+02:00</time>
      </trkpt>
      <trkpt lat="43.58112" lon="3.00048">
        <ele>329.6006</ele>
        <time>2026-08-30T08:06:01+02:00</time>
      </trkpt>
      <trkpt lat="43.58113" lon="3.00047">
        <ele>328.1006</ele>
        <time>2026-08-30T08:06:02+02:00</time>
        <extensions>
          <gpxtpx:TrackPointExtension xmlns:gpxtpx="http://www.garmin.com/xmlschemas/TrackPointExtension/v1">
            <gpxtpx:hr>110</gpxtpx:hr>
          </gpxtpx:TrackPointExtension>
        </extensions>
      </trkpt>
      <trkpt lat="43.58115" lon="3.00045">
        <ele>330.5</ele>
        <time>2026-08-30T08:06:06+02:00</time>
        <extensions>
          <gpxtpx:TrackPointExtension xmlns:gpxtpx="http://www.garmin.com/xmlschemas/TrackPointExtension/v1">
            <gpxtpx:hr>110</gpxtpx:hr>
          </gpxtpx:TrackPointExtension>
        </extensions>
      </trkpt>
      <trkpt lat="43.58116" lon="3.00044">
        <ele>330.5</ele>
        <time>2026-08-30T08:06:07+02:00</time>
      </trkpt>
      <trkpt lat="43.58119" lon="3.00043">
        <ele>330.5</ele>
        <time>2026-08-30T08:06:11+02:00</time>
      </trkpt>
      <trkpt lat="43.58119" lon="3.00042">
        <ele>330.5</ele>
        <time>2026-08-30T08:06:12+02:00</time>
        <extensions>
          <gpxtpx:TrackPointExtension xmlns:gpxtpx="http://www.garmin.com/xmlschemas/TrackPointExtension/v1">
            <gpxtpx:hr>107</gpxtpx:hr>
          </gpxtpx:TrackPointExtension>
        </extensions>
      </trkpt>
      <trkpt lat="43.58122" lon="3.00039">
        <ele>332.7998</ele>
        <time>2026-08-30T08:06:16+02:00</time>
        <extensions>
          <gpxtpx:TrackPointExtension xmlns:gpxtpx="http://www.garmin.com/xmlschemas/TrackPointExtension/v1">
            <gpxtpx:hr>108</gpxtpx:hr>
          </gpxtpx:TrackPointExtension>
        </extensions>
      </trkpt>
      <trkpt lat="43.58122" lon="3.00038">
        <ele>331.2002</ele>
        <time>2026-08-30T08:06:17+02:00</time>
      </trkpt>
      <trkpt lat="43.58123" lon="3.00034">
        <ele>331.2002</ele>
        <time>2026-08-30T08:06:21+02:00</time>
      </trkpt>
      <trkpt lat="43.58123" lon="3.00033">
        <ele>331.2002</ele>
        <time>2026-08-30T08:06:22+02:00</time>
        <extensions>
          <gpxtpx:TrackPointExtension xmlns:gpxtpx="http://www.garmin.com/xmlschemas/TrackPointExtension/v1">
            <gpxtpx:hr>109</gpxtpx:hr>
          </gpxtpx:TrackPointExtension>
        </extensions>
      </trkpt>
      <trkpt lat="43.58125" lon="3.00032">
        <ele>331.2002</ele>
        <time>2026-08-30T08:06:26+02:00</time>
        <extensions>
          <gpxtpx:TrackPointExtension xmlns:gpxtpx="http://www.garmin.com/xmlschemas/TrackPointExtension/v1">
            <gpxtpx:hr>112</gpxtpx:hr>
          </gpxtpx:TrackPointExtension>
        </extensions>
      </trkpt>
      <trkpt lat="43.58126" lon="3.00032">
        <ele>331.2002</ele>
        <time>2026-08-30T08:06:27+02:00</time>
      </trkpt>
      <trkpt lat="43.58128" lon="3.0003">
        <ele>333.4004</ele>
        <time>2026-08-30T08:06:31+02:00</time>
      </trkpt>
      <trkpt lat="43.58128" lon="3.00029">
        <ele>331.7002</ele>
        <time>2026-08-30T08:06:32+02:00</time>
        <extensions>
          <gpxtpx:TrackPointExtension xmlns:gpxtpx="http://www.garmin.com/xmlschemas/TrackPointExtension/v1">
            <gpxtpx:hr>112</gpxtpx:hr>
          </gpxtpx:TrackPointExtension>
        </extensions>
      </trkpt>
      <trkpt lat="43.58131" lon="3.00025">
        <ele>331.7002</ele>
        <time>2026-08-30T08:06:36+02:00</time>
        <extensions>
          <gpxtpx:TrackPointExtension xmlns:gpxtpx="http://www.garmin.com/xmlschemas/TrackPointExtension/v1">
            <gpxtpx:hr>112</gpxtpx:hr>
          </gpxtpx:TrackPointExtension>
        </extensions>
      </trkpt>
      <trkpt lat="43.58131" lon="3.00024">
        <ele>331.7002</ele>
        <time>2026-08-30T08:06:37+02:00</time>
      </trkpt>
      <trkpt lat="43.58132" lon="3.0002">
        <ele>329.9004</ele>
        <time>2026-08-30T08:06:41+02:00</time>
      </trkpt>
      <trkpt lat="43.58133" lon="3.00019">
        <ele>332</ele>
        <time>2026-08-30T08:06:42+02:00</time>
        <extensions>
          <gpxtpx:TrackPointExtension xmlns:gpxtpx="http://www.garmin.com/xmlschemas/TrackPointExtension/v1">
            <gpxtpx:hr>110</gpxtpx:hr>
          </gpxtpx:TrackPointExtension>
        </extensions>
      </trkpt>
      <trkpt lat="43.58137" lon="3.0002">
        <ele>332</ele>
        <time>2026-08-30T08:06:46+02:00</time>
      </trkpt>
      <trkpt lat="43.58138" lon="3.00019">
        <ele>332</ele>
        <time>2026-08-30T08:06:47+02:00</time>
        <extensions>
          <gpxtpx:TrackPointExtension xmlns:gpxtpx="http://www.garmin.com/xmlschemas/TrackPointExtension/v1">
            <gpxtpx:hr>111</gpxtpx:hr>
          </gpxtpx:TrackPointExtension>
        </extensions>
      </trkpt>
      <trkpt lat="43.58139" lon="3.00015">
        <ele>333.9004</ele>
        <time>2026-08-30T08:06:51+02:00</time>
      </trkpt>
      <trkpt lat="43.58139" lon="3.00013">
        <ele>333.9004</ele>
        <time>2026-08-30T08:06:52+02:00</time>
        <extensions>
          <gpxtpx:TrackPointExtension xmlns:gpxtpx="http://www.garmin.com/xmlschemas/TrackPointExtension/v1">
            <gpxtpx:hr>113</gpxtpx:hr>
          </gpxtpx:TrackPointExtension>
        </extensions>
      </trkpt>
      <trkpt lat="43.58141" lon="3.00011">
        <ele>332.1006</ele>
        <time>2026-08-30T08:06:56+02:00</time>
      </trkpt>
      <trkpt lat="43.58141" lon="3.0001">
        <ele>332.1006</ele>
        <time>2026-08-30T08:06:57+02:00</time>
        <extensions>
          <gpxtpx:TrackPointExtension xmlns:gpxtpx="http://www.garmin.com/xmlschemas/TrackPointExtension/v1">
            <gpxtpx:hr>113</gpxtpx:hr>
          </gpxtpx:TrackPointExtension>
        </extensions>
      </trkpt>
      <trkpt lat="43.58143" lon="3.00006">
        <ele>332.1006</ele>
        <time>2026-08-30T08:07:01+02:00</time>
      </trkpt>
      <trkpt lat="43.58144" lon="3.00005">
        <ele>332.1006</ele>
        <time>2026-08-30T08:07:02+02:00</time>
        <extensions>
          <gpxtpx:TrackPointExtension xmlns:gpxtpx="http://www.garmin.com/xmlschemas/TrackPointExtension/v1">
            <gpxtpx:hr>116</gpxtpx:hr>
          </gpxtpx:TrackPointExtension>
        </extensions>
      </trkpt>
      <trkpt lat="43.58145" lon="3.00002">
        <ele>332.2002</ele>
        <time>2026-08-30T08:07:06+02:00</time>
      </trkpt>
      <trkpt lat="43.58145" lon="3.00001">
        <ele>332.2002</ele>
        <time>2026-08-30T08:07:07+02:00</time>
        <extensions>
          <gpxtpx:TrackPointExtension xmlns:gpxtpx="http://www.garmin.com/xmlschemas/TrackPointExtension/v1">
            <gpxtpx:hr>122</gpxtpx:hr>
          </gpxtpx:TrackPointExtension>
        </extensions>
      </trkpt>
      <trkpt lat="43.58146" lon="2.99998">
        <ele>332.2002</ele>
        <time>2026-08-30T08:07:11+02:00</time>
      </trkpt>
      <trkpt lat="43.58146" lon="2.99997">
        <ele>332.2002</ele>
        <time>2026-08-30T08:07:12+02:00</time>
        <extensions>
          <gpxtpx:TrackPointExtension xmlns:gpxtpx="http://www.garmin.com/xmlschemas/TrackPointExtension/v1">
            <gpxtpx:hr>122</gpxtpx:hr>
          </gpxtpx:TrackPointExtension>
        </extensions>
      </trkpt>
      <trkpt lat="43.58149" lon="2.99994">
        <ele>330.5</ele>
        <time>2026-08-30T08:07:16+02:00</time>
      </trkpt>
      <trkpt lat="43.5815" lon="2.99993">
        <ele>330.5</ele>
        <time>2026-08-30T08:07:17+02:00</time>
        <extensions>
          <gpxtpx:TrackPointExtension xmlns:gpxtpx="http://www.garmin.com/xmlschemas/TrackPointExtension/v1">
            <gpxtpx:hr>119</gpxtpx:hr>
          </gpxtpx:TrackPointExtension>
        </extensions>
      </trkpt>
      <trkpt lat="43.58152" lon="2.99989">
        <ele>332.2002</ele>
        <time>2026-08-30T08:07:21+02:00</time>
      </trkpt>
      <trkpt lat="43.58153" lon="2.99989">
        <ele>332.2002</ele>
        <time>2026-08-30T08:07:22+02:00</time>
        <extensions>
          <gpxtpx:TrackPointExtension xmlns:gpxtpx="http://www.garmin.com/xmlschemas/TrackPointExtension/v1">
            <gpxtpx:hr>117</gpxtpx:hr>
          </gpxtpx:TrackPointExtension>
        </extensions>
      </trkpt>
      <trkpt lat="43.58154" lon="2.99988">
        <ele>332.2002</ele>
        <time>2026-08-30T08:07:26+02:00</time>
      </trkpt>
      <trkpt lat="43.58155" lon="2.99988">
        <ele>332.2002</ele>
        <time>2026-08-30T08:07:27+02:00</time>
        <extensions>
          <gpxtpx:TrackPointExtension xmlns:gpxtpx="http://www.garmin.com/xmlschemas/TrackPointExtension/v1">
            <gpxtpx:hr>114</gpxtpx:hr>
          </gpxtpx:TrackPointExtension>
        </extensions>
      </trkpt>
      <trkpt lat="43.58158" lon="2.99989">
        <ele>333.9004</ele>
        <time>2026-08-30T08:07:31+02:00</time>
      </trkpt>
      <trkpt lat="43.58159" lon="2.99989">
        <ele>333.9004</ele>
        <time>2026-08-30T08:07:32+02:00</time>
        <extensions>
          <gpxtpx:TrackPointExtension xmlns:gpxtpx="http://www.garmin.com/xmlschemas/TrackPointExtension/v1">
            <gpxtpx:hr>113</gpxtpx:hr>
          </gpxtpx:TrackPointExtension>
        </extensions>
      </trkpt>
      <trkpt lat="43.58161" lon="2.9999">
        <ele>333.9004</ele>
        <time>2026-08-30T08:07:36+02:00</time>
      </trkpt>
      <trkpt lat="43.58162" lon="2.99991">
        <ele>333.9004</ele>
        <time>2026-08-30T08:07:37+02:00</time>
        <extensions>
          <gpxtpx:TrackPointExtension xmlns:gpxtpx="http://www.garmin.com/xmlschemas/TrackPointExtension/v1">
            <gpxtpx:hr>114</gpxtpx:hr>
          </gpxtpx:TrackPointExtension>
        </extensions>
      </trkpt>
      <trkpt lat="43.58166" lon="2.99994">
        <ele>335.5</ele>
        <time>2026-08-30T08:07:41+02:00</time>
        <extensions>
          <gpxtpx:TrackPointExtension xmlns:gpxtpx="http://www.garmin.com/xmlschemas/TrackPointExtension/v1">
            <gpxtpx:hr>115</gpxtpx:hr>
          </gpxtpx:TrackPointExtension>
        </extensions>
      </trkpt>
      <trkpt lat="43.58167" lon="2.99994">
        <ele>335.5</ele>
        <time>2026-08-30T08:07:42+02:00</time>
      </trkpt>
      <trkpt lat="43.5817" lon="2.99992">
        <ele>337.1006</ele>
        <time>2026-08-30T08:07:46+02:00</time>
      </trkpt>
      <trkpt lat="43.58171" lon="2.99992">
        <ele>337.1006</ele>
        <time>2026-08-30T08:07:47+02:00</time>
        <extensions>
          <gpxtpx:TrackPointExtension xmlns:gpxtpx="http://www.garmin.com/xmlschemas/TrackPointExtension/v1">
            <gpxtpx:hr>118</gpxtpx:hr>
          </gpxtpx:TrackPointExtension>
        </extensions>
      </trkpt>
      <trkpt lat="43.58172" lon="2.99996">
        <ele>339.2002</ele>
        <time>2026-08-30T08:07:51+02:00</time>
        <extensions>
          <gpxtpx:TrackPointExtension xmlns:gpxtpx="http://www.garmin.com/xmlschemas/TrackPointExtension/v1">
            <gpxtpx:hr>118</gpxtpx:hr>
          </gpxtpx:TrackPointExtension>
        </extensions>
      </trkpt>
      <trkpt lat="43.58173" lon="2.99996">
        <ele>339.2002</ele>
        <time>2026-08-30T08:07:52+02:00</time>
      </trkpt>
      <trkpt lat="43.58174" lon="2.99999">
        <ele>339.2002</ele>
        <time>2026-08-30T08:07:56+02:00</time>
      </trkpt>
      <trkpt lat="43.58174" lon="2.99999">
        <ele>339.2002</ele>
        <time>2026-08-30T08:07:57+02:00</time>
        <extensions>
          <gpxtpx:TrackPointExtension xmlns:gpxtpx="http://www.garmin.com/xmlschemas/TrackPointExtension/v1">
            <gpxtpx:hr>118</gpxtpx:hr>
          </gpxtpx:TrackPointExtension>
        </extensions>
      </trkpt>
      <trkpt lat="43.58177" lon="3.00003">
        <ele>341</ele>
        <time>2026-08-30T08:08:01+02:00</time>
        <extensions>
          <gpxtpx:TrackPointExtension xmlns:gpxtpx="http://www.garmin.com/xmlschemas/TrackPointExtension/v1">
            <gpxtpx:hr>119</gpxtpx:hr>
          </gpxtpx:TrackPointExtension>
        </extensions>
      </trkpt>
      <trkpt lat="43.58178" lon="3.00004">
        <ele>341</ele>
        <time>2026-08-30T08:08:02+02:00</time>
      </trkpt>
      <trkpt lat="43.5818" lon="3.00006">
        <ele>343.1006</ele>
        <time>2026-08-30T08:08:06+02:00</time>
      </trkpt>
      <trkpt lat="43.58181" lon="3.00007">
        <ele>343.1006</ele>
        <time>2026-08-30T08:08:07+02:00</time>
        <extensions>
          <gpxtpx:TrackPointExtension xmlns:gpxtpx="http://www.garmin.com/xmlschemas/TrackPointExtension/v1">
            <gpxtpx:hr>118</gpxtpx:hr>
          </gpxtpx:TrackPointExtension>
        </extensions>
      </trkpt>
      <trkpt lat="43.58182" lon="3.00009">
        <ele>343.1006</ele>
        <time>2026-08-30T08:08:11+02:00</time>
        <extensions>
          <gpxtpx:TrackPointExtension xmlns:gpxtpx="http://www.garmin.com/xmlschemas/TrackPointExtension/v1">
            <gpxtpx:hr>115</gpxtpx:hr>
          </gpxtpx:TrackPointExtension>
        </extensions>
      </trkpt>
      <trkpt lat="43.58183" lon="3.00009">
        <ele>345</ele>
        <time>2026-08-30T08:08:12+02:00</time>
      </trkpt>
      <trkpt lat="43.58185" lon="3.00011">
        <ele>345</ele>
        <time>2026-08-30T08:08:16+02:00</time>
      </trkpt>
      <trkpt lat="43.58185" lon="3.00011">
        <ele>345</ele>
        <time>2026-08-30T08:08:17+02:00</time>
        <extensions>
          <gpxtpx:TrackPointExtension xmlns:gpxtpx="http://www.garmin.com/xmlschemas/TrackPointExtension/v1">
            <gpxtpx:hr>117</gpxtpx:hr>
          </gpxtpx:TrackPointExtension>
        </extensions>
      </trkpt>
      <trkpt lat="43.58187" lon="3.00012">
        <ele>345</ele>
        <time>2026-08-30T08:08:21+02:00</time>
        <extensions>
          <gpxtpx:TrackPointExtension xmlns:gpxtpx="http://www.garmin.com/xmlschemas/TrackPointExtension/v1">
            <gpxtpx:hr>117</gpxtpx:hr>
          </gpxtpx:TrackPointExtension>
        </extensions>
      </trkpt>
      <trkpt lat="43.58187" lon="3.00012">
        <ele>345</ele>
        <time>2026-08-30T08:08:22+02:00</time>
      </trkpt>
      <trkpt lat="43.5819" lon="3.00014">
        <ele>349</ele>
        <time>2026-08-30T08:08:26+02:00</time>
      </trkpt>
      <trkpt lat="43.58191" lon="3.00014">
        <ele>349</ele>
        <time>2026-08-30T08:08:27+02:00</time>
        <extensions>
          <gpxtpx:TrackPointExtension xmlns:gpxtpx="http://www.garmin.com/xmlschemas/TrackPointExtension/v1">
            <gpxtpx:hr>113</gpxtpx:hr>
          </gpxtpx:TrackPointExtension>
        </extensions>
      </trkpt>
      <trkpt lat="43.58195" lon="3.00016">
        <ele>349</ele>
        <time>2026-08-30T08:08:31+02:00</time>
        <extensions>
          <gpxtpx:TrackPointExtension xmlns:gpxtpx="http://www.garmin.com/xmlschemas/TrackPointExtension/v1">
            <gpxtpx:hr>113</gpxtpx:hr>
          </gpxtpx:TrackPointExtension>
        </extensions>
      </trkpt>
      <trkpt lat="43.58195" lon="3.00016">
        <ele>351</ele>
        <time>2026-08-30T08:08:32+02:00</time>
      </trkpt>
      <trkpt lat="43.58197" lon="3.00013">
        <ele>351</ele>
        <time>2026-08-30T08:08:36+02:00</time>
      </trkpt>
      <trkpt lat="43.58198" lon="3.00013">
        <ele>349</ele>
        <time>2026-08-30T08:08:37+02:00</time>
        <extensions>
          <gpxtpx:TrackPointExtension xmlns:gpxtpx="http://www.garmin.com/xmlschemas/TrackPointExtension/v1">
            <gpxtpx:hr>121</gpxtpx:hr>
          </gpxtpx:TrackPointExtension>
        </extensions>
      </trkpt>
      <trkpt lat="43.58198" lon="3.00011">
        <ele>349</ele>
        <time>2026-08-30T08:08:41+02:00</time>
        <extensions>
          <gpxtpx:TrackPointExtension xmlns:gpxtpx="http://www.garmin.com/xmlschemas/TrackPointExtension/v1">
            <gpxtpx:hr>121</gpxtpx:hr>
          </gpxtpx:TrackPointExtension>
        </extensions>
      </trkpt>
      <trkpt lat="43.58199" lon="3.00011">
        <ele>349</ele>
        <time>2026-08-30T08:08:42+02:00</time>
      </trkpt>
      <trkpt lat="43.58201" lon="3.00012">
        <ele>351.1006</ele>
        <time>2026-08-30T08:08:46+02:00</time>
      </trkpt>
      <trkpt lat="43.58202" lon="3.00012">
        <ele>351.1006</ele>
        <time>2026-08-30T08:08:47+02:00</time>
        <extensions>
          <gpxtpx:TrackPointExtension xmlns:gpxtpx="http://www.garmin.com/xmlschemas/TrackPointExtension/v1">
            <gpxtpx:hr>119</gpxtpx:hr>
          </gpxtpx:TrackPointExtension>
        </extensions>
      </trkpt>
      <trkpt lat="43.58204" lon="3.00015">
        <ele>353</ele>
        <time>2026-08-30T08:08:51+02:00</time>
        <extensions>
          <gpxtpx:TrackPointExtension xmlns:gpxtpx="http://www.garmin.com/xmlschemas/TrackPointExtension/v1">
            <gpxtpx:hr>117</gpxtpx:hr>
          </gpxtpx:TrackPointExtension>
        </extensions>
      </trkpt>
      <trkpt lat="43.58204" lon="3.00016">
        <ele>353</ele>
        <time>2026-08-30T08:08:52+02:00</time>
      </trkpt>
      <trkpt lat="43.58205" lon="3.00018">
        <ele>353</ele>
        <time>2026-08-30T08:08:56+02:00</time>
      </trkpt>
      <trkpt lat="43.58206" lon="3.0002">
        <ele>353</ele>
        <time>2026-08-30T08:08:57+02:00</time>
        <extensions>
          <gpxtpx:TrackPointExtension xmlns:gpxtpx="http://www.garmin.com/xmlschemas/TrackPointExtension/v1">
            <gpxtpx:hr>116</gpxtpx:hr>
          </gpxtpx:TrackPointExtension>
        </extensions>
      </trkpt>
      <trkpt lat="43.58207" lon="3.00024">
        <ele>357.1006</ele>
        <time>2026-08-30T08:09:01+02:00</time>
        <extensions>
          <gpxtpx:TrackPointExtension xmlns:gpxtpx="http://www.garmin.com/xmlschemas/TrackPointExtension/v1">
            <gpxtpx:hr>114</gpxtpx:hr>
          </gpxtpx:TrackPointExtension>
        </extensions>
      </trkpt>
      <trkpt lat="43.58207" lon="3.00024">
        <ele>357.1006</ele>
        <time>2026-08-30T08:09:02+02:00</time>
      </trkpt>
      <trkpt lat="43.58208" lon="3.00028">
        <ele>357.1006</ele>
        <time>2026-08-30T08:09:06+02:00</time>
      </trkpt>
      <trkpt lat="43.58208" lon="3.00029">
        <ele>357.1006</ele>
        <time>2026-08-30T08:09:07+02:00</time>
        <extensions>
          <gpxtpx:TrackPointExtension xmlns:gpxtpx="http://www.garmin.com/xmlschemas/TrackPointExtension/v1">
            <gpxtpx:hr>108</gpxtpx:hr>
          </gpxtpx:TrackPointExtension>
        </extensions>
      </trkpt>
      <trkpt lat="43.58207" lon="3.00033">
        <ele>359.4004</ele>
        <time>2026-08-30T08:09:11+02:00</time>
        <extensions>
          <gpxtpx:TrackPointExtension xmlns:gpxtpx="http://www.garmin.com/xmlschemas/TrackPointExtension/v1">
            <gpxtpx:hr>117</gpxtpx:hr>
          </gpxtpx:TrackPointExtension>
        </extensions>
      </trkpt>
      <trkpt lat="43.58207" lon="3.00033">
        <ele>357.2998</ele>
        <time>2026-08-30T08:09:12+02:00</time>
      </trkpt>
      <trkpt lat="43.58206" lon="3.00036">
        <ele>357.2998</ele>
        <time>2026-08-30T08:09:16+02:00</time>
      </trkpt>
      <trkpt lat="43.58206" lon="3.00036">
        <ele>357.2998</ele>
        <time>2026-08-30T08:09:17+02:00</time>
        <extensions>
          <gpxtpx:TrackPointExtension xmlns:gpxtpx="http://www.garmin.com/xmlschemas/TrackPointExtension/v1">
            <gpxtpx:hr>132</gpxtpx:hr>
          </gpxtpx:TrackPointExtension>
        </extensions>
      </trkpt>
      <trkpt lat="43.58204" lon="3.00037">
        <ele>357.2998</ele>
        <time>2026-08-30T08:09:21+02:00</time>
        <extensions>
          <gpxtpx:TrackPointExtension xmlns:gpxtpx="http://www.garmin.com/xmlschemas/TrackPointExtension/v1">
            <gpxtpx:hr>136</gpxtpx:hr>
          </gpxtpx:TrackPointExtension>
        </extensions>
      </trkpt>
      <trkpt lat="43.58201" lon="3.00039">
        <ele>359.6006</ele>
        <time>2026-08-30T08:09:22+02:00</time>
      </trkpt>
      <trkpt lat="43.58201" lon="3.00039">
        <ele>359.6006</ele>
        <time>2026-08-30T08:09:26+02:00</time>
        <extensions>
          <gpxtpx:TrackPointExtension xmlns:gpxtpx="http://www.garmin.com/xmlschemas/TrackPointExtension/v1">
            <gpxtpx:hr>136</gpxtpx:hr>
          </gpxtpx:TrackPointExtension>
        </extensions>
      </trkpt>
      <trkpt lat="43.58199" lon="3.00045">
        <ele>357.5</ele>
        <time>2026-08-30T08:09:27+02:00</time>
        <extensions>
          <gpxtpx:TrackPointExtension xmlns:gpxtpx="http://www.garmin.com/xmlschemas/TrackPointExtension/v1">
            <gpxtpx:hr>137</gpxtpx:hr>
          </gpxtpx:TrackPointExtension>
        </extensions>
      </trkpt>
      <trkpt lat="43.58197" lon="3.00046">
        <ele>357.5</ele>
        <time>2026-08-30T08:09:31+02:00</time>
      </trkpt>
      <trkpt lat="43.58197" lon="3.00047">
        <ele>357.5</ele>
        <time>2026-08-30T08:09:32+02:00</time>
        <extensions>
          <gpxtpx:TrackPointExtension xmlns:gpxtpx="http://www.garmin.com/xmlschemas/TrackPointExtension/v1">
            <gpxtpx:hr>137</gpxtpx:hr>
          </gpxtpx:TrackPointExtension>
        </extensions>
      </trkpt>
      <trkpt lat="43.58196" lon="3.00049">
        <ele>359.7998</ele>
        <time>2026-08-30T08:09:36+02:00</time>
      </trkpt>
      <trkpt lat="43.58196" lon="3.00049">
        <ele>359.7998</ele>
        <time>2026-08-30T08:09:37+02:00</time>
        <extensions>
          <gpxtpx:TrackPointExtension xmlns:gpxtpx="http://www.garmin.com/xmlschemas/TrackPointExtension/v1">
            <gpxtpx:hr>136</gpxtpx:hr>
          </gpxtpx:TrackPointExtension>
        </extensions>
      </trkpt>
      <trkpt lat="43.58195" lon="3.00052">
        <ele>359.7998</ele>
        <time>2026-08-30T08:09:41+02:00</time>
      </trkpt>
      <trkpt lat="43.58195" lon="3.00052">
        <ele>359.7998</ele>
        <time>2026-08-30T08:09:42+02:00</time>
        <extensions>
          <gpxtpx:TrackPointExtension xmlns:gpxtpx="http://www.garmin.com/xmlschemas/TrackPointExtension/v1">
            <gpxtpx:hr>138</gpxtpx:hr>
          </gpxtpx:TrackPointExtension>
        </extensions>
      </trkpt>
      <trkpt lat="43.58195" lon="3.00055">
        <ele>359.7998</ele>
        <time>2026-08-30T08:09:46+02:00</time>
      </trkpt>
      <trkpt lat="43.58196" lon="3.00056">
        <ele>362.1006</ele>
        <time>2026-08-30T08:09:47+02:00</time>
        <extensions>
          <gpxtpx:TrackPointExtension xmlns:gpxtpx="http://www.garmin.com/xmlschemas/TrackPointExtension/v1">
            <gpxtpx:hr>135</gpxtpx:hr>
          </gpxtpx:TrackPointExtension>
        </extensions>
      </trkpt>
      <trkpt lat="43.58196" lon="3.00057">
        <ele>362.1006</ele>
        <time>2026-08-30T08:09:51+02:00</time>
        <extensions>
          <gpxtpx:TrackPointExtension xmlns:gpxtpx="http://www.garmin.com/xmlschemas/TrackPointExtension/v1">
            <gpxtpx:hr>135</gpxtpx:hr>
          </gpxtpx:TrackPointExtension>
        </extensions>
      </trkpt>
      <trkpt lat="43.58199" lon="3.00064">
        <ele>362.1006</ele>
        <time>2026-08-30T08:09:52+02:00</time>
        <extensions>
          <gpxtpx:TrackPointExtension xmlns:gpxtpx="http://www.garmin.com/xmlschemas/TrackPointExtension/v1">
            <gpxtpx:hr>136</gpxtpx:hr>
          </gpxtpx:TrackPointExtension>
        </extensions>
      </trkpt>
      <trkpt lat="43.582" lon="3.00065">
        <ele>364.4004</ele>
        <time>2026-08-30T08:09:56+02:00</time>
        <extensions>
          <gpxtpx:TrackPointExtension xmlns:gpxtpx="http://www.garmin.com/xmlschemas/TrackPointExtension/v1">
            <gpxtpx:hr>137</gpxtpx:hr>
          </gpxtpx:TrackPointExtension>
        </extensions>
      </trkpt>
      <trkpt lat="43.58204" lon="3.00068">
        <ele>366.6006</ele>
        <time>2026-08-30T08:09:57+02:00</time>
        <extensions>
          <gpxtpx:TrackPointExtension xmlns:gpxtpx="http://www.garmin.com/xmlschemas/TrackPointExtension/v1">
            <gpxtpx:hr>138</gpxtpx:hr>
          </gpxtpx:TrackPointExtension>
        </extensions>
      </trkpt>
      <trkpt lat="43.58205" lon="3.00068">
        <ele>366.6006</ele>
        <time>2026-08-30T08:10:01+02:00</time>
        <extensions>
          <gpxtpx:TrackPointExtension xmlns:gpxtpx="http://www.garmin.com/xmlschemas/TrackPointExtension/v1">
            <gpxtpx:hr>137</gpxtpx:hr>
          </gpxtpx:TrackPointExtension>
        </extensions>
      </trkpt>
      <trkpt lat="43.58205" lon="3.00064">
        <ele>364.2998</ele>
        <time>2026-08-30T08:10:02+02:00</time>
        <extensions>
          <gpxtpx:TrackPointExtension xmlns:gpxtpx="http://www.garmin.com/xmlschemas/TrackPointExtension/v1">
            <gpxtpx:hr>137</gpxtpx:hr>
          </gpxtpx:TrackPointExtension>
        </extensions>
      </trkpt>
      <trkpt lat="43.58205" lon="3.00063">
        <ele>364.2998</ele>
        <time>2026-08-30T08:10:06+02:00</time>
        <extensions>
          <gpxtpx:TrackPointExtension xmlns:gpxtpx="http://www.garmin.com/xmlschemas/TrackPointExtension/v1">
            <gpxtpx:hr>137</gpxtpx:hr>
          </gpxtpx:TrackPointExtension>
        </extensions>
      </trkpt>
      <trkpt lat="43.5821" lon="3.00065">
        <ele>368.9004</ele>
        <time>2026-08-30T08:10:07+02:00</time>
        <extensions>
          <gpxtpx:TrackPointExtension xmlns:gpxtpx="http://www.garmin.com/xmlschemas/TrackPointExtension/v1">
            <gpxtpx:hr>138</gpxtpx:hr>
          </gpxtpx:TrackPointExtension>
        </extensions>
      </trkpt>
      <trkpt lat="43.58211" lon="3.00069">
        <ele>368.9004</ele>
        <time>2026-08-30T08:10:11+02:00</time>
      </trkpt>
      <trkpt lat="43.58211" lon="3.00069">
        <ele>368.9004</ele>
        <time>2026-08-30T08:10:12+02:00</time>
        <extensions>
          <gpxtpx:TrackPointExtension xmlns:gpxtpx="http://www.garmin.com/xmlschemas/TrackPointExtension/v1">
            <gpxtpx:hr>140</gpxtpx:hr>
          </gpxtpx:TrackPointExtension>
        </extensions>
      </trkpt>
      <trkpt lat="43.58212" lon="3.00071">
        <ele>368.9004</ele>
        <time>2026-08-30T08:10:16+02:00</time>
      </trkpt>
      <trkpt lat="43.58212" lon="3.00071">
        <ele>368.9004</ele>
        <time>2026-08-30T08:10:17+02:00</time>
        <extensions>
          <gpxtpx:TrackPointExtension xmlns:gpxtpx="http://www.garmin.com/xmlschemas/TrackPointExtension/v1">
            <gpxtpx:hr>141</gpxtpx:hr>
          </gpxtpx:TrackPointExtension>
        </extensions>
      </trkpt>
      <trkpt lat="43.58214" lon="3.00073">
        <ele>373.6006</ele>
        <time>2026-08-30T08:10:21+02:00</time>
      </trkpt>
      <trkpt lat="43.58214" lon="3.00073">
        <ele>373.6006</ele>
        <time>2026-08-30T08:10:22+02:00</time>
        <extensions>
          <gpxtpx:TrackPointExtension xmlns:gpxtpx="http://www.garmin.com/xmlschemas/TrackPointExtension/v1">
            <gpxtpx:hr>142</gpxtpx:hr>
          </gpxtpx:TrackPointExtension>
        </extensions>
      </trkpt>
      <trkpt lat="43.58215" lon="3.00074">
        <ele>373.6006</ele>
        <time>2026-08-30T08:10:26+02:00</time>
      </trkpt>
      <trkpt lat="43.58216" lon="3.00075">
        <ele>373.6006</ele>
        <time>2026-08-30T08:10:27+02:00</time>
        <extensions>
          <gpxtpx:TrackPointExtension xmlns:gpxtpx="http://www.garmin.com/xmlschemas/TrackPointExtension/v1">
            <gpxtpx:hr>141</gpxtpx:hr>
          </gpxtpx:TrackPointExtension>
        </extensions>
      </trkpt>
      <trkpt lat="43.58217" lon="3.00075">
        <ele>373.6006</ele>
        <time>2026-08-30T08:10:31+02:00</time>
        <extensions>
          <gpxtpx:TrackPointExtension xmlns:gpxtpx="http://www.garmin.com/xmlschemas/TrackPointExtension/v1">
            <gpxtpx:hr>142</gpxtpx:hr>
          </gpxtpx:TrackPointExtension>
        </extensions>
      </trkpt>
      <trkpt lat="43.58221" lon="3.00079">
        <ele>375.9004</ele>
        <time>2026-08-30T08:10:32+02:00</time>
        <extensions>
          <gpxtpx:TrackPointExtension xmlns:gpxtpx="http://www.garmin.com/xmlschemas/TrackPointExtension/v1">
            <gpxtpx:hr>144</gpxtpx:hr>
          </gpxtpx:TrackPointExtension>
        </extensions>
      </trkpt>
      <trkpt lat="43.58223" lon="3.00079">
        <ele>375.9004</ele>
        <time>2026-08-30T08:10:36+02:00</time>
      </trkpt>
      <trkpt lat="43.58223" lon="3.00079">
        <ele>375.9004</ele>
        <time>2026-08-30T08:10:37+02:00</time>
        <extensions>
          <gpxtpx:TrackPointExtension xmlns:gpxtpx="http://www.garmin.com/xmlschemas/TrackPointExtension/v1">
            <gpxtpx:hr>143</gpxtpx:hr>
          </gpxtpx:TrackPointExtension>
        </extensions>
      </trkpt>
      <trkpt lat="43.58225" lon="3.00081">
        <ele>375.9004</ele>
        <time>2026-08-30T08:10:41+02:00</time>
      </trkpt>
      <trkpt lat="43.58225" lon="3.00081">
        <ele>375.9004</ele>
        <time>2026-08-30T08:10:42+02:00</time>
        <extensions>
          <gpxtpx:TrackPointExtension xmlns:gpxtpx="http://www.garmin.com/xmlschemas/TrackPointExtension/v1">
            <gpxtpx:hr>144</gpxtpx:hr>
          </gpxtpx:TrackPointExtension>
        </extensions>
      </trkpt>
      <trkpt lat="43.58226" lon="3.00082">
        <ele>380.6006</ele>
        <time>2026-08-30T08:10:46+02:00</time>
      </trkpt>
      <trkpt lat="43.58226" lon="3.00082">
        <ele>380.6006</ele>
        <time>2026-08-30T08:10:47+02:00</time>
        <extensions>
          <gpxtpx:TrackPointExtension xmlns:gpxtpx="http://www.garmin.com/xmlschemas/TrackPointExtension/v1">
            <gpxtpx:hr>145</gpxtpx:hr>
          </gpxtpx:TrackPointExtension>
        </extensions>
      </trkpt>
      <trkpt lat="43.58227" lon="3.00084">
        <ele>380.6006</ele>
        <time>2026-08-30T08:10:51+02:00</time>
        <extensions>
          <gpxtpx:TrackPointExtension xmlns:gpxtpx="http://www.garmin.com/xmlschemas/TrackPointExtension/v1">
            <gpxtpx:hr>144</gpxtpx:hr>
          </gpxtpx:TrackPointExtension>
        </extensions>
      </trkpt>
      <trkpt lat="43.58229" lon="3.00087">
        <ele>380.6006</ele>
        <time>2026-08-30T08:10:52+02:00</time>
        <extensions>
          <gpxtpx:TrackPointExtension xmlns:gpxtpx="http://www.garmin.com/xmlschemas/TrackPointExtension/v1">
            <gpxtpx:hr>146</gpxtpx:hr>
          </gpxtpx:TrackPointExtension>
        </extensions>
      </trkpt>
      <trkpt lat="43.58229" lon="3.00089">
        <ele>380.6006</ele>
        <time>2026-08-30T08:10:56+02:00</time>
      </trkpt>
      <trkpt lat="43.58229" lon="3.0009">
        <ele>380.6006</ele>
        <time>2026-08-30T08:10:57+02:00</time>
        <extensions>
          <gpxtpx:TrackPointExtension xmlns:gpxtpx="http://www.garmin.com/xmlschemas/TrackPointExtension/v1">
            <gpxtpx:hr>146</gpxtpx:hr>
          </gpxtpx:TrackPointExtension>
        </extensions>
      </trkpt>
      <trkpt lat="43.58231" lon="3.00093">
        <ele>382.9004</ele>
        <time>2026-08-30T08:11:01+02:00</time>
      </trkpt>
      <trkpt lat="43.58231" lon="3.00093">
        <ele>382.9004</ele>
        <time>2026-08-30T08:11:02+02:00</time>
        <extensions>
          <gpxtpx:TrackPointExtension xmlns:gpxtpx="http://www.garmin.com/xmlschemas/TrackPointExtension/v1">
            <gpxtpx:hr>144</gpxtpx:hr>
          </gpxtpx:TrackPointExtension>
        </extensions>
      </trkpt>
      <trkpt lat="43.58231" lon="3.00096">
        <ele>382.9004</ele>
        <time>2026-08-30T08:11:06+02:00</time>
      </trkpt>
      <trkpt lat="43.58231" lon="3.00097">
        <ele>382.9004</ele>
        <time>2026-08-30T08:11:07+02:00</time>
        <extensions>
          <gpxtpx:TrackPointExtension xmlns:gpxtpx="http://www.garmin.com/xmlschemas/TrackPointExtension/v1">
            <gpxtpx:hr>143</gpxtpx:hr>
          </gpxtpx:TrackPointExtension>
        </extensions>
      </trkpt>
      <trkpt lat="43.58233" lon="3.001">
        <ele>387.5</ele>
        <time>2026-08-30T08:11:11+02:00</time>
      </trkpt>
      <trkpt lat="43.58233" lon="3.00101">
        <ele>387.5</ele>
        <time>2026-08-30T08:11:12+02:00</time>
        <extensions>
          <gpxtpx:TrackPointExtension xmlns:gpxtpx="http://www.garmin.com/xmlschemas/TrackPointExtension/v1">
            <gpxtpx:hr>144</gpxtpx:hr>
          </gpxtpx:TrackPointExtension>
        </extensions>
      </trkpt>
      <trkpt lat="43.58233" lon="3.00104">
        <ele>387.5</ele>
        <time>2026-08-30T08:11:16+02:00</time>
      </trkpt>
      <trkpt lat="43.58233" lon="3.00104">
        <ele>387.5</ele>
        <time>2026-08-30T08:11:17+02:00</time>
        <extensions>
          <gpxtpx:TrackPointExtension xmlns:gpxtpx="http://www.garmin.com/xmlschemas/TrackPointExtension/v1">
            <gpxtpx:hr>141</gpxtpx:hr>
          </gpxtpx:TrackPointExtension>
        </extensions>
      </trkpt>
      <trkpt lat="43.58234" lon="3.00106">
        <ele>387.5</ele>
        <time>2026-08-30T08:11:21+02:00</time>
      </trkpt>
      <trkpt lat="43.58235" lon="3.00107">
        <ele>387.5</ele>
        <time>2026-08-30T08:11:22+02:00</time>
        <extensions>
          <gpxtpx:TrackPointExtension xmlns:gpxtpx="http://www.garmin.com/xmlschemas/TrackPointExtension/v1">
            <gpxtpx:hr>137</gpxtpx:hr>
          </gpxtpx:TrackPointExtension>
        </extensions>
      </trkpt>
      <trkpt lat="43.58235" lon="3.00108">
        <ele>389.6006</ele>
        <time>2026-08-30T08:11:26+02:00</time>
      </trkpt>
      <trkpt lat="43.58235" lon="3.00108">
        <ele>389.6006</ele>
        <time>2026-08-30T08:11:27+02:00</time>
        <extensions>
          <gpxtpx:TrackPointExtension xmlns:gpxtpx="http://www.garmin.com/xmlschemas/TrackPointExtension/v1">
            <gpxtpx:hr>138</gpxtpx:hr>
          </gpxtpx:TrackPointExtension>
        </extensions>
      </trkpt>
      <trkpt lat="43.58236" lon="3.0011">
        <ele>389.6006</ele>
        <time>2026-08-30T08:11:31+02:00</time>
        <extensions>
          <gpxtpx:TrackPointExtension xmlns:gpxtpx="http://www.garmin.com/xmlschemas/TrackPointExtension/v1">
            <gpxtpx:hr>141</gpxtpx:hr>
          </gpxtpx:TrackPointExtension>
        </extensions>
      </trkpt>
      <trkpt lat="43.58238" lon="3.00114">
        <ele>392</ele>
        <time>2026-08-30T08:11:32+02:00</time>
        <extensions>
          <gpxtpx:TrackPointExtension xmlns:gpxtpx="http://www.garmin.com/xmlschemas/TrackPointExtension/v1">
            <gpxtpx:hr>142</gpxtpx:hr>
          </gpxtpx:TrackPointExtension>
        </extensions>
      </trkpt>
      <trkpt lat="43.58238" lon="3.00115">
        <ele>392</ele>
        <time>2026-08-30T08:11:36+02:00</time>
      </trkpt>
      <trkpt lat="43.58238" lon="3.00115">
        <ele>389.6006</ele>
        <time>2026-08-30T08:11:37+02:00</time>
        <extensions>
          <gpxtpx:TrackPointExtension xmlns:gpxtpx="http://www.garmin.com/xmlschemas/TrackPointExtension/v1">
            <gpxtpx:hr>142</gpxtpx:hr>
          </gpxtpx:TrackPointExtension>
        </extensions>
      </trkpt>
      <trkpt lat="43.58239" lon="3.00117">
        <ele>394</ele>
        <time>2026-08-30T08:11:41+02:00</time>
        <extensions>
          <gpxtpx:TrackPointExtension xmlns:gpxtpx="http://www.garmin.com/xmlschemas/TrackPointExtension/v1">
            <gpxtpx:hr>141</gpxtpx:hr>
          </gpxtpx:TrackPointExtension>
        </extensions>
      </trkpt>
      <trkpt lat="43.58242" lon="3.00116">
        <ele>392</ele>
        <time>2026-08-30T08:11:42+02:00</time>
        <extensions>
          <gpxtpx:TrackPointExtension xmlns:gpxtpx="http://www.garmin.com/xmlschemas/TrackPointExtension/v1">
            <gpxtpx:hr>141</gpxtpx:hr>
          </gpxtpx:TrackPointExtension>
        </extensions>
      </trkpt>
      <trkpt lat="43.58244" lon="3.00117">
        <ele>394</ele>
        <time>2026-08-30T08:11:46+02:00</time>
        <extensions>
          <gpxtpx:TrackPointExtension xmlns:gpxtpx="http://www.garmin.com/xmlschemas/TrackPointExtension/v1">
            <gpxtpx:hr>143</gpxtpx:hr>
          </gpxtpx:TrackPointExtension>
        </extensions>
      </trkpt>
      <trkpt lat="43.58247" lon="3.00128">
        <ele>398.4004</ele>
        <time>2026-08-30T08:11:47+02:00</time>
        <extensions>
          <gpxtpx:TrackPointExtension xmlns:gpxtpx="http://www.garmin.com/xmlschemas/TrackPointExtension/v1">
            <gpxtpx:hr>143</gpxtpx:hr>
          </gpxtpx:TrackPointExtension>
        </extensions>
      </trkpt>
      <trkpt lat="43.58248" lon="3.00131">
        <ele>398.4004</ele>
        <time>2026-08-30T08:11:51+02:00</time>
      </trkpt>
      <trkpt lat="43.58248" lon="3.00132">
        <ele>398.4004</ele>
        <time>2026-08-30T08:11:52+02:00</time>
        <extensions>
          <gpxtpx:TrackPointExtension xmlns:gpxtpx="http://www.garmin.com/xmlschemas/TrackPointExtension/v1">
            <gpxtpx:hr>143</gpxtpx:hr>
          </gpxtpx:TrackPointExtension>
        </extensions>
      </trkpt>
      <trkpt lat="43.58247" lon="3.00135">
        <ele>400.4004</ele>
        <time>2026-08-30T08:11:56+02:00</time>
      </trkpt>
      <trkpt lat="43.58247" lon="3.00136">
        <ele>400.4004</ele>
        <time>2026-08-30T08:11:57+02:00</time>
        <extensions>
          <gpxtpx:TrackPointExtension xmlns:gpxtpx="http://www.garmin.com/xmlschemas/TrackPointExtension/v1">
            <gpxtpx:hr>143</gpxtpx:hr>
          </gpxtpx:TrackPointExtension>
        </extensions>
      </trkpt>
      <trkpt lat="43.5825" lon="3.00137">
        <ele>400.4004</ele>
        <time>2026-08-30T08:12:01+02:00</time>
      </trkpt>
      <trkpt lat="43.5825" lon="3.00137">
        <ele>400.4004</ele>
        <time>2026-08-30T08:12:02+02:00</time>
        <extensions>
          <gpxtpx:TrackPointExtension xmlns:gpxtpx="http://www.garmin.com/xmlschemas/TrackPointExtension/v1">
            <gpxtpx:hr>142</gpxtpx:hr>
          </gpxtpx:TrackPointExtension>
        </extensions>
      </trkpt>
      <trkpt lat="43.58251" lon="3.00139">
        <ele>402.9004</ele>
        <time>2026-08-30T08:12:06+02:00</time>
      </trkpt>
      <trkpt lat="43.58252" lon="3.0014">
        <ele>402.9004</ele>
        <time>2026-08-30T08:12:07+02:00</time>
        <extensions>
          <gpxtpx:TrackPointExtension xmlns:gpxtpx="http://www.garmin.com/xmlschemas/TrackPointExtension/v1">
            <gpxtpx:hr>142</gpxtpx:hr>
          </gpxtpx:TrackPointExtension>
        </extensions>
      </trkpt>
      <trkpt lat="43.58252" lon="3.00142">
        <ele>404.7998</ele>
        <time>2026-08-30T08:12:11+02:00</time>
      </trkpt>
      <trkpt lat="43.58253" lon="3.00143">
        <ele>404.7998</ele>
        <time>2026-08-30T08:12:12+02:00</time>
        <extensions>
          <gpxtpx:TrackPointExtension xmlns:gpxtpx="http://www.garmin.com/xmlschemas/TrackPointExtension/v1">
            <gpxtpx:hr>137</gpxtpx:hr>
          </gpxtpx:TrackPointExtension>
        </extensions>
      </trkpt>
      <trkpt lat="43.58255" lon="3.00145">
        <ele>404.7998</ele>
        <time>2026-08-30T08:12:16+02:00</time>
      </trkpt>
      <trkpt lat="43.58255" lon="3.00147">
        <ele>404.7998</ele>
        <time>2026-08-30T08:12:17+02:00</time>
        <extensions>
          <gpxtpx:TrackPointExtension xmlns:gpxtpx="http://www.garmin.com/xmlschemas/TrackPointExtension/v1">
            <gpxtpx:hr>140</gpxtpx:hr>
          </gpxtpx:TrackPointExtension>
        </extensions>
      </trkpt>
      <trkpt lat="43.58257" lon="3.0015">
        <ele>407.2998</ele>
        <time>2026-08-30T08:12:21+02:00</time>
      </trkpt>
      <trkpt lat="43.58257" lon="3.0015">
        <ele>407.2998</ele>
        <time>2026-08-30T08:12:22+02:00</time>
        <extensions>
          <gpxtpx:TrackPointExtension xmlns:gpxtpx="http://www.garmin.com/xmlschemas/TrackPointExtension/v1">
            <gpxtpx:hr>136</gpxtpx:hr>
          </gpxtpx:TrackPointExtension>
        </extensions>
      </trkpt>
      <trkpt lat="43.58257" lon="3.00152">
        <ele>409.2998</ele>
        <time>2026-08-30T08:12:26+02:00</time>
      </trkpt>
      <trkpt lat="43.58257" lon="3.00152">
        <ele>406.7998</ele>
        <time>2026-08-30T08:12:27+02:00</time>
        <extensions>
          <gpxtpx:TrackPointExtension xmlns:gpxtpx="http://www.garmin.com/xmlschemas/TrackPointExtension/v1">
            <gpxtpx:hr>131</gpxtpx:hr>
          </gpxtpx:TrackPointExtension>
        </extensions>
      </trkpt>
      <trkpt lat="43.58256" lon="3.00154">
        <ele>406.7998</ele>
        <time>2026-08-30T08:12:31+02:00</time>
        <extensions>
          <gpxtpx:TrackPointExtension xmlns:gpxtpx="http://www.garmin.com/xmlschemas/TrackPointExtension/v1">
            <gpxtpx:hr>126</gpxtpx:hr>
          </gpxtpx:TrackPointExtension>
        </extensions>
      </trkpt>
      <trkpt lat="43.58261" lon="3.00161">
        <ele>411.2002</ele>
        <time>2026-08-30T08:12:32+02:00</time>
        <extensions>
          <gpxtpx:TrackPointExtension xmlns:gpxtpx="http://www.garmin.com/xmlschemas/TrackPointExtension/v1">
            <gpxtpx:hr>137</gpxtpx:hr>
          </gpxtpx:TrackPointExtension>
        </extensions>
      </trkpt>
      <trkpt lat="43.58262" lon="3.00164">
        <ele>411.2002</ele>
        <time>2026-08-30T08:12:36+02:00</time>
      </trkpt>
      <trkpt lat="43.58262" lon="3.00164">
        <ele>411.2002</ele>
        <time>2026-08-30T08:12:37+02:00</time>
        <extensions>
          <gpxtpx:TrackPointExtension xmlns:gpxtpx="http://www.garmin.com/xmlschemas/TrackPointExtension/v1">
            <gpxtpx:hr>138</gpxtpx:hr>
          </gpxtpx:TrackPointExtension>
        </extensions>
      </trkpt>
      <trkpt lat="43.58263" lon="3.00166">
        <ele>413.7998</ele>
        <time>2026-08-30T08:12:41+02:00</time>
      </trkpt>
      <trkpt lat="43.58263" lon="3.00167">
        <ele>413.7998</ele>
        <time>2026-08-30T08:12:42+02:00</time>
        <extensions>
          <gpxtpx:TrackPointExtension xmlns:gpxtpx="http://www.garmin.com/xmlschemas/TrackPointExtension/v1">
            <gpxtpx:hr>138</gpxtpx:hr>
          </gpxtpx:TrackPointExtension>
        </extensions>
      </trkpt>
      <trkpt lat="43.58264" lon="3.00168">
        <ele>415.7002</ele>
        <time>2026-08-30T08:12:46+02:00</time>
      </trkpt>
      <trkpt lat="43.58264" lon="3.00169">
        <ele>415.7002</ele>
        <time>2026-08-30T08:12:47+02:00</time>
        <extensions>
          <gpxtpx:TrackPointExtension xmlns:gpxtpx="http://www.garmin.com/xmlschemas/TrackPointExtension/v1">
            <gpxtpx:hr>138</gpxtpx:hr>
          </gpxtpx:TrackPointExtension>
        </extensions>
      </trkpt>
      <trkpt lat="43.58266" lon="3.00171">
        <ele>415.7002</ele>
        <time>2026-08-30T08:12:51+02:00</time>
      </trkpt>
      <trkpt lat="43.58266" lon="3.00171">
        <ele>415.7002</ele>
        <time>2026-08-30T08:12:52+02:00</time>
        <extensions>
          <gpxtpx:TrackPointExtension xmlns:gpxtpx="http://www.garmin.com/xmlschemas/TrackPointExtension/v1">
            <gpxtpx:hr>138</gpxtpx:hr>
          </gpxtpx:TrackPointExtension>
        </extensions>
      </trkpt>
      <trkpt lat="43.58267" lon="3.00173">
        <ele>415.7002</ele>
        <time>2026-08-30T08:12:56+02:00</time>
        <extensions>
          <gpxtpx:TrackPointExtension xmlns:gpxtpx="http://www.garmin.com/xmlschemas/TrackPointExtension/v1">
            <gpxtpx:hr>141</gpxtpx:hr>
          </gpxtpx:TrackPointExtension>
        </extensions>
      </trkpt>
      <trkpt lat="43.58268" lon="3.00176">
        <ele>415.7002</ele>
        <time>2026-08-30T08:12:57+02:00</time>
        <extensions>
          <gpxtpx:TrackPointExtension xmlns:gpxtpx="http://www.garmin.com/xmlschemas/TrackPointExtension/v1">
            <gpxtpx:hr>143</gpxtpx:hr>
          </gpxtpx:TrackPointExtension>
        </extensions>
      </trkpt>
      <trkpt lat="43.58269" lon="3.00177">
        <ele>420.2002</ele>
        <time>2026-08-30T08:13:01+02:00</time>
        <extensions>
          <gpxtpx:TrackPointExtension xmlns:gpxtpx="http://www.garmin.com/xmlschemas/TrackPointExtension/v1">
            <gpxtpx:hr>143</gpxtpx:hr>
          </gpxtpx:TrackPointExtension>
        </extensions>
      </trkpt>
      <trkpt lat="43.5827" lon="3.00178">
        <ele>420.2002</ele>
        <time>2026-08-30T08:13:02+02:00</time>
        <extensions>
          <gpxtpx:TrackPointExtension xmlns:gpxtpx="http://www.garmin.com/xmlschemas/TrackPointExtension/v1">
            <gpxtpx:hr>140</gpxtpx:hr>
          </gpxtpx:TrackPointExtension>
        </extensions>
      </trkpt>
      <trkpt lat="43.5827" lon="3.00182">
        <ele>420.2002</ele>
        <time>2026-08-30T08:13:06+02:00</time>
      </trkpt>
      <trkpt lat="43.5827" lon="3.00183">
        <ele>420.2002</ele>
        <time>2026-08-30T08:13:07+02:00</time>
        <extensions>
          <gpxtpx:TrackPointExtension xmlns:gpxtpx="http://www.garmin.com/xmlschemas/TrackPointExtension/v1">
            <gpxtpx:hr>140</gpxtpx:hr>
          </gpxtpx:TrackPointExtension>
        </extensions>
      </trkpt>
      <trkpt lat="43.58271" lon="3.00185">
        <ele>421.9004</ele>
        <time>2026-08-30T08:13:11+02:00</time>
        <extensions>
          <gpxtpx:TrackPointExtension xmlns:gpxtpx="http://www.garmin.com/xmlschemas/TrackPointExtension/v1">
            <gpxtpx:hr>140</gpxtpx:hr>
          </gpxtpx:TrackPointExtension>
        </extensions>
      </trkpt>
      <trkpt lat="43.58274" lon="3.00193">
        <ele>423.5</ele>
        <time>2026-08-30T08:13:12+02:00</time>
      </trkpt>
      <trkpt lat="43.58276" lon="3.00194">
        <ele>426.2002</ele>
        <time>2026-08-30T08:13:16+02:00</time>
        <extensions>
          <gpxtpx:TrackPointExtension xmlns:gpxtpx="http://www.garmin.com/xmlschemas/TrackPointExtension/v1">
            <gpxtpx:hr>139</gpxtpx:hr>
          </gpxtpx:TrackPointExtension>
        </extensions>
      </trkpt>
      <trkpt lat="43.58276" lon="3.00193">
        <ele>426.2002</ele>
        <time>2026-08-30T08:13:17+02:00</time>
      </trkpt>
      <trkpt lat="43.58278" lon="3.00193">
        <ele>426.2002</ele>
        <time>2026-08-30T08:13:21+02:00</time>
        <extensions>
          <gpxtpx:TrackPointExtension xmlns:gpxtpx="http://www.garmin.com/xmlschemas/TrackPointExtension/v1">
            <gpxtpx:hr>139</gpxtpx:hr>
          </gpxtpx:TrackPointExtension>
        </extensions>
      </trkpt>
      <trkpt lat="43.58279" lon="3.00193">
        <ele>426.2002</ele>
        <time>2026-08-30T08:13:22+02:00</time>
      </trkpt>
      <trkpt lat="43.5828" lon="3.00194">
        <ele>426.2002</ele>
        <time>2026-08-30T08:13:26+02:00</time>
        <extensions>
          <gpxtpx:TrackPointExtension xmlns:gpxtpx="http://www.garmin.com/xmlschemas/TrackPointExtension/v1">
            <gpxtpx:hr>137</gpxtpx:hr>
          </gpxtpx:TrackPointExtension>
        </extensions>
      </trkpt>
      <trkpt lat="43.58284" lon="3.00193">
        <ele>427.2998</ele>
        <time>2026-08-30T08:13:27+02:00</time>
        <extensions>
          <gpxtpx:TrackPointExtension xmlns:gpxtpx="http://www.garmin.com/xmlschemas/TrackPointExtension/v1">
            <gpxtpx:hr>140</gpxtpx:hr>
          </gpxtpx:TrackPointExtension>
        </extensions>
      </trkpt>
      <trkpt lat="43.58285" lon="3.00196">
        <ele>428.9004</ele>
        <time>2026-08-30T08:13:31+02:00</time>
      </trkpt>
      <trkpt lat="43.58285" lon="3.00197">
        <ele>428.9004</ele>
        <time>2026-08-30T08:13:32+02:00</time>
        <extensions>
          <gpxtpx:TrackPointExtension xmlns:gpxtpx="http://www.garmin.com/xmlschemas/TrackPointExtension/v1">
            <gpxtpx:hr>139</gpxtpx:hr>
          </gpxtpx:TrackPointExtension>
        </extensions>
      </trkpt>
      <trkpt lat="43.58286" lon="3.00199">
        <ele>428.9004</ele>
        <time>2026-08-30T08:13:36+02:00</time>
      </trkpt>
      <trkpt lat="43.58286" lon="3.002">
        <ele>428.9004</ele>
        <time>2026-08-30T08:13:37+02:00</time>
        <extensions>
          <gpxtpx:TrackPointExtension xmlns:gpxtpx="http://www.garmin.com/xmlschemas/TrackPointExtension/v1">
            <gpxtpx:hr>137</gpxtpx:hr>
          </gpxtpx:TrackPointExtension>
        </extensions>
      </trkpt>
      <trkpt lat="43.58287" lon="3.00203">
        <ele>430.4004</ele>
        <time>2026-08-30T08:13:41+02:00</time>
      </trkpt>
      <trkpt lat="43.58287" lon="3.00204">
        <ele>430.4004</ele>
        <time>2026-08-30T08:13:42+02:00</time>
        <extensions>
          <gpxtpx:TrackPointExtension xmlns:gpxtpx="http://www.garmin.com/xmlschemas/TrackPointExtension/v1">
            <gpxtpx:hr>139</gpxtpx:hr>
          </gpxtpx:TrackPointExtension>
        </extensions>
      </trkpt>
      <trkpt lat="43.58288" lon="3.00205">
        <ele>433.2002</ele>
        <time>2026-08-30T08:13:46+02:00</time>
      </trkpt>
      <trkpt lat="43.58289" lon="3.00205">
        <ele>433.2002</ele>
        <time>2026-08-30T08:13:47+02:00</time>
        <extensions>
          <gpxtpx:TrackPointExtension xmlns:gpxtpx="http://www.garmin.com/xmlschemas/TrackPointExtension/v1">
            <gpxtpx:hr>146</gpxtpx:hr>
          </gpxtpx:TrackPointExtension>
        </extensions>
      </trkpt>
      <trkpt lat="43.58289" lon="3.00209">
        <ele>433.2002</ele>
        <time>2026-08-30T08:13:51+02:00</time>
      </trkpt>
      <trkpt lat="43.58289" lon="3.0021">
        <ele>433.2002</ele>
        <time>2026-08-30T08:13:52+02:00</time>
        <extensions>
          <gpxtpx:TrackPointExtension xmlns:gpxtpx="http://www.garmin.com/xmlschemas/TrackPointExtension/v1">
            <gpxtpx:hr>143</gpxtpx:hr>
          </gpxtpx:TrackPointExtension>
        </extensions>
      </trkpt>
      <trkpt lat="43.58292" lon="3.00212">
        <ele>434.5</ele>
        <time>2026-08-30T08:13:56+02:00</time>
      </trkpt>
      <trkpt lat="43.58292" lon="3.00212">
        <ele>434.5</ele>
        <time>2026-08-30T08:13:57+02:00</time>
        <extensions>
          <gpxtpx:TrackPointExtension xmlns:gpxtpx="http://www.garmin.com/xmlschemas/TrackPointExtension/v1">
            <gpxtpx:hr>141</gpxtpx:hr>
          </gpxtpx:TrackPointExtension>
        </extensions>
      </trkpt>
      <trkpt lat="43.58293" lon="3.00214">
        <ele>434.5</ele>
        <time>2026-08-30T08:14:01+02:00</time>
      </trkpt>
      <trkpt lat="43.58293" lon="3.00215">
        <ele>434.5</ele>
        <time>2026-08-30T08:14:02+02:00</time>
        <extensions>
          <gpxtpx:TrackPointExtension xmlns:gpxtpx="http://www.garmin.com/xmlschemas/TrackPointExtension/v1">
            <gpxtpx:hr>136</gpxtpx:hr>
          </gpxtpx:TrackPointExtension>
        </extensions>
      </trkpt>
      <trkpt lat="43.58295" lon="3.00217">
        <ele>437.2002</ele>
        <time>2026-08-30T08:14:06+02:00</time>
      </trkpt>
      <trkpt lat="43.58295" lon="3.00217">
        <ele>437.2002</ele>
        <time>2026-08-30T08:14:07+02:00</time>
        <extensions>
          <gpxtpx:TrackPointExtension xmlns:gpxtpx="http://www.garmin.com/xmlschemas/TrackPointExtension/v1">
            <gpxtpx:hr>136</gpxtpx:hr>
          </gpxtpx:TrackPointExtension>
        </extensions>
      </trkpt>
      <trkpt lat="43.58296" lon="3.00218">
        <ele>437.2002</ele>
        <time>2026-08-30T08:14:11+02:00</time>
        <extensions>
          <gpxtpx:TrackPointExtension xmlns:gpxtpx="http://www.garmin.com/xmlschemas/TrackPointExtension/v1">
            <gpxtpx:hr>137</gpxtpx:hr>
          </gpxtpx:TrackPointExtension>
        </extensions>
      </trkpt>
      <trkpt lat="43.58301" lon="3.0022">
        <ele>441.2002</ele>
        <time>2026-08-30T08:14:12+02:00</time>
        <extensions>
          <gpxtpx:TrackPointExtension xmlns:gpxtpx="http://www.garmin.com/xmlschemas/TrackPointExtension/v1">
            <gpxtpx:hr>143</gpxtpx:hr>
          </gpxtpx:TrackPointExtension>
        </extensions>
      </trkpt>
      <trkpt lat="43.58303" lon="3.00224">
        <ele>441.2002</ele>
        <time>2026-08-30T08:14:16+02:00</time>
      </trkpt>
      <trkpt lat="43.58303" lon="3.00225">
        <ele>441.2002</ele>
        <time>2026-08-30T08:14:17+02:00</time>
        <extensions>
          <gpxtpx:TrackPointExtension xmlns:gpxtpx="http://www.garmin.com/xmlschemas/TrackPointExtension/v1">
            <gpxtpx:hr>141</gpxtpx:hr>
          </gpxtpx:TrackPointExtension>
        </extensions>
      </trkpt>
      <trkpt lat="43.58305" lon="3.00227">
        <ele>441.2002</ele>
        <time>2026-08-30T08:14:21+02:00</time>
      </trkpt>
      <trkpt lat="43.58306" lon="3.00226">
        <ele>441.2002</ele>
        <time>2026-08-30T08:14:22+02:00</time>
        <extensions>
          <gpxtpx:TrackPointExtension xmlns:gpxtpx="http://www.garmin.com/xmlschemas/TrackPointExtension/v1">
            <gpxtpx:hr>139</gpxtpx:hr>
          </gpxtpx:TrackPointExtension>
        </extensions>
      </trkpt>
      <trkpt lat="43.58306" lon="3.00226">
        <ele>441.2002</ele>
        <time>2026-08-30T08:14:26+02:00</time>
      </trkpt>
      <trkpt lat="43.58307" lon="3.00226">
        <ele>444.1006</ele>
        <time>2026-08-30T08:14:27+02:00</time>
        <extensions>
          <gpxtpx:TrackPointExtension xmlns:gpxtpx="http://www.garmin.com/xmlschemas/TrackPointExtension/v1">
            <gpxtpx:hr>141</gpxtpx:hr>
          </gpxtpx:TrackPointExtension>
        </extensions>
      </trkpt>
      <trkpt lat="43.58308" lon="3.00228">
        <ele>445.1006</ele>
        <time>2026-08-30T08:14:31+02:00</time>
      </trkpt>
      <trkpt lat="43.58308" lon="3.00229">
        <ele>445.1006</ele>
        <time>2026-08-30T08:14:32+02:00</time>
        <extensions>
          <gpxtpx:TrackPointExtension xmlns:gpxtpx="http://www.garmin.com/xmlschemas/TrackPointExtension/v1">
            <gpxtpx:hr>141</gpxtpx:hr>
          </gpxtpx:TrackPointExtension>
        </extensions>
      </trkpt>
      <trkpt lat="43.58311" lon="3.00231">
        <ele>445.1006</ele>
        <time>2026-08-30T08:14:36+02:00</time>
      </trkpt>
      <trkpt lat="43.58311" lon="3.0023">
        <ele>445.1006</ele>
        <time>2026-08-30T08:14:37+02:00</time>
        <extensions>
          <gpxtpx:TrackPointExtension xmlns:gpxtpx="http://www.garmin.com/xmlschemas/TrackPointExtension/v1">
            <gpxtpx:hr>141</gpxtpx:hr>
          </gpxtpx:TrackPointExtension>
        </extensions>
      </trkpt>
      <trkpt lat="43.58312" lon="3.00229">
        <ele>445.1006</ele>
        <time>2026-08-30T08:14:41+02:00</time>
      </trkpt>
      <trkpt lat="43.58313" lon="3.00229">
        <ele>445.1006</ele>
        <time>2026-08-30T08:14:42+02:00</time>
        <extensions>
          <gpxtpx:TrackPointExtension xmlns:gpxtpx="http://www.garmin.com/xmlschemas/TrackPointExtension/v1">
            <gpxtpx:hr>140</gpxtpx:hr>
          </gpxtpx:TrackPointExtension>
        </extensions>
      </trkpt>
      <trkpt lat="43.58314" lon="3.00229">
        <ele>448.1006</ele>
        <time>2026-08-30T08:14:46+02:00</time>
        <extensions>
          <gpxtpx:TrackPointExtension xmlns:gpxtpx="http://www.garmin.com/xmlschemas/TrackPointExtension/v1">
            <gpxtpx:hr>138</gpxtpx:hr>
          </gpxtpx:TrackPointExtension>
        </extensions>
      </trkpt>
      <trkpt lat="43.58316" lon="3.00227">
        <ele>447</ele>
        <time>2026-08-30T08:14:47+02:00</time>
        <extensions>
          <gpxtpx:TrackPointExtension xmlns:gpxtpx="http://www.garmin.com/xmlschemas/TrackPointExtension/v1">
            <gpxtpx:hr>137</gpxtpx:hr>
          </gpxtpx:TrackPointExtension>
        </extensions>
      </trkpt>
      <trkpt lat="43.58317" lon="3.00226">
        <ele>447</ele>
        <time>2026-08-30T08:14:51+02:00</time>
        <extensions>
          <gpxtpx:TrackPointExtension xmlns:gpxtpx="http://www.garmin.com/xmlschemas/TrackPointExtension/v1">
            <gpxtpx:hr>139</gpxtpx:hr>
          </gpxtpx:TrackPointExtension>
        </extensions>
      </trkpt>
      <trkpt lat="43.5832" lon="3.00223">
        <ele>450.1006</ele>
        <time>2026-08-30T08:14:52+02:00</time>
      </trkpt>
      <trkpt lat="43.58322" lon="3.00221">
        <ele>450.1006</ele>
        <time>2026-08-30T08:14:56+02:00</time>
      </trkpt>
      <trkpt lat="43.58322" lon="3.00221">
        <ele>450.1006</ele>
        <time>2026-08-30T08:14:57+02:00</time>
        <extensions>
          <gpxtpx:TrackPointExtension xmlns:gpxtpx="http://www.garmin.com/xmlschemas/TrackPointExtension/v1">
            <gpxtpx:hr>138</gpxtpx:hr>
          </gpxtpx:TrackPointExtension>
        </extensions>
      </trkpt>
      <trkpt lat="43.58325" lon="3.0022">
        <ele>450.1006</ele>
        <time>2026-08-30T08:15:01+02:00</time>
        <extensions>
          <gpxtpx:TrackPointExtension xmlns:gpxtpx="http://www.garmin.com/xmlschemas/TrackPointExtension/v1">
            <gpxtpx:hr>138</gpxtpx:hr>
          </gpxtpx:TrackPointExtension>
        </extensions>
      </trkpt>
      <trkpt lat="43.58326" lon="3.00219">
        <ele>453.2998</ele>
        <time>2026-08-30T08:15:02+02:00</time>
      </trkpt>
      <trkpt lat="43.58328" lon="3.00218">
        <ele>452</ele>
        <time>2026-08-30T08:15:06+02:00</time>
      </trkpt>
      <trkpt lat="43.58328" lon="3.00218">
        <ele>452</ele>
        <time>2026-08-30T08:15:07+02:00</time>
        <extensions>
          <gpxtpx:TrackPointExtension xmlns:gpxtpx="http://www.garmin.com/xmlschemas/TrackPointExtension/v1">
            <gpxtpx:hr>137</gpxtpx:hr>
          </gpxtpx:TrackPointExtension>
        </extensions>
      </trkpt>
      <trkpt lat="43.5833" lon="3.00216">
        <ele>452</ele>
        <time>2026-08-30T08:15:11+02:00</time>
        <extensions>
          <gpxtpx:TrackPointExtension xmlns:gpxtpx="http://www.garmin.com/xmlschemas/TrackPointExtension/v1">
            <gpxtpx:hr>138</gpxtpx:hr>
          </gpxtpx:TrackPointExtension>
        </extensions>
      </trkpt>
      <trkpt lat="43.5833" lon="3.00215">
        <ele>452</ele>
        <time>2026-08-30T08:15:12+02:00</time>
      </trkpt>
      <trkpt lat="43.58332" lon="3.00212">
        <ele>455.4004</ele>
        <time>2026-08-30T08:15:16+02:00</time>
      </trkpt>
      <trkpt lat="43.58333" lon="3.00212">
        <ele>455.4004</ele>
        <time>2026-08-30T08:15:17+02:00</time>
        <extensions>
          <gpxtpx:TrackPointExtension xmlns:gpxtpx="http://www.garmin.com/xmlschemas/TrackPointExtension/v1">
            <gpxtpx:hr>137</gpxtpx:hr>
          </gpxtpx:TrackPointExtension>
        </extensions>
      </trkpt>
      <trkpt lat="43.58335" lon="3.0021">
        <ele>453.9004</ele>
        <time>2026-08-30T08:15:21+02:00</time>
        <extensions>
          <gpxtpx:TrackPointExtension xmlns:gpxtpx="http://www.garmin.com/xmlschemas/TrackPointExtension/v1">
            <gpxtpx:hr>138</gpxtpx:hr>
          </gpxtpx:TrackPointExtension>
        </extensions>
      </trkpt>
      <trkpt lat="43.58336" lon="3.00209">
        <ele>453.9004</ele>
        <time>2026-08-30T08:15:22+02:00</time>
      </trkpt>
      <trkpt lat="43.58338" lon="3.00208">
        <ele>457.5</ele>
        <time>2026-08-30T08:15:26+02:00</time>
      </trkpt>
      <trkpt lat="43.58339" lon="3.00208">
        <ele>457.5</ele>
        <time>2026-08-30T08:15:27+02:00</time>
        <extensions>
          <gpxtpx:TrackPointExtension xmlns:gpxtpx="http://www.garmin.com/xmlschemas/TrackPointExtension/v1">
            <gpxtpx:hr>139</gpxtpx:hr>
          </gpxtpx:TrackPointExtension>
        </extensions>
      </trkpt>
      <trkpt lat="43.58341" lon="3.0021">
        <ele>458.9004</ele>
        <time>2026-08-30T08:15:31+02:00</time>
        <extensions>
          <gpxtpx:TrackPointExtension xmlns:gpxtpx="http://www.garmin.com/xmlschemas/TrackPointExtension/v1">
            <gpxtpx:hr>140</gpxtpx:hr>
          </gpxtpx:TrackPointExtension>
        </extensions>
      </trkpt>
      <trkpt lat="43.58341" lon="3.00211">
        <ele>458.9004</ele>
        <time>2026-08-30T08:15:32+02:00</time>
      </trkpt>
      <trkpt lat="43.58342" lon="3.00214">
        <ele>458.9004</ele>
        <time>2026-08-30T08:15:36+02:00</time>
      </trkpt>
      <trkpt lat="43.58342" lon="3.00215">
        <ele>458.9004</ele>
        <time>2026-08-30T08:15:37+02:00</time>
        <extensions>
          <gpxtpx:TrackPointExtension xmlns:gpxtpx="http://www.garmin.com/xmlschemas/TrackPointExtension/v1">
            <gpxtpx:hr>139</gpxtpx:hr>
          </gpxtpx:TrackPointExtension>
        </extensions>
      </trkpt>
      <trkpt lat="43.58344" lon="3.00218">
        <ele>458.9004</ele>
        <time>2026-08-30T08:15:41+02:00</time>
        <extensions>
          <gpxtpx:TrackPointExtension xmlns:gpxtpx="http://www.garmin.com/xmlschemas/TrackPointExtension/v1">
            <gpxtpx:hr>139</gpxtpx:hr>
          </gpxtpx:TrackPointExtension>
        </extensions>
      </trkpt>
      <trkpt lat="43.58344" lon="3.00219">
        <ele>464</ele>
        <time>2026-08-30T08:15:42+02:00</time>
      </trkpt>
      <trkpt lat="43.58346" lon="3.00222">
        <ele>464</ele>
        <time>2026-08-30T08:15:46+02:00</time>
      </trkpt>
      <trkpt lat="43.58346" lon="3.00223">
        <ele>464</ele>
        <time>2026-08-30T08:15:47+02:00</time>
        <extensions>
          <gpxtpx:TrackPointExtension xmlns:gpxtpx="http://www.garmin.com/xmlschemas/TrackPointExtension/v1">
            <gpxtpx:hr>138</gpxtpx:hr>
          </gpxtpx:TrackPointExtension>
        </extensions>
      </trkpt>
      <trkpt lat="43.58348" lon="3.00223">
        <ele>464</ele>
        <time>2026-08-30T08:15:51+02:00</time>
        <extensions>
          <gpxtpx:TrackPointExtension xmlns:gpxtpx="http://www.garmin.com/xmlschemas/TrackPointExtension/v1">
            <gpxtpx:hr>138</gpxtpx:hr>
          </gpxtpx:TrackPointExtension>
        </extensions>
      </trkpt>
      <trkpt lat="43.58348" lon="3.00223">
        <ele>464</ele>
        <time>2026-08-30T08:15:52+02:00</time>
      </trkpt>
      <trkpt lat="43.58348" lon="3.00223">
        <ele>464</ele>
        <time>2026-08-30T08:15:56+02:00</time>
        <extensions>
          <gpxtpx:TrackPointExtension xmlns:gpxtpx="http://www.garmin.com/xmlschemas/TrackPointExtension/v1">
            <gpxtpx:hr>137</gpxtpx:hr>
          </gpxtpx:TrackPointExtension>
        </extensions>
      </trkpt>
      <trkpt lat="43.58352" lon="3.00221">
        <ele>467.7002</ele>
        <time>2026-08-30T08:15:57+02:00</time>
      </trkpt>
      <trkpt lat="43.58354" lon="3.0022">
        <ele>467.7002</ele>
        <time>2026-08-30T08:16:01+02:00</time>
        <extensions>
          <gpxtpx:TrackPointExtension xmlns:gpxtpx="http://www.garmin.com/xmlschemas/TrackPointExtension/v1">
            <gpxtpx:hr>136</gpxtpx:hr>
          </gpxtpx:TrackPointExtension>
        </extensions>
      </trkpt>
      <trkpt lat="43.58354" lon="3.0022">
        <ele>467.7002</ele>
        <time>2026-08-30T08:16:02+02:00</time>
      </trkpt>
      <trkpt lat="43.58356" lon="3.0022">
        <ele>467.7002</ele>
        <time>2026-08-30T08:16:06+02:00</time>
        <extensions>
          <gpxtpx:TrackPointExtension xmlns:gpxtpx="http://www.garmin.com/xmlschemas/TrackPointExtension/v1">
            <gpxtpx:hr>136</gpxtpx:hr>
          </gpxtpx:TrackPointExtension>
        </extensions>
      </trkpt>
      <trkpt lat="43.58357" lon="3.0022">
        <ele>471.6006</ele>
        <time>2026-08-30T08:16:07+02:00</time>
      </trkpt>
      <trkpt lat="43.58359" lon="3.00221">
        <ele>471.6006</ele>
        <time>2026-08-30T08:16:11+02:00</time>
        <extensions>
          <gpxtpx:TrackPointExtension xmlns:gpxtpx="http://www.garmin.com/xmlschemas/TrackPointExtension/v1">
            <gpxtpx:hr>135</gpxtpx:hr>
          </gpxtpx:TrackPointExtension>
        </extensions>
      </trkpt>
      <trkpt lat="43.5836" lon="3.0022">
        <ele>471.6006</ele>
        <time>2026-08-30T08:16:12+02:00</time>
      </trkpt>
      <trkpt lat="43.58362" lon="3.00219">
        <ele>471.6006</ele>
        <time>2026-08-30T08:16:16+02:00</time>
        <extensions>
          <gpxtpx:TrackPointExtension xmlns:gpxtpx="http://www.garmin.com/xmlschemas/TrackPointExtension/v1">
            <gpxtpx:hr>134</gpxtpx:hr>
          </gpxtpx:TrackPointExtension>
        </extensions>
      </trkpt>
      <trkpt lat="43.58363" lon="3.00219">
        <ele>475.5</ele>
        <time>2026-08-30T08:16:17+02:00</time>
      </trkpt>
      <trkpt lat="43.58365" lon="3.00217">
        <ele>474.2002</ele>
        <time>2026-08-30T08:16:21+02:00</time>
        <extensions>
          <gpxtpx:TrackPointExtension xmlns:gpxtpx="http://www.garmin.com/xmlschemas/TrackPointExtension/v1">
            <gpxtpx:hr>135</gpxtpx:hr>
          </gpxtpx:TrackPointExtension>
        </extensions>
      </trkpt>
      <trkpt lat="43.58365" lon="3.00217">
        <ele>474.2002</ele>
        <time>2026-08-30T08:16:22+02:00</time>
      </trkpt>
      <trkpt lat="43.58367" lon="3.00217">
        <ele>474.2002</ele>
        <time>2026-08-30T08:16:26+02:00</time>
        <extensions>
          <gpxtpx:TrackPointExtension xmlns:gpxtpx="http://www.garmin.com/xmlschemas/TrackPointExtension/v1">
            <gpxtpx:hr>136</gpxtpx:hr>
          </gpxtpx:TrackPointExtension>
        </extensions>
      </trkpt>
      <trkpt lat="43.58367" lon="3.00218">
        <ele>474.2002</ele>
        <time>2026-08-30T08:16:27+02:00</time>
      </trkpt>
      <trkpt lat="43.58368" lon="3.00221">
        <ele>475.5</ele>
        <time>2026-08-30T08:16:31+02:00</time>
        <extensions>
          <gpxtpx:TrackPointExtension xmlns:gpxtpx="http://www.garmin.com/xmlschemas/TrackPointExtension/v1">
            <gpxtpx:hr>137</gpxtpx:hr>
          </gpxtpx:TrackPointExtension>
        </extensions>
      </trkpt>
      <trkpt lat="43.58368" lon="3.00222">
        <ele>475.5</ele>
        <time>2026-08-30T08:16:32+02:00</time>
      </trkpt>
      <trkpt lat="43.58369" lon="3.00226">
        <ele>479.4004</ele>
        <time>2026-08-30T08:16:36+02:00</time>
        <extensions>
          <gpxtpx:TrackPointExtension xmlns:gpxtpx="http://www.garmin.com/xmlschemas/TrackPointExtension/v1">
            <gpxtpx:hr>136</gpxtpx:hr>
          </gpxtpx:TrackPointExtension>
        </extensions>
      </trkpt>
      <trkpt lat="43.58369" lon="3.00226">
        <ele>479.4004</ele>
        <time>2026-08-30T08:16:37+02:00</time>
      </trkpt>
      <trkpt lat="43.58371" lon="3.00229">
        <ele>480.5</ele>
        <time>2026-08-30T08:16:41+02:00</time>
        <extensions>
          <gpxtpx:TrackPointExtension xmlns:gpxtpx="http://www.garmin.com/xmlschemas/TrackPointExtension/v1">
            <gpxtpx:hr>138</gpxtpx:hr>
          </gpxtpx:TrackPointExtension>
        </extensions>
      </trkpt>
      <trkpt lat="43.58371" lon="3.00229">
        <ele>480.5</ele>
        <time>2026-08-30T08:16:42+02:00</time>
      </trkpt>
      <trkpt lat="43.58373" lon="3.00231">
        <ele>480.5</ele>
        <time>2026-08-30T08:16:46+02:00</time>
        <extensions>
          <gpxtpx:TrackPointExtension xmlns:gpxtpx="http://www.garmin.com/xmlschemas/TrackPointExtension/v1">
            <gpxtpx:hr>139</gpxtpx:hr>
          </gpxtpx:TrackPointExtension>
        </extensions>
      </trkpt>
      <trkpt lat="43.58374" lon="3.00232">
        <ele>480.5</ele>
        <time>2026-08-30T08:16:47+02:00</time>
      </trkpt>
      <trkpt lat="43.58374" lon="3.00235">
        <ele>480.5</ele>
        <time>2026-08-30T08:16:51+02:00</time>
        <extensions>
          <gpxtpx:TrackPointExtension xmlns:gpxtpx="http://www.garmin.com/xmlschemas/TrackPointExtension/v1">
            <gpxtpx:hr>138</gpxtpx:hr>
          </gpxtpx:TrackPointExtension>
        </extensions>
      </trkpt>
      <trkpt lat="43.58375" lon="3.00236">
        <ele>481.5</ele>
        <time>2026-08-30T08:16:52+02:00</time>
      </trkpt>
      <trkpt lat="43.58375" lon="3.00239">
        <ele>481.5</ele>
        <time>2026-08-30T08:16:56+02:00</time>
        <extensions>
          <gpxtpx:TrackPointExtension xmlns:gpxtpx="http://www.garmin.com/xmlschemas/TrackPointExtension/v1">
            <gpxtpx:hr>137</gpxtpx:hr>
          </gpxtpx:TrackPointExtension>
        </extensions>
      </trkpt>
      <trkpt lat="43.58375" lon="3.00239">
        <ele>485.4004</ele>
        <time>2026-08-30T08:16:57+02:00</time>
      </trkpt>
      <trkpt lat="43.58376" lon="3.00241">
        <ele>485.4004</ele>
        <time>2026-08-30T08:17:01+02:00</time>
        <extensions>
          <gpxtpx:TrackPointExtension xmlns:gpxtpx="http://www.garmin.com/xmlschemas/TrackPointExtension/v1">
            <gpxtpx:hr>136</gpxtpx:hr>
          </gpxtpx:TrackPointExtension>
        </extensions>
      </trkpt>
      <trkpt lat="43.58376" lon="3.00241">
        <ele>485.4004</ele>
        <time>2026-08-30T08:17:02+02:00</time>
      </trkpt>
      <trkpt lat="43.58377" lon="3.00243">
        <ele>485.4004</ele>
        <time>2026-08-30T08:17:06+02:00</time>
        <extensions>
          <gpxtpx:TrackPointExtension xmlns:gpxtpx="http://www.garmin.com/xmlschemas/TrackPointExtension/v1">
            <gpxtpx:hr>137</gpxtpx:hr>
          </gpxtpx:TrackPointExtension>
        </extensions>
      </trkpt>
      <trkpt lat="43.58377" lon="3.00244">
        <ele>485.4004</ele>
        <time>2026-08-30T08:17:07+02:00</time>
      </trkpt>
      <trkpt lat="43.58377" lon="3.00245">
        <ele>486.2002</ele>
        <time>2026-08-30T08:17:11+02:00</time>
        <extensions>
          <gpxtpx:TrackPointExtension xmlns:gpxtpx="http://www.garmin.com/xmlschemas/TrackPointExtension/v1">
            <gpxtpx:hr>137</gpxtpx:hr>
          </gpxtpx:TrackPointExtension>
        </extensions>
      </trkpt>
      <trkpt lat="43.5838" lon="3.00247">
        <ele>486.2002</ele>
        <time>2026-08-30T08:17:12+02:00</time>
        <extensions>
          <gpxtpx:TrackPointExtension xmlns:gpxtpx="http://www.garmin.com/xmlschemas/TrackPointExtension/v1">
            <gpxtpx:hr>139</gpxtpx:hr>
          </gpxtpx:TrackPointExtension>
        </extensions>
      </trkpt>
      <trkpt lat="43.58382" lon="3.00249">
        <ele>490.2998</ele>
        <time>2026-08-30T08:17:16+02:00</time>
        <extensions>
          <gpxtpx:TrackPointExtension xmlns:gpxtpx="http://www.garmin.com/xmlschemas/TrackPointExtension/v1">
            <gpxtpx:hr>142</gpxtpx:hr>
          </gpxtpx:TrackPointExtension>
        </extensions>
      </trkpt>
      <trkpt lat="43.58382" lon="3.00249">
        <ele>490.2998</ele>
        <time>2026-08-30T08:17:17+02:00</time>
      </trkpt>
      <trkpt lat="43.58385" lon="3.00251">
        <ele>490.2998</ele>
        <time>2026-08-30T08:17:21+02:00</time>
      </trkpt>
      <trkpt lat="43.58385" lon="3.00251">
        <ele>490.2998</ele>
        <time>2026-08-30T08:17:22+02:00</time>
        <extensions>
          <gpxtpx:TrackPointExtension xmlns:gpxtpx="http://www.garmin.com/xmlschemas/TrackPointExtension/v1">
            <gpxtpx:hr>143</gpxtpx:hr>
          </gpxtpx:TrackPointExtension>
        </extensions>
      </trkpt>
      <trkpt lat="43.58387" lon="3.00253">
        <ele>490.2998</ele>
        <time>2026-08-30T08:17:26+02:00</time>
      </trkpt>
      <trkpt lat="43.58387" lon="3.00253">
        <ele>491</ele>
        <time>2026-08-30T08:17:27+02:00</time>
        <extensions>
          <gpxtpx:TrackPointExtension xmlns:gpxtpx="http://www.garmin.com/xmlschemas/TrackPointExtension/v1">
            <gpxtpx:hr>142</gpxtpx:hr>
          </gpxtpx:TrackPointExtension>
        </extensions>
      </trkpt>
      <trkpt lat="43.58388" lon="3.00255">
        <ele>495.1006</ele>
        <time>2026-08-30T08:17:31+02:00</time>
      </trkpt>
      <trkpt lat="43.58388" lon="3.00255">
        <ele>495.1006</ele>
        <time>2026-08-30T08:17:32+02:00</time>
        <extensions>
          <gpxtpx:TrackPointExtension xmlns:gpxtpx="http://www.garmin.com/xmlschemas/TrackPointExtension/v1">
            <gpxtpx:hr>144</gpxtpx:hr>
          </gpxtpx:TrackPointExtension>
        </extensions>
      </trkpt>
      <trkpt lat="43.58389" lon="3.00254">
        <ele>495.1006</ele>
        <time>2026-08-30T08:17:36+02:00</time>
      </trkpt>
      <trkpt lat="43.5839" lon="3.00254">
        <ele>495.1006</ele>
        <time>2026-08-30T08:17:37+02:00</time>
        <extensions>
          <gpxtpx:TrackPointExtension xmlns:gpxtpx="http://www.garmin.com/xmlschemas/TrackPointExtension/v1">
            <gpxtpx:hr>146</gpxtpx:hr>
          </gpxtpx:TrackPointExtension>
        </extensions>
      </trkpt>
      <trkpt lat="43.58392" lon="3.00254">
        <ele>495.1006</ele>
        <time>2026-08-30T08:17:41+02:00</time>
      </trkpt>
      <trkpt lat="43.58393" lon="3.00254">
        <ele>495.1006</ele>
        <time>2026-08-30T08:17:42+02:00</time>
        <extensions>
          <gpxtpx:TrackPointExtension xmlns:gpxtpx="http://www.garmin.com/xmlschemas/TrackPointExtension/v1">
            <gpxtpx:hr>144</gpxtpx:hr>
          </gpxtpx:TrackPointExtension>
        </extensions>
      </trkpt>
      <trkpt lat="43.58395" lon="3.00254">
        <ele>499.2002</ele>
        <time>2026-08-30T08:17:46+02:00</time>
      </trkpt>
      <trkpt lat="43.58395" lon="3.00254">
        <ele>499.2002</ele>
        <time>2026-08-30T08:17:47+02:00</time>
        <extensions>
          <gpxtpx:TrackPointExtension xmlns:gpxtpx="http://www.garmin.com/xmlschemas/TrackPointExtension/v1">
            <gpxtpx:hr>141</gpxtpx:hr>
          </gpxtpx:TrackPointExtension>
        </extensions>
      </trkpt>
      <trkpt lat="43.58397" lon="3.00256">
        <ele>499.2002</ele>
        <time>2026-08-30T08:17:51+02:00</time>
      </trkpt>
      <trkpt lat="43.58398" lon="3.00256">
        <ele>499.2002</ele>
        <time>2026-08-30T08:17:52+02:00</time>
        <extensions>
          <gpxtpx:TrackPointExtension xmlns:gpxtpx="http://www.garmin.com/xmlschemas/TrackPointExtension/v1">
            <gpxtpx:hr>140</gpxtpx:hr>
          </gpxtpx:TrackPointExtension>
        </extensions>
      </trkpt>
      <trkpt lat="43.58398" lon="3.00257">
        <ele>499.2002</ele>
        <time>2026-08-30T08:17:56+02:00</time>
        <extensions>
          <gpxtpx:TrackPointExtension xmlns:gpxtpx="http://www.garmin.com/xmlschemas/TrackPointExtension/v1">
            <gpxtpx:hr>143</gpxtpx:hr>
          </gpxtpx:TrackPointExtension>
        </extensions>
      </trkpt>
      <trkpt lat="43.584" lon="3.00261">
        <ele>503.2998</ele>
        <time>2026-08-30T08:17:57+02:00</time>
      </trkpt>
      <trkpt lat="43.58402" lon="3.00263">
        <ele>503.7998</ele>
        <time>2026-08-30T08:18:01+02:00</time>
        <extensions>
          <gpxtpx:TrackPointExtension xmlns:gpxtpx="http://www.garmin.com/xmlschemas/TrackPointExtension/v1">
            <gpxtpx:hr>142</gpxtpx:hr>
          </gpxtpx:TrackPointExtension>
        </extensions>
      </trkpt>
      <trkpt lat="43.58402" lon="3.00263">
        <ele>503.7998</ele>
        <time>2026-08-30T08:18:02+02:00</time>
      </trkpt>
      <trkpt lat="43.58403" lon="3.00264">
        <ele>503.7998</ele>
        <time>2026-08-30T08:18:06+02:00</time>
        <extensions>
          <gpxtpx:TrackPointExtension xmlns:gpxtpx="http://www.garmin.com/xmlschemas/TrackPointExtension/v1">
            <gpxtpx:hr>140</gpxtpx:hr>
          </gpxtpx:TrackPointExtension>
        </extensions>
      </trkpt>
      <trkpt lat="43.58406" lon="3.00265">
        <ele>507.9004</ele>
        <time>2026-08-30T08:18:07+02:00</time>
      </trkpt>
      <trkpt lat="43.58407" lon="3.00267">
        <ele>507.9004</ele>
        <time>2026-08-30T08:18:11+02:00</time>
        <extensions>
          <gpxtpx:TrackPointExtension xmlns:gpxtpx="http://www.garmin.com/xmlschemas/TrackPointExtension/v1">
            <gpxtpx:hr>139</gpxtpx:hr>
          </gpxtpx:TrackPointExtension>
        </extensions>
      </trkpt>
      <trkpt lat="43.58408" lon="3.00267">
        <ele>507.9004</ele>
        <time>2026-08-30T08:18:12+02:00</time>
      </trkpt>
      <trkpt lat="43.58409" lon="3.00267">
        <ele>507.9004</ele>
        <time>2026-08-30T08:18:16+02:00</time>
        <extensions>
          <gpxtpx:TrackPointExtension xmlns:gpxtpx="http://www.garmin.com/xmlschemas/TrackPointExtension/v1">
            <gpxtpx:hr>139</gpxtpx:hr>
          </gpxtpx:TrackPointExtension>
        </extensions>
      </trkpt>
      <trkpt lat="43.58409" lon="3.00267">
        <ele>507.9004</ele>
        <time>2026-08-30T08:18:17+02:00</time>
      </trkpt>
      <trkpt lat="43.5841" lon="3.00267">
        <ele>507.9004</ele>
        <time>2026-08-30T08:18:21+02:00</time>
        <extensions>
          <gpxtpx:TrackPointExtension xmlns:gpxtpx="http://www.garmin.com/xmlschemas/TrackPointExtension/v1">
            <gpxtpx:hr>141</gpxtpx:hr>
          </gpxtpx:TrackPointExtension>
        </extensions>
      </trkpt>
      <trkpt lat="43.58417" lon="3.00263">
        <ele>512</ele>
        <time>2026-08-30T08:18:22+02:00</time>
      </trkpt>
      <trkpt lat="43.58419" lon="3.00262">
        <ele>516.1006</ele>
        <time>2026-08-30T08:18:26+02:00</time>
        <extensions>
          <gpxtpx:TrackPointExtension xmlns:gpxtpx="http://www.garmin.com/xmlschemas/TrackPointExtension/v1">
            <gpxtpx:hr>140</gpxtpx:hr>
          </gpxtpx:TrackPointExtension>
        </extensions>
      </trkpt>
      <trkpt lat="43.58419" lon="3.00262">
        <ele>516.1006</ele>
        <time>2026-08-30T08:18:27+02:00</time>
      </trkpt>
      <trkpt lat="43.58419" lon="3.0026">
        <ele>515.6006</ele>
        <time>2026-08-30T08:18:31+02:00</time>
        <extensions>
          <gpxtpx:TrackPointExtension xmlns:gpxtpx="http://www.garmin.com/xmlschemas/TrackPointExtension/v1">
            <gpxtpx:hr>140</gpxtpx:hr>
          </gpxtpx:TrackPointExtension>
        </extensions>
      </trkpt>
      <trkpt lat="43.5842" lon="3.00256">
        <ele>515.6006</ele>
        <time>2026-08-30T08:18:32+02:00</time>
      </trkpt>
      <trkpt lat="43.5842" lon="3.00255">
        <ele>515.6006</ele>
        <time>2026-08-30T08:18:36+02:00</time>
        <extensions>
          <gpxtpx:TrackPointExtension xmlns:gpxtpx="http://www.garmin.com/xmlschemas/TrackPointExtension/v1">
            <gpxtpx:hr>131</gpxtpx:hr>
          </gpxtpx:TrackPointExtension>
        </extensions>
      </trkpt>
      <trkpt lat="43.58422" lon="3.00251">
        <ele>515</ele>
        <time>2026-08-30T08:18:37+02:00</time>
      </trkpt>
      <trkpt lat="43.58424" lon="3.00249">
        <ele>515</ele>
        <time>2026-08-30T08:18:41+02:00</time>
        <extensions>
          <gpxtpx:TrackPointExtension xmlns:gpxtpx="http://www.garmin.com/xmlschemas/TrackPointExtension/v1">
            <gpxtpx:hr>135</gpxtpx:hr>
          </gpxtpx:TrackPointExtension>
        </extensions>
      </trkpt>
      <trkpt lat="43.58424" lon="3.00249">
        <ele>515</ele>
        <time>2026-08-30T08:18:42+02:00</time>
      </trkpt>
      <trkpt lat="43.58425" lon="3.00249">
        <ele>519</ele>
        <time>2026-08-30T08:18:46+02:00</time>
        <extensions>
          <gpxtpx:TrackPointExtension xmlns:gpxtpx="http://www.garmin.com/xmlschemas/TrackPointExtension/v1">
            <gpxtpx:hr>142</gpxtpx:hr>
          </gpxtpx:TrackPointExtension>
        </extensions>
      </trkpt>
      <trkpt lat="43.58429" lon="3.0025">
        <ele>519</ele>
        <time>2026-08-30T08:18:47+02:00</time>
      </trkpt>
      <trkpt lat="43.58431" lon="3.00249">
        <ele>519</ele>
        <time>2026-08-30T08:18:51+02:00</time>
        <extensions>
          <gpxtpx:TrackPointExtension xmlns:gpxtpx="http://www.garmin.com/xmlschemas/TrackPointExtension/v1">
            <gpxtpx:hr>143</gpxtpx:hr>
          </gpxtpx:TrackPointExtension>
        </extensions>
      </trkpt>
      <trkpt lat="43.58431" lon="3.00249">
        <ele>522.9004</ele>
        <time>2026-08-30T08:18:52+02:00</time>
      </trkpt>
      <trkpt lat="43.58432" lon="3.00248">
        <ele>522.9004</ele>
        <time>2026-08-30T08:18:56+02:00</time>
        <extensions>
          <gpxtpx:TrackPointExtension xmlns:gpxtpx="http://www.garmin.com/xmlschemas/TrackPointExtension/v1">
            <gpxtpx:hr>143</gpxtpx:hr>
          </gpxtpx:TrackPointExtension>
        </extensions>
      </trkpt>
      <trkpt lat="43.58433" lon="3.00248">
        <ele>522.9004</ele>
        <time>2026-08-30T08:18:57+02:00</time>
      </trkpt>
      <trkpt lat="43.58434" lon="3.00248">
        <ele>522.9004</ele>
        <time>2026-08-30T08:19:01+02:00</time>
        <extensions>
          <gpxtpx:TrackPointExtension xmlns:gpxtpx="http://www.garmin.com/xmlschemas/TrackPointExtension/v1">
            <gpxtpx:hr>145</gpxtpx:hr>
          </gpxtpx:TrackPointExtension>
        </extensions>
      </trkpt>
      <trkpt lat="43.58434" lon="3.00247">
        <ele>522.9004</ele>
        <time>2026-08-30T08:19:02+02:00</time>
      </trkpt>
      <trkpt lat="43.58436" lon="3.00245">
        <ele>522.9004</ele>
        <time>2026-08-30T08:19:06+02:00</time>
        <extensions>
          <gpxtpx:TrackPointExtension xmlns:gpxtpx="http://www.garmin.com/xmlschemas/TrackPointExtension/v1">
            <gpxtpx:hr>144</gpxtpx:hr>
          </gpxtpx:TrackPointExtension>
        </extensions>
      </trkpt>
      <trkpt lat="43.58437" lon="3.00245">
        <ele>522.9004</ele>
        <time>2026-08-30T08:19:07+02:00</time>
      </trkpt>
      <trkpt lat="43.58438" lon="3.00245">
        <ele>526.7002</ele>
        <time>2026-08-30T08:19:11+02:00</time>
        <extensions>
          <gpxtpx:TrackPointExtension xmlns:gpxtpx="http://www.garmin.com/xmlschemas/TrackPointExtension/v1">
            <gpxtpx:hr>145</gpxtpx:hr>
          </gpxtpx:TrackPointExtension>
        </extensions>
      </trkpt>
      <trkpt lat="43.58444" lon="3.00247">
        <ele>530.5</ele>
        <time>2026-08-30T08:19:12+02:00</time>
      </trkpt>
      <trkpt lat="43.58445" lon="3.00246">
        <ele>530.5</ele>
        <time>2026-08-30T08:19:16+02:00</time>
        <extensions>
          <gpxtpx:TrackPointExtension xmlns:gpxtpx="http://www.garmin.com/xmlschemas/TrackPointExtension/v1">
            <gpxtpx:hr>144</gpxtpx:hr>
          </gpxtpx:TrackPointExtension>
        </extensions>
      </trkpt>
      <trkpt lat="43.58446" lon="3.00246">
        <ele>530.5</ele>
        <time>2026-08-30T08:19:17+02:00</time>
      </trkpt>
      <trkpt lat="43.58448" lon="3.00247">
        <ele>530.5</ele>
        <time>2026-08-30T08:19:21+02:00</time>
        <extensions>
          <gpxtpx:TrackPointExtension xmlns:gpxtpx="http://www.garmin.com/xmlschemas/TrackPointExtension/v1">
            <gpxtpx:hr>144</gpxtpx:hr>
          </gpxtpx:TrackPointExtension>
        </extensions>
      </trkpt>
      <trkpt lat="43.58448" lon="3.00247">
        <ele>530.5</ele>
        <time>2026-08-30T08:19:22+02:00</time>
      </trkpt>
      <trkpt lat="43.58451" lon="3.00248">
        <ele>534.2002</ele>
        <time>2026-08-30T08:19:26+02:00</time>
        <extensions>
          <gpxtpx:TrackPointExtension xmlns:gpxtpx="http://www.garmin.com/xmlschemas/TrackPointExtension/v1">
            <gpxtpx:hr>143</gpxtpx:hr>
          </gpxtpx:TrackPointExtension>
        </extensions>
      </trkpt>
      <trkpt lat="43.58451" lon="3.00248">
        <ele>534.2002</ele>
        <time>2026-08-30T08:19:27+02:00</time>
      </trkpt>
      <trkpt lat="43.58451" lon="3.00251">
        <ele>534.2002</ele>
        <time>2026-08-30T08:19:31+02:00</time>
        <extensions>
          <gpxtpx:TrackPointExtension xmlns:gpxtpx="http://www.garmin.com/xmlschemas/TrackPointExtension/v1">
            <gpxtpx:hr>143</gpxtpx:hr>
          </gpxtpx:TrackPointExtension>
        </extensions>
      </trkpt>
      <trkpt lat="43.58451" lon="3.00252">
        <ele>534.2002</ele>
        <time>2026-08-30T08:19:32+02:00</time>
      </trkpt>
      <trkpt lat="43.58452" lon="3.00255">
        <ele>534.7002</ele>
        <time>2026-08-30T08:19:36+02:00</time>
        <extensions>
          <gpxtpx:TrackPointExtension xmlns:gpxtpx="http://www.garmin.com/xmlschemas/TrackPointExtension/v1">
            <gpxtpx:hr>143</gpxtpx:hr>
          </gpxtpx:TrackPointExtension>
        </extensions>
      </trkpt>
      <trkpt lat="43.58452" lon="3.00255">
        <ele>534.7002</ele>
        <time>2026-08-30T08:19:37+02:00</time>
      </trkpt>
      <trkpt lat="43.58453" lon="3.00259">
        <ele>534.7002</ele>
        <time>2026-08-30T08:19:41+02:00</time>
        <extensions>
          <gpxtpx:TrackPointExtension xmlns:gpxtpx="http://www.garmin.com/xmlschemas/TrackPointExtension/v1">
            <gpxtpx:hr>144</gpxtpx:hr>
          </gpxtpx:TrackPointExtension>
        </extensions>
      </trkpt>
      <trkpt lat="43.58453" lon="3.00259">
        <ele>534.7002</ele>
        <time>2026-08-30T08:19:42+02:00</time>
      </trkpt>
      <trkpt lat="43.58454" lon="3.00261">
        <ele>534.7002</ele>
        <time>2026-08-30T08:19:46+02:00</time>
        <extensions>
          <gpxtpx:TrackPointExtension xmlns:gpxtpx="http://www.garmin.com/xmlschemas/TrackPointExtension/v1">
            <gpxtpx:hr>147</gpxtpx:hr>
          </gpxtpx:TrackPointExtension>
        </extensions>
      </trkpt>
      <trkpt lat="43.58454" lon="3.00262">
        <ele>535.1006</ele>
        <time>2026-08-30T08:19:47+02:00</time>
      </trkpt>
      <trkpt lat="43.58456" lon="3.00263">
        <ele>535.1006</ele>
        <time>2026-08-30T08:19:51+02:00</time>
        <extensions>
          <gpxtpx:TrackPointExtension xmlns:gpxtpx="http://www.garmin.com/xmlschemas/TrackPointExtension/v1">
            <gpxtpx:hr>149</gpxtpx:hr>
          </gpxtpx:TrackPointExtension>
        </extensions>
      </trkpt>
      <trkpt lat="43.58456" lon="3.00263">
        <ele>535.1006</ele>
        <time>2026-08-30T08:19:52+02:00</time>
      </trkpt>
      <trkpt lat="43.58455" lon="3.00263">
        <ele>535.1006</ele>
        <time>2026-08-30T08:19:56+02:00</time>
        <extensions>
          <gpxtpx:TrackPointExtension xmlns:gpxtpx="http://www.garmin.com/xmlschemas/TrackPointExtension/v1">
            <gpxtpx:hr>144</gpxtpx:hr>
          </gpxtpx:TrackPointExtension>
        </extensions>
      </trkpt>
      <trkpt lat="43.5846" lon="3.00264">
        <ele>538.7002</ele>
        <time>2026-08-30T08:19:57+02:00</time>
      </trkpt>
      <trkpt lat="43.58461" lon="3.00264">
        <ele>538.7002</ele>
        <time>2026-08-30T08:20:01+02:00</time>
        <extensions>
          <gpxtpx:TrackPointExtension xmlns:gpxtpx="http://www.garmin.com/xmlschemas/TrackPointExtension/v1">
            <gpxtpx:hr>143</gpxtpx:hr>
          </gpxtpx:TrackPointExtension>
        </extensions>
      </trkpt>
      <trkpt lat="43.58465" lon="3.00268">
        <ele>542.2002</ele>
        <time>2026-08-30T08:20:02+02:00</time>
      </trkpt>
      <trkpt lat="43.58466" lon="3.00269">
        <ele>542.2002</ele>
        <time>2026-08-30T08:20:06+02:00</time>
        <extensions>
          <gpxtpx:TrackPointExtension xmlns:gpxtpx="http://www.garmin.com/xmlschemas/TrackPointExtension/v1">
            <gpxtpx:hr>143</gpxtpx:hr>
          </gpxtpx:TrackPointExtension>
        </extensions>
      </trkpt>
      <trkpt lat="43.58467" lon="3.00269">
        <ele>542.2002</ele>
        <time>2026-08-30T08:20:07+02:00</time>
      </trkpt>
      <trkpt lat="43.58467" lon="3.00269">
        <ele>542.2002</ele>
        <time>2026-08-30T08:20:11+02:00</time>
        <extensions>
          <gpxtpx:TrackPointExtension xmlns:gpxtpx="http://www.garmin.com/xmlschemas/TrackPointExtension/v1">
            <gpxtpx:hr>144</gpxtpx:hr>
          </gpxtpx:TrackPointExtension>
        </extensions>
      </trkpt>
      <trkpt lat="43.58471" lon="3.00267">
        <ele>545.5</ele>
        <time>2026-08-30T08:20:12+02:00</time>
      </trkpt>
      <trkpt lat="43.58472" lon="3.00265">
        <ele>545.5</ele>
        <time>2026-08-30T08:20:16+02:00</time>
        <extensions>
          <gpxtpx:TrackPointExtension xmlns:gpxtpx="http://www.garmin.com/xmlschemas/TrackPointExtension/v1">
            <gpxtpx:hr>146</gpxtpx:hr>
          </gpxtpx:TrackPointExtension>
        </extensions>
      </trkpt>
      <trkpt lat="43.58473" lon="3.00263">
        <ele>545.5</ele>
        <time>2026-08-30T08:20:17+02:00</time>
      </trkpt>
      <trkpt lat="43.58474" lon="3.00265">
        <ele>548.6006</ele>
        <time>2026-08-30T08:20:21+02:00</time>
        <extensions>
          <gpxtpx:TrackPointExtension xmlns:gpxtpx="http://www.garmin.com/xmlschemas/TrackPointExtension/v1">
            <gpxtpx:hr>147</gpxtpx:hr>
          </gpxtpx:TrackPointExtension>
        </extensions>
      </trkpt>
      <trkpt lat="43.58475" lon="3.00265">
        <ele>548.6006</ele>
        <time>2026-08-30T08:20:22+02:00</time>
      </trkpt>
      <trkpt lat="43.58476" lon="3.00267">
        <ele>548.6006</ele>
        <time>2026-08-30T08:20:26+02:00</time>
        <extensions>
          <gpxtpx:TrackPointExtension xmlns:gpxtpx="http://www.garmin.com/xmlschemas/TrackPointExtension/v1">
            <gpxtpx:hr>148</gpxtpx:hr>
          </gpxtpx:TrackPointExtension>
        </extensions>
      </trkpt>
      <trkpt lat="43.58477" lon="3.00267">
        <ele>548.6006</ele>
        <time>2026-08-30T08:20:27+02:00</time>
      </trkpt>
      <trkpt lat="43.58478" lon="3.00268">
        <ele>548.6006</ele>
        <time>2026-08-30T08:20:31+02:00</time>
        <extensions>
          <gpxtpx:TrackPointExtension xmlns:gpxtpx="http://www.garmin.com/xmlschemas/TrackPointExtension/v1">
            <gpxtpx:hr>148</gpxtpx:hr>
          </gpxtpx:TrackPointExtension>
        </extensions>
      </trkpt>
      <trkpt lat="43.58479" lon="3.00268">
        <ele>548.6006</ele>
        <time>2026-08-30T08:20:32+02:00</time>
      </trkpt>
      <trkpt lat="43.5848" lon="3.00269">
        <ele>548.6006</ele>
        <time>2026-08-30T08:20:36+02:00</time>
        <extensions>
          <gpxtpx:TrackPointExtension xmlns:gpxtpx="http://www.garmin.com/xmlschemas/TrackPointExtension/v1">
            <gpxtpx:hr>147</gpxtpx:hr>
          </gpxtpx:TrackPointExtension>
        </extensions>
      </trkpt>
      <trkpt lat="43.58484" lon="3.00265">
        <ele>551.6006</ele>
        <time>2026-08-30T08:20:37+02:00</time>
      </trkpt>
      <trkpt lat="43.58484" lon="3.00265">
        <ele>551.6006</ele>
        <time>2026-08-30T08:20:41+02:00</time>
        <extensions>
          <gpxtpx:TrackPointExtension xmlns:gpxtpx="http://www.garmin.com/xmlschemas/TrackPointExtension/v1">
            <gpxtpx:hr>146</gpxtpx:hr>
          </gpxtpx:TrackPointExtension>
        </extensions>
      </trkpt>
      <trkpt lat="43.58488" lon="3.00266">
        <ele>554.6006</ele>
        <time>2026-08-30T08:20:42+02:00</time>
      </trkpt>
      <trkpt lat="43.58488" lon="3.00265">
        <ele>554.6006</ele>
        <time>2026-08-30T08:20:46+02:00</time>
        <extensions>
          <gpxtpx:TrackPointExtension xmlns:gpxtpx="http://www.garmin.com/xmlschemas/TrackPointExtension/v1">
            <gpxtpx:hr>145</gpxtpx:hr>
          </gpxtpx:TrackPointExtension>
        </extensions>
      </trkpt>
      <trkpt lat="43.58492" lon="3.0026">
        <ele>554.5</ele>
        <time>2026-08-30T08:20:47+02:00</time>
      </trkpt>
      <trkpt lat="43.58494" lon="3.00261">
        <ele>557.7002</ele>
        <time>2026-08-30T08:20:50+02:00</time>
      </trkpt>
      <trkpt lat="43.58495" lon="3.00261">
        <ele>557.7002</ele>
        <time>2026-08-30T08:20:52+02:00</time>
      </trkpt>
      <trkpt lat="43.58496" lon="3.00263">
        <ele>557.7002</ele>
        <time>2026-08-30T08:20:56+02:00</time>
        <extensions>
          <gpxtpx:TrackPointExtension xmlns:gpxtpx="http://www.garmin.com/xmlschemas/TrackPointExtension/v1">
            <gpxtpx:hr>147</gpxtpx:hr>
          </gpxtpx:TrackPointExtension>
        </extensions>
      </trkpt>
      <trkpt lat="43.58497" lon="3.00263">
        <ele>557.7002</ele>
        <time>2026-08-30T08:20:57+02:00</time>
      </trkpt>
      <trkpt lat="43.58499" lon="3.00264">
        <ele>557.7002</ele>
        <time>2026-08-30T08:21:00+02:00</time>
      </trkpt>
      <trkpt lat="43.58499" lon="3.00264">
        <ele>557.7002</ele>
        <time>2026-08-30T08:21:02+02:00</time>
      </trkpt>
      <trkpt lat="43.58501" lon="3.00263">
        <ele>560.7002</ele>
        <time>2026-08-30T08:21:06+02:00</time>
        <extensions>
          <gpxtpx:TrackPointExtension xmlns:gpxtpx="http://www.garmin.com/xmlschemas/TrackPointExtension/v1">
            <gpxtpx:hr>149</gpxtpx:hr>
          </gpxtpx:TrackPointExtension>
        </extensions>
      </trkpt>
      <trkpt lat="43.58501" lon="3.00263">
        <ele>560.7002</ele>
        <time>2026-08-30T08:21:07+02:00</time>
      </trkpt>
      <trkpt lat="43.58502" lon="3.00263">
        <ele>560.7002</ele>
        <time>2026-08-30T08:21:10+02:00</time>
      </trkpt>
      <trkpt lat="43.58502" lon="3.00263">
        <ele>560.7002</ele>
        <time>2026-08-30T08:21:11+02:00</time>
        <extensions>
          <gpxtpx:TrackPointExtension xmlns:gpxtpx="http://www.garmin.com/xmlschemas/TrackPointExtension/v1">
            <gpxtpx:hr>151</gpxtpx:hr>
          </gpxtpx:TrackPointExtension>
        </extensions>
      </trkpt>
      <trkpt lat="43.58506" lon="3.00262">
        <ele>563.7002</ele>
        <time>2026-08-30T08:21:16+02:00</time>
        <extensions>
          <gpxtpx:TrackPointExtension xmlns:gpxtpx="http://www.garmin.com/xmlschemas/TrackPointExtension/v1">
            <gpxtpx:hr>148</gpxtpx:hr>
          </gpxtpx:TrackPointExtension>
        </extensions>
      </trkpt>
      <trkpt lat="43.58507" lon="3.0026">
        <ele>564</ele>
        <time>2026-08-30T08:21:20+02:00</time>
      </trkpt>
      <trkpt lat="43.58508" lon="3.0026">
        <ele>564</ele>
        <time>2026-08-30T08:21:21+02:00</time>
        <extensions>
          <gpxtpx:TrackPointExtension xmlns:gpxtpx="http://www.garmin.com/xmlschemas/TrackPointExtension/v1">
            <gpxtpx:hr>149</gpxtpx:hr>
          </gpxtpx:TrackPointExtension>
        </extensions>
      </trkpt>
      <trkpt lat="43.58509" lon="3.0026">
        <ele>564</ele>
        <time>2026-08-30T08:21:25+02:00</time>
      </trkpt>
      <trkpt lat="43.5851" lon="3.00261">
        <ele>564</ele>
        <time>2026-08-30T08:21:26+02:00</time>
        <extensions>
          <gpxtpx:TrackPointExtension xmlns:gpxtpx="http://www.garmin.com/xmlschemas/TrackPointExtension/v1">
            <gpxtpx:hr>149</gpxtpx:hr>
          </gpxtpx:TrackPointExtension>
        </extensions>
      </trkpt>
      <trkpt lat="43.58512" lon="3.00263">
        <ele>566.7002</ele>
        <time>2026-08-30T08:21:30+02:00</time>
      </trkpt>
      <trkpt lat="43.58513" lon="3.00264">
        <ele>566.7002</ele>
        <time>2026-08-30T08:21:31+02:00</time>
        <extensions>
          <gpxtpx:TrackPointExtension xmlns:gpxtpx="http://www.garmin.com/xmlschemas/TrackPointExtension/v1">
            <gpxtpx:hr>147</gpxtpx:hr>
          </gpxtpx:TrackPointExtension>
        </extensions>
      </trkpt>
      <trkpt lat="43.58514" lon="3.00265">
        <ele>566.7002</ele>
        <time>2026-08-30T08:21:35+02:00</time>
      </trkpt>
      <trkpt lat="43.58515" lon="3.00264">
        <ele>566.7002</ele>
        <time>2026-08-30T08:21:36+02:00</time>
        <extensions>
          <gpxtpx:TrackPointExtension xmlns:gpxtpx="http://www.garmin.com/xmlschemas/TrackPointExtension/v1">
            <gpxtpx:hr>148</gpxtpx:hr>
          </gpxtpx:TrackPointExtension>
        </extensions>
      </trkpt>
      <trkpt lat="43.58517" lon="3.00264">
        <ele>566.7002</ele>
        <time>2026-08-30T08:21:40+02:00</time>
      </trkpt>
      <trkpt lat="43.58517" lon="3.00264">
        <ele>566.7002</ele>
        <time>2026-08-30T08:21:41+02:00</time>
        <extensions>
          <gpxtpx:TrackPointExtension xmlns:gpxtpx="http://www.garmin.com/xmlschemas/TrackPointExtension/v1">
            <gpxtpx:hr>148</gpxtpx:hr>
          </gpxtpx:TrackPointExtension>
        </extensions>
      </trkpt>
      <trkpt lat="43.58519" lon="3.00264">
        <ele>569.7002</ele>
        <time>2026-08-30T08:21:45+02:00</time>
      </trkpt>
      <trkpt lat="43.5852" lon="3.00265">
        <ele>569.7002</ele>
        <time>2026-08-30T08:21:46+02:00</time>
        <extensions>
          <gpxtpx:TrackPointExtension xmlns:gpxtpx="http://www.garmin.com/xmlschemas/TrackPointExtension/v1">
            <gpxtpx:hr>148</gpxtpx:hr>
          </gpxtpx:TrackPointExtension>
        </extensions>
      </trkpt>
      <trkpt lat="43.5852" lon="3.00267">
        <ele>569.7002</ele>
        <time>2026-08-30T08:21:50+02:00</time>
      </trkpt>
      <trkpt lat="43.58521" lon="3.00268">
        <ele>569.7002</ele>
        <time>2026-08-30T08:21:51+02:00</time>
        <extensions>
          <gpxtpx:TrackPointExtension xmlns:gpxtpx="http://www.garmin.com/xmlschemas/TrackPointExtension/v1">
            <gpxtpx:hr>148</gpxtpx:hr>
          </gpxtpx:TrackPointExtension>
        </extensions>
      </trkpt>
      <trkpt lat="43.58521" lon="3.0027">
        <ele>569.7002</ele>
        <time>2026-08-30T08:21:55+02:00</time>
        <extensions>
          <gpxtpx:TrackPointExtension xmlns:gpxtpx="http://www.garmin.com/xmlschemas/TrackPointExtension/v1">
            <gpxtpx:hr>148</gpxtpx:hr>
          </gpxtpx:TrackPointExtension>
        </extensions>
      </trkpt>
      <trkpt lat="43.58523" lon="3.00274">
        <ele>569.1006</ele>
        <time>2026-08-30T08:21:56+02:00</time>
        <extensions>
          <gpxtpx:TrackPointExtension xmlns:gpxtpx="http://www.garmin.com/xmlschemas/TrackPointExtension/v1">
            <gpxtpx:hr>150</gpxtpx:hr>
          </gpxtpx:TrackPointExtension>
        </extensions>
      </trkpt>
      <trkpt lat="43.58524" lon="3.00274">
        <ele>569.1006</ele>
        <time>2026-08-30T08:22:00+02:00</time>
        <extensions>
          <gpxtpx:TrackPointExtension xmlns:gpxtpx="http://www.garmin.com/xmlschemas/TrackPointExtension/v1">
            <gpxtpx:hr>153</gpxtpx:hr>
          </gpxtpx:TrackPointExtension>
        </extensions>
      </trkpt>
      <trkpt lat="43.58529" lon="3.00275">
        <ele>571.9004</ele>
        <time>2026-08-30T08:22:01+02:00</time>
        <extensions>
          <gpxtpx:TrackPointExtension xmlns:gpxtpx="http://www.garmin.com/xmlschemas/TrackPointExtension/v1">
            <gpxtpx:hr>151</gpxtpx:hr>
          </gpxtpx:TrackPointExtension>
        </extensions>
      </trkpt>
      <trkpt lat="43.5853" lon="3.00275">
        <ele>574.7998</ele>
        <time>2026-08-30T08:22:05+02:00</time>
      </trkpt>
      <trkpt lat="43.58531" lon="3.00275">
        <ele>574.7998</ele>
        <time>2026-08-30T08:22:06+02:00</time>
        <extensions>
          <gpxtpx:TrackPointExtension xmlns:gpxtpx="http://www.garmin.com/xmlschemas/TrackPointExtension/v1">
            <gpxtpx:hr>153</gpxtpx:hr>
          </gpxtpx:TrackPointExtension>
        </extensions>
      </trkpt>
      <trkpt lat="43.58531" lon="3.00278">
        <ele>574.7998</ele>
        <time>2026-08-30T08:22:10+02:00</time>
      </trkpt>
      <trkpt lat="43.58532" lon="3.00279">
        <ele>573.7998</ele>
        <time>2026-08-30T08:22:11+02:00</time>
        <extensions>
          <gpxtpx:TrackPointExtension xmlns:gpxtpx="http://www.garmin.com/xmlschemas/TrackPointExtension/v1">
            <gpxtpx:hr>150</gpxtpx:hr>
          </gpxtpx:TrackPointExtension>
        </extensions>
      </trkpt>
      <trkpt lat="43.58532" lon="3.00281">
        <ele>573.7998</ele>
        <time>2026-08-30T08:22:15+02:00</time>
        <extensions>
          <gpxtpx:TrackPointExtension xmlns:gpxtpx="http://www.garmin.com/xmlschemas/TrackPointExtension/v1">
            <gpxtpx:hr>148</gpxtpx:hr>
          </gpxtpx:TrackPointExtension>
        </extensions>
      </trkpt>
      <trkpt lat="43.58537" lon="3.00286">
        <ele>576.6006</ele>
        <time>2026-08-30T08:22:16+02:00</time>
        <extensions>
          <gpxtpx:TrackPointExtension xmlns:gpxtpx="http://www.garmin.com/xmlschemas/TrackPointExtension/v1">
            <gpxtpx:hr>148</gpxtpx:hr>
          </gpxtpx:TrackPointExtension>
        </extensions>
      </trkpt>
      <trkpt lat="43.58538" lon="3.00288">
        <ele>575.4004</ele>
        <time>2026-08-30T08:22:20+02:00</time>
      </trkpt>
      <trkpt lat="43.58538" lon="3.00289">
        <ele>575.4004</ele>
        <time>2026-08-30T08:22:21+02:00</time>
        <extensions>
          <gpxtpx:TrackPointExtension xmlns:gpxtpx="http://www.garmin.com/xmlschemas/TrackPointExtension/v1">
            <gpxtpx:hr>149</gpxtpx:hr>
          </gpxtpx:TrackPointExtension>
        </extensions>
      </trkpt>
      <trkpt lat="43.58539" lon="3.00292">
        <ele>575.4004</ele>
        <time>2026-08-30T08:22:25+02:00</time>
      </trkpt>
      <trkpt lat="43.58539" lon="3.00293">
        <ele>575.4004</ele>
        <time>2026-08-30T08:22:26+02:00</time>
        <extensions>
          <gpxtpx:TrackPointExtension xmlns:gpxtpx="http://www.garmin.com/xmlschemas/TrackPointExtension/v1">
            <gpxtpx:hr>149</gpxtpx:hr>
          </gpxtpx:TrackPointExtension>
        </extensions>
      </trkpt>
      <trkpt lat="43.5854" lon="3.00297">
        <ele>574</ele>
        <time>2026-08-30T08:22:30+02:00</time>
      </trkpt>
      <trkpt lat="43.58541" lon="3.00297">
        <ele>574</ele>
        <time>2026-08-30T08:22:31+02:00</time>
        <extensions>
          <gpxtpx:TrackPointExtension xmlns:gpxtpx="http://www.garmin.com/xmlschemas/TrackPointExtension/v1">
            <gpxtpx:hr>148</gpxtpx:hr>
          </gpxtpx:TrackPointExtension>
        </extensions>
      </trkpt>
      <trkpt lat="43.58541" lon="3.003">
        <ele>574</ele>
        <time>2026-08-30T08:22:35+02:00</time>
      </trkpt>
      <trkpt lat="43.58542" lon="3.00301">
        <ele>574</ele>
        <time>2026-08-30T08:22:36+02:00</time>
        <extensions>
          <gpxtpx:TrackPointExtension xmlns:gpxtpx="http://www.garmin.com/xmlschemas/TrackPointExtension/v1">
            <gpxtpx:hr>145</gpxtpx:hr>
          </gpxtpx:TrackPointExtension>
        </extensions>
      </trkpt>
      <trkpt lat="43.58543" lon="3.00304">
        <ele>576.6006</ele>
        <time>2026-08-30T08:22:40+02:00</time>
      </trkpt>
      <trkpt lat="43.58543" lon="3.00304">
        <ele>576.6006</ele>
        <time>2026-08-30T08:22:41+02:00</time>
        <extensions>
          <gpxtpx:TrackPointExtension xmlns:gpxtpx="http://www.garmin.com/xmlschemas/TrackPointExtension/v1">
            <gpxtpx:hr>148</gpxtpx:hr>
          </gpxtpx:TrackPointExtension>
        </extensions>
      </trkpt>
      <trkpt lat="43.58544" lon="3.00305">
        <ele>575.1006</ele>
        <time>2026-08-30T08:22:45+02:00</time>
      </trkpt>
      <trkpt lat="43.58545" lon="3.00306">
        <ele>575.1006</ele>
        <time>2026-08-30T08:22:46+02:00</time>
        <extensions>
          <gpxtpx:TrackPointExtension xmlns:gpxtpx="http://www.garmin.com/xmlschemas/TrackPointExtension/v1">
            <gpxtpx:hr>146</gpxtpx:hr>
          </gpxtpx:TrackPointExtension>
        </extensions>
      </trkpt>
      <trkpt lat="43.58547" lon="3.0031">
        <ele>575.1006</ele>
        <time>2026-08-30T08:22:50+02:00</time>
      </trkpt>
      <trkpt lat="43.58547" lon="3.0031">
        <ele>575.1006</ele>
        <time>2026-08-30T08:22:51+02:00</time>
        <extensions>
          <gpxtpx:TrackPointExtension xmlns:gpxtpx="http://www.garmin.com/xmlschemas/TrackPointExtension/v1">
            <gpxtpx:hr>147</gpxtpx:hr>
          </gpxtpx:TrackPointExtension>
        </extensions>
      </trkpt>
      <trkpt lat="43.5855" lon="3.00312">
        <ele>577.7998</ele>
        <time>2026-08-30T08:22:55+02:00</time>
      </trkpt>
      <trkpt lat="43.58551" lon="3.00313">
        <ele>576</ele>
        <time>2026-08-30T08:22:56+02:00</time>
        <extensions>
          <gpxtpx:TrackPointExtension xmlns:gpxtpx="http://www.garmin.com/xmlschemas/TrackPointExtension/v1">
            <gpxtpx:hr>147</gpxtpx:hr>
          </gpxtpx:TrackPointExtension>
        </extensions>
      </trkpt>
      <trkpt lat="43.58553" lon="3.00315">
        <ele>576</ele>
        <time>2026-08-30T08:23:00+02:00</time>
      </trkpt>
      <trkpt lat="43.58554" lon="3.00315">
        <ele>576</ele>
        <time>2026-08-30T08:23:01+02:00</time>
        <extensions>
          <gpxtpx:TrackPointExtension xmlns:gpxtpx="http://www.garmin.com/xmlschemas/TrackPointExtension/v1">
            <gpxtpx:hr>148</gpxtpx:hr>
          </gpxtpx:TrackPointExtension>
        </extensions>
      </trkpt>
      <trkpt lat="43.58557" lon="3.00316">
        <ele>578.5</ele>
        <time>2026-08-30T08:23:05+02:00</time>
      </trkpt>
      <trkpt lat="43.58558" lon="3.00317">
        <ele>578.5</ele>
        <time>2026-08-30T08:23:06+02:00</time>
        <extensions>
          <gpxtpx:TrackPointExtension xmlns:gpxtpx="http://www.garmin.com/xmlschemas/TrackPointExtension/v1">
            <gpxtpx:hr>150</gpxtpx:hr>
          </gpxtpx:TrackPointExtension>
        </extensions>
      </trkpt>
      <trkpt lat="43.5856" lon="3.0032">
        <ele>578.5</ele>
        <time>2026-08-30T08:23:10+02:00</time>
      </trkpt>
      <trkpt lat="43.5856" lon="3.0032">
        <ele>578.5</ele>
        <time>2026-08-30T08:23:11+02:00</time>
        <extensions>
          <gpxtpx:TrackPointExtension xmlns:gpxtpx="http://www.garmin.com/xmlschemas/TrackPointExtension/v1">
            <gpxtpx:hr>148</gpxtpx:hr>
          </gpxtpx:TrackPointExtension>
        </extensions>
      </trkpt>
      <trkpt lat="43.58562" lon="3.00321">
        <ele>581</ele>
        <time>2026-08-30T08:23:15+02:00</time>
      </trkpt>
      <trkpt lat="43.58563" lon="3.00321">
        <ele>581</ele>
        <time>2026-08-30T08:23:16+02:00</time>
        <extensions>
          <gpxtpx:TrackPointExtension xmlns:gpxtpx="http://www.garmin.com/xmlschemas/TrackPointExtension/v1">
            <gpxtpx:hr>147</gpxtpx:hr>
          </gpxtpx:TrackPointExtension>
        </extensions>
      </trkpt>
      <trkpt lat="43.58564" lon="3.00325">
        <ele>578.7002</ele>
        <time>2026-08-30T08:23:20+02:00</time>
      </trkpt>
      <trkpt lat="43.58564" lon="3.00325">
        <ele>578.7002</ele>
        <time>2026-08-30T08:23:21+02:00</time>
        <extensions>
          <gpxtpx:TrackPointExtension xmlns:gpxtpx="http://www.garmin.com/xmlschemas/TrackPointExtension/v1">
            <gpxtpx:hr>149</gpxtpx:hr>
          </gpxtpx:TrackPointExtension>
        </extensions>
      </trkpt>
      <trkpt lat="43.58567" lon="3.00324">
        <ele>578.7002</ele>
        <time>2026-08-30T08:23:25+02:00</time>
      </trkpt>
      <trkpt lat="43.58567" lon="3.00324">
        <ele>578.7002</ele>
        <time>2026-08-30T08:23:26+02:00</time>
        <extensions>
          <gpxtpx:TrackPointExtension xmlns:gpxtpx="http://www.garmin.com/xmlschemas/TrackPointExtension/v1">
            <gpxtpx:hr>148</gpxtpx:hr>
          </gpxtpx:TrackPointExtension>
        </extensions>
      </trkpt>
      <trkpt lat="43.58568" lon="3.00322">
        <ele>583.4004</ele>
        <time>2026-08-30T08:23:30+02:00</time>
      </trkpt>
      <trkpt lat="43.58569" lon="3.00321">
        <ele>583.4004</ele>
        <time>2026-08-30T08:23:31+02:00</time>
        <extensions>
          <gpxtpx:TrackPointExtension xmlns:gpxtpx="http://www.garmin.com/xmlschemas/TrackPointExtension/v1">
            <gpxtpx:hr>148</gpxtpx:hr>
          </gpxtpx:TrackPointExtension>
        </extensions>
      </trkpt>
      <trkpt lat="43.5857" lon="3.0032">
        <ele>583.4004</ele>
        <time>2026-08-30T08:23:35+02:00</time>
      </trkpt>
      <trkpt lat="43.5857" lon="3.0032">
        <ele>583.4004</ele>
        <time>2026-08-30T08:23:36+02:00</time>
        <extensions>
          <gpxtpx:TrackPointExtension xmlns:gpxtpx="http://www.garmin.com/xmlschemas/TrackPointExtension/v1">
            <gpxtpx:hr>146</gpxtpx:hr>
          </gpxtpx:TrackPointExtension>
        </extensions>
      </trkpt>
      <trkpt lat="43.58572" lon="3.00319">
        <ele>583.4004</ele>
        <time>2026-08-30T08:23:40+02:00</time>
        <extensions>
          <gpxtpx:TrackPointExtension xmlns:gpxtpx="http://www.garmin.com/xmlschemas/TrackPointExtension/v1">
            <gpxtpx:hr>141</gpxtpx:hr>
          </gpxtpx:TrackPointExtension>
        </extensions>
      </trkpt>
      <trkpt lat="43.58577" lon="3.00312">
        <ele>588.2002</ele>
        <time>2026-08-30T08:23:41+02:00</time>
        <extensions>
          <gpxtpx:TrackPointExtension xmlns:gpxtpx="http://www.garmin.com/xmlschemas/TrackPointExtension/v1">
            <gpxtpx:hr>143</gpxtpx:hr>
          </gpxtpx:TrackPointExtension>
        </extensions>
      </trkpt>
      <trkpt lat="43.58578" lon="3.00312">
        <ele>588.2002</ele>
        <time>2026-08-30T08:23:45+02:00</time>
      </trkpt>
      <trkpt lat="43.58578" lon="3.00312">
        <ele>588.2002</ele>
        <time>2026-08-30T08:23:46+02:00</time>
        <extensions>
          <gpxtpx:TrackPointExtension xmlns:gpxtpx="http://www.garmin.com/xmlschemas/TrackPointExtension/v1">
            <gpxtpx:hr>144</gpxtpx:hr>
          </gpxtpx:TrackPointExtension>
        </extensions>
      </trkpt>
      <trkpt lat="43.58579" lon="3.00312">
        <ele>588.2002</ele>
        <time>2026-08-30T08:23:50+02:00</time>
        <extensions>
          <gpxtpx:TrackPointExtension xmlns:gpxtpx="http://www.garmin.com/xmlschemas/TrackPointExtension/v1">
            <gpxtpx:hr>144</gpxtpx:hr>
          </gpxtpx:TrackPointExtension>
        </extensions>
      </trkpt>
      <trkpt lat="43.58585" lon="3.00313">
        <ele>590.7002</ele>
        <time>2026-08-30T08:23:51+02:00</time>
        <extensions>
          <gpxtpx:TrackPointExtension xmlns:gpxtpx="http://www.garmin.com/xmlschemas/TrackPointExtension/v1">
            <gpxtpx:hr>144</gpxtpx:hr>
          </gpxtpx:TrackPointExtension>
        </extensions>
      </trkpt>
      <trkpt lat="43.58585" lon="3.00311">
        <ele>590.7002</ele>
        <time>2026-08-30T08:23:55+02:00</time>
      </trkpt>
      <trkpt lat="43.58586" lon="3.00311">
        <ele>590.7002</ele>
        <time>2026-08-30T08:23:56+02:00</time>
        <extensions>
          <gpxtpx:TrackPointExtension xmlns:gpxtpx="http://www.garmin.com/xmlschemas/TrackPointExtension/v1">
            <gpxtpx:hr>145</gpxtpx:hr>
          </gpxtpx:TrackPointExtension>
        </extensions>
      </trkpt>
      <trkpt lat="43.58588" lon="3.0031">
        <ele>593.1006</ele>
        <time>2026-08-30T08:24:00+02:00</time>
      </trkpt>
      <trkpt lat="43.58588" lon="3.0031">
        <ele>593.1006</ele>
        <time>2026-08-30T08:24:01+02:00</time>
        <extensions>
          <gpxtpx:TrackPointExtension xmlns:gpxtpx="http://www.garmin.com/xmlschemas/TrackPointExtension/v1">
            <gpxtpx:hr>144</gpxtpx:hr>
          </gpxtpx:TrackPointExtension>
        </extensions>
      </trkpt>
      <trkpt lat="43.5859" lon="3.0031">
        <ele>593.1006</ele>
        <time>2026-08-30T08:24:05+02:00</time>
      </trkpt>
      <trkpt lat="43.5859" lon="3.0031">
        <ele>593.1006</ele>
        <time>2026-08-30T08:24:06+02:00</time>
        <extensions>
          <gpxtpx:TrackPointExtension xmlns:gpxtpx="http://www.garmin.com/xmlschemas/TrackPointExtension/v1">
            <gpxtpx:hr>143</gpxtpx:hr>
          </gpxtpx:TrackPointExtension>
        </extensions>
      </trkpt>
      <trkpt lat="43.58592" lon="3.00312">
        <ele>593.1006</ele>
        <time>2026-08-30T08:24:10+02:00</time>
        <extensions>
          <gpxtpx:TrackPointExtension xmlns:gpxtpx="http://www.garmin.com/xmlschemas/TrackPointExtension/v1">
            <gpxtpx:hr>144</gpxtpx:hr>
          </gpxtpx:TrackPointExtension>
        </extensions>
      </trkpt>
      <trkpt lat="43.58595" lon="3.00312">
        <ele>595.2998</ele>
        <time>2026-08-30T08:24:11+02:00</time>
        <extensions>
          <gpxtpx:TrackPointExtension xmlns:gpxtpx="http://www.garmin.com/xmlschemas/TrackPointExtension/v1">
            <gpxtpx:hr>144</gpxtpx:hr>
          </gpxtpx:TrackPointExtension>
        </extensions>
      </trkpt>
      <trkpt lat="43.58595" lon="3.00309">
        <ele>595.2998</ele>
        <time>2026-08-30T08:24:15+02:00</time>
      </trkpt>
      <trkpt lat="43.58596" lon="3.00309">
        <ele>595.2998</ele>
        <time>2026-08-30T08:24:16+02:00</time>
        <extensions>
          <gpxtpx:TrackPointExtension xmlns:gpxtpx="http://www.garmin.com/xmlschemas/TrackPointExtension/v1">
            <gpxtpx:hr>146</gpxtpx:hr>
          </gpxtpx:TrackPointExtension>
        </extensions>
      </trkpt>
      <trkpt lat="43.58597" lon="3.00306">
        <ele>595.2998</ele>
        <time>2026-08-30T08:24:20+02:00</time>
      </trkpt>
      <trkpt lat="43.58597" lon="3.00306">
        <ele>595.2998</ele>
        <time>2026-08-30T08:24:21+02:00</time>
        <extensions>
          <gpxtpx:TrackPointExtension xmlns:gpxtpx="http://www.garmin.com/xmlschemas/TrackPointExtension/v1">
            <gpxtpx:hr>145</gpxtpx:hr>
          </gpxtpx:TrackPointExtension>
        </extensions>
      </trkpt>
      <trkpt lat="43.58598" lon="3.00304">
        <ele>598</ele>
        <time>2026-08-30T08:24:25+02:00</time>
      </trkpt>
      <trkpt lat="43.58599" lon="3.00304">
        <ele>598</ele>
        <time>2026-08-30T08:24:26+02:00</time>
        <extensions>
          <gpxtpx:TrackPointExtension xmlns:gpxtpx="http://www.garmin.com/xmlschemas/TrackPointExtension/v1">
            <gpxtpx:hr>145</gpxtpx:hr>
          </gpxtpx:TrackPointExtension>
        </extensions>
      </trkpt>
      <trkpt lat="43.58601" lon="3.00302">
        <ele>600.2002</ele>
        <time>2026-08-30T08:24:30+02:00</time>
      </trkpt>
      <trkpt lat="43.58602" lon="3.00302">
        <ele>600.2002</ele>
        <time>2026-08-30T08:24:31+02:00</time>
        <extensions>
          <gpxtpx:TrackPointExtension xmlns:gpxtpx="http://www.garmin.com/xmlschemas/TrackPointExtension/v1">
            <gpxtpx:hr>145</gpxtpx:hr>
          </gpxtpx:TrackPointExtension>
        </extensions>
      </trkpt>
      <trkpt lat="43.58604" lon="3.003">
        <ele>600.2002</ele>
        <time>2026-08-30T08:24:35+02:00</time>
      </trkpt>
      <trkpt lat="43.58604" lon="3.003">
        <ele>600.2002</ele>
        <time>2026-08-30T08:24:36+02:00</time>
        <extensions>
          <gpxtpx:TrackPointExtension xmlns:gpxtpx="http://www.garmin.com/xmlschemas/TrackPointExtension/v1">
            <gpxtpx:hr>145</gpxtpx:hr>
          </gpxtpx:TrackPointExtension>
        </extensions>
      </trkpt>
      <trkpt lat="43.58607" lon="3.00298">
        <ele>602.2002</ele>
        <time>2026-08-30T08:24:40+02:00</time>
      </trkpt>
      <trkpt lat="43.58608" lon="3.00298">
        <ele>602.2002</ele>
        <time>2026-08-30T08:24:41+02:00</time>
        <extensions>
          <gpxtpx:TrackPointExtension xmlns:gpxtpx="http://www.garmin.com/xmlschemas/TrackPointExtension/v1">
            <gpxtpx:hr>146</gpxtpx:hr>
          </gpxtpx:TrackPointExtension>
        </extensions>
      </trkpt>
      <trkpt lat="43.58611" lon="3.00296">
        <ele>604</ele>
        <time>2026-08-30T08:24:45+02:00</time>
      </trkpt>
      <trkpt lat="43.58612" lon="3.00296">
        <ele>607</ele>
        <time>2026-08-30T08:24:46+02:00</time>
        <extensions>
          <gpxtpx:TrackPointExtension xmlns:gpxtpx="http://www.garmin.com/xmlschemas/TrackPointExtension/v1">
            <gpxtpx:hr>146</gpxtpx:hr>
          </gpxtpx:TrackPointExtension>
        </extensions>
      </trkpt>
      <trkpt lat="43.58615" lon="3.00293">
        <ele>607</ele>
        <time>2026-08-30T08:24:50+02:00</time>
      </trkpt>
      <trkpt lat="43.58615" lon="3.00293">
        <ele>607</ele>
        <time>2026-08-30T08:24:51+02:00</time>
        <extensions>
          <gpxtpx:TrackPointExtension xmlns:gpxtpx="http://www.garmin.com/xmlschemas/TrackPointExtension/v1">
            <gpxtpx:hr>145</gpxtpx:hr>
          </gpxtpx:TrackPointExtension>
        </extensions>
      </trkpt>
      <trkpt lat="43.58618" lon="3.00292">
        <ele>608.7002</ele>
        <time>2026-08-30T08:24:55+02:00</time>
      </trkpt>
      <trkpt lat="43.58618" lon="3.00292">
        <ele>608.7002</ele>
        <time>2026-08-30T08:24:56+02:00</time>
        <extensions>
          <gpxtpx:TrackPointExtension xmlns:gpxtpx="http://www.garmin.com/xmlschemas/TrackPointExtension/v1">
            <gpxtpx:hr>144</gpxtpx:hr>
          </gpxtpx:TrackPointExtension>
        </extensions>
      </trkpt>
      <trkpt lat="43.58621" lon="3.00289">
        <ele>608.7002</ele>
        <time>2026-08-30T08:25:00+02:00</time>
      </trkpt>
      <trkpt lat="43.58622" lon="3.00288">
        <ele>608.7002</ele>
        <time>2026-08-30T08:25:01+02:00</time>
        <extensions>
          <gpxtpx:TrackPointExtension xmlns:gpxtpx="http://www.garmin.com/xmlschemas/TrackPointExtension/v1">
            <gpxtpx:hr>144</gpxtpx:hr>
          </gpxtpx:TrackPointExtension>
        </extensions>
      </trkpt>
      <trkpt lat="43.58624" lon="3.00286">
        <ele>613.2002</ele>
        <time>2026-08-30T08:25:05+02:00</time>
      </trkpt>
      <trkpt lat="43.58624" lon="3.00285">
        <ele>613.2002</ele>
        <time>2026-08-30T08:25:06+02:00</time>
        <extensions>
          <gpxtpx:TrackPointExtension xmlns:gpxtpx="http://www.garmin.com/xmlschemas/TrackPointExtension/v1">
            <gpxtpx:hr>144</gpxtpx:hr>
          </gpxtpx:TrackPointExtension>
        </extensions>
      </trkpt>
      <trkpt lat="43.58625" lon="3.00281">
        <ele>613.2002</ele>
        <time>2026-08-30T08:25:10+02:00</time>
      </trkpt>
      <trkpt lat="43.58625" lon="3.00279">
        <ele>613.2002</ele>
        <time>2026-08-30T08:25:11+02:00</time>
        <extensions>
          <gpxtpx:TrackPointExtension xmlns:gpxtpx="http://www.garmin.com/xmlschemas/TrackPointExtension/v1">
            <gpxtpx:hr>142</gpxtpx:hr>
          </gpxtpx:TrackPointExtension>
        </extensions>
      </trkpt>
      <trkpt lat="43.58625" lon="3.00276">
        <ele>616.1006</ele>
        <time>2026-08-30T08:25:15+02:00</time>
      </trkpt>
      <trkpt lat="43.58625" lon="3.00275">
        <ele>616.1006</ele>
        <time>2026-08-30T08:25:16+02:00</time>
        <extensions>
          <gpxtpx:TrackPointExtension xmlns:gpxtpx="http://www.garmin.com/xmlschemas/TrackPointExtension/v1">
            <gpxtpx:hr>143</gpxtpx:hr>
          </gpxtpx:TrackPointExtension>
        </extensions>
      </trkpt>
      <trkpt lat="43.58627" lon="3.00272">
        <ele>616.1006</ele>
        <time>2026-08-30T08:25:20+02:00</time>
      </trkpt>
      <trkpt lat="43.58628" lon="3.00272">
        <ele>616.1006</ele>
        <time>2026-08-30T08:25:21+02:00</time>
        <extensions>
          <gpxtpx:TrackPointExtension xmlns:gpxtpx="http://www.garmin.com/xmlschemas/TrackPointExtension/v1">
            <gpxtpx:hr>143</gpxtpx:hr>
          </gpxtpx:TrackPointExtension>
        </extensions>
      </trkpt>
      <trkpt lat="43.5863" lon="3.0027">
        <ele>617.6006</ele>
        <time>2026-08-30T08:25:25+02:00</time>
      </trkpt>
      <trkpt lat="43.5863" lon="3.0027">
        <ele>617.6006</ele>
        <time>2026-08-30T08:25:26+02:00</time>
        <extensions>
          <gpxtpx:TrackPointExtension xmlns:gpxtpx="http://www.garmin.com/xmlschemas/TrackPointExtension/v1">
            <gpxtpx:hr>141</gpxtpx:hr>
          </gpxtpx:TrackPointExtension>
        </extensions>
      </trkpt>
      <trkpt lat="43.58631" lon="3.00268">
        <ele>620.2002</ele>
        <time>2026-08-30T08:25:30+02:00</time>
      </trkpt>
      <trkpt lat="43.58632" lon="3.00268">
        <ele>620.2002</ele>
        <time>2026-08-30T08:25:31+02:00</time>
        <extensions>
          <gpxtpx:TrackPointExtension xmlns:gpxtpx="http://www.garmin.com/xmlschemas/TrackPointExtension/v1">
            <gpxtpx:hr>141</gpxtpx:hr>
          </gpxtpx:TrackPointExtension>
        </extensions>
      </trkpt>
      <trkpt lat="43.58633" lon="3.00267">
        <ele>620.2002</ele>
        <time>2026-08-30T08:25:35+02:00</time>
        <extensions>
          <gpxtpx:TrackPointExtension xmlns:gpxtpx="http://www.garmin.com/xmlschemas/TrackPointExtension/v1">
            <gpxtpx:hr>142</gpxtpx:hr>
          </gpxtpx:TrackPointExtension>
        </extensions>
      </trkpt>
      <trkpt lat="43.58635" lon="3.0026">
        <ele>622.5</ele>
        <time>2026-08-30T08:25:36+02:00</time>
        <extensions>
          <gpxtpx:TrackPointExtension xmlns:gpxtpx="http://www.garmin.com/xmlschemas/TrackPointExtension/v1">
            <gpxtpx:hr>144</gpxtpx:hr>
          </gpxtpx:TrackPointExtension>
        </extensions>
      </trkpt>
      <trkpt lat="43.58636" lon="3.00259">
        <ele>624.1006</ele>
        <time>2026-08-30T08:25:40+02:00</time>
      </trkpt>
      <trkpt lat="43.58637" lon="3.00258">
        <ele>624.1006</ele>
        <time>2026-08-30T08:25:41+02:00</time>
        <extensions>
          <gpxtpx:TrackPointExtension xmlns:gpxtpx="http://www.garmin.com/xmlschemas/TrackPointExtension/v1">
            <gpxtpx:hr>144</gpxtpx:hr>
          </gpxtpx:TrackPointExtension>
        </extensions>
      </trkpt>
      <trkpt lat="43.58637" lon="3.00257">
        <ele>624.1006</ele>
        <time>2026-08-30T08:25:45+02:00</time>
      </trkpt>
      <trkpt lat="43.58637" lon="3.00256">
        <ele>624.1006</ele>
        <time>2026-08-30T08:25:46+02:00</time>
        <extensions>
          <gpxtpx:TrackPointExtension xmlns:gpxtpx="http://www.garmin.com/xmlschemas/TrackPointExtension/v1">
            <gpxtpx:hr>144</gpxtpx:hr>
          </gpxtpx:TrackPointExtension>
        </extensions>
      </trkpt>
      <trkpt lat="43.58638" lon="3.00255">
        <ele>624.1006</ele>
        <time>2026-08-30T08:25:50+02:00</time>
      </trkpt>
      <trkpt lat="43.58638" lon="3.00254">
        <ele>624.1006</ele>
        <time>2026-08-30T08:25:51+02:00</time>
        <extensions>
          <gpxtpx:TrackPointExtension xmlns:gpxtpx="http://www.garmin.com/xmlschemas/TrackPointExtension/v1">
            <gpxtpx:hr>145</gpxtpx:hr>
          </gpxtpx:TrackPointExtension>
        </extensions>
      </trkpt>
      <trkpt lat="43.58639" lon="3.00252">
        <ele>626.2998</ele>
        <time>2026-08-30T08:25:55+02:00</time>
      </trkpt>
      <trkpt lat="43.58639" lon="3.00252">
        <ele>626.2998</ele>
        <time>2026-08-30T08:25:56+02:00</time>
        <extensions>
          <gpxtpx:TrackPointExtension xmlns:gpxtpx="http://www.garmin.com/xmlschemas/TrackPointExtension/v1">
            <gpxtpx:hr>145</gpxtpx:hr>
          </gpxtpx:TrackPointExtension>
        </extensions>
      </trkpt>
      <trkpt lat="43.58639" lon="3.00247">
        <ele>626.2998</ele>
        <time>2026-08-30T08:26:00+02:00</time>
      </trkpt>
      <trkpt lat="43.58639" lon="3.00246">
        <ele>626.2998</ele>
        <time>2026-08-30T08:26:01+02:00</time>
        <extensions>
          <gpxtpx:TrackPointExtension xmlns:gpxtpx="http://www.garmin.com/xmlschemas/TrackPointExtension/v1">
            <gpxtpx:hr>145</gpxtpx:hr>
          </gpxtpx:TrackPointExtension>
        </extensions>
      </trkpt>
      <trkpt lat="43.5864" lon="3.00241">
        <ele>628.2002</ele>
        <time>2026-08-30T08:26:05+02:00</time>
      </trkpt>
      <trkpt lat="43.58641" lon="3.0024">
        <ele>628.2002</ele>
        <time>2026-08-30T08:26:06+02:00</time>
        <extensions>
          <gpxtpx:TrackPointExtension xmlns:gpxtpx="http://www.garmin.com/xmlschemas/TrackPointExtension/v1">
            <gpxtpx:hr>145</gpxtpx:hr>
          </gpxtpx:TrackPointExtension>
        </extensions>
      </trkpt>
      <trkpt lat="43.58643" lon="3.00238">
        <ele>629.7002</ele>
        <time>2026-08-30T08:26:10+02:00</time>
      </trkpt>
      <trkpt lat="43.58644" lon="3.00237">
        <ele>629.7002</ele>
        <time>2026-08-30T08:26:11+02:00</time>
        <extensions>
          <gpxtpx:TrackPointExtension xmlns:gpxtpx="http://www.garmin.com/xmlschemas/TrackPointExtension/v1">
            <gpxtpx:hr>146</gpxtpx:hr>
          </gpxtpx:TrackPointExtension>
        </extensions>
      </trkpt>
      <trkpt lat="43.58646" lon="3.00233">
        <ele>631.4004</ele>
        <time>2026-08-30T08:26:15+02:00</time>
      </trkpt>
      <trkpt lat="43.58646" lon="3.00233">
        <ele>631.4004</ele>
        <time>2026-08-30T08:26:16+02:00</time>
        <extensions>
          <gpxtpx:TrackPointExtension xmlns:gpxtpx="http://www.garmin.com/xmlschemas/TrackPointExtension/v1">
            <gpxtpx:hr>146</gpxtpx:hr>
          </gpxtpx:TrackPointExtension>
        </extensions>
      </trkpt>
      <trkpt lat="43.58648" lon="3.0023">
        <ele>631.4004</ele>
        <time>2026-08-30T08:26:20+02:00</time>
      </trkpt>
      <trkpt lat="43.58648" lon="3.0023">
        <ele>631.4004</ele>
        <time>2026-08-30T08:26:21+02:00</time>
        <extensions>
          <gpxtpx:TrackPointExtension xmlns:gpxtpx="http://www.garmin.com/xmlschemas/TrackPointExtension/v1">
            <gpxtpx:hr>145</gpxtpx:hr>
          </gpxtpx:TrackPointExtension>
        </extensions>
      </trkpt>
      <trkpt lat="43.58649" lon="3.00228">
        <ele>632.7998</ele>
        <time>2026-08-30T08:26:25+02:00</time>
      </trkpt>
      <trkpt lat="43.5865" lon="3.00227">
        <ele>632.7998</ele>
        <time>2026-08-30T08:26:26+02:00</time>
        <extensions>
          <gpxtpx:TrackPointExtension xmlns:gpxtpx="http://www.garmin.com/xmlschemas/TrackPointExtension/v1">
            <gpxtpx:hr>148</gpxtpx:hr>
          </gpxtpx:TrackPointExtension>
        </extensions>
      </trkpt>
      <trkpt lat="43.58651" lon="3.00224">
        <ele>634.5</ele>
        <time>2026-08-30T08:26:30+02:00</time>
      </trkpt>
      <trkpt lat="43.58652" lon="3.00223">
        <ele>634.5</ele>
        <time>2026-08-30T08:26:31+02:00</time>
        <extensions>
          <gpxtpx:TrackPointExtension xmlns:gpxtpx="http://www.garmin.com/xmlschemas/TrackPointExtension/v1">
            <gpxtpx:hr>150</gpxtpx:hr>
          </gpxtpx:TrackPointExtension>
        </extensions>
      </trkpt>
      <trkpt lat="43.58654" lon="3.00221">
        <ele>634.5</ele>
        <time>2026-08-30T08:26:35+02:00</time>
      </trkpt>
      <trkpt lat="43.58654" lon="3.00221">
        <ele>634.5</ele>
        <time>2026-08-30T08:26:36+02:00</time>
        <extensions>
          <gpxtpx:TrackPointExtension xmlns:gpxtpx="http://www.garmin.com/xmlschemas/TrackPointExtension/v1">
            <gpxtpx:hr>150</gpxtpx:hr>
          </gpxtpx:TrackPointExtension>
        </extensions>
      </trkpt>
      <trkpt lat="43.58655" lon="3.00218">
        <ele>637.5</ele>
        <time>2026-08-30T08:26:40+02:00</time>
      </trkpt>
      <trkpt lat="43.58655" lon="3.00217">
        <ele>637.5</ele>
        <time>2026-08-30T08:26:41+02:00</time>
        <extensions>
          <gpxtpx:TrackPointExtension xmlns:gpxtpx="http://www.garmin.com/xmlschemas/TrackPointExtension/v1">
            <gpxtpx:hr>147</gpxtpx:hr>
          </gpxtpx:TrackPointExtension>
        </extensions>
      </trkpt>
      <trkpt lat="43.58655" lon="3.00213">
        <ele>637.5</ele>
        <time>2026-08-30T08:26:45+02:00</time>
      </trkpt>
      <trkpt lat="43.58654" lon="3.00212">
        <ele>635.9004</ele>
        <time>2026-08-30T08:26:46+02:00</time>
        <extensions>
          <gpxtpx:TrackPointExtension xmlns:gpxtpx="http://www.garmin.com/xmlschemas/TrackPointExtension/v1">
            <gpxtpx:hr>146</gpxtpx:hr>
          </gpxtpx:TrackPointExtension>
        </extensions>
      </trkpt>
      <trkpt lat="43.58654" lon="3.00215">
        <ele>635.9004</ele>
        <time>2026-08-30T08:26:50+02:00</time>
      </trkpt>
      <trkpt lat="43.58654" lon="3.00216">
        <ele>635.9004</ele>
        <time>2026-08-30T08:26:51+02:00</time>
        <extensions>
          <gpxtpx:TrackPointExtension xmlns:gpxtpx="http://www.garmin.com/xmlschemas/TrackPointExtension/v1">
            <gpxtpx:hr>146</gpxtpx:hr>
          </gpxtpx:TrackPointExtension>
        </extensions>
      </trkpt>
      <trkpt lat="43.58655" lon="3.00217">
        <ele>635.9004</ele>
        <time>2026-08-30T08:26:55+02:00</time>
        <extensions>
          <gpxtpx:TrackPointExtension xmlns:gpxtpx="http://www.garmin.com/xmlschemas/TrackPointExtension/v1">
            <gpxtpx:hr>144</gpxtpx:hr>
          </gpxtpx:TrackPointExtension>
        </extensions>
      </trkpt>
      <trkpt lat="43.58658" lon="3.00216">
        <ele>637.5</ele>
        <time>2026-08-30T08:26:56+02:00</time>
        <extensions>
          <gpxtpx:TrackPointExtension xmlns:gpxtpx="http://www.garmin.com/xmlschemas/TrackPointExtension/v1">
            <gpxtpx:hr>143</gpxtpx:hr>
          </gpxtpx:TrackPointExtension>
        </extensions>
      </trkpt>
      <trkpt lat="43.5866" lon="3.00214">
        <ele>637.5</ele>
        <time>2026-08-30T08:27:00+02:00</time>
      </trkpt>
      <trkpt lat="43.5866" lon="3.00213">
        <ele>637.5</ele>
        <time>2026-08-30T08:27:01+02:00</time>
        <extensions>
          <gpxtpx:TrackPointExtension xmlns:gpxtpx="http://www.garmin.com/xmlschemas/TrackPointExtension/v1">
            <gpxtpx:hr>144</gpxtpx:hr>
          </gpxtpx:TrackPointExtension>
        </extensions>
      </trkpt>
      <trkpt lat="43.58659" lon="3.0021">
        <ele>639</ele>
        <time>2026-08-30T08:27:05+02:00</time>
      </trkpt>
      <trkpt lat="43.58659" lon="3.00209">
        <ele>639</ele>
        <time>2026-08-30T08:27:06+02:00</time>
        <extensions>
          <gpxtpx:TrackPointExtension xmlns:gpxtpx="http://www.garmin.com/xmlschemas/TrackPointExtension/v1">
            <gpxtpx:hr>143</gpxtpx:hr>
          </gpxtpx:TrackPointExtension>
        </extensions>
      </trkpt>
      <trkpt lat="43.58658" lon="3.00205">
        <ele>639</ele>
        <time>2026-08-30T08:27:10+02:00</time>
      </trkpt>
      <trkpt lat="43.58658" lon="3.00204">
        <ele>639</ele>
        <time>2026-08-30T08:27:11+02:00</time>
        <extensions>
          <gpxtpx:TrackPointExtension xmlns:gpxtpx="http://www.garmin.com/xmlschemas/TrackPointExtension/v1">
            <gpxtpx:hr>146</gpxtpx:hr>
          </gpxtpx:TrackPointExtension>
        </extensions>
      </trkpt>
      <trkpt lat="43.58659" lon="3.00199">
        <ele>640.2998</ele>
        <time>2026-08-30T08:27:15+02:00</time>
      </trkpt>
      <trkpt lat="43.58659" lon="3.00198">
        <ele>640.2998</ele>
        <time>2026-08-30T08:27:16+02:00</time>
        <extensions>
          <gpxtpx:TrackPointExtension xmlns:gpxtpx="http://www.garmin.com/xmlschemas/TrackPointExtension/v1">
            <gpxtpx:hr>148</gpxtpx:hr>
          </gpxtpx:TrackPointExtension>
        </extensions>
      </trkpt>
      <trkpt lat="43.58661" lon="3.00196">
        <ele>640.2998</ele>
        <time>2026-08-30T08:27:20+02:00</time>
      </trkpt>
      <trkpt lat="43.5866" lon="3.00194">
        <ele>640.2998</ele>
        <time>2026-08-30T08:27:21+02:00</time>
        <extensions>
          <gpxtpx:TrackPointExtension xmlns:gpxtpx="http://www.garmin.com/xmlschemas/TrackPointExtension/v1">
            <gpxtpx:hr>146</gpxtpx:hr>
          </gpxtpx:TrackPointExtension>
        </extensions>
      </trkpt>
      <trkpt lat="43.58661" lon="3.00189">
        <ele>641.6006</ele>
        <time>2026-08-30T08:27:25+02:00</time>
      </trkpt>
      <trkpt lat="43.58661" lon="3.00187">
        <ele>641.6006</ele>
        <time>2026-08-30T08:27:26+02:00</time>
        <extensions>
          <gpxtpx:TrackPointExtension xmlns:gpxtpx="http://www.garmin.com/xmlschemas/TrackPointExtension/v1">
            <gpxtpx:hr>145</gpxtpx:hr>
          </gpxtpx:TrackPointExtension>
        </extensions>
      </trkpt>
      <trkpt lat="43.58661" lon="3.00183">
        <ele>644.9004</ele>
        <time>2026-08-30T08:27:30+02:00</time>
      </trkpt>
      <trkpt lat="43.58662" lon="3.00181">
        <ele>644.9004</ele>
        <time>2026-08-30T08:27:31+02:00</time>
        <extensions>
          <gpxtpx:TrackPointExtension xmlns:gpxtpx="http://www.garmin.com/xmlschemas/TrackPointExtension/v1">
            <gpxtpx:hr>143</gpxtpx:hr>
          </gpxtpx:TrackPointExtension>
        </extensions>
      </trkpt>
      <trkpt lat="43.58664" lon="3.00179">
        <ele>644.9004</ele>
        <time>2026-08-30T08:27:35+02:00</time>
      </trkpt>
      <trkpt lat="43.58665" lon="3.00179">
        <ele>644.9004</ele>
        <time>2026-08-30T08:27:36+02:00</time>
        <extensions>
          <gpxtpx:TrackPointExtension xmlns:gpxtpx="http://www.garmin.com/xmlschemas/TrackPointExtension/v1">
            <gpxtpx:hr>144</gpxtpx:hr>
          </gpxtpx:TrackPointExtension>
        </extensions>
      </trkpt>
      <trkpt lat="43.58668" lon="3.0018">
        <ele>647</ele>
        <time>2026-08-30T08:27:40+02:00</time>
      </trkpt>
      <trkpt lat="43.58668" lon="3.0018">
        <ele>647</ele>
        <time>2026-08-30T08:27:41+02:00</time>
        <extensions>
          <gpxtpx:TrackPointExtension xmlns:gpxtpx="http://www.garmin.com/xmlschemas/TrackPointExtension/v1">
            <gpxtpx:hr>140</gpxtpx:hr>
          </gpxtpx:TrackPointExtension>
        </extensions>
      </trkpt>
      <trkpt lat="43.5867" lon="3.00178">
        <ele>647</ele>
        <time>2026-08-30T08:27:45+02:00</time>
      </trkpt>
      <trkpt lat="43.5867" lon="3.00177">
        <ele>647</ele>
        <time>2026-08-30T08:27:46+02:00</time>
        <extensions>
          <gpxtpx:TrackPointExtension xmlns:gpxtpx="http://www.garmin.com/xmlschemas/TrackPointExtension/v1">
            <gpxtpx:hr>139</gpxtpx:hr>
          </gpxtpx:TrackPointExtension>
        </extensions>
      </trkpt>
      <trkpt lat="43.5867" lon="3.00176">
        <ele>647</ele>
        <time>2026-08-30T08:27:50+02:00</time>
        <extensions>
          <gpxtpx:TrackPointExtension xmlns:gpxtpx="http://www.garmin.com/xmlschemas/TrackPointExtension/v1">
            <gpxtpx:hr>137</gpxtpx:hr>
          </gpxtpx:TrackPointExtension>
        </extensions>
      </trkpt>
      <trkpt lat="43.58676" lon="3.00164">
        <ele>652.7002</ele>
        <time>2026-08-30T08:27:51+02:00</time>
        <extensions>
          <gpxtpx:TrackPointExtension xmlns:gpxtpx="http://www.garmin.com/xmlschemas/TrackPointExtension/v1">
            <gpxtpx:hr>137</gpxtpx:hr>
          </gpxtpx:TrackPointExtension>
        </extensions>
      </trkpt>
      <trkpt lat="43.58677" lon="3.00163">
        <ele>652.7002</ele>
        <time>2026-08-30T08:27:55+02:00</time>
      </trkpt>
      <trkpt lat="43.58677" lon="3.00163">
        <ele>652.7002</ele>
        <time>2026-08-30T08:27:56+02:00</time>
        <extensions>
          <gpxtpx:TrackPointExtension xmlns:gpxtpx="http://www.garmin.com/xmlschemas/TrackPointExtension/v1">
            <gpxtpx:hr>136</gpxtpx:hr>
          </gpxtpx:TrackPointExtension>
        </extensions>
      </trkpt>
      <trkpt lat="43.58678" lon="3.00163">
        <ele>652.7002</ele>
        <time>2026-08-30T08:28:00+02:00</time>
        <extensions>
          <gpxtpx:TrackPointExtension xmlns:gpxtpx="http://www.garmin.com/xmlschemas/TrackPointExtension/v1">
            <gpxtpx:hr>135</gpxtpx:hr>
          </gpxtpx:TrackPointExtension>
        </extensions>
      </trkpt>
      <trkpt lat="43.58679" lon="3.0016">
        <ele>652.7002</ele>
        <time>2026-08-30T08:28:01+02:00</time>
        <extensions>
          <gpxtpx:TrackPointExtension xmlns:gpxtpx="http://www.garmin.com/xmlschemas/TrackPointExtension/v1">
            <gpxtpx:hr>135</gpxtpx:hr>
          </gpxtpx:TrackPointExtension>
        </extensions>
      </trkpt>
      <trkpt lat="43.5868" lon="3.00159">
        <ele>655</ele>
        <time>2026-08-30T08:28:05+02:00</time>
        <extensions>
          <gpxtpx:TrackPointExtension xmlns:gpxtpx="http://www.garmin.com/xmlschemas/TrackPointExtension/v1">
            <gpxtpx:hr>134</gpxtpx:hr>
          </gpxtpx:TrackPointExtension>
        </extensions>
      </trkpt>
      <trkpt lat="43.58685" lon="3.00155">
        <ele>657.2002</ele>
        <time>2026-08-30T08:28:06+02:00</time>
        <extensions>
          <gpxtpx:TrackPointExtension xmlns:gpxtpx="http://www.garmin.com/xmlschemas/TrackPointExtension/v1">
            <gpxtpx:hr>138</gpxtpx:hr>
          </gpxtpx:TrackPointExtension>
        </extensions>
      </trkpt>
      <trkpt lat="43.58686" lon="3.00154">
        <ele>657.2002</ele>
        <time>2026-08-30T08:28:10+02:00</time>
        <extensions>
          <gpxtpx:TrackPointExtension xmlns:gpxtpx="http://www.garmin.com/xmlschemas/TrackPointExtension/v1">
            <gpxtpx:hr>139</gpxtpx:hr>
          </gpxtpx:TrackPointExtension>
        </extensions>
      </trkpt>
      <trkpt lat="43.58688" lon="3.00149">
        <ele>661.9004</ele>
        <time>2026-08-30T08:28:11+02:00</time>
        <extensions>
          <gpxtpx:TrackPointExtension xmlns:gpxtpx="http://www.garmin.com/xmlschemas/TrackPointExtension/v1">
            <gpxtpx:hr>145</gpxtpx:hr>
          </gpxtpx:TrackPointExtension>
        </extensions>
      </trkpt>
      <trkpt lat="43.58689" lon="3.00148">
        <ele>661.9004</ele>
        <time>2026-08-30T08:28:15+02:00</time>
        <extensions>
          <gpxtpx:TrackPointExtension xmlns:gpxtpx="http://www.garmin.com/xmlschemas/TrackPointExtension/v1">
            <gpxtpx:hr>147</gpxtpx:hr>
          </gpxtpx:TrackPointExtension>
        </extensions>
      </trkpt>
      <trkpt lat="43.58691" lon="3.00144">
        <ele>661.9004</ele>
        <time>2026-08-30T08:28:16+02:00</time>
        <extensions>
          <gpxtpx:TrackPointExtension xmlns:gpxtpx="http://www.garmin.com/xmlschemas/TrackPointExtension/v1">
            <gpxtpx:hr>147</gpxtpx:hr>
          </gpxtpx:TrackPointExtension>
        </extensions>
      </trkpt>
      <trkpt lat="43.58692" lon="3.00142">
        <ele>664.2002</ele>
        <time>2026-08-30T08:28:20+02:00</time>
      </trkpt>
      <trkpt lat="43.58692" lon="3.00142">
        <ele>664.2002</ele>
        <time>2026-08-30T08:28:21+02:00</time>
        <extensions>
          <gpxtpx:TrackPointExtension xmlns:gpxtpx="http://www.garmin.com/xmlschemas/TrackPointExtension/v1">
            <gpxtpx:hr>147</gpxtpx:hr>
          </gpxtpx:TrackPointExtension>
        </extensions>
      </trkpt>
      <trkpt lat="43.58693" lon="3.00142">
        <ele>664.2002</ele>
        <time>2026-08-30T08:28:25+02:00</time>
        <extensions>
          <gpxtpx:TrackPointExtension xmlns:gpxtpx="http://www.garmin.com/xmlschemas/TrackPointExtension/v1">
            <gpxtpx:hr>148</gpxtpx:hr>
          </gpxtpx:TrackPointExtension>
        </extensions>
      </trkpt>
      <trkpt lat="43.58695" lon="3.00134">
        <ele>666.7002</ele>
        <time>2026-08-30T08:28:26+02:00</time>
        <extensions>
          <gpxtpx:TrackPointExtension xmlns:gpxtpx="http://www.garmin.com/xmlschemas/TrackPointExtension/v1">
            <gpxtpx:hr>147</gpxtpx:hr>
          </gpxtpx:TrackPointExtension>
        </extensions>
      </trkpt>
      <trkpt lat="43.58695" lon="3.00133">
        <ele>666.7002</ele>
        <time>2026-08-30T08:28:30+02:00</time>
        <extensions>
          <gpxtpx:TrackPointExtension xmlns:gpxtpx="http://www.garmin.com/xmlschemas/TrackPointExtension/v1">
            <gpxtpx:hr>147</gpxtpx:hr>
          </gpxtpx:TrackPointExtension>
        </extensions>
      </trkpt>
      <trkpt lat="43.58698" lon="3.00125">
        <ele>669.1006</ele>
        <time>2026-08-30T08:28:31+02:00</time>
        <extensions>
          <gpxtpx:TrackPointExtension xmlns:gpxtpx="http://www.garmin.com/xmlschemas/TrackPointExtension/v1">
            <gpxtpx:hr>149</gpxtpx:hr>
          </gpxtpx:TrackPointExtension>
        </extensions>
      </trkpt>
      <trkpt lat="43.587" lon="3.00125">
        <ele>671.5</ele>
        <time>2026-08-30T08:28:35+02:00</time>
      </trkpt>
      <trkpt lat="43.58701" lon="3.00126">
        <ele>671.5</ele>
        <time>2026-08-30T08:28:36+02:00</time>
        <extensions>
          <gpxtpx:TrackPointExtension xmlns:gpxtpx="http://www.garmin.com/xmlschemas/TrackPointExtension/v1">
            <gpxtpx:hr>148</gpxtpx:hr>
          </gpxtpx:TrackPointExtension>
        </extensions>
      </trkpt>
      <trkpt lat="43.58702" lon="3.00125">
        <ele>671.5</ele>
        <time>2026-08-30T08:28:40+02:00</time>
      </trkpt>
      <trkpt lat="43.58702" lon="3.00125">
        <ele>671.5</ele>
        <time>2026-08-30T08:28:41+02:00</time>
        <extensions>
          <gpxtpx:TrackPointExtension xmlns:gpxtpx="http://www.garmin.com/xmlschemas/TrackPointExtension/v1">
            <gpxtpx:hr>148</gpxtpx:hr>
          </gpxtpx:TrackPointExtension>
        </extensions>
      </trkpt>
      <trkpt lat="43.58703" lon="3.00125">
        <ele>671.5</ele>
        <time>2026-08-30T08:28:45+02:00</time>
        <extensions>
          <gpxtpx:TrackPointExtension xmlns:gpxtpx="http://www.garmin.com/xmlschemas/TrackPointExtension/v1">
            <gpxtpx:hr>147</gpxtpx:hr>
          </gpxtpx:TrackPointExtension>
        </extensions>
      </trkpt>
      <trkpt lat="43.58706" lon="3.00132">
        <ele>673.7998</ele>
        <time>2026-08-30T08:28:46+02:00</time>
        <extensions>
          <gpxtpx:TrackPointExtension xmlns:gpxtpx="http://www.garmin.com/xmlschemas/TrackPointExtension/v1">
            <gpxtpx:hr>147</gpxtpx:hr>
          </gpxtpx:TrackPointExtension>
        </extensions>
      </trkpt>
      <trkpt lat="43.58706" lon="3.00135">
        <ele>671</ele>
        <time>2026-08-30T08:28:50+02:00</time>
      </trkpt>
      <trkpt lat="43.58706" lon="3.00135">
        <ele>671</ele>
        <time>2026-08-30T08:28:51+02:00</time>
        <extensions>
          <gpxtpx:TrackPointExtension xmlns:gpxtpx="http://www.garmin.com/xmlschemas/TrackPointExtension/v1">
            <gpxtpx:hr>147</gpxtpx:hr>
          </gpxtpx:TrackPointExtension>
        </extensions>
      </trkpt>
      <trkpt lat="43.58707" lon="3.00137">
        <ele>671</ele>
        <time>2026-08-30T08:28:55+02:00</time>
      </trkpt>
      <trkpt lat="43.58707" lon="3.00138">
        <ele>671</ele>
        <time>2026-08-30T08:28:56+02:00</time>
        <extensions>
          <gpxtpx:TrackPointExtension xmlns:gpxtpx="http://www.garmin.com/xmlschemas/TrackPointExtension/v1">
            <gpxtpx:hr>147</gpxtpx:hr>
          </gpxtpx:TrackPointExtension>
        </extensions>
      </trkpt>
      <trkpt lat="43.58708" lon="3.00139">
        <ele>671</ele>
        <time>2026-08-30T08:29:00+02:00</time>
        <extensions>
          <gpxtpx:TrackPointExtension xmlns:gpxtpx="http://www.garmin.com/xmlschemas/TrackPointExtension/v1">
            <gpxtpx:hr>148</gpxtpx:hr>
          </gpxtpx:TrackPointExtension>
        </extensions>
      </trkpt>
      <trkpt lat="43.58709" lon="3.00145">
        <ele>668.1006</ele>
        <time>2026-08-30T08:29:01+02:00</time>
        <extensions>
          <gpxtpx:TrackPointExtension xmlns:gpxtpx="http://www.garmin.com/xmlschemas/TrackPointExtension/v1">
            <gpxtpx:hr>150</gpxtpx:hr>
          </gpxtpx:TrackPointExtension>
        </extensions>
      </trkpt>
      <trkpt lat="43.5871" lon="3.00148">
        <ele>668.1006</ele>
        <time>2026-08-30T08:29:05+02:00</time>
      </trkpt>
      <trkpt lat="43.5871" lon="3.00149">
        <ele>668.1006</ele>
        <time>2026-08-30T08:29:06+02:00</time>
        <extensions>
          <gpxtpx:TrackPointExtension xmlns:gpxtpx="http://www.garmin.com/xmlschemas/TrackPointExtension/v1">
            <gpxtpx:hr>150</gpxtpx:hr>
          </gpxtpx:TrackPointExtension>
        </extensions>
      </trkpt>
      <trkpt lat="43.58711" lon="3.00151">
        <ele>666.2998</ele>
        <time>2026-08-30T08:29:10+02:00</time>
      </trkpt>
      <trkpt lat="43.58711" lon="3.00152">
        <ele>666.2998</ele>
        <time>2026-08-30T08:29:11+02:00</time>
        <extensions>
          <gpxtpx:TrackPointExtension xmlns:gpxtpx="http://www.garmin.com/xmlschemas/TrackPointExtension/v1">
            <gpxtpx:hr>150</gpxtpx:hr>
          </gpxtpx:TrackPointExtension>
        </extensions>
      </trkpt>
      <trkpt lat="43.58713" lon="3.00153">
        <ele>666.2998</ele>
        <time>2026-08-30T08:29:15+02:00</time>
        <extensions>
          <gpxtpx:TrackPointExtension xmlns:gpxtpx="http://www.garmin.com/xmlschemas/TrackPointExtension/v1">
            <gpxtpx:hr>149</gpxtpx:hr>
          </gpxtpx:TrackPointExtension>
        </extensions>
      </trkpt>
      <trkpt lat="43.58715" lon="3.00147">
        <ele>669.6006</ele>
        <time>2026-08-30T08:29:16+02:00</time>
        <extensions>
          <gpxtpx:TrackPointExtension xmlns:gpxtpx="http://www.garmin.com/xmlschemas/TrackPointExtension/v1">
            <gpxtpx:hr>150</gpxtpx:hr>
          </gpxtpx:TrackPointExtension>
        </extensions>
      </trkpt>
      <trkpt lat="43.58715" lon="3.00146">
        <ele>669.6006</ele>
        <time>2026-08-30T08:29:20+02:00</time>
        <extensions>
          <gpxtpx:TrackPointExtension xmlns:gpxtpx="http://www.garmin.com/xmlschemas/TrackPointExtension/v1">
            <gpxtpx:hr>149</gpxtpx:hr>
          </gpxtpx:TrackPointExtension>
        </extensions>
      </trkpt>
      <trkpt lat="43.58719" lon="3.00143">
        <ele>670.9004</ele>
        <time>2026-08-30T08:29:21+02:00</time>
        <extensions>
          <gpxtpx:TrackPointExtension xmlns:gpxtpx="http://www.garmin.com/xmlschemas/TrackPointExtension/v1">
            <gpxtpx:hr>151</gpxtpx:hr>
          </gpxtpx:TrackPointExtension>
        </extensions>
      </trkpt>
      <trkpt lat="43.5872" lon="3.00141">
        <ele>674.2998</ele>
        <time>2026-08-30T08:29:25+02:00</time>
      </trkpt>
      <trkpt lat="43.5872" lon="3.0014">
        <ele>674.2998</ele>
        <time>2026-08-30T08:29:26+02:00</time>
        <extensions>
          <gpxtpx:TrackPointExtension xmlns:gpxtpx="http://www.garmin.com/xmlschemas/TrackPointExtension/v1">
            <gpxtpx:hr>151</gpxtpx:hr>
          </gpxtpx:TrackPointExtension>
        </extensions>
      </trkpt>
      <trkpt lat="43.5872" lon="3.00138">
        <ele>674.2998</ele>
        <time>2026-08-30T08:29:30+02:00</time>
      </trkpt>
      <trkpt lat="43.58721" lon="3.00138">
        <ele>674.2998</ele>
        <time>2026-08-30T08:29:31+02:00</time>
        <extensions>
          <gpxtpx:TrackPointExtension xmlns:gpxtpx="http://www.garmin.com/xmlschemas/TrackPointExtension/v1">
            <gpxtpx:hr>152</gpxtpx:hr>
          </gpxtpx:TrackPointExtension>
        </extensions>
      </trkpt>
      <trkpt lat="43.58722" lon="3.00136">
        <ele>674.2998</ele>
        <time>2026-08-30T08:29:35+02:00</time>
      </trkpt>
      <trkpt lat="43.58722" lon="3.00136">
        <ele>674.2998</ele>
        <time>2026-08-30T08:29:36+02:00</time>
        <extensions>
          <gpxtpx:TrackPointExtension xmlns:gpxtpx="http://www.garmin.com/xmlschemas/TrackPointExtension/v1">
            <gpxtpx:hr>151</gpxtpx:hr>
          </gpxtpx:TrackPointExtension>
        </extensions>
      </trkpt>
      <trkpt lat="43.58722" lon="3.00135">
        <ele>674.2998</ele>
        <time>2026-08-30T08:29:40+02:00</time>
        <extensions>
          <gpxtpx:TrackPointExtension xmlns:gpxtpx="http://www.garmin.com/xmlschemas/TrackPointExtension/v1">
            <gpxtpx:hr>150</gpxtpx:hr>
          </gpxtpx:TrackPointExtension>
        </extensions>
      </trkpt>
      <trkpt lat="43.58725" lon="3.00131">
        <ele>679.2002</ele>
        <time>2026-08-30T08:29:41+02:00</time>
        <extensions>
          <gpxtpx:TrackPointExtension xmlns:gpxtpx="http://www.garmin.com/xmlschemas/TrackPointExtension/v1">
            <gpxtpx:hr>151</gpxtpx:hr>
          </gpxtpx:TrackPointExtension>
        </extensions>
      </trkpt>
      <trkpt lat="43.58727" lon="3.00126">
        <ele>679.2002</ele>
        <time>2026-08-30T08:29:45+02:00</time>
      </trkpt>
      <trkpt lat="43.58727" lon="3.00126">
        <ele>679.2002</ele>
        <time>2026-08-30T08:29:46+02:00</time>
        <extensions>
          <gpxtpx:TrackPointExtension xmlns:gpxtpx="http://www.garmin.com/xmlschemas/TrackPointExtension/v1">
            <gpxtpx:hr>150</gpxtpx:hr>
          </gpxtpx:TrackPointExtension>
        </extensions>
      </trkpt>
      <trkpt lat="43.58727" lon="3.00122">
        <ele>682.7002</ele>
        <time>2026-08-30T08:29:50+02:00</time>
      </trkpt>
      <trkpt lat="43.58727" lon="3.00121">
        <ele>682.7002</ele>
        <time>2026-08-30T08:29:51+02:00</time>
        <extensions>
          <gpxtpx:TrackPointExtension xmlns:gpxtpx="http://www.garmin.com/xmlschemas/TrackPointExtension/v1">
            <gpxtpx:hr>149</gpxtpx:hr>
          </gpxtpx:TrackPointExtension>
        </extensions>
      </trkpt>
      <trkpt lat="43.58727" lon="3.0012">
        <ele>682.7002</ele>
        <time>2026-08-30T08:29:55+02:00</time>
      </trkpt>
      <trkpt lat="43.58727" lon="3.00119">
        <ele>682.7002</ele>
        <time>2026-08-30T08:29:56+02:00</time>
        <extensions>
          <gpxtpx:TrackPointExtension xmlns:gpxtpx="http://www.garmin.com/xmlschemas/TrackPointExtension/v1">
            <gpxtpx:hr>149</gpxtpx:hr>
          </gpxtpx:TrackPointExtension>
        </extensions>
      </trkpt>
      <trkpt lat="43.58729" lon="3.00117">
        <ele>682.7002</ele>
        <time>2026-08-30T08:30:00+02:00</time>
      </trkpt>
      <trkpt lat="43.58729" lon="3.00117">
        <ele>682.7002</ele>
        <time>2026-08-30T08:30:01+02:00</time>
        <extensions>
          <gpxtpx:TrackPointExtension xmlns:gpxtpx="http://www.garmin.com/xmlschemas/TrackPointExtension/v1">
            <gpxtpx:hr>149</gpxtpx:hr>
          </gpxtpx:TrackPointExtension>
        </extensions>
      </trkpt>
      <trkpt lat="43.58731" lon="3.00116">
        <ele>684.1006</ele>
        <time>2026-08-30T08:30:05+02:00</time>
      </trkpt>
      <trkpt lat="43.58731" lon="3.00116">
        <ele>687.7002</ele>
        <time>2026-08-30T08:30:06+02:00</time>
        <extensions>
          <gpxtpx:TrackPointExtension xmlns:gpxtpx="http://www.garmin.com/xmlschemas/TrackPointExtension/v1">
            <gpxtpx:hr>149</gpxtpx:hr>
          </gpxtpx:TrackPointExtension>
        </extensions>
      </trkpt>
      <trkpt lat="43.58731" lon="3.00116">
        <ele>687.7002</ele>
        <time>2026-08-30T08:30:10+02:00</time>
        <extensions>
          <gpxtpx:TrackPointExtension xmlns:gpxtpx="http://www.garmin.com/xmlschemas/TrackPointExtension/v1">
            <gpxtpx:hr>150</gpxtpx:hr>
          </gpxtpx:TrackPointExtension>
        </extensions>
      </trkpt>
      <trkpt lat="43.58735" lon="3.00115">
        <ele>687.7002</ele>
        <time>2026-08-30T08:30:11+02:00</time>
        <extensions>
          <gpxtpx:TrackPointExtension xmlns:gpxtpx="http://www.garmin.com/xmlschemas/TrackPointExtension/v1">
            <gpxtpx:hr>150</gpxtpx:hr>
          </gpxtpx:TrackPointExtension>
        </extensions>
      </trkpt>
      <trkpt lat="43.58736" lon="3.00114">
        <ele>689.1006</ele>
        <time>2026-08-30T08:30:15+02:00</time>
      </trkpt>
      <trkpt lat="43.58736" lon="3.00114">
        <ele>689.1006</ele>
        <time>2026-08-30T08:30:16+02:00</time>
        <extensions>
          <gpxtpx:TrackPointExtension xmlns:gpxtpx="http://www.garmin.com/xmlschemas/TrackPointExtension/v1">
            <gpxtpx:hr>150</gpxtpx:hr>
          </gpxtpx:TrackPointExtension>
        </extensions>
      </trkpt>
      <trkpt lat="43.58737" lon="3.00114">
        <ele>689.1006</ele>
        <time>2026-08-30T08:30:20+02:00</time>
        <extensions>
          <gpxtpx:TrackPointExtension xmlns:gpxtpx="http://www.garmin.com/xmlschemas/TrackPointExtension/v1">
            <gpxtpx:hr>150</gpxtpx:hr>
          </gpxtpx:TrackPointExtension>
        </extensions>
      </trkpt>
      <trkpt lat="43.58739" lon="3.00118">
        <ele>685.2002</ele>
        <time>2026-08-30T08:30:21+02:00</time>
        <extensions>
          <gpxtpx:TrackPointExtension xmlns:gpxtpx="http://www.garmin.com/xmlschemas/TrackPointExtension/v1">
            <gpxtpx:hr>153</gpxtpx:hr>
          </gpxtpx:TrackPointExtension>
        </extensions>
      </trkpt>
      <trkpt lat="43.58741" lon="3.00121">
        <ele>685.2002</ele>
        <time>2026-08-30T08:30:25+02:00</time>
      </trkpt>
      <trkpt lat="43.58741" lon="3.00121">
        <ele>685.2002</ele>
        <time>2026-08-30T08:30:26+02:00</time>
        <extensions>
          <gpxtpx:TrackPointExtension xmlns:gpxtpx="http://www.garmin.com/xmlschemas/TrackPointExtension/v1">
            <gpxtpx:hr>151</gpxtpx:hr>
          </gpxtpx:TrackPointExtension>
        </extensions>
      </trkpt>
      <trkpt lat="43.58743" lon="3.0012">
        <ele>685.9004</ele>
        <time>2026-08-30T08:30:30+02:00</time>
      </trkpt>
      <trkpt lat="43.58743" lon="3.0012">
        <ele>685.9004</ele>
        <time>2026-08-30T08:30:31+02:00</time>
        <extensions>
          <gpxtpx:TrackPointExtension xmlns:gpxtpx="http://www.garmin.com/xmlschemas/TrackPointExtension/v1">
            <gpxtpx:hr>151</gpxtpx:hr>
          </gpxtpx:TrackPointExtension>
        </extensions>
      </trkpt>
      <trkpt lat="43.58745" lon="3.00119">
        <ele>685.9004</ele>
        <time>2026-08-30T08:30:35+02:00</time>
      </trkpt>
      <trkpt lat="43.58746" lon="3.00119">
        <ele>685.9004</ele>
        <time>2026-08-30T08:30:36+02:00</time>
        <extensions>
          <gpxtpx:TrackPointExtension xmlns:gpxtpx="http://www.garmin.com/xmlschemas/TrackPointExtension/v1">
            <gpxtpx:hr>151</gpxtpx:hr>
          </gpxtpx:TrackPointExtension>
        </extensions>
      </trkpt>
      <trkpt lat="43.58747" lon="3.00118">
        <ele>685.9004</ele>
        <time>2026-08-30T08:30:40+02:00</time>
      </trkpt>
      <trkpt lat="43.58747" lon="3.00119">
        <ele>685.9004</ele>
        <time>2026-08-30T08:30:41+02:00</time>
        <extensions>
          <gpxtpx:TrackPointExtension xmlns:gpxtpx="http://www.garmin.com/xmlschemas/TrackPointExtension/v1">
            <gpxtpx:hr>149</gpxtpx:hr>
          </gpxtpx:TrackPointExtension>
        </extensions>
      </trkpt>
      <trkpt lat="43.58747" lon="3.00121">
        <ele>685.9004</ele>
        <time>2026-08-30T08:30:45+02:00</time>
      </trkpt>
      <trkpt lat="43.58747" lon="3.00121">
        <ele>685.9004</ele>
        <time>2026-08-30T08:30:46+02:00</time>
        <extensions>
          <gpxtpx:TrackPointExtension xmlns:gpxtpx="http://www.garmin.com/xmlschemas/TrackPointExtension/v1">
            <gpxtpx:hr>149</gpxtpx:hr>
          </gpxtpx:TrackPointExtension>
        </extensions>
      </trkpt>
      <trkpt lat="43.58748" lon="3.00123">
        <ele>686.4004</ele>
        <time>2026-08-30T08:30:50+02:00</time>
        <extensions>
          <gpxtpx:TrackPointExtension xmlns:gpxtpx="http://www.garmin.com/xmlschemas/TrackPointExtension/v1">
            <gpxtpx:hr>149</gpxtpx:hr>
          </gpxtpx:TrackPointExtension>
        </extensions>
      </trkpt>
      <trkpt lat="43.58747" lon="3.00118">
        <ele>685.9004</ele>
        <time>2026-08-30T08:30:51+02:00</time>
        <extensions>
          <gpxtpx:TrackPointExtension xmlns:gpxtpx="http://www.garmin.com/xmlschemas/TrackPointExtension/v1">
            <gpxtpx:hr>148</gpxtpx:hr>
          </gpxtpx:TrackPointExtension>
        </extensions>
      </trkpt>
      <trkpt lat="43.58748" lon="3.00116">
        <ele>685.9004</ele>
        <time>2026-08-30T08:30:55+02:00</time>
      </trkpt>
      <trkpt lat="43.58748" lon="3.00115">
        <ele>690</ele>
        <time>2026-08-30T08:30:56+02:00</time>
        <extensions>
          <gpxtpx:TrackPointExtension xmlns:gpxtpx="http://www.garmin.com/xmlschemas/TrackPointExtension/v1">
            <gpxtpx:hr>149</gpxtpx:hr>
          </gpxtpx:TrackPointExtension>
        </extensions>
      </trkpt>
      <trkpt lat="43.58749" lon="3.00115">
        <ele>690.6006</ele>
        <time>2026-08-30T08:31:00+02:00</time>
      </trkpt>
      <trkpt lat="43.5875" lon="3.00115">
        <ele>690.6006</ele>
        <time>2026-08-30T08:31:01+02:00</time>
        <extensions>
          <gpxtpx:TrackPointExtension xmlns:gpxtpx="http://www.garmin.com/xmlschemas/TrackPointExtension/v1">
            <gpxtpx:hr>150</gpxtpx:hr>
          </gpxtpx:TrackPointExtension>
        </extensions>
      </trkpt>
      <trkpt lat="43.58751" lon="3.00114">
        <ele>690.6006</ele>
        <time>2026-08-30T08:31:05+02:00</time>
      </trkpt>
      <trkpt lat="43.58751" lon="3.00113">
        <ele>690.6006</ele>
        <time>2026-08-30T08:31:06+02:00</time>
        <extensions>
          <gpxtpx:TrackPointExtension xmlns:gpxtpx="http://www.garmin.com/xmlschemas/TrackPointExtension/v1">
            <gpxtpx:hr>151</gpxtpx:hr>
          </gpxtpx:TrackPointExtension>
        </extensions>
      </trkpt>
      <trkpt lat="43.58751" lon="3.00113">
        <ele>690.6006</ele>
        <time>2026-08-30T08:31:10+02:00</time>
        <extensions>
          <gpxtpx:TrackPointExtension xmlns:gpxtpx="http://www.garmin.com/xmlschemas/TrackPointExtension/v1">
            <gpxtpx:hr>152</gpxtpx:hr>
          </gpxtpx:TrackPointExtension>
        </extensions>
      </trkpt>
      <trkpt lat="43.58755" lon="3.00106">
        <ele>695.2998</ele>
        <time>2026-08-30T08:31:11+02:00</time>
        <extensions>
          <gpxtpx:TrackPointExtension xmlns:gpxtpx="http://www.garmin.com/xmlschemas/TrackPointExtension/v1">
            <gpxtpx:hr>151</gpxtpx:hr>
          </gpxtpx:TrackPointExtension>
        </extensions>
      </trkpt>
      <trkpt lat="43.58756" lon="3.00104">
        <ele>695.2998</ele>
        <time>2026-08-30T08:31:15+02:00</time>
      </trkpt>
      <trkpt lat="43.58756" lon="3.00103">
        <ele>695.2998</ele>
        <time>2026-08-30T08:31:16+02:00</time>
        <extensions>
          <gpxtpx:TrackPointExtension xmlns:gpxtpx="http://www.garmin.com/xmlschemas/TrackPointExtension/v1">
            <gpxtpx:hr>151</gpxtpx:hr>
          </gpxtpx:TrackPointExtension>
        </extensions>
      </trkpt>
      <trkpt lat="43.58756" lon="3.00102">
        <ele>695.2998</ele>
        <time>2026-08-30T08:31:20+02:00</time>
      </trkpt>
      <trkpt lat="43.58756" lon="3.00102">
        <ele>695.2998</ele>
        <time>2026-08-30T08:31:21+02:00</time>
        <extensions>
          <gpxtpx:TrackPointExtension xmlns:gpxtpx="http://www.garmin.com/xmlschemas/TrackPointExtension/v1">
            <gpxtpx:hr>151</gpxtpx:hr>
          </gpxtpx:TrackPointExtension>
        </extensions>
      </trkpt>
      <trkpt lat="43.58757" lon="3.00099">
        <ele>695.2998</ele>
        <time>2026-08-30T08:31:25+02:00</time>
        <extensions>
          <gpxtpx:TrackPointExtension xmlns:gpxtpx="http://www.garmin.com/xmlschemas/TrackPointExtension/v1">
            <gpxtpx:hr>151</gpxtpx:hr>
          </gpxtpx:TrackPointExtension>
        </extensions>
      </trkpt>
      <trkpt lat="43.58763" lon="3.00095">
        <ele>700.1006</ele>
        <time>2026-08-30T08:31:26+02:00</time>
        <extensions>
          <gpxtpx:TrackPointExtension xmlns:gpxtpx="http://www.garmin.com/xmlschemas/TrackPointExtension/v1">
            <gpxtpx:hr>155</gpxtpx:hr>
          </gpxtpx:TrackPointExtension>
        </extensions>
      </trkpt>
      <trkpt lat="43.58764" lon="3.00094">
        <ele>700.1006</ele>
        <time>2026-08-30T08:31:30+02:00</time>
        <extensions>
          <gpxtpx:TrackPointExtension xmlns:gpxtpx="http://www.garmin.com/xmlschemas/TrackPointExtension/v1">
            <gpxtpx:hr>153</gpxtpx:hr>
          </gpxtpx:TrackPointExtension>
        </extensions>
      </trkpt>
      <trkpt lat="43.58766" lon="3.0009">
        <ele>700.1006</ele>
        <time>2026-08-30T08:31:31+02:00</time>
        <extensions>
          <gpxtpx:TrackPointExtension xmlns:gpxtpx="http://www.garmin.com/xmlschemas/TrackPointExtension/v1">
            <gpxtpx:hr>156</gpxtpx:hr>
          </gpxtpx:TrackPointExtension>
        </extensions>
      </trkpt>
      <trkpt lat="43.58767" lon="3.00089">
        <ele>704.7002</ele>
        <time>2026-08-30T08:31:35+02:00</time>
        <extensions>
          <gpxtpx:TrackPointExtension xmlns:gpxtpx="http://www.garmin.com/xmlschemas/TrackPointExtension/v1">
            <gpxtpx:hr>151</gpxtpx:hr>
          </gpxtpx:TrackPointExtension>
        </extensions>
      </trkpt>
      <trkpt lat="43.58772" lon="3.00083">
        <ele>704.7002</ele>
        <time>2026-08-30T08:31:36+02:00</time>
        <extensions>
          <gpxtpx:TrackPointExtension xmlns:gpxtpx="http://www.garmin.com/xmlschemas/TrackPointExtension/v1">
            <gpxtpx:hr>149</gpxtpx:hr>
          </gpxtpx:TrackPointExtension>
        </extensions>
      </trkpt>
      <trkpt lat="43.58774" lon="3.00085">
        <ele>704.6006</ele>
        <time>2026-08-30T08:31:40+02:00</time>
      </trkpt>
      <trkpt lat="43.58774" lon="3.00085">
        <ele>704.6006</ele>
        <time>2026-08-30T08:31:41+02:00</time>
        <extensions>
          <gpxtpx:TrackPointExtension xmlns:gpxtpx="http://www.garmin.com/xmlschemas/TrackPointExtension/v1">
            <gpxtpx:hr>150</gpxtpx:hr>
          </gpxtpx:TrackPointExtension>
        </extensions>
      </trkpt>
      <trkpt lat="43.58776" lon="3.00085">
        <ele>704.6006</ele>
        <time>2026-08-30T08:31:45+02:00</time>
      </trkpt>
      <trkpt lat="43.58776" lon="3.00084">
        <ele>704.6006</ele>
        <time>2026-08-30T08:31:46+02:00</time>
        <extensions>
          <gpxtpx:TrackPointExtension xmlns:gpxtpx="http://www.garmin.com/xmlschemas/TrackPointExtension/v1">
            <gpxtpx:hr>150</gpxtpx:hr>
          </gpxtpx:TrackPointExtension>
        </extensions>
      </trkpt>
      <trkpt lat="43.58776" lon="3.00082">
        <ele>704.6006</ele>
        <time>2026-08-30T08:31:50+02:00</time>
        <extensions>
          <gpxtpx:TrackPointExtension xmlns:gpxtpx="http://www.garmin.com/xmlschemas/TrackPointExtension/v1">
            <gpxtpx:hr>150</gpxtpx:hr>
          </gpxtpx:TrackPointExtension>
        </extensions>
      </trkpt>
      <trkpt lat="43.58777" lon="3.00078">
        <ele>709.1006</ele>
        <time>2026-08-30T08:31:51+02:00</time>
        <extensions>
          <gpxtpx:TrackPointExtension xmlns:gpxtpx="http://www.garmin.com/xmlschemas/TrackPointExtension/v1">
            <gpxtpx:hr>150</gpxtpx:hr>
          </gpxtpx:TrackPointExtension>
        </extensions>
      </trkpt>
      <trkpt lat="43.5878" lon="3.00078">
        <ele>708.4004</ele>
        <time>2026-08-30T08:31:55+02:00</time>
      </trkpt>
      <trkpt lat="43.5878" lon="3.00078">
        <ele>708.4004</ele>
        <time>2026-08-30T08:31:56+02:00</time>
        <extensions>
          <gpxtpx:TrackPointExtension xmlns:gpxtpx="http://www.garmin.com/xmlschemas/TrackPointExtension/v1">
            <gpxtpx:hr>150</gpxtpx:hr>
          </gpxtpx:TrackPointExtension>
        </extensions>
      </trkpt>
      <trkpt lat="43.58782" lon="3.00077">
        <ele>708.4004</ele>
        <time>2026-08-30T08:32:00+02:00</time>
      </trkpt>
      <trkpt lat="43.58783" lon="3.00076">
        <ele>708.4004</ele>
        <time>2026-08-30T08:32:01+02:00</time>
        <extensions>
          <gpxtpx:TrackPointExtension xmlns:gpxtpx="http://www.garmin.com/xmlschemas/TrackPointExtension/v1">
            <gpxtpx:hr>149</gpxtpx:hr>
          </gpxtpx:TrackPointExtension>
        </extensions>
      </trkpt>
      <trkpt lat="43.58785" lon="3.00075">
        <ele>708.4004</ele>
        <time>2026-08-30T08:32:05+02:00</time>
      </trkpt>
      <trkpt lat="43.58785" lon="3.00075">
        <ele>707.5</ele>
        <time>2026-08-30T08:32:06+02:00</time>
        <extensions>
          <gpxtpx:TrackPointExtension xmlns:gpxtpx="http://www.garmin.com/xmlschemas/TrackPointExtension/v1">
            <gpxtpx:hr>149</gpxtpx:hr>
          </gpxtpx:TrackPointExtension>
        </extensions>
      </trkpt>
      <trkpt lat="43.58787" lon="3.00073">
        <ele>712.2002</ele>
        <time>2026-08-30T08:32:10+02:00</time>
      </trkpt>
      <trkpt lat="43.58787" lon="3.00071">
        <ele>712.2002</ele>
        <time>2026-08-30T08:32:11+02:00</time>
        <extensions>
          <gpxtpx:TrackPointExtension xmlns:gpxtpx="http://www.garmin.com/xmlschemas/TrackPointExtension/v1">
            <gpxtpx:hr>148</gpxtpx:hr>
          </gpxtpx:TrackPointExtension>
        </extensions>
      </trkpt>
      <trkpt lat="43.58788" lon="3.00068">
        <ele>712.2002</ele>
        <time>2026-08-30T08:32:15+02:00</time>
      </trkpt>
      <trkpt lat="43.58788" lon="3.00067">
        <ele>712.2002</ele>
        <time>2026-08-30T08:32:16+02:00</time>
        <extensions>
          <gpxtpx:TrackPointExtension xmlns:gpxtpx="http://www.garmin.com/xmlschemas/TrackPointExtension/v1">
            <gpxtpx:hr>147</gpxtpx:hr>
          </gpxtpx:TrackPointExtension>
        </extensions>
      </trkpt>
      <trkpt lat="43.5879" lon="3.00065">
        <ele>712.2002</ele>
        <time>2026-08-30T08:32:20+02:00</time>
      </trkpt>
      <trkpt lat="43.5879" lon="3.00064">
        <ele>717</ele>
        <time>2026-08-30T08:32:21+02:00</time>
        <extensions>
          <gpxtpx:TrackPointExtension xmlns:gpxtpx="http://www.garmin.com/xmlschemas/TrackPointExtension/v1">
            <gpxtpx:hr>148</gpxtpx:hr>
          </gpxtpx:TrackPointExtension>
        </extensions>
      </trkpt>
      <trkpt lat="43.58791" lon="3.00062">
        <ele>717</ele>
        <time>2026-08-30T08:32:25+02:00</time>
      </trkpt>
      <trkpt lat="43.58791" lon="3.00062">
        <ele>717</ele>
        <time>2026-08-30T08:32:26+02:00</time>
        <extensions>
          <gpxtpx:TrackPointExtension xmlns:gpxtpx="http://www.garmin.com/xmlschemas/TrackPointExtension/v1">
            <gpxtpx:hr>149</gpxtpx:hr>
          </gpxtpx:TrackPointExtension>
        </extensions>
      </trkpt>
      <trkpt lat="43.58795" lon="3.00062">
        <ele>716.2998</ele>
        <time>2026-08-30T08:32:30+02:00</time>
      </trkpt>
      <trkpt lat="43.58796" lon="3.00062">
        <ele>716.2998</ele>
        <time>2026-08-30T08:32:31+02:00</time>
        <extensions>
          <gpxtpx:TrackPointExtension xmlns:gpxtpx="http://www.garmin.com/xmlschemas/TrackPointExtension/v1">
            <gpxtpx:hr>150</gpxtpx:hr>
          </gpxtpx:TrackPointExtension>
        </extensions>
      </trkpt>
      <trkpt lat="43.58798" lon="3.0006">
        <ele>715.5</ele>
        <time>2026-08-30T08:32:35+02:00</time>
      </trkpt>
      <trkpt lat="43.58798" lon="3.0006">
        <ele>715.5</ele>
        <time>2026-08-30T08:32:36+02:00</time>
        <extensions>
          <gpxtpx:TrackPointExtension xmlns:gpxtpx="http://www.garmin.com/xmlschemas/TrackPointExtension/v1">
            <gpxtpx:hr>150</gpxtpx:hr>
          </gpxtpx:TrackPointExtension>
        </extensions>
      </trkpt>
      <trkpt lat="43.588" lon="3.00058">
        <ele>715.5</ele>
        <time>2026-08-30T08:32:40+02:00</time>
      </trkpt>
      <trkpt lat="43.58801" lon="3.00058">
        <ele>715.5</ele>
        <time>2026-08-30T08:32:41+02:00</time>
        <extensions>
          <gpxtpx:TrackPointExtension xmlns:gpxtpx="http://www.garmin.com/xmlschemas/TrackPointExtension/v1">
            <gpxtpx:hr>151</gpxtpx:hr>
          </gpxtpx:TrackPointExtension>
        </extensions>
      </trkpt>
      <trkpt lat="43.58803" lon="3.00056">
        <ele>715.5</ele>
        <time>2026-08-30T08:32:45+02:00</time>
      </trkpt>
      <trkpt lat="43.58803" lon="3.00056">
        <ele>715.5</ele>
        <time>2026-08-30T08:32:46+02:00</time>
        <extensions>
          <gpxtpx:TrackPointExtension xmlns:gpxtpx="http://www.garmin.com/xmlschemas/TrackPointExtension/v1">
            <gpxtpx:hr>149</gpxtpx:hr>
          </gpxtpx:TrackPointExtension>
        </extensions>
      </trkpt>
      <trkpt lat="43.58804" lon="3.00054">
        <ele>719.4004</ele>
        <time>2026-08-30T08:32:50+02:00</time>
      </trkpt>
      <trkpt lat="43.58805" lon="3.00054">
        <ele>719.4004</ele>
        <time>2026-08-30T08:32:51+02:00</time>
        <extensions>
          <gpxtpx:TrackPointExtension xmlns:gpxtpx="http://www.garmin.com/xmlschemas/TrackPointExtension/v1">
            <gpxtpx:hr>146</gpxtpx:hr>
          </gpxtpx:TrackPointExtension>
        </extensions>
      </trkpt>
      <trkpt lat="43.58806" lon="3.00052">
        <ele>719.4004</ele>
        <time>2026-08-30T08:32:55+02:00</time>
      </trkpt>
      <trkpt lat="43.58807" lon="3.00051">
        <ele>719.4004</ele>
        <time>2026-08-30T08:32:56+02:00</time>
        <extensions>
          <gpxtpx:TrackPointExtension xmlns:gpxtpx="http://www.garmin.com/xmlschemas/TrackPointExtension/v1">
            <gpxtpx:hr>149</gpxtpx:hr>
          </gpxtpx:TrackPointExtension>
        </extensions>
      </trkpt>
      <trkpt lat="43.58806" lon="3.00048">
        <ele>719.4004</ele>
        <time>2026-08-30T08:33:00+02:00</time>
      </trkpt>
      <trkpt lat="43.58806" lon="3.00047">
        <ele>719.4004</ele>
        <time>2026-08-30T08:33:01+02:00</time>
        <extensions>
          <gpxtpx:TrackPointExtension xmlns:gpxtpx="http://www.garmin.com/xmlschemas/TrackPointExtension/v1">
            <gpxtpx:hr>150</gpxtpx:hr>
          </gpxtpx:TrackPointExtension>
        </extensions>
      </trkpt>
      <trkpt lat="43.58808" lon="3.00044">
        <ele>724</ele>
        <time>2026-08-30T08:33:05+02:00</time>
      </trkpt>
      <trkpt lat="43.58809" lon="3.00043">
        <ele>724</ele>
        <time>2026-08-30T08:33:06+02:00</time>
        <extensions>
          <gpxtpx:TrackPointExtension xmlns:gpxtpx="http://www.garmin.com/xmlschemas/TrackPointExtension/v1">
            <gpxtpx:hr>149</gpxtpx:hr>
          </gpxtpx:TrackPointExtension>
        </extensions>
      </trkpt>
      <trkpt lat="43.58811" lon="3.00041">
        <ele>723.2998</ele>
        <time>2026-08-30T08:33:10+02:00</time>
      </trkpt>
      <trkpt lat="43.58812" lon="3.0004">
        <ele>723.2998</ele>
        <time>2026-08-30T08:33:11+02:00</time>
        <extensions>
          <gpxtpx:TrackPointExtension xmlns:gpxtpx="http://www.garmin.com/xmlschemas/TrackPointExtension/v1">
            <gpxtpx:hr>149</gpxtpx:hr>
          </gpxtpx:TrackPointExtension>
        </extensions>
      </trkpt>
      <trkpt lat="43.58815" lon="3.00038">
        <ele>728.2002</ele>
        <time>2026-08-30T08:33:15+02:00</time>
      </trkpt>
      <trkpt lat="43.58814" lon="3.00037">
        <ele>728.2002</ele>
        <time>2026-08-30T08:33:16+02:00</time>
        <extensions>
          <gpxtpx:TrackPointExtension xmlns:gpxtpx="http://www.garmin.com/xmlschemas/TrackPointExtension/v1">
            <gpxtpx:hr>150</gpxtpx:hr>
          </gpxtpx:TrackPointExtension>
        </extensions>
      </trkpt>
      <trkpt lat="43.58814" lon="3.00034">
        <ele>728.2002</ele>
        <time>2026-08-30T08:33:20+02:00</time>
      </trkpt>
      <trkpt lat="43.58814" lon="3.00034">
        <ele>728.2002</ele>
        <time>2026-08-30T08:33:21+02:00</time>
        <extensions>
          <gpxtpx:TrackPointExtension xmlns:gpxtpx="http://www.garmin.com/xmlschemas/TrackPointExtension/v1">
            <gpxtpx:hr>154</gpxtpx:hr>
          </gpxtpx:TrackPointExtension>
        </extensions>
      </trkpt>
      <trkpt lat="43.58815" lon="3.00033">
        <ele>728.2002</ele>
        <time>2026-08-30T08:33:25+02:00</time>
        <extensions>
          <gpxtpx:TrackPointExtension xmlns:gpxtpx="http://www.garmin.com/xmlschemas/TrackPointExtension/v1">
            <gpxtpx:hr>156</gpxtpx:hr>
          </gpxtpx:TrackPointExtension>
        </extensions>
      </trkpt>
      <trkpt lat="43.58817" lon="3.00028">
        <ele>732.7998</ele>
        <time>2026-08-30T08:33:26+02:00</time>
        <extensions>
          <gpxtpx:TrackPointExtension xmlns:gpxtpx="http://www.garmin.com/xmlschemas/TrackPointExtension/v1">
            <gpxtpx:hr>148</gpxtpx:hr>
          </gpxtpx:TrackPointExtension>
        </extensions>
      </trkpt>
      <trkpt lat="43.58816" lon="3.00028">
        <ele>733</ele>
        <time>2026-08-30T08:33:30+02:00</time>
      </trkpt>
      <trkpt lat="43.58815" lon="3.00028">
        <ele>733</ele>
        <time>2026-08-30T08:33:31+02:00</time>
        <extensions>
          <gpxtpx:TrackPointExtension xmlns:gpxtpx="http://www.garmin.com/xmlschemas/TrackPointExtension/v1">
            <gpxtpx:hr>148</gpxtpx:hr>
          </gpxtpx:TrackPointExtension>
        </extensions>
      </trkpt>
      <trkpt lat="43.58813" lon="3.00027">
        <ele>733</ele>
        <time>2026-08-30T08:33:35+02:00</time>
      </trkpt>
      <trkpt lat="43.58812" lon="3.00027">
        <ele>733</ele>
        <time>2026-08-30T08:33:36+02:00</time>
        <extensions>
          <gpxtpx:TrackPointExtension xmlns:gpxtpx="http://www.garmin.com/xmlschemas/TrackPointExtension/v1">
            <gpxtpx:hr>145</gpxtpx:hr>
          </gpxtpx:TrackPointExtension>
        </extensions>
      </trkpt>
      <trkpt lat="43.58809" lon="3.00023">
        <ele>733.2002</ele>
        <time>2026-08-30T08:33:40+02:00</time>
      </trkpt>
      <trkpt lat="43.58809" lon="3.00022">
        <ele>733.2002</ele>
        <time>2026-08-30T08:33:41+02:00</time>
        <extensions>
          <gpxtpx:TrackPointExtension xmlns:gpxtpx="http://www.garmin.com/xmlschemas/TrackPointExtension/v1">
            <gpxtpx:hr>151</gpxtpx:hr>
          </gpxtpx:TrackPointExtension>
        </extensions>
      </trkpt>
      <trkpt lat="43.58808" lon="3.00018">
        <ele>737.4004</ele>
        <time>2026-08-30T08:33:45+02:00</time>
      </trkpt>
      <trkpt lat="43.58807" lon="3.00017">
        <ele>737.4004</ele>
        <time>2026-08-30T08:33:46+02:00</time>
        <extensions>
          <gpxtpx:TrackPointExtension xmlns:gpxtpx="http://www.garmin.com/xmlschemas/TrackPointExtension/v1">
            <gpxtpx:hr>153</gpxtpx:hr>
          </gpxtpx:TrackPointExtension>
        </extensions>
      </trkpt>
      <trkpt lat="43.58805" lon="3.00013">
        <ele>737.4004</ele>
        <time>2026-08-30T08:33:50+02:00</time>
      </trkpt>
      <trkpt lat="43.58805" lon="3.00012">
        <ele>741.5</ele>
        <time>2026-08-30T08:33:51+02:00</time>
        <extensions>
          <gpxtpx:TrackPointExtension xmlns:gpxtpx="http://www.garmin.com/xmlschemas/TrackPointExtension/v1">
            <gpxtpx:hr>152</gpxtpx:hr>
          </gpxtpx:TrackPointExtension>
        </extensions>
      </trkpt>
      <trkpt lat="43.58803" lon="3.00008">
        <ele>740.7002</ele>
        <time>2026-08-30T08:33:55+02:00</time>
      </trkpt>
      <trkpt lat="43.58803" lon="3.00007">
        <ele>740.7002</ele>
        <time>2026-08-30T08:33:56+02:00</time>
        <extensions>
          <gpxtpx:TrackPointExtension xmlns:gpxtpx="http://www.garmin.com/xmlschemas/TrackPointExtension/v1">
            <gpxtpx:hr>153</gpxtpx:hr>
          </gpxtpx:TrackPointExtension>
        </extensions>
      </trkpt>
      <trkpt lat="43.58805" lon="3.00002">
        <ele>745.2002</ele>
        <time>2026-08-30T08:34:00+02:00</time>
      </trkpt>
      <trkpt lat="43.58806" lon="3.00001">
        <ele>745.2002</ele>
        <time>2026-08-30T08:34:01+02:00</time>
        <extensions>
          <gpxtpx:TrackPointExtension xmlns:gpxtpx="http://www.garmin.com/xmlschemas/TrackPointExtension/v1">
            <gpxtpx:hr>159</gpxtpx:hr>
          </gpxtpx:TrackPointExtension>
        </extensions>
      </trkpt>
      <trkpt lat="43.58807" lon="2.99998">
        <ele>745.2002</ele>
        <time>2026-08-30T08:34:05+02:00</time>
      </trkpt>
      <trkpt lat="43.58808" lon="2.99998">
        <ele>745.2002</ele>
        <time>2026-08-30T08:34:06+02:00</time>
        <extensions>
          <gpxtpx:TrackPointExtension xmlns:gpxtpx="http://www.garmin.com/xmlschemas/TrackPointExtension/v1">
            <gpxtpx:hr>163</gpxtpx:hr>
          </gpxtpx:TrackPointExtension>
        </extensions>
      </trkpt>
      <trkpt lat="43.58809" lon="2.99995">
        <ele>748.7002</ele>
        <time>2026-08-30T08:34:10+02:00</time>
      </trkpt>
      <trkpt lat="43.5881" lon="2.99994">
        <ele>748.7002</ele>
        <time>2026-08-30T08:34:11+02:00</time>
        <extensions>
          <gpxtpx:TrackPointExtension xmlns:gpxtpx="http://www.garmin.com/xmlschemas/TrackPointExtension/v1">
            <gpxtpx:hr>166</gpxtpx:hr>
          </gpxtpx:TrackPointExtension>
        </extensions>
      </trkpt>
      <trkpt lat="43.58812" lon="2.99992">
        <ele>750</ele>
        <time>2026-08-30T08:34:15+02:00</time>
      </trkpt>
      <trkpt lat="43.58812" lon="2.99992">
        <ele>750</ele>
        <time>2026-08-30T08:34:16+02:00</time>
        <extensions>
          <gpxtpx:TrackPointExtension xmlns:gpxtpx="http://www.garmin.com/xmlschemas/TrackPointExtension/v1">
            <gpxtpx:hr>163</gpxtpx:hr>
          </gpxtpx:TrackPointExtension>
        </extensions>
      </trkpt>
      <trkpt lat="43.58812" lon="2.9999">
        <ele>750</ele>
        <time>2026-08-30T08:34:20+02:00</time>
      </trkpt>
      <trkpt lat="43.58812" lon="2.99989">
        <ele>750</ele>
        <time>2026-08-30T08:34:21+02:00</time>
        <extensions>
          <gpxtpx:TrackPointExtension xmlns:gpxtpx="http://www.garmin.com/xmlschemas/TrackPointExtension/v1">
            <gpxtpx:hr>150</gpxtpx:hr>
          </gpxtpx:TrackPointExtension>
        </extensions>
      </trkpt>
      <trkpt lat="43.58812" lon="2.99985">
        <ele>753.7002</ele>
        <time>2026-08-30T08:34:25+02:00</time>
      </trkpt>
      <trkpt lat="43.58812" lon="2.99985">
        <ele>753.7002</ele>
        <time>2026-08-30T08:34:26+02:00</time>
        <extensions>
          <gpxtpx:TrackPointExtension xmlns:gpxtpx="http://www.garmin.com/xmlschemas/TrackPointExtension/v1">
            <gpxtpx:hr>142</gpxtpx:hr>
          </gpxtpx:TrackPointExtension>
        </extensions>
      </trkpt>
      <trkpt lat="43.58814" lon="2.99982">
        <ele>753.7002</ele>
        <time>2026-08-30T08:34:30+02:00</time>
      </trkpt>
      <trkpt lat="43.58815" lon="2.99982">
        <ele>753.7002</ele>
        <time>2026-08-30T08:34:31+02:00</time>
        <extensions>
          <gpxtpx:TrackPointExtension xmlns:gpxtpx="http://www.garmin.com/xmlschemas/TrackPointExtension/v1">
            <gpxtpx:hr>140</gpxtpx:hr>
          </gpxtpx:TrackPointExtension>
        </extensions>
      </trkpt>
      <trkpt lat="43.58818" lon="2.9998">
        <ele>755.1006</ele>
        <time>2026-08-30T08:34:35+02:00</time>
      </trkpt>
      <trkpt lat="43.58818" lon="2.99979">
        <ele>755.1006</ele>
        <time>2026-08-30T08:34:36+02:00</time>
        <extensions>
          <gpxtpx:TrackPointExtension xmlns:gpxtpx="http://www.garmin.com/xmlschemas/TrackPointExtension/v1">
            <gpxtpx:hr>140</gpxtpx:hr>
          </gpxtpx:TrackPointExtension>
        </extensions>
      </trkpt>
      <trkpt lat="43.5882" lon="2.99977">
        <ele>758.7002</ele>
        <time>2026-08-30T08:34:40+02:00</time>
      </trkpt>
      <trkpt lat="43.58821" lon="2.99976">
        <ele>758.7002</ele>
        <time>2026-08-30T08:34:41+02:00</time>
        <extensions>
          <gpxtpx:TrackPointExtension xmlns:gpxtpx="http://www.garmin.com/xmlschemas/TrackPointExtension/v1">
            <gpxtpx:hr>140</gpxtpx:hr>
          </gpxtpx:TrackPointExtension>
        </extensions>
      </trkpt>
      <trkpt lat="43.58822" lon="2.99975">
        <ele>758.7002</ele>
        <time>2026-08-30T08:34:45+02:00</time>
      </trkpt>
      <trkpt lat="43.58823" lon="2.99975">
        <ele>760.1006</ele>
        <time>2026-08-30T08:34:46+02:00</time>
        <extensions>
          <gpxtpx:TrackPointExtension xmlns:gpxtpx="http://www.garmin.com/xmlschemas/TrackPointExtension/v1">
            <gpxtpx:hr>141</gpxtpx:hr>
          </gpxtpx:TrackPointExtension>
        </extensions>
      </trkpt>
      <trkpt lat="43.58825" lon="2.99975">
        <ele>760.1006</ele>
        <time>2026-08-30T08:34:50+02:00</time>
      </trkpt>
      <trkpt lat="43.58826" lon="2.99974">
        <ele>760.1006</ele>
        <time>2026-08-30T08:34:51+02:00</time>
        <extensions>
          <gpxtpx:TrackPointExtension xmlns:gpxtpx="http://www.garmin.com/xmlschemas/TrackPointExtension/v1">
            <gpxtpx:hr>141</gpxtpx:hr>
          </gpxtpx:TrackPointExtension>
        </extensions>
      </trkpt>
      <trkpt lat="43.58828" lon="2.99973">
        <ele>760.1006</ele>
        <time>2026-08-30T08:34:55+02:00</time>
      </trkpt>
      <trkpt lat="43.58828" lon="2.99973">
        <ele>760.1006</ele>
        <time>2026-08-30T08:34:56+02:00</time>
        <extensions>
          <gpxtpx:TrackPointExtension xmlns:gpxtpx="http://www.garmin.com/xmlschemas/TrackPointExtension/v1">
            <gpxtpx:hr>143</gpxtpx:hr>
          </gpxtpx:TrackPointExtension>
        </extensions>
      </trkpt>
      <trkpt lat="43.5883" lon="2.99971">
        <ele>761.4004</ele>
        <time>2026-08-30T08:35:00+02:00</time>
      </trkpt>
      <trkpt lat="43.5883" lon="2.99971">
        <ele>761.4004</ele>
        <time>2026-08-30T08:35:01+02:00</time>
        <extensions>
          <gpxtpx:TrackPointExtension xmlns:gpxtpx="http://www.garmin.com/xmlschemas/TrackPointExtension/v1">
            <gpxtpx:hr>145</gpxtpx:hr>
          </gpxtpx:TrackPointExtension>
        </extensions>
      </trkpt>
      <trkpt lat="43.58832" lon="2.9997">
        <ele>761.4004</ele>
        <time>2026-08-30T08:35:05+02:00</time>
      </trkpt>
      <trkpt lat="43.58833" lon="2.9997">
        <ele>761.4004</ele>
        <time>2026-08-30T08:35:06+02:00</time>
        <extensions>
          <gpxtpx:TrackPointExtension xmlns:gpxtpx="http://www.garmin.com/xmlschemas/TrackPointExtension/v1">
            <gpxtpx:hr>146</gpxtpx:hr>
          </gpxtpx:TrackPointExtension>
        </extensions>
      </trkpt>
      <trkpt lat="43.58834" lon="2.99969">
        <ele>765</ele>
        <time>2026-08-30T08:35:10+02:00</time>
      </trkpt>
      <trkpt lat="43.58835" lon="2.99968">
        <ele>765</ele>
        <time>2026-08-30T08:35:11+02:00</time>
        <extensions>
          <gpxtpx:TrackPointExtension xmlns:gpxtpx="http://www.garmin.com/xmlschemas/TrackPointExtension/v1">
            <gpxtpx:hr>147</gpxtpx:hr>
          </gpxtpx:TrackPointExtension>
        </extensions>
      </trkpt>
      <trkpt lat="43.58835" lon="2.99967">
        <ele>766.2002</ele>
        <time>2026-08-30T08:35:15+02:00</time>
      </trkpt>
      <trkpt lat="43.58836" lon="2.99967">
        <ele>766.2002</ele>
        <time>2026-08-30T08:35:16+02:00</time>
        <extensions>
          <gpxtpx:TrackPointExtension xmlns:gpxtpx="http://www.garmin.com/xmlschemas/TrackPointExtension/v1">
            <gpxtpx:hr>148</gpxtpx:hr>
          </gpxtpx:TrackPointExtension>
        </extensions>
      </trkpt>
      <trkpt lat="43.58838" lon="2.99966">
        <ele>766.2002</ele>
        <time>2026-08-30T08:35:20+02:00</time>
      </trkpt>
      <trkpt lat="43.58839" lon="2.99965">
        <ele>766.2002</ele>
        <time>2026-08-30T08:35:21+02:00</time>
        <extensions>
          <gpxtpx:TrackPointExtension xmlns:gpxtpx="http://www.garmin.com/xmlschemas/TrackPointExtension/v1">
            <gpxtpx:hr>148</gpxtpx:hr>
          </gpxtpx:TrackPointExtension>
        </extensions>
      </trkpt>
      <trkpt lat="43.58842" lon="2.99966">
        <ele>767.1006</ele>
        <time>2026-08-30T08:35:25+02:00</time>
      </trkpt>
      <trkpt lat="43.58843" lon="2.99966">
        <ele>767.1006</ele>
        <time>2026-08-30T08:35:26+02:00</time>
        <extensions>
          <gpxtpx:TrackPointExtension xmlns:gpxtpx="http://www.garmin.com/xmlschemas/TrackPointExtension/v1">
            <gpxtpx:hr>149</gpxtpx:hr>
          </gpxtpx:TrackPointExtension>
        </extensions>
      </trkpt>
      <trkpt lat="43.58846" lon="2.99964">
        <ele>767.1006</ele>
        <time>2026-08-30T08:35:30+02:00</time>
      </trkpt>
      <trkpt lat="43.58846" lon="2.99963">
        <ele>767.1006</ele>
        <time>2026-08-30T08:35:31+02:00</time>
        <extensions>
          <gpxtpx:TrackPointExtension xmlns:gpxtpx="http://www.garmin.com/xmlschemas/TrackPointExtension/v1">
            <gpxtpx:hr>148</gpxtpx:hr>
          </gpxtpx:TrackPointExtension>
        </extensions>
      </trkpt>
      <trkpt lat="43.58847" lon="2.99961">
        <ele>771.2998</ele>
        <time>2026-08-30T08:35:35+02:00</time>
      </trkpt>
      <trkpt lat="43.58848" lon="2.9996">
        <ele>771.2998</ele>
        <time>2026-08-30T08:35:36+02:00</time>
        <extensions>
          <gpxtpx:TrackPointExtension xmlns:gpxtpx="http://www.garmin.com/xmlschemas/TrackPointExtension/v1">
            <gpxtpx:hr>148</gpxtpx:hr>
          </gpxtpx:TrackPointExtension>
        </extensions>
      </trkpt>
      <trkpt lat="43.58849" lon="2.99956">
        <ele>771.2998</ele>
        <time>2026-08-30T08:35:40+02:00</time>
      </trkpt>
      <trkpt lat="43.5885" lon="2.99955">
        <ele>771.2998</ele>
        <time>2026-08-30T08:35:41+02:00</time>
        <extensions>
          <gpxtpx:TrackPointExtension xmlns:gpxtpx="http://www.garmin.com/xmlschemas/TrackPointExtension/v1">
            <gpxtpx:hr>147</gpxtpx:hr>
          </gpxtpx:TrackPointExtension>
        </extensions>
      </trkpt>
      <trkpt lat="43.58851" lon="2.99955">
        <ele>771.2998</ele>
        <time>2026-08-30T08:35:45+02:00</time>
      </trkpt>
      <trkpt lat="43.58852" lon="2.99954">
        <ele>771.2998</ele>
        <time>2026-08-30T08:35:46+02:00</time>
        <extensions>
          <gpxtpx:TrackPointExtension xmlns:gpxtpx="http://www.garmin.com/xmlschemas/TrackPointExtension/v1">
            <gpxtpx:hr>147</gpxtpx:hr>
          </gpxtpx:TrackPointExtension>
        </extensions>
      </trkpt>
      <trkpt lat="43.58853" lon="2.99952">
        <ele>774.5</ele>
        <time>2026-08-30T08:35:50+02:00</time>
      </trkpt>
      <trkpt lat="43.58853" lon="2.99951">
        <ele>774.5</ele>
        <time>2026-08-30T08:35:51+02:00</time>
        <extensions>
          <gpxtpx:TrackPointExtension xmlns:gpxtpx="http://www.garmin.com/xmlschemas/TrackPointExtension/v1">
            <gpxtpx:hr>147</gpxtpx:hr>
          </gpxtpx:TrackPointExtension>
        </extensions>
      </trkpt>
      <trkpt lat="43.58855" lon="2.9995">
        <ele>775</ele>
        <time>2026-08-30T08:35:55+02:00</time>
      </trkpt>
      <trkpt lat="43.58856" lon="2.99949">
        <ele>775</ele>
        <time>2026-08-30T08:35:56+02:00</time>
        <extensions>
          <gpxtpx:TrackPointExtension xmlns:gpxtpx="http://www.garmin.com/xmlschemas/TrackPointExtension/v1">
            <gpxtpx:hr>147</gpxtpx:hr>
          </gpxtpx:TrackPointExtension>
        </extensions>
      </trkpt>
      <trkpt lat="43.58857" lon="2.99945">
        <ele>775</ele>
        <time>2026-08-30T08:36:00+02:00</time>
      </trkpt>
      <trkpt lat="43.58857" lon="2.99944">
        <ele>775</ele>
        <time>2026-08-30T08:36:01+02:00</time>
        <extensions>
          <gpxtpx:TrackPointExtension xmlns:gpxtpx="http://www.garmin.com/xmlschemas/TrackPointExtension/v1">
            <gpxtpx:hr>143</gpxtpx:hr>
          </gpxtpx:TrackPointExtension>
        </extensions>
      </trkpt>
      <trkpt lat="43.58856" lon="2.99941">
        <ele>777.9004</ele>
        <time>2026-08-30T08:36:05+02:00</time>
      </trkpt>
      <trkpt lat="43.58857" lon="2.99941">
        <ele>777.9004</ele>
        <time>2026-08-30T08:36:06+02:00</time>
        <extensions>
          <gpxtpx:TrackPointExtension xmlns:gpxtpx="http://www.garmin.com/xmlschemas/TrackPointExtension/v1">
            <gpxtpx:hr>145</gpxtpx:hr>
          </gpxtpx:TrackPointExtension>
        </extensions>
      </trkpt>
      <trkpt lat="43.58856" lon="2.99938">
        <ele>777.9004</ele>
        <time>2026-08-30T08:36:10+02:00</time>
      </trkpt>
      <trkpt lat="43.58857" lon="2.99937">
        <ele>777.9004</ele>
        <time>2026-08-30T08:36:11+02:00</time>
        <extensions>
          <gpxtpx:TrackPointExtension xmlns:gpxtpx="http://www.garmin.com/xmlschemas/TrackPointExtension/v1">
            <gpxtpx:hr>145</gpxtpx:hr>
          </gpxtpx:TrackPointExtension>
        </extensions>
      </trkpt>
      <trkpt lat="43.58857" lon="2.99935">
        <ele>780.2002</ele>
        <time>2026-08-30T08:36:15+02:00</time>
      </trkpt>
      <trkpt lat="43.58856" lon="2.99935">
        <ele>780.2002</ele>
        <time>2026-08-30T08:36:16+02:00</time>
        <extensions>
          <gpxtpx:TrackPointExtension xmlns:gpxtpx="http://www.garmin.com/xmlschemas/TrackPointExtension/v1">
            <gpxtpx:hr>145</gpxtpx:hr>
          </gpxtpx:TrackPointExtension>
        </extensions>
      </trkpt>
      <trkpt lat="43.58856" lon="2.99933">
        <ele>780.2002</ele>
        <time>2026-08-30T08:36:20+02:00</time>
      </trkpt>
      <trkpt lat="43.58856" lon="2.99933">
        <ele>780.2002</ele>
        <time>2026-08-30T08:36:21+02:00</time>
        <extensions>
          <gpxtpx:TrackPointExtension xmlns:gpxtpx="http://www.garmin.com/xmlschemas/TrackPointExtension/v1">
            <gpxtpx:hr>142</gpxtpx:hr>
          </gpxtpx:TrackPointExtension>
        </extensions>
      </trkpt>
      <trkpt lat="43.58857" lon="2.99931">
        <ele>780.2002</ele>
        <time>2026-08-30T08:36:25+02:00</time>
        <extensions>
          <gpxtpx:TrackPointExtension xmlns:gpxtpx="http://www.garmin.com/xmlschemas/TrackPointExtension/v1">
            <gpxtpx:hr>142</gpxtpx:hr>
          </gpxtpx:TrackPointExtension>
        </extensions>
      </trkpt>
      <trkpt lat="43.5886" lon="2.99928">
        <ele>780.5</ele>
        <time>2026-08-30T08:36:26+02:00</time>
        <extensions>
          <gpxtpx:TrackPointExtension xmlns:gpxtpx="http://www.garmin.com/xmlschemas/TrackPointExtension/v1">
            <gpxtpx:hr>146</gpxtpx:hr>
          </gpxtpx:TrackPointExtension>
        </extensions>
      </trkpt>
      <trkpt lat="43.58862" lon="2.99927">
        <ele>782.7002</ele>
        <time>2026-08-30T08:36:30+02:00</time>
      </trkpt>
      <trkpt lat="43.58862" lon="2.99926">
        <ele>782.7002</ele>
        <time>2026-08-30T08:36:31+02:00</time>
        <extensions>
          <gpxtpx:TrackPointExtension xmlns:gpxtpx="http://www.garmin.com/xmlschemas/TrackPointExtension/v1">
            <gpxtpx:hr>145</gpxtpx:hr>
          </gpxtpx:TrackPointExtension>
        </extensions>
      </trkpt>
      <trkpt lat="43.58863" lon="2.99924">
        <ele>782.7002</ele>
        <time>2026-08-30T08:36:35+02:00</time>
        <extensions>
          <gpxtpx:TrackPointExtension xmlns:gpxtpx="http://www.garmin.com/xmlschemas/TrackPointExtension/v1">
            <gpxtpx:hr>145</gpxtpx:hr>
          </gpxtpx:TrackPointExtension>
        </extensions>
      </trkpt>
      <trkpt lat="43.58865" lon="2.99922">
        <ele>782.7002</ele>
        <time>2026-08-30T08:36:36+02:00</time>
        <extensions>
          <gpxtpx:TrackPointExtension xmlns:gpxtpx="http://www.garmin.com/xmlschemas/TrackPointExtension/v1">
            <gpxtpx:hr>144</gpxtpx:hr>
          </gpxtpx:TrackPointExtension>
        </extensions>
      </trkpt>
      <trkpt lat="43.58867" lon="2.99921">
        <ele>782.9004</ele>
        <time>2026-08-30T08:36:40+02:00</time>
      </trkpt>
      <trkpt lat="43.58867" lon="2.9992">
        <ele>782.9004</ele>
        <time>2026-08-30T08:36:41+02:00</time>
        <extensions>
          <gpxtpx:TrackPointExtension xmlns:gpxtpx="http://www.garmin.com/xmlschemas/TrackPointExtension/v1">
            <gpxtpx:hr>147</gpxtpx:hr>
          </gpxtpx:TrackPointExtension>
        </extensions>
      </trkpt>
      <trkpt lat="43.58868" lon="2.99919">
        <ele>782.9004</ele>
        <time>2026-08-30T08:36:45+02:00</time>
      </trkpt>
      <trkpt lat="43.58869" lon="2.99918">
        <ele>782.9004</ele>
        <time>2026-08-30T08:36:46+02:00</time>
        <extensions>
          <gpxtpx:TrackPointExtension xmlns:gpxtpx="http://www.garmin.com/xmlschemas/TrackPointExtension/v1">
            <gpxtpx:hr>146</gpxtpx:hr>
          </gpxtpx:TrackPointExtension>
        </extensions>
      </trkpt>
      <trkpt lat="43.58871" lon="2.99917">
        <ele>785</ele>
        <time>2026-08-30T08:36:50+02:00</time>
      </trkpt>
      <trkpt lat="43.58872" lon="2.99917">
        <ele>785</ele>
        <time>2026-08-30T08:36:51+02:00</time>
        <extensions>
          <gpxtpx:TrackPointExtension xmlns:gpxtpx="http://www.garmin.com/xmlschemas/TrackPointExtension/v1">
            <gpxtpx:hr>148</gpxtpx:hr>
          </gpxtpx:TrackPointExtension>
        </extensions>
      </trkpt>
      <trkpt lat="43.58874" lon="2.99916">
        <ele>785.2002</ele>
        <time>2026-08-30T08:36:55+02:00</time>
      </trkpt>
      <trkpt lat="43.58875" lon="2.99916">
        <ele>785.2002</ele>
        <time>2026-08-30T08:36:56+02:00</time>
        <extensions>
          <gpxtpx:TrackPointExtension xmlns:gpxtpx="http://www.garmin.com/xmlschemas/TrackPointExtension/v1">
            <gpxtpx:hr>149</gpxtpx:hr>
          </gpxtpx:TrackPointExtension>
        </extensions>
      </trkpt>
      <trkpt lat="43.58879" lon="2.99917">
        <ele>785.2998</ele>
        <time>2026-08-30T08:37:00+02:00</time>
      </trkpt>
      <trkpt lat="43.5888" lon="2.99917">
        <ele>785.2998</ele>
        <time>2026-08-30T08:37:01+02:00</time>
        <extensions>
          <gpxtpx:TrackPointExtension xmlns:gpxtpx="http://www.garmin.com/xmlschemas/TrackPointExtension/v1">
            <gpxtpx:hr>149</gpxtpx:hr>
          </gpxtpx:TrackPointExtension>
        </extensions>
      </trkpt>
      <trkpt lat="43.58882" lon="2.99915">
        <ele>785.2998</ele>
        <time>2026-08-30T08:37:05+02:00</time>
      </trkpt>
      <trkpt lat="43.58883" lon="2.99914">
        <ele>785.2998</ele>
        <time>2026-08-30T08:37:06+02:00</time>
        <extensions>
          <gpxtpx:TrackPointExtension xmlns:gpxtpx="http://www.garmin.com/xmlschemas/TrackPointExtension/v1">
            <gpxtpx:hr>150</gpxtpx:hr>
          </gpxtpx:TrackPointExtension>
        </extensions>
      </trkpt>
      <trkpt lat="43.58885" lon="2.99911">
        <ele>785.2998</ele>
        <time>2026-08-30T08:37:10+02:00</time>
      </trkpt>
      <trkpt lat="43.58884" lon="2.99911">
        <ele>785.2998</ele>
        <time>2026-08-30T08:37:11+02:00</time>
        <extensions>
          <gpxtpx:TrackPointExtension xmlns:gpxtpx="http://www.garmin.com/xmlschemas/TrackPointExtension/v1">
            <gpxtpx:hr>148</gpxtpx:hr>
          </gpxtpx:TrackPointExtension>
        </extensions>
      </trkpt>
      <trkpt lat="43.58884" lon="2.9991">
        <ele>785.2998</ele>
        <time>2026-08-30T08:37:15+02:00</time>
      </trkpt>
      <trkpt lat="43.58883" lon="2.9991">
        <ele>787.4004</ele>
        <time>2026-08-30T08:37:16+02:00</time>
        <extensions>
          <gpxtpx:TrackPointExtension xmlns:gpxtpx="http://www.garmin.com/xmlschemas/TrackPointExtension/v1">
            <gpxtpx:hr>145</gpxtpx:hr>
          </gpxtpx:TrackPointExtension>
        </extensions>
      </trkpt>
      <trkpt lat="43.58885" lon="2.99907">
        <ele>787.4004</ele>
        <time>2026-08-30T08:37:20+02:00</time>
      </trkpt>
      <trkpt lat="43.58884" lon="2.99906">
        <ele>787.4004</ele>
        <time>2026-08-30T08:37:21+02:00</time>
        <extensions>
          <gpxtpx:TrackPointExtension xmlns:gpxtpx="http://www.garmin.com/xmlschemas/TrackPointExtension/v1">
            <gpxtpx:hr>146</gpxtpx:hr>
          </gpxtpx:TrackPointExtension>
        </extensions>
      </trkpt>
      <trkpt lat="43.58883" lon="2.99905">
        <ele>787.4004</ele>
        <time>2026-08-30T08:37:25+02:00</time>
      </trkpt>
      <trkpt lat="43.58882" lon="2.99906">
        <ele>787.4004</ele>
        <time>2026-08-30T08:37:26+02:00</time>
        <extensions>
          <gpxtpx:TrackPointExtension xmlns:gpxtpx="http://www.garmin.com/xmlschemas/TrackPointExtension/v1">
            <gpxtpx:hr>147</gpxtpx:hr>
          </gpxtpx:TrackPointExtension>
        </extensions>
      </trkpt>
      <trkpt lat="43.58879" lon="2.99908">
        <ele>787.4004</ele>
        <time>2026-08-30T08:37:30+02:00</time>
      </trkpt>
      <trkpt lat="43.58878" lon="2.99908">
        <ele>787.2002</ele>
        <time>2026-08-30T08:37:31+02:00</time>
        <extensions>
          <gpxtpx:TrackPointExtension xmlns:gpxtpx="http://www.garmin.com/xmlschemas/TrackPointExtension/v1">
            <gpxtpx:hr>147</gpxtpx:hr>
          </gpxtpx:TrackPointExtension>
        </extensions>
      </trkpt>
      <trkpt lat="43.58876" lon="2.99906">
        <ele>787.2002</ele>
        <time>2026-08-30T08:37:35+02:00</time>
      </trkpt>
      <trkpt lat="43.58875" lon="2.99906">
        <ele>787.2002</ele>
        <time>2026-08-30T08:37:36+02:00</time>
        <extensions>
          <gpxtpx:TrackPointExtension xmlns:gpxtpx="http://www.garmin.com/xmlschemas/TrackPointExtension/v1">
            <gpxtpx:hr>148</gpxtpx:hr>
          </gpxtpx:TrackPointExtension>
        </extensions>
      </trkpt>
      <trkpt lat="43.58875" lon="2.99902">
        <ele>787.2002</ele>
        <time>2026-08-30T08:37:40+02:00</time>
      </trkpt>
      <trkpt lat="43.58874" lon="2.99902">
        <ele>787.2002</ele>
        <time>2026-08-30T08:37:41+02:00</time>
        <extensions>
          <gpxtpx:TrackPointExtension xmlns:gpxtpx="http://www.garmin.com/xmlschemas/TrackPointExtension/v1">
            <gpxtpx:hr>148</gpxtpx:hr>
          </gpxtpx:TrackPointExtension>
        </extensions>
      </trkpt>
      <trkpt lat="43.58872" lon="2.999">
        <ele>788.9004</ele>
        <time>2026-08-30T08:37:45+02:00</time>
      </trkpt>
      <trkpt lat="43.58872" lon="2.99899">
        <ele>788.2002</ele>
        <time>2026-08-30T08:37:46+02:00</time>
        <extensions>
          <gpxtpx:TrackPointExtension xmlns:gpxtpx="http://www.garmin.com/xmlschemas/TrackPointExtension/v1">
            <gpxtpx:hr>148</gpxtpx:hr>
          </gpxtpx:TrackPointExtension>
        </extensions>
      </trkpt>
      <trkpt lat="43.58871" lon="2.99898">
        <ele>788.2002</ele>
        <time>2026-08-30T08:37:50+02:00</time>
      </trkpt>
      <trkpt lat="43.58871" lon="2.99898">
        <ele>788.2002</ele>
        <time>2026-08-30T08:37:51+02:00</time>
        <extensions>
          <gpxtpx:TrackPointExtension xmlns:gpxtpx="http://www.garmin.com/xmlschemas/TrackPointExtension/v1">
            <gpxtpx:hr>147</gpxtpx:hr>
          </gpxtpx:TrackPointExtension>
        </extensions>
      </trkpt>
      <trkpt lat="43.58872" lon="2.99896">
        <ele>788.2002</ele>
        <time>2026-08-30T08:37:55+02:00</time>
        <extensions>
          <gpxtpx:TrackPointExtension xmlns:gpxtpx="http://www.garmin.com/xmlschemas/TrackPointExtension/v1">
            <gpxtpx:hr>149</gpxtpx:hr>
          </gpxtpx:TrackPointExtension>
        </extensions>
      </trkpt>
      <trkpt lat="43.58871" lon="2.99893">
        <ele>788.2002</ele>
        <time>2026-08-30T08:37:56+02:00</time>
        <extensions>
          <gpxtpx:TrackPointExtension xmlns:gpxtpx="http://www.garmin.com/xmlschemas/TrackPointExtension/v1">
            <gpxtpx:hr>147</gpxtpx:hr>
          </gpxtpx:TrackPointExtension>
        </extensions>
      </trkpt>
      <trkpt lat="43.58872" lon="2.99891">
        <ele>789.4004</ele>
        <time>2026-08-30T08:38:00+02:00</time>
        <extensions>
          <gpxtpx:TrackPointExtension xmlns:gpxtpx="http://www.garmin.com/xmlschemas/TrackPointExtension/v1">
            <gpxtpx:hr>150</gpxtpx:hr>
          </gpxtpx:TrackPointExtension>
        </extensions>
      </trkpt>
      <trkpt lat="43.58874" lon="2.99887">
        <ele>790.2998</ele>
        <time>2026-08-30T08:38:01+02:00</time>
        <extensions>
          <gpxtpx:TrackPointExtension xmlns:gpxtpx="http://www.garmin.com/xmlschemas/TrackPointExtension/v1">
            <gpxtpx:hr>151</gpxtpx:hr>
          </gpxtpx:TrackPointExtension>
        </extensions>
      </trkpt>
      <trkpt lat="43.58875" lon="2.99884">
        <ele>790.2998</ele>
        <time>2026-08-30T08:38:05+02:00</time>
      </trkpt>
      <trkpt lat="43.58875" lon="2.99884">
        <ele>791.4004</ele>
        <time>2026-08-30T08:38:06+02:00</time>
        <extensions>
          <gpxtpx:TrackPointExtension xmlns:gpxtpx="http://www.garmin.com/xmlschemas/TrackPointExtension/v1">
            <gpxtpx:hr>151</gpxtpx:hr>
          </gpxtpx:TrackPointExtension>
        </extensions>
      </trkpt>
      <trkpt lat="43.58878" lon="2.99883">
        <ele>791.4004</ele>
        <time>2026-08-30T08:38:10+02:00</time>
      </trkpt>
      <trkpt lat="43.58879" lon="2.99883">
        <ele>792.2002</ele>
        <time>2026-08-30T08:38:11+02:00</time>
        <extensions>
          <gpxtpx:TrackPointExtension xmlns:gpxtpx="http://www.garmin.com/xmlschemas/TrackPointExtension/v1">
            <gpxtpx:hr>150</gpxtpx:hr>
          </gpxtpx:TrackPointExtension>
        </extensions>
      </trkpt>
      <trkpt lat="43.58878" lon="2.99881">
        <ele>791.4004</ele>
        <time>2026-08-30T08:38:15+02:00</time>
      </trkpt>
      <trkpt lat="43.58878" lon="2.9988">
        <ele>791.4004</ele>
        <time>2026-08-30T08:38:16+02:00</time>
        <extensions>
          <gpxtpx:TrackPointExtension xmlns:gpxtpx="http://www.garmin.com/xmlschemas/TrackPointExtension/v1">
            <gpxtpx:hr>150</gpxtpx:hr>
          </gpxtpx:TrackPointExtension>
        </extensions>
      </trkpt>
      <trkpt lat="43.58879" lon="2.99877">
        <ele>792.2002</ele>
        <time>2026-08-30T08:38:20+02:00</time>
      </trkpt>
      <trkpt lat="43.58879" lon="2.99876">
        <ele>792.2002</ele>
        <time>2026-08-30T08:38:21+02:00</time>
        <extensions>
          <gpxtpx:TrackPointExtension xmlns:gpxtpx="http://www.garmin.com/xmlschemas/TrackPointExtension/v1">
            <gpxtpx:hr>150</gpxtpx:hr>
          </gpxtpx:TrackPointExtension>
        </extensions>
      </trkpt>
      <trkpt lat="43.58878" lon="2.99874">
        <ele>792.2002</ele>
        <time>2026-08-30T08:38:25+02:00</time>
      </trkpt>
      <trkpt lat="43.58878" lon="2.99874">
        <ele>792.2002</ele>
        <time>2026-08-30T08:38:26+02:00</time>
        <extensions>
          <gpxtpx:TrackPointExtension xmlns:gpxtpx="http://www.garmin.com/xmlschemas/TrackPointExtension/v1">
            <gpxtpx:hr>150</gpxtpx:hr>
          </gpxtpx:TrackPointExtension>
        </extensions>
      </trkpt>
      <trkpt lat="43.58878" lon="2.99872">
        <ele>792.2002</ele>
        <time>2026-08-30T08:38:30+02:00</time>
      </trkpt>
      <trkpt lat="43.58878" lon="2.99871">
        <ele>792.2002</ele>
        <time>2026-08-30T08:38:31+02:00</time>
        <extensions>
          <gpxtpx:TrackPointExtension xmlns:gpxtpx="http://www.garmin.com/xmlschemas/TrackPointExtension/v1">
            <gpxtpx:hr>150</gpxtpx:hr>
          </gpxtpx:TrackPointExtension>
        </extensions>
      </trkpt>
      <trkpt lat="43.5888" lon="2.99869">
        <ele>793.2998</ele>
        <time>2026-08-30T08:38:35+02:00</time>
      </trkpt>
      <trkpt lat="43.5888" lon="2.99869">
        <ele>793.2998</ele>
        <time>2026-08-30T08:38:36+02:00</time>
        <extensions>
          <gpxtpx:TrackPointExtension xmlns:gpxtpx="http://www.garmin.com/xmlschemas/TrackPointExtension/v1">
            <gpxtpx:hr>150</gpxtpx:hr>
          </gpxtpx:TrackPointExtension>
        </extensions>
      </trkpt>
      <trkpt lat="43.58882" lon="2.99866">
        <ele>794.1006</ele>
        <time>2026-08-30T08:38:40+02:00</time>
      </trkpt>
      <trkpt lat="43.58882" lon="2.99866">
        <ele>794.1006</ele>
        <time>2026-08-30T08:38:41+02:00</time>
        <extensions>
          <gpxtpx:TrackPointExtension xmlns:gpxtpx="http://www.garmin.com/xmlschemas/TrackPointExtension/v1">
            <gpxtpx:hr>151</gpxtpx:hr>
          </gpxtpx:TrackPointExtension>
        </extensions>
      </trkpt>
      <trkpt lat="43.58885" lon="2.99866">
        <ele>795.2998</ele>
        <time>2026-08-30T08:38:45+02:00</time>
      </trkpt>
      <trkpt lat="43.58886" lon="2.99866">
        <ele>795.2998</ele>
        <time>2026-08-30T08:38:46+02:00</time>
        <extensions>
          <gpxtpx:TrackPointExtension xmlns:gpxtpx="http://www.garmin.com/xmlschemas/TrackPointExtension/v1">
            <gpxtpx:hr>151</gpxtpx:hr>
          </gpxtpx:TrackPointExtension>
        </extensions>
      </trkpt>
      <trkpt lat="43.58889" lon="2.99867">
        <ele>794.2998</ele>
        <time>2026-08-30T08:38:50+02:00</time>
      </trkpt>
      <trkpt lat="43.58889" lon="2.99867">
        <ele>794.2998</ele>
        <time>2026-08-30T08:38:51+02:00</time>
        <extensions>
          <gpxtpx:TrackPointExtension xmlns:gpxtpx="http://www.garmin.com/xmlschemas/TrackPointExtension/v1">
            <gpxtpx:hr>151</gpxtpx:hr>
          </gpxtpx:TrackPointExtension>
        </extensions>
      </trkpt>
      <trkpt lat="43.58892" lon="2.99867">
        <ele>795.2002</ele>
        <time>2026-08-30T08:38:55+02:00</time>
      </trkpt>
      <trkpt lat="43.58893" lon="2.99868">
        <ele>795.2002</ele>
        <time>2026-08-30T08:38:56+02:00</time>
        <extensions>
          <gpxtpx:TrackPointExtension xmlns:gpxtpx="http://www.garmin.com/xmlschemas/TrackPointExtension/v1">
            <gpxtpx:hr>152</gpxtpx:hr>
          </gpxtpx:TrackPointExtension>
        </extensions>
      </trkpt>
      <trkpt lat="43.58896" lon="2.99866">
        <ele>796.4004</ele>
        <time>2026-08-30T08:39:00+02:00</time>
      </trkpt>
      <trkpt lat="43.58896" lon="2.99866">
        <ele>796.4004</ele>
        <time>2026-08-30T08:39:01+02:00</time>
        <extensions>
          <gpxtpx:TrackPointExtension xmlns:gpxtpx="http://www.garmin.com/xmlschemas/TrackPointExtension/v1">
            <gpxtpx:hr>151</gpxtpx:hr>
          </gpxtpx:TrackPointExtension>
        </extensions>
      </trkpt>
      <trkpt lat="43.58897" lon="2.99863">
        <ele>797.4004</ele>
        <time>2026-08-30T08:39:05+02:00</time>
      </trkpt>
      <trkpt lat="43.58898" lon="2.99863">
        <ele>797.4004</ele>
        <time>2026-08-30T08:39:06+02:00</time>
        <extensions>
          <gpxtpx:TrackPointExtension xmlns:gpxtpx="http://www.garmin.com/xmlschemas/TrackPointExtension/v1">
            <gpxtpx:hr>150</gpxtpx:hr>
          </gpxtpx:TrackPointExtension>
        </extensions>
      </trkpt>
      <trkpt lat="43.58899" lon="2.99861">
        <ele>797.4004</ele>
        <time>2026-08-30T08:39:10+02:00</time>
      </trkpt>
      <trkpt lat="43.589" lon="2.99861">
        <ele>797.4004</ele>
        <time>2026-08-30T08:39:11+02:00</time>
        <extensions>
          <gpxtpx:TrackPointExtension xmlns:gpxtpx="http://www.garmin.com/xmlschemas/TrackPointExtension/v1">
            <gpxtpx:hr>150</gpxtpx:hr>
          </gpxtpx:TrackPointExtension>
        </extensions>
      </trkpt>
      <trkpt lat="43.58903" lon="2.99857">
        <ele>798.6006</ele>
        <time>2026-08-30T08:39:15+02:00</time>
      </trkpt>
      <trkpt lat="43.58903" lon="2.99857">
        <ele>798.6006</ele>
        <time>2026-08-30T08:39:16+02:00</time>
        <extensions>
          <gpxtpx:TrackPointExtension xmlns:gpxtpx="http://www.garmin.com/xmlschemas/TrackPointExtension/v1">
            <gpxtpx:hr>150</gpxtpx:hr>
          </gpxtpx:TrackPointExtension>
        </extensions>
      </trkpt>
      <trkpt lat="43.58906" lon="2.99855">
        <ele>799.7002</ele>
        <time>2026-08-30T08:39:20+02:00</time>
      </trkpt>
      <trkpt lat="43.58906" lon="2.99854">
        <ele>799.7002</ele>
        <time>2026-08-30T08:39:21+02:00</time>
        <extensions>
          <gpxtpx:TrackPointExtension xmlns:gpxtpx="http://www.garmin.com/xmlschemas/TrackPointExtension/v1">
            <gpxtpx:hr>149</gpxtpx:hr>
          </gpxtpx:TrackPointExtension>
        </extensions>
      </trkpt>
      <trkpt lat="43.58907" lon="2.99851">
        <ele>799.7002</ele>
        <time>2026-08-30T08:39:25+02:00</time>
      </trkpt>
      <trkpt lat="43.58907" lon="2.9985">
        <ele>799.7002</ele>
        <time>2026-08-30T08:39:26+02:00</time>
        <extensions>
          <gpxtpx:TrackPointExtension xmlns:gpxtpx="http://www.garmin.com/xmlschemas/TrackPointExtension/v1">
            <gpxtpx:hr>147</gpxtpx:hr>
          </gpxtpx:TrackPointExtension>
        </extensions>
      </trkpt>
      <trkpt lat="43.58908" lon="2.99848">
        <ele>800.9004</ele>
        <time>2026-08-30T08:39:30+02:00</time>
      </trkpt>
      <trkpt lat="43.58907" lon="2.99847">
        <ele>800.9004</ele>
        <time>2026-08-30T08:39:31+02:00</time>
        <extensions>
          <gpxtpx:TrackPointExtension xmlns:gpxtpx="http://www.garmin.com/xmlschemas/TrackPointExtension/v1">
            <gpxtpx:hr>147</gpxtpx:hr>
          </gpxtpx:TrackPointExtension>
        </extensions>
      </trkpt>
      <trkpt lat="43.58905" lon="2.99846">
        <ele>800.9004</ele>
        <time>2026-08-30T08:39:35+02:00</time>
      </trkpt>
      <trkpt lat="43.58905" lon="2.99845">
        <ele>800.9004</ele>
        <time>2026-08-30T08:39:36+02:00</time>
        <extensions>
          <gpxtpx:TrackPointExtension xmlns:gpxtpx="http://www.garmin.com/xmlschemas/TrackPointExtension/v1">
            <gpxtpx:hr>146</gpxtpx:hr>
          </gpxtpx:TrackPointExtension>
        </extensions>
      </trkpt>
      <trkpt lat="43.58904" lon="2.99843">
        <ele>800.9004</ele>
        <time>2026-08-30T08:39:40+02:00</time>
      </trkpt>
      <trkpt lat="43.58903" lon="2.99843">
        <ele>800.9004</ele>
        <time>2026-08-30T08:39:41+02:00</time>
        <extensions>
          <gpxtpx:TrackPointExtension xmlns:gpxtpx="http://www.garmin.com/xmlschemas/TrackPointExtension/v1">
            <gpxtpx:hr>145</gpxtpx:hr>
          </gpxtpx:TrackPointExtension>
        </extensions>
      </trkpt>
      <trkpt lat="43.58903" lon="2.99842">
        <ele>799.6006</ele>
        <time>2026-08-30T08:39:45+02:00</time>
      </trkpt>
      <trkpt lat="43.58903" lon="2.99841">
        <ele>800.2998</ele>
        <time>2026-08-30T08:39:46+02:00</time>
        <extensions>
          <gpxtpx:TrackPointExtension xmlns:gpxtpx="http://www.garmin.com/xmlschemas/TrackPointExtension/v1">
            <gpxtpx:hr>147</gpxtpx:hr>
          </gpxtpx:TrackPointExtension>
        </extensions>
      </trkpt>
      <trkpt lat="43.58905" lon="2.99838">
        <ele>801.7998</ele>
        <time>2026-08-30T08:39:50+02:00</time>
      </trkpt>
      <trkpt lat="43.58905" lon="2.99838">
        <ele>801.7998</ele>
        <time>2026-08-30T08:39:51+02:00</time>
        <extensions>
          <gpxtpx:TrackPointExtension xmlns:gpxtpx="http://www.garmin.com/xmlschemas/TrackPointExtension/v1">
            <gpxtpx:hr>145</gpxtpx:hr>
          </gpxtpx:TrackPointExtension>
        </extensions>
      </trkpt>
      <trkpt lat="43.58905" lon="2.99836">
        <ele>801.7998</ele>
        <time>2026-08-30T08:39:55+02:00</time>
      </trkpt>
      <trkpt lat="43.58906" lon="2.99836">
        <ele>801.7998</ele>
        <time>2026-08-30T08:39:56+02:00</time>
        <extensions>
          <gpxtpx:TrackPointExtension xmlns:gpxtpx="http://www.garmin.com/xmlschemas/TrackPointExtension/v1">
            <gpxtpx:hr>147</gpxtpx:hr>
          </gpxtpx:TrackPointExtension>
        </extensions>
      </trkpt>
      <trkpt lat="43.58905" lon="2.99833">
        <ele>801.7998</ele>
        <time>2026-08-30T08:40:00+02:00</time>
      </trkpt>
      <trkpt lat="43.58905" lon="2.99833">
        <ele>801.7998</ele>
        <time>2026-08-30T08:40:01+02:00</time>
        <extensions>
          <gpxtpx:TrackPointExtension xmlns:gpxtpx="http://www.garmin.com/xmlschemas/TrackPointExtension/v1">
            <gpxtpx:hr>150</gpxtpx:hr>
          </gpxtpx:TrackPointExtension>
        </extensions>
      </trkpt>
      <trkpt lat="43.58905" lon="2.99831">
        <ele>802.5</ele>
        <time>2026-08-30T08:40:05+02:00</time>
      </trkpt>
      <trkpt lat="43.58906" lon="2.9983">
        <ele>802.5</ele>
        <time>2026-08-30T08:40:06+02:00</time>
        <extensions>
          <gpxtpx:TrackPointExtension xmlns:gpxtpx="http://www.garmin.com/xmlschemas/TrackPointExtension/v1">
            <gpxtpx:hr>151</gpxtpx:hr>
          </gpxtpx:TrackPointExtension>
        </extensions>
      </trkpt>
      <trkpt lat="43.58907" lon="2.99828">
        <ele>802.5</ele>
        <time>2026-08-30T08:40:10+02:00</time>
      </trkpt>
      <trkpt lat="43.58908" lon="2.99828">
        <ele>802.5</ele>
        <time>2026-08-30T08:40:11+02:00</time>
        <extensions>
          <gpxtpx:TrackPointExtension xmlns:gpxtpx="http://www.garmin.com/xmlschemas/TrackPointExtension/v1">
            <gpxtpx:hr>147</gpxtpx:hr>
          </gpxtpx:TrackPointExtension>
        </extensions>
      </trkpt>
      <trkpt lat="43.58911" lon="2.99826">
        <ele>804.2002</ele>
        <time>2026-08-30T08:40:15+02:00</time>
      </trkpt>
      <trkpt lat="43.58911" lon="2.99826">
        <ele>804.2002</ele>
        <time>2026-08-30T08:40:16+02:00</time>
        <extensions>
          <gpxtpx:TrackPointExtension xmlns:gpxtpx="http://www.garmin.com/xmlschemas/TrackPointExtension/v1">
            <gpxtpx:hr>147</gpxtpx:hr>
          </gpxtpx:TrackPointExtension>
        </extensions>
      </trkpt>
      <trkpt lat="43.58912" lon="2.99825">
        <ele>804.2002</ele>
        <time>2026-08-30T08:40:20+02:00</time>
      </trkpt>
      <trkpt lat="43.58913" lon="2.99825">
        <ele>804.2002</ele>
        <time>2026-08-30T08:40:21+02:00</time>
        <extensions>
          <gpxtpx:TrackPointExtension xmlns:gpxtpx="http://www.garmin.com/xmlschemas/TrackPointExtension/v1">
            <gpxtpx:hr>145</gpxtpx:hr>
          </gpxtpx:TrackPointExtension>
        </extensions>
      </trkpt>
      <trkpt lat="43.58914" lon="2.99823">
        <ele>805</ele>
        <time>2026-08-30T08:40:25+02:00</time>
      </trkpt>
      <trkpt lat="43.58915" lon="2.99822">
        <ele>805</ele>
        <time>2026-08-30T08:40:26+02:00</time>
        <extensions>
          <gpxtpx:TrackPointExtension xmlns:gpxtpx="http://www.garmin.com/xmlschemas/TrackPointExtension/v1">
            <gpxtpx:hr>145</gpxtpx:hr>
          </gpxtpx:TrackPointExtension>
        </extensions>
      </trkpt>
      <trkpt lat="43.58916" lon="2.99821">
        <ele>805</ele>
        <time>2026-08-30T08:40:30+02:00</time>
      </trkpt>
      <trkpt lat="43.58916" lon="2.99821">
        <ele>806.9004</ele>
        <time>2026-08-30T08:40:31+02:00</time>
        <extensions>
          <gpxtpx:TrackPointExtension xmlns:gpxtpx="http://www.garmin.com/xmlschemas/TrackPointExtension/v1">
            <gpxtpx:hr>144</gpxtpx:hr>
          </gpxtpx:TrackPointExtension>
        </extensions>
      </trkpt>
      <trkpt lat="43.58917" lon="2.9982">
        <ele>806.9004</ele>
        <time>2026-08-30T08:40:35+02:00</time>
      </trkpt>
      <trkpt lat="43.58918" lon="2.9982">
        <ele>806.9004</ele>
        <time>2026-08-30T08:40:36+02:00</time>
        <extensions>
          <gpxtpx:TrackPointExtension xmlns:gpxtpx="http://www.garmin.com/xmlschemas/TrackPointExtension/v1">
            <gpxtpx:hr>143</gpxtpx:hr>
          </gpxtpx:TrackPointExtension>
        </extensions>
      </trkpt>
      <trkpt lat="43.58921" lon="2.99819">
        <ele>806.9004</ele>
        <time>2026-08-30T08:40:40+02:00</time>
      </trkpt>
      <trkpt lat="43.58921" lon="2.99819">
        <ele>806.9004</ele>
        <time>2026-08-30T08:40:41+02:00</time>
        <extensions>
          <gpxtpx:TrackPointExtension xmlns:gpxtpx="http://www.garmin.com/xmlschemas/TrackPointExtension/v1">
            <gpxtpx:hr>146</gpxtpx:hr>
          </gpxtpx:TrackPointExtension>
        </extensions>
      </trkpt>
      <trkpt lat="43.58923" lon="2.99817">
        <ele>808.7002</ele>
        <time>2026-08-30T08:40:45+02:00</time>
      </trkpt>
      <trkpt lat="43.58923" lon="2.99817">
        <ele>808.7002</ele>
        <time>2026-08-30T08:40:46+02:00</time>
        <extensions>
          <gpxtpx:TrackPointExtension xmlns:gpxtpx="http://www.garmin.com/xmlschemas/TrackPointExtension/v1">
            <gpxtpx:hr>146</gpxtpx:hr>
          </gpxtpx:TrackPointExtension>
        </extensions>
      </trkpt>
      <trkpt lat="43.58925" lon="2.99815">
        <ele>808.7002</ele>
        <time>2026-08-30T08:40:50+02:00</time>
      </trkpt>
      <trkpt lat="43.58926" lon="2.99815">
        <ele>810</ele>
        <time>2026-08-30T08:40:51+02:00</time>
        <extensions>
          <gpxtpx:TrackPointExtension xmlns:gpxtpx="http://www.garmin.com/xmlschemas/TrackPointExtension/v1">
            <gpxtpx:hr>148</gpxtpx:hr>
          </gpxtpx:TrackPointExtension>
        </extensions>
      </trkpt>
      <trkpt lat="43.58928" lon="2.99814">
        <ele>810</ele>
        <time>2026-08-30T08:40:55+02:00</time>
      </trkpt>
      <trkpt lat="43.58928" lon="2.99814">
        <ele>812</ele>
        <time>2026-08-30T08:40:56+02:00</time>
        <extensions>
          <gpxtpx:TrackPointExtension xmlns:gpxtpx="http://www.garmin.com/xmlschemas/TrackPointExtension/v1">
            <gpxtpx:hr>147</gpxtpx:hr>
          </gpxtpx:TrackPointExtension>
        </extensions>
      </trkpt>
      <trkpt lat="43.5893" lon="2.99813">
        <ele>812</ele>
        <time>2026-08-30T08:41:00+02:00</time>
      </trkpt>
      <trkpt lat="43.5893" lon="2.99813">
        <ele>812</ele>
        <time>2026-08-30T08:41:01+02:00</time>
        <extensions>
          <gpxtpx:TrackPointExtension xmlns:gpxtpx="http://www.garmin.com/xmlschemas/TrackPointExtension/v1">
            <gpxtpx:hr>143</gpxtpx:hr>
          </gpxtpx:TrackPointExtension>
        </extensions>
      </trkpt>
      <trkpt lat="43.58933" lon="2.99812">
        <ele>812</ele>
        <time>2026-08-30T08:41:05+02:00</time>
      </trkpt>
      <trkpt lat="43.58933" lon="2.99811">
        <ele>812</ele>
        <time>2026-08-30T08:41:06+02:00</time>
        <extensions>
          <gpxtpx:TrackPointExtension xmlns:gpxtpx="http://www.garmin.com/xmlschemas/TrackPointExtension/v1">
            <gpxtpx:hr>141</gpxtpx:hr>
          </gpxtpx:TrackPointExtension>
        </extensions>
      </trkpt>
      <trkpt lat="43.58935" lon="2.99809">
        <ele>813.7998</ele>
        <time>2026-08-30T08:41:10+02:00</time>
      </trkpt>
      <trkpt lat="43.58935" lon="2.99808">
        <ele>813.7998</ele>
        <time>2026-08-30T08:41:11+02:00</time>
        <extensions>
          <gpxtpx:TrackPointExtension xmlns:gpxtpx="http://www.garmin.com/xmlschemas/TrackPointExtension/v1">
            <gpxtpx:hr>140</gpxtpx:hr>
          </gpxtpx:TrackPointExtension>
        </extensions>
      </trkpt>
      <trkpt lat="43.58937" lon="2.99805">
        <ele>815.6006</ele>
        <time>2026-08-30T08:41:15+02:00</time>
      </trkpt>
      <trkpt lat="43.58937" lon="2.99805">
        <ele>815.6006</ele>
        <time>2026-08-30T08:41:16+02:00</time>
        <extensions>
          <gpxtpx:TrackPointExtension xmlns:gpxtpx="http://www.garmin.com/xmlschemas/TrackPointExtension/v1">
            <gpxtpx:hr>140</gpxtpx:hr>
          </gpxtpx:TrackPointExtension>
        </extensions>
      </trkpt>
      <trkpt lat="43.58938" lon="2.99803">
        <ele>815.6006</ele>
        <time>2026-08-30T08:41:20+02:00</time>
      </trkpt>
      <trkpt lat="43.58938" lon="2.99803">
        <ele>815.6006</ele>
        <time>2026-08-30T08:41:21+02:00</time>
        <extensions>
          <gpxtpx:TrackPointExtension xmlns:gpxtpx="http://www.garmin.com/xmlschemas/TrackPointExtension/v1">
            <gpxtpx:hr>148</gpxtpx:hr>
          </gpxtpx:TrackPointExtension>
        </extensions>
      </trkpt>
      <trkpt lat="43.58939" lon="2.99801">
        <ele>815.6006</ele>
        <time>2026-08-30T08:41:25+02:00</time>
        <extensions>
          <gpxtpx:TrackPointExtension xmlns:gpxtpx="http://www.garmin.com/xmlschemas/TrackPointExtension/v1">
            <gpxtpx:hr>146</gpxtpx:hr>
          </gpxtpx:TrackPointExtension>
        </extensions>
      </trkpt>
      <trkpt lat="43.58939" lon="2.99797">
        <ele>817.2998</ele>
        <time>2026-08-30T08:41:26+02:00</time>
        <extensions>
          <gpxtpx:TrackPointExtension xmlns:gpxtpx="http://www.garmin.com/xmlschemas/TrackPointExtension/v1">
            <gpxtpx:hr>153</gpxtpx:hr>
          </gpxtpx:TrackPointExtension>
        </extensions>
      </trkpt>
      <trkpt lat="43.58939" lon="2.99795">
        <ele>817.2998</ele>
        <time>2026-08-30T08:41:30+02:00</time>
      </trkpt>
      <trkpt lat="43.58939" lon="2.99794">
        <ele>817.2998</ele>
        <time>2026-08-30T08:41:31+02:00</time>
        <extensions>
          <gpxtpx:TrackPointExtension xmlns:gpxtpx="http://www.garmin.com/xmlschemas/TrackPointExtension/v1">
            <gpxtpx:hr>156</gpxtpx:hr>
          </gpxtpx:TrackPointExtension>
        </extensions>
      </trkpt>
      <trkpt lat="43.5894" lon="2.99791">
        <ele>817.2998</ele>
        <time>2026-08-30T08:41:35+02:00</time>
      </trkpt>
      <trkpt lat="43.5894" lon="2.9979">
        <ele>817.2998</ele>
        <time>2026-08-30T08:41:36+02:00</time>
        <extensions>
          <gpxtpx:TrackPointExtension xmlns:gpxtpx="http://www.garmin.com/xmlschemas/TrackPointExtension/v1">
            <gpxtpx:hr>156</gpxtpx:hr>
          </gpxtpx:TrackPointExtension>
        </extensions>
      </trkpt>
      <trkpt lat="43.5894" lon="2.99787">
        <ele>818.9004</ele>
        <time>2026-08-30T08:41:40+02:00</time>
      </trkpt>
      <trkpt lat="43.5894" lon="2.99786">
        <ele>818.9004</ele>
        <time>2026-08-30T08:41:41+02:00</time>
        <extensions>
          <gpxtpx:TrackPointExtension xmlns:gpxtpx="http://www.garmin.com/xmlschemas/TrackPointExtension/v1">
            <gpxtpx:hr>153</gpxtpx:hr>
          </gpxtpx:TrackPointExtension>
        </extensions>
      </trkpt>
      <trkpt lat="43.5894" lon="2.99782">
        <ele>818.9004</ele>
        <time>2026-08-30T08:41:45+02:00</time>
      </trkpt>
      <trkpt lat="43.5894" lon="2.99781">
        <ele>818.9004</ele>
        <time>2026-08-30T08:41:46+02:00</time>
        <extensions>
          <gpxtpx:TrackPointExtension xmlns:gpxtpx="http://www.garmin.com/xmlschemas/TrackPointExtension/v1">
            <gpxtpx:hr>155</gpxtpx:hr>
          </gpxtpx:TrackPointExtension>
        </extensions>
      </trkpt>
      <trkpt lat="43.58941" lon="2.99778">
        <ele>823.2002</ele>
        <time>2026-08-30T08:41:50+02:00</time>
      </trkpt>
      <trkpt lat="43.58941" lon="2.99777">
        <ele>823.2002</ele>
        <time>2026-08-30T08:41:51+02:00</time>
        <extensions>
          <gpxtpx:TrackPointExtension xmlns:gpxtpx="http://www.garmin.com/xmlschemas/TrackPointExtension/v1">
            <gpxtpx:hr>152</gpxtpx:hr>
          </gpxtpx:TrackPointExtension>
        </extensions>
      </trkpt>
      <trkpt lat="43.58942" lon="2.99775">
        <ele>823.2002</ele>
        <time>2026-08-30T08:41:55+02:00</time>
      </trkpt>
      <trkpt lat="43.58943" lon="2.99774">
        <ele>823.2002</ele>
        <time>2026-08-30T08:41:56+02:00</time>
        <extensions>
          <gpxtpx:TrackPointExtension xmlns:gpxtpx="http://www.garmin.com/xmlschemas/TrackPointExtension/v1">
            <gpxtpx:hr>153</gpxtpx:hr>
          </gpxtpx:TrackPointExtension>
        </extensions>
      </trkpt>
      <trkpt lat="43.58944" lon="2.99775">
        <ele>823.2002</ele>
        <time>2026-08-30T08:42:00+02:00</time>
      </trkpt>
      <trkpt lat="43.58945" lon="2.99775">
        <ele>823.2002</ele>
        <time>2026-08-30T08:42:01+02:00</time>
        <extensions>
          <gpxtpx:TrackPointExtension xmlns:gpxtpx="http://www.garmin.com/xmlschemas/TrackPointExtension/v1">
            <gpxtpx:hr>155</gpxtpx:hr>
          </gpxtpx:TrackPointExtension>
        </extensions>
      </trkpt>
      <trkpt lat="43.58945" lon="2.99773">
        <ele>823.2002</ele>
        <time>2026-08-30T08:42:05+02:00</time>
        <extensions>
          <gpxtpx:TrackPointExtension xmlns:gpxtpx="http://www.garmin.com/xmlschemas/TrackPointExtension/v1">
            <gpxtpx:hr>158</gpxtpx:hr>
          </gpxtpx:TrackPointExtension>
        </extensions>
      </trkpt>
      <trkpt lat="43.5895" lon="2.99768">
        <ele>827.7002</ele>
        <time>2026-08-30T08:42:06+02:00</time>
        <extensions>
          <gpxtpx:TrackPointExtension xmlns:gpxtpx="http://www.garmin.com/xmlschemas/TrackPointExtension/v1">
            <gpxtpx:hr>148</gpxtpx:hr>
          </gpxtpx:TrackPointExtension>
        </extensions>
      </trkpt>
      <trkpt lat="43.58952" lon="2.99766">
        <ele>827.7002</ele>
        <time>2026-08-30T08:42:10+02:00</time>
      </trkpt>
      <trkpt lat="43.58952" lon="2.99766">
        <ele>827.7002</ele>
        <time>2026-08-30T08:42:11+02:00</time>
        <extensions>
          <gpxtpx:TrackPointExtension xmlns:gpxtpx="http://www.garmin.com/xmlschemas/TrackPointExtension/v1">
            <gpxtpx:hr>148</gpxtpx:hr>
          </gpxtpx:TrackPointExtension>
        </extensions>
      </trkpt>
      <trkpt lat="43.58955" lon="2.99766">
        <ele>830.4004</ele>
        <time>2026-08-30T08:42:15+02:00</time>
      </trkpt>
      <trkpt lat="43.58955" lon="2.99765">
        <ele>830.4004</ele>
        <time>2026-08-30T08:42:16+02:00</time>
        <extensions>
          <gpxtpx:TrackPointExtension xmlns:gpxtpx="http://www.garmin.com/xmlschemas/TrackPointExtension/v1">
            <gpxtpx:hr>148</gpxtpx:hr>
          </gpxtpx:TrackPointExtension>
        </extensions>
      </trkpt>
      <trkpt lat="43.58957" lon="2.99763">
        <ele>832.5</ele>
        <time>2026-08-30T08:42:20+02:00</time>
      </trkpt>
      <trkpt lat="43.58957" lon="2.99763">
        <ele>832.5</ele>
        <time>2026-08-30T08:42:21+02:00</time>
        <extensions>
          <gpxtpx:TrackPointExtension xmlns:gpxtpx="http://www.garmin.com/xmlschemas/TrackPointExtension/v1">
            <gpxtpx:hr>147</gpxtpx:hr>
          </gpxtpx:TrackPointExtension>
        </extensions>
      </trkpt>
      <trkpt lat="43.58959" lon="2.9976">
        <ele>832.5</ele>
        <time>2026-08-30T08:42:25+02:00</time>
      </trkpt>
      <trkpt lat="43.58959" lon="2.9976">
        <ele>835.2998</ele>
        <time>2026-08-30T08:42:26+02:00</time>
        <extensions>
          <gpxtpx:TrackPointExtension xmlns:gpxtpx="http://www.garmin.com/xmlschemas/TrackPointExtension/v1">
            <gpxtpx:hr>149</gpxtpx:hr>
          </gpxtpx:TrackPointExtension>
        </extensions>
      </trkpt>
      <trkpt lat="43.58961" lon="2.99759">
        <ele>835.2998</ele>
        <time>2026-08-30T08:42:30+02:00</time>
      </trkpt>
      <trkpt lat="43.58961" lon="2.99758">
        <ele>835.2998</ele>
        <time>2026-08-30T08:42:31+02:00</time>
        <extensions>
          <gpxtpx:TrackPointExtension xmlns:gpxtpx="http://www.garmin.com/xmlschemas/TrackPointExtension/v1">
            <gpxtpx:hr>149</gpxtpx:hr>
          </gpxtpx:TrackPointExtension>
        </extensions>
      </trkpt>
      <trkpt lat="43.58963" lon="2.99756">
        <ele>835.2998</ele>
        <time>2026-08-30T08:42:35+02:00</time>
      </trkpt>
      <trkpt lat="43.58963" lon="2.99755">
        <ele>835.2998</ele>
        <time>2026-08-30T08:42:36+02:00</time>
        <extensions>
          <gpxtpx:TrackPointExtension xmlns:gpxtpx="http://www.garmin.com/xmlschemas/TrackPointExtension/v1">
            <gpxtpx:hr>151</gpxtpx:hr>
          </gpxtpx:TrackPointExtension>
        </extensions>
      </trkpt>
      <trkpt lat="43.58966" lon="2.99753">
        <ele>840.5</ele>
        <time>2026-08-30T08:42:40+02:00</time>
      </trkpt>
      <trkpt lat="43.58967" lon="2.99753">
        <ele>840.5</ele>
        <time>2026-08-30T08:42:41+02:00</time>
        <extensions>
          <gpxtpx:TrackPointExtension xmlns:gpxtpx="http://www.garmin.com/xmlschemas/TrackPointExtension/v1">
            <gpxtpx:hr>155</gpxtpx:hr>
          </gpxtpx:TrackPointExtension>
        </extensions>
      </trkpt>
      <trkpt lat="43.58969" lon="2.99751">
        <ele>840.5</ele>
        <time>2026-08-30T08:42:45+02:00</time>
      </trkpt>
      <trkpt lat="43.58969" lon="2.9975">
        <ele>840.5</ele>
        <time>2026-08-30T08:42:46+02:00</time>
        <extensions>
          <gpxtpx:TrackPointExtension xmlns:gpxtpx="http://www.garmin.com/xmlschemas/TrackPointExtension/v1">
            <gpxtpx:hr>154</gpxtpx:hr>
          </gpxtpx:TrackPointExtension>
        </extensions>
      </trkpt>
      <trkpt lat="43.58969" lon="2.9975">
        <ele>840.5</ele>
        <time>2026-08-30T08:42:50+02:00</time>
      </trkpt>
      <trkpt lat="43.58969" lon="2.99749">
        <ele>840.5</ele>
        <time>2026-08-30T08:42:51+02:00</time>
        <extensions>
          <gpxtpx:TrackPointExtension xmlns:gpxtpx="http://www.garmin.com/xmlschemas/TrackPointExtension/v1">
            <gpxtpx:hr>158</gpxtpx:hr>
          </gpxtpx:TrackPointExtension>
        </extensions>
      </trkpt>
      <trkpt lat="43.58969" lon="2.99746">
        <ele>842.9004</ele>
        <time>2026-08-30T08:42:55+02:00</time>
      </trkpt>
      <trkpt lat="43.58969" lon="2.99746">
        <ele>842.9004</ele>
        <time>2026-08-30T08:42:56+02:00</time>
        <extensions>
          <gpxtpx:TrackPointExtension xmlns:gpxtpx="http://www.garmin.com/xmlschemas/TrackPointExtension/v1">
            <gpxtpx:hr>160</gpxtpx:hr>
          </gpxtpx:TrackPointExtension>
        </extensions>
      </trkpt>
      <trkpt lat="43.5897" lon="2.99743">
        <ele>842.9004</ele>
        <time>2026-08-30T08:43:00+02:00</time>
      </trkpt>
      <trkpt lat="43.58971" lon="2.99742">
        <ele>842.9004</ele>
        <time>2026-08-30T08:43:01+02:00</time>
        <extensions>
          <gpxtpx:TrackPointExtension xmlns:gpxtpx="http://www.garmin.com/xmlschemas/TrackPointExtension/v1">
            <gpxtpx:hr>165</gpxtpx:hr>
          </gpxtpx:TrackPointExtension>
        </extensions>
      </trkpt>
      <trkpt lat="43.58975" lon="2.99741">
        <ele>845.9004</ele>
        <time>2026-08-30T08:43:05+02:00</time>
      </trkpt>
      <trkpt lat="43.58976" lon="2.99741">
        <ele>845.9004</ele>
        <time>2026-08-30T08:43:06+02:00</time>
        <extensions>
          <gpxtpx:TrackPointExtension xmlns:gpxtpx="http://www.garmin.com/xmlschemas/TrackPointExtension/v1">
            <gpxtpx:hr>166</gpxtpx:hr>
          </gpxtpx:TrackPointExtension>
        </extensions>
      </trkpt>
      <trkpt lat="43.5898" lon="2.99741">
        <ele>848.7002</ele>
        <time>2026-08-30T08:43:10+02:00</time>
      </trkpt>
      <trkpt lat="43.5898" lon="2.99741">
        <ele>848.7002</ele>
        <time>2026-08-30T08:43:11+02:00</time>
        <extensions>
          <gpxtpx:TrackPointExtension xmlns:gpxtpx="http://www.garmin.com/xmlschemas/TrackPointExtension/v1">
            <gpxtpx:hr>167</gpxtpx:hr>
          </gpxtpx:TrackPointExtension>
        </extensions>
      </trkpt>
      <trkpt lat="43.58983" lon="2.99739">
        <ele>848.7002</ele>
        <time>2026-08-30T08:43:15+02:00</time>
      </trkpt>
      <trkpt lat="43.58984" lon="2.99739">
        <ele>848.7002</ele>
        <time>2026-08-30T08:43:16+02:00</time>
        <extensions>
          <gpxtpx:TrackPointExtension xmlns:gpxtpx="http://www.garmin.com/xmlschemas/TrackPointExtension/v1">
            <gpxtpx:hr>165</gpxtpx:hr>
          </gpxtpx:TrackPointExtension>
        </extensions>
      </trkpt>
      <trkpt lat="43.58986" lon="2.99737">
        <ele>854.1006</ele>
        <time>2026-08-30T08:43:20+02:00</time>
      </trkpt>
      <trkpt lat="43.58986" lon="2.99736">
        <ele>854.1006</ele>
        <time>2026-08-30T08:43:21+02:00</time>
        <extensions>
          <gpxtpx:TrackPointExtension xmlns:gpxtpx="http://www.garmin.com/xmlschemas/TrackPointExtension/v1">
            <gpxtpx:hr>158</gpxtpx:hr>
          </gpxtpx:TrackPointExtension>
        </extensions>
      </trkpt>
      <trkpt lat="43.58988" lon="2.99735">
        <ele>854.1006</ele>
        <time>2026-08-30T08:43:25+02:00</time>
      </trkpt>
      <trkpt lat="43.58988" lon="2.99736">
        <ele>854.1006</ele>
        <time>2026-08-30T08:43:26+02:00</time>
        <extensions>
          <gpxtpx:TrackPointExtension xmlns:gpxtpx="http://www.garmin.com/xmlschemas/TrackPointExtension/v1">
            <gpxtpx:hr>156</gpxtpx:hr>
          </gpxtpx:TrackPointExtension>
        </extensions>
      </trkpt>
      <trkpt lat="43.58991" lon="2.99736">
        <ele>856.7002</ele>
        <time>2026-08-30T08:43:30+02:00</time>
      </trkpt>
      <trkpt lat="43.58992" lon="2.99736">
        <ele>856.7002</ele>
        <time>2026-08-30T08:43:31+02:00</time>
        <extensions>
          <gpxtpx:TrackPointExtension xmlns:gpxtpx="http://www.garmin.com/xmlschemas/TrackPointExtension/v1">
            <gpxtpx:hr>155</gpxtpx:hr>
          </gpxtpx:TrackPointExtension>
        </extensions>
      </trkpt>
      <trkpt lat="43.58994" lon="2.99736">
        <ele>856.7002</ele>
        <time>2026-08-30T08:43:35+02:00</time>
      </trkpt>
      <trkpt lat="43.58995" lon="2.99735">
        <ele>856.7002</ele>
        <time>2026-08-30T08:43:36+02:00</time>
        <extensions>
          <gpxtpx:TrackPointExtension xmlns:gpxtpx="http://www.garmin.com/xmlschemas/TrackPointExtension/v1">
            <gpxtpx:hr>153</gpxtpx:hr>
          </gpxtpx:TrackPointExtension>
        </extensions>
      </trkpt>
      <trkpt lat="43.58997" lon="2.99734">
        <ele>859.2002</ele>
        <time>2026-08-30T08:43:40+02:00</time>
      </trkpt>
      <trkpt lat="43.58998" lon="2.99734">
        <ele>859.2002</ele>
        <time>2026-08-30T08:43:41+02:00</time>
        <extensions>
          <gpxtpx:TrackPointExtension xmlns:gpxtpx="http://www.garmin.com/xmlschemas/TrackPointExtension/v1">
            <gpxtpx:hr>152</gpxtpx:hr>
          </gpxtpx:TrackPointExtension>
        </extensions>
      </trkpt>
      <trkpt lat="43.58999" lon="2.99731">
        <ele>859.2002</ele>
        <time>2026-08-30T08:43:45+02:00</time>
      </trkpt>
      <trkpt lat="43.58999" lon="2.9973">
        <ele>859.2002</ele>
        <time>2026-08-30T08:43:46+02:00</time>
        <extensions>
          <gpxtpx:TrackPointExtension xmlns:gpxtpx="http://www.garmin.com/xmlschemas/TrackPointExtension/v1">
            <gpxtpx:hr>149</gpxtpx:hr>
          </gpxtpx:TrackPointExtension>
        </extensions>
      </trkpt>
      <trkpt lat="43.58999" lon="2.99725">
        <ele>862.1006</ele>
        <time>2026-08-30T08:43:50+02:00</time>
      </trkpt>
      <trkpt lat="43.59" lon="2.99724">
        <ele>862.1006</ele>
        <time>2026-08-30T08:43:51+02:00</time>
        <extensions>
          <gpxtpx:TrackPointExtension xmlns:gpxtpx="http://www.garmin.com/xmlschemas/TrackPointExtension/v1">
            <gpxtpx:hr>149</gpxtpx:hr>
          </gpxtpx:TrackPointExtension>
        </extensions>
      </trkpt>
      <trkpt lat="43.59002" lon="2.99722">
        <ele>862.1006</ele>
        <time>2026-08-30T08:43:55+02:00</time>
      </trkpt>
      <trkpt lat="43.59003" lon="2.99722">
        <ele>862.1006</ele>
        <time>2026-08-30T08:43:56+02:00</time>
        <extensions>
          <gpxtpx:TrackPointExtension xmlns:gpxtpx="http://www.garmin.com/xmlschemas/TrackPointExtension/v1">
            <gpxtpx:hr>149</gpxtpx:hr>
          </gpxtpx:TrackPointExtension>
        </extensions>
      </trkpt>
      <trkpt lat="43.59004" lon="2.99722">
        <ele>864.2998</ele>
        <time>2026-08-30T08:44:00+02:00</time>
      </trkpt>
      <trkpt lat="43.59004" lon="2.99722">
        <ele>864.2998</ele>
        <time>2026-08-30T08:44:01+02:00</time>
        <extensions>
          <gpxtpx:TrackPointExtension xmlns:gpxtpx="http://www.garmin.com/xmlschemas/TrackPointExtension/v1">
            <gpxtpx:hr>146</gpxtpx:hr>
          </gpxtpx:TrackPointExtension>
        </extensions>
      </trkpt>
      <trkpt lat="43.59006" lon="2.9972">
        <ele>867.1006</ele>
        <time>2026-08-30T08:44:05+02:00</time>
      </trkpt>
      <trkpt lat="43.59006" lon="2.99719">
        <ele>867.1006</ele>
        <time>2026-08-30T08:44:06+02:00</time>
        <extensions>
          <gpxtpx:TrackPointExtension xmlns:gpxtpx="http://www.garmin.com/xmlschemas/TrackPointExtension/v1">
            <gpxtpx:hr>144</gpxtpx:hr>
          </gpxtpx:TrackPointExtension>
        </extensions>
      </trkpt>
      <trkpt lat="43.59007" lon="2.99717">
        <ele>867.1006</ele>
        <time>2026-08-30T08:44:10+02:00</time>
      </trkpt>
      <trkpt lat="43.59008" lon="2.99716">
        <ele>867.1006</ele>
        <time>2026-08-30T08:44:11+02:00</time>
        <extensions>
          <gpxtpx:TrackPointExtension xmlns:gpxtpx="http://www.garmin.com/xmlschemas/TrackPointExtension/v1">
            <gpxtpx:hr>145</gpxtpx:hr>
          </gpxtpx:TrackPointExtension>
        </extensions>
      </trkpt>
      <trkpt lat="43.5901" lon="2.99714">
        <ele>869.2998</ele>
        <time>2026-08-30T08:44:15+02:00</time>
      </trkpt>
      <trkpt lat="43.5901" lon="2.99714">
        <ele>869.2998</ele>
        <time>2026-08-30T08:44:16+02:00</time>
        <extensions>
          <gpxtpx:TrackPointExtension xmlns:gpxtpx="http://www.garmin.com/xmlschemas/TrackPointExtension/v1">
            <gpxtpx:hr>144</gpxtpx:hr>
          </gpxtpx:TrackPointExtension>
        </extensions>
      </trkpt>
      <trkpt lat="43.59012" lon="2.99713">
        <ele>869.2998</ele>
        <time>2026-08-30T08:44:20+02:00</time>
      </trkpt>
      <trkpt lat="43.59012" lon="2.99712">
        <ele>869.2998</ele>
        <time>2026-08-30T08:44:21+02:00</time>
        <extensions>
          <gpxtpx:TrackPointExtension xmlns:gpxtpx="http://www.garmin.com/xmlschemas/TrackPointExtension/v1">
            <gpxtpx:hr>143</gpxtpx:hr>
          </gpxtpx:TrackPointExtension>
        </extensions>
      </trkpt>
      <trkpt lat="43.59012" lon="2.99709">
        <ele>872</ele>
        <time>2026-08-30T08:44:25+02:00</time>
      </trkpt>
      <trkpt lat="43.59012" lon="2.99708">
        <ele>872</ele>
        <time>2026-08-30T08:44:26+02:00</time>
        <extensions>
          <gpxtpx:TrackPointExtension xmlns:gpxtpx="http://www.garmin.com/xmlschemas/TrackPointExtension/v1">
            <gpxtpx:hr>144</gpxtpx:hr>
          </gpxtpx:TrackPointExtension>
        </extensions>
      </trkpt>
      <trkpt lat="43.59012" lon="2.99705">
        <ele>872</ele>
        <time>2026-08-30T08:44:30+02:00</time>
      </trkpt>
      <trkpt lat="43.59013" lon="2.99704">
        <ele>872</ele>
        <time>2026-08-30T08:44:31+02:00</time>
        <extensions>
          <gpxtpx:TrackPointExtension xmlns:gpxtpx="http://www.garmin.com/xmlschemas/TrackPointExtension/v1">
            <gpxtpx:hr>143</gpxtpx:hr>
          </gpxtpx:TrackPointExtension>
        </extensions>
      </trkpt>
      <trkpt lat="43.59014" lon="2.99701">
        <ele>874.6006</ele>
        <time>2026-08-30T08:44:35+02:00</time>
      </trkpt>
      <trkpt lat="43.59014" lon="2.997">
        <ele>874.6006</ele>
        <time>2026-08-30T08:44:36+02:00</time>
        <extensions>
          <gpxtpx:TrackPointExtension xmlns:gpxtpx="http://www.garmin.com/xmlschemas/TrackPointExtension/v1">
            <gpxtpx:hr>145</gpxtpx:hr>
          </gpxtpx:TrackPointExtension>
        </extensions>
      </trkpt>
      <trkpt lat="43.59014" lon="2.99698">
        <ele>874.6006</ele>
        <time>2026-08-30T08:44:40+02:00</time>
      </trkpt>
      <trkpt lat="43.59014" lon="2.99697">
        <ele>874.6006</ele>
        <time>2026-08-30T08:44:41+02:00</time>
        <extensions>
          <gpxtpx:TrackPointExtension xmlns:gpxtpx="http://www.garmin.com/xmlschemas/TrackPointExtension/v1">
            <gpxtpx:hr>145</gpxtpx:hr>
          </gpxtpx:TrackPointExtension>
        </extensions>
      </trkpt>
      <trkpt lat="43.59013" lon="2.99695">
        <ele>876.9004</ele>
        <time>2026-08-30T08:44:45+02:00</time>
      </trkpt>
      <trkpt lat="43.59013" lon="2.99694">
        <ele>876.9004</ele>
        <time>2026-08-30T08:44:46+02:00</time>
        <extensions>
          <gpxtpx:TrackPointExtension xmlns:gpxtpx="http://www.garmin.com/xmlschemas/TrackPointExtension/v1">
            <gpxtpx:hr>144</gpxtpx:hr>
          </gpxtpx:TrackPointExtension>
        </extensions>
      </trkpt>
      <trkpt lat="43.59011" lon="2.99692">
        <ele>876.9004</ele>
        <time>2026-08-30T08:44:50+02:00</time>
      </trkpt>
      <trkpt lat="43.5901" lon="2.99691">
        <ele>876.9004</ele>
        <time>2026-08-30T08:44:51+02:00</time>
        <extensions>
          <gpxtpx:TrackPointExtension xmlns:gpxtpx="http://www.garmin.com/xmlschemas/TrackPointExtension/v1">
            <gpxtpx:hr>144</gpxtpx:hr>
          </gpxtpx:TrackPointExtension>
        </extensions>
      </trkpt>
      <trkpt lat="43.59008" lon="2.99689">
        <ele>874.6006</ele>
        <time>2026-08-30T08:44:55+02:00</time>
      </trkpt>
      <trkpt lat="43.59008" lon="2.99689">
        <ele>874.6006</ele>
        <time>2026-08-30T08:44:56+02:00</time>
        <extensions>
          <gpxtpx:TrackPointExtension xmlns:gpxtpx="http://www.garmin.com/xmlschemas/TrackPointExtension/v1">
            <gpxtpx:hr>143</gpxtpx:hr>
          </gpxtpx:TrackPointExtension>
        </extensions>
      </trkpt>
      <trkpt lat="43.59006" lon="2.99688">
        <ele>874.6006</ele>
        <time>2026-08-30T08:45:00+02:00</time>
      </trkpt>
      <trkpt lat="43.59005" lon="2.99688">
        <ele>874.6006</ele>
        <time>2026-08-30T08:45:01+02:00</time>
        <extensions>
          <gpxtpx:TrackPointExtension xmlns:gpxtpx="http://www.garmin.com/xmlschemas/TrackPointExtension/v1">
            <gpxtpx:hr>147</gpxtpx:hr>
          </gpxtpx:TrackPointExtension>
        </extensions>
      </trkpt>
      <trkpt lat="43.59002" lon="2.99688">
        <ele>872</ele>
        <time>2026-08-30T08:45:05+02:00</time>
      </trkpt>
      <trkpt lat="43.59002" lon="2.99687">
        <ele>872</ele>
        <time>2026-08-30T08:45:06+02:00</time>
        <extensions>
          <gpxtpx:TrackPointExtension xmlns:gpxtpx="http://www.garmin.com/xmlschemas/TrackPointExtension/v1">
            <gpxtpx:hr>146</gpxtpx:hr>
          </gpxtpx:TrackPointExtension>
        </extensions>
      </trkpt>
      <trkpt lat="43.59" lon="2.99684">
        <ele>874</ele>
        <time>2026-08-30T08:45:10+02:00</time>
      </trkpt>
      <trkpt lat="43.59" lon="2.99683">
        <ele>874</ele>
        <time>2026-08-30T08:45:11+02:00</time>
        <extensions>
          <gpxtpx:TrackPointExtension xmlns:gpxtpx="http://www.garmin.com/xmlschemas/TrackPointExtension/v1">
            <gpxtpx:hr>146</gpxtpx:hr>
          </gpxtpx:TrackPointExtension>
        </extensions>
      </trkpt>
      <trkpt lat="43.58999" lon="2.9968">
        <ele>874</ele>
        <time>2026-08-30T08:45:15+02:00</time>
      </trkpt>
      <trkpt lat="43.58999" lon="2.99679">
        <ele>874</ele>
        <time>2026-08-30T08:45:16+02:00</time>
        <extensions>
          <gpxtpx:TrackPointExtension xmlns:gpxtpx="http://www.garmin.com/xmlschemas/TrackPointExtension/v1">
            <gpxtpx:hr>142</gpxtpx:hr>
          </gpxtpx:TrackPointExtension>
        </extensions>
      </trkpt>
      <trkpt lat="43.58998" lon="2.99677">
        <ele>875.7002</ele>
        <time>2026-08-30T08:45:20+02:00</time>
      </trkpt>
      <trkpt lat="43.58998" lon="2.99676">
        <ele>875.7002</ele>
        <time>2026-08-30T08:45:21+02:00</time>
        <extensions>
          <gpxtpx:TrackPointExtension xmlns:gpxtpx="http://www.garmin.com/xmlschemas/TrackPointExtension/v1">
            <gpxtpx:hr>143</gpxtpx:hr>
          </gpxtpx:TrackPointExtension>
        </extensions>
      </trkpt>
      <trkpt lat="43.58998" lon="2.99674">
        <ele>875.7002</ele>
        <time>2026-08-30T08:45:25+02:00</time>
      </trkpt>
      <trkpt lat="43.58997" lon="2.99674">
        <ele>875.7002</ele>
        <time>2026-08-30T08:45:26+02:00</time>
        <extensions>
          <gpxtpx:TrackPointExtension xmlns:gpxtpx="http://www.garmin.com/xmlschemas/TrackPointExtension/v1">
            <gpxtpx:hr>142</gpxtpx:hr>
          </gpxtpx:TrackPointExtension>
        </extensions>
      </trkpt>
      <trkpt lat="43.58995" lon="2.99673">
        <ele>872.6006</ele>
        <time>2026-08-30T08:45:30+02:00</time>
      </trkpt>
      <trkpt lat="43.58995" lon="2.99673">
        <ele>872.6006</ele>
        <time>2026-08-30T08:45:31+02:00</time>
        <extensions>
          <gpxtpx:TrackPointExtension xmlns:gpxtpx="http://www.garmin.com/xmlschemas/TrackPointExtension/v1">
            <gpxtpx:hr>143</gpxtpx:hr>
          </gpxtpx:TrackPointExtension>
        </extensions>
      </trkpt>
      <trkpt lat="43.58993" lon="2.99671">
        <ele>872.6006</ele>
        <time>2026-08-30T08:45:35+02:00</time>
      </trkpt>
      <trkpt lat="43.58993" lon="2.9967">
        <ele>872.6006</ele>
        <time>2026-08-30T08:45:36+02:00</time>
        <extensions>
          <gpxtpx:TrackPointExtension xmlns:gpxtpx="http://www.garmin.com/xmlschemas/TrackPointExtension/v1">
            <gpxtpx:hr>140</gpxtpx:hr>
          </gpxtpx:TrackPointExtension>
        </extensions>
      </trkpt>
      <trkpt lat="43.58991" lon="2.99668">
        <ele>874.2002</ele>
        <time>2026-08-30T08:45:40+02:00</time>
      </trkpt>
      <trkpt lat="43.5899" lon="2.99668">
        <ele>874.2002</ele>
        <time>2026-08-30T08:45:41+02:00</time>
        <extensions>
          <gpxtpx:TrackPointExtension xmlns:gpxtpx="http://www.garmin.com/xmlschemas/TrackPointExtension/v1">
            <gpxtpx:hr>140</gpxtpx:hr>
          </gpxtpx:TrackPointExtension>
        </extensions>
      </trkpt>
      <trkpt lat="43.58988" lon="2.99666">
        <ele>870.7998</ele>
        <time>2026-08-30T08:45:45+02:00</time>
      </trkpt>
      <trkpt lat="43.58987" lon="2.99665">
        <ele>870.7998</ele>
        <time>2026-08-30T08:45:46+02:00</time>
        <extensions>
          <gpxtpx:TrackPointExtension xmlns:gpxtpx="http://www.garmin.com/xmlschemas/TrackPointExtension/v1">
            <gpxtpx:hr>134</gpxtpx:hr>
          </gpxtpx:TrackPointExtension>
        </extensions>
      </trkpt>
      <trkpt lat="43.58986" lon="2.9966">
        <ele>872</ele>
        <time>2026-08-30T08:45:50+02:00</time>
      </trkpt>
      <trkpt lat="43.58987" lon="2.99659">
        <ele>872</ele>
        <time>2026-08-30T08:45:51+02:00</time>
        <extensions>
          <gpxtpx:TrackPointExtension xmlns:gpxtpx="http://www.garmin.com/xmlschemas/TrackPointExtension/v1">
            <gpxtpx:hr>137</gpxtpx:hr>
          </gpxtpx:TrackPointExtension>
        </extensions>
      </trkpt>
      <trkpt lat="43.58988" lon="2.99655">
        <ele>872</ele>
        <time>2026-08-30T08:45:55+02:00</time>
      </trkpt>
      <trkpt lat="43.58988" lon="2.99654">
        <ele>872</ele>
        <time>2026-08-30T08:45:56+02:00</time>
        <extensions>
          <gpxtpx:TrackPointExtension xmlns:gpxtpx="http://www.garmin.com/xmlschemas/TrackPointExtension/v1">
            <gpxtpx:hr>138</gpxtpx:hr>
          </gpxtpx:TrackPointExtension>
        </extensions>
      </trkpt>
      <trkpt lat="43.58989" lon="2.9965">
        <ele>873.1006</ele>
        <time>2026-08-30T08:46:00+02:00</time>
      </trkpt>
      <trkpt lat="43.5899" lon="2.99649">
        <ele>873.1006</ele>
        <time>2026-08-30T08:46:01+02:00</time>
        <extensions>
          <gpxtpx:TrackPointExtension xmlns:gpxtpx="http://www.garmin.com/xmlschemas/TrackPointExtension/v1">
            <gpxtpx:hr>143</gpxtpx:hr>
          </gpxtpx:TrackPointExtension>
        </extensions>
      </trkpt>
      <trkpt lat="43.58989" lon="2.99645">
        <ele>873.1006</ele>
        <time>2026-08-30T08:46:05+02:00</time>
      </trkpt>
      <trkpt lat="43.58989" lon="2.99644">
        <ele>873.1006</ele>
        <time>2026-08-30T08:46:06+02:00</time>
        <extensions>
          <gpxtpx:TrackPointExtension xmlns:gpxtpx="http://www.garmin.com/xmlschemas/TrackPointExtension/v1">
            <gpxtpx:hr>146</gpxtpx:hr>
          </gpxtpx:TrackPointExtension>
        </extensions>
      </trkpt>
      <trkpt lat="43.58989" lon="2.99639">
        <ele>873.9004</ele>
        <time>2026-08-30T08:46:10+02:00</time>
      </trkpt>
      <trkpt lat="43.58989" lon="2.99639">
        <ele>873.9004</ele>
        <time>2026-08-30T08:46:11+02:00</time>
        <extensions>
          <gpxtpx:TrackPointExtension xmlns:gpxtpx="http://www.garmin.com/xmlschemas/TrackPointExtension/v1">
            <gpxtpx:hr>146</gpxtpx:hr>
          </gpxtpx:TrackPointExtension>
        </extensions>
      </trkpt>
      <trkpt lat="43.5899" lon="2.99634">
        <ele>874.5</ele>
        <time>2026-08-30T08:46:15+02:00</time>
      </trkpt>
      <trkpt lat="43.5899" lon="2.99634">
        <ele>874.5</ele>
        <time>2026-08-30T08:46:16+02:00</time>
        <extensions>
          <gpxtpx:TrackPointExtension xmlns:gpxtpx="http://www.garmin.com/xmlschemas/TrackPointExtension/v1">
            <gpxtpx:hr>145</gpxtpx:hr>
          </gpxtpx:TrackPointExtension>
        </extensions>
      </trkpt>
      <trkpt lat="43.5899" lon="2.9963">
        <ele>878.2002</ele>
        <time>2026-08-30T08:46:20+02:00</time>
      </trkpt>
      <trkpt lat="43.5899" lon="2.99629">
        <ele>878.2002</ele>
        <time>2026-08-30T08:46:21+02:00</time>
        <extensions>
          <gpxtpx:TrackPointExtension xmlns:gpxtpx="http://www.garmin.com/xmlschemas/TrackPointExtension/v1">
            <gpxtpx:hr>144</gpxtpx:hr>
          </gpxtpx:TrackPointExtension>
        </extensions>
      </trkpt>
      <trkpt lat="43.58992" lon="2.99625">
        <ele>878.6006</ele>
        <time>2026-08-30T08:46:25+02:00</time>
      </trkpt>
      <trkpt lat="43.58993" lon="2.99624">
        <ele>878.6006</ele>
        <time>2026-08-30T08:46:26+02:00</time>
        <extensions>
          <gpxtpx:TrackPointExtension xmlns:gpxtpx="http://www.garmin.com/xmlschemas/TrackPointExtension/v1">
            <gpxtpx:hr>144</gpxtpx:hr>
          </gpxtpx:TrackPointExtension>
        </extensions>
      </trkpt>
      <trkpt lat="43.58995" lon="2.99621">
        <ele>878.6006</ele>
        <time>2026-08-30T08:46:30+02:00</time>
      </trkpt>
      <trkpt lat="43.58996" lon="2.9962">
        <ele>878.6006</ele>
        <time>2026-08-30T08:46:31+02:00</time>
        <extensions>
          <gpxtpx:TrackPointExtension xmlns:gpxtpx="http://www.garmin.com/xmlschemas/TrackPointExtension/v1">
            <gpxtpx:hr>143</gpxtpx:hr>
          </gpxtpx:TrackPointExtension>
        </extensions>
      </trkpt>
      <trkpt lat="43.58998" lon="2.99617">
        <ele>882.2998</ele>
        <time>2026-08-30T08:46:35+02:00</time>
      </trkpt>
      <trkpt lat="43.58998" lon="2.99617">
        <ele>882.2998</ele>
        <time>2026-08-30T08:46:36+02:00</time>
        <extensions>
          <gpxtpx:TrackPointExtension xmlns:gpxtpx="http://www.garmin.com/xmlschemas/TrackPointExtension/v1">
            <gpxtpx:hr>140</gpxtpx:hr>
          </gpxtpx:TrackPointExtension>
        </extensions>
      </trkpt>
      <trkpt lat="43.59001" lon="2.99615">
        <ele>882.2998</ele>
        <time>2026-08-30T08:46:40+02:00</time>
      </trkpt>
      <trkpt lat="43.59001" lon="2.99615">
        <ele>882.2998</ele>
        <time>2026-08-30T08:46:41+02:00</time>
        <extensions>
          <gpxtpx:TrackPointExtension xmlns:gpxtpx="http://www.garmin.com/xmlschemas/TrackPointExtension/v1">
            <gpxtpx:hr>137</gpxtpx:hr>
          </gpxtpx:TrackPointExtension>
        </extensions>
      </trkpt>
      <trkpt lat="43.59004" lon="2.99617">
        <ele>885.5</ele>
        <time>2026-08-30T08:46:45+02:00</time>
      </trkpt>
      <trkpt lat="43.59005" lon="2.99618">
        <ele>885.5</ele>
        <time>2026-08-30T08:46:46+02:00</time>
        <extensions>
          <gpxtpx:TrackPointExtension xmlns:gpxtpx="http://www.garmin.com/xmlschemas/TrackPointExtension/v1">
            <gpxtpx:hr>138</gpxtpx:hr>
          </gpxtpx:TrackPointExtension>
        </extensions>
      </trkpt>
      <trkpt lat="43.59006" lon="2.99622">
        <ele>885.2002</ele>
        <time>2026-08-30T08:46:50+02:00</time>
      </trkpt>
      <trkpt lat="43.59007" lon="2.99623">
        <ele>885.2002</ele>
        <time>2026-08-30T08:46:51+02:00</time>
        <extensions>
          <gpxtpx:TrackPointExtension xmlns:gpxtpx="http://www.garmin.com/xmlschemas/TrackPointExtension/v1">
            <gpxtpx:hr>139</gpxtpx:hr>
          </gpxtpx:TrackPointExtension>
        </extensions>
      </trkpt>
      <trkpt lat="43.59009" lon="2.99625">
        <ele>885.2002</ele>
        <time>2026-08-30T08:46:55+02:00</time>
      </trkpt>
      <trkpt lat="43.59009" lon="2.99626">
        <ele>888.2002</ele>
        <time>2026-08-30T08:46:56+02:00</time>
        <extensions>
          <gpxtpx:TrackPointExtension xmlns:gpxtpx="http://www.garmin.com/xmlschemas/TrackPointExtension/v1">
            <gpxtpx:hr>139</gpxtpx:hr>
          </gpxtpx:TrackPointExtension>
        </extensions>
      </trkpt>
      <trkpt lat="43.59011" lon="2.9963">
        <ele>887.5</ele>
        <time>2026-08-30T08:47:00+02:00</time>
      </trkpt>
      <trkpt lat="43.59011" lon="2.99631">
        <ele>887.5</ele>
        <time>2026-08-30T08:47:01+02:00</time>
        <extensions>
          <gpxtpx:TrackPointExtension xmlns:gpxtpx="http://www.garmin.com/xmlschemas/TrackPointExtension/v1">
            <gpxtpx:hr>141</gpxtpx:hr>
          </gpxtpx:TrackPointExtension>
        </extensions>
      </trkpt>
      <trkpt lat="43.59015" lon="2.99632">
        <ele>887.5</ele>
        <time>2026-08-30T08:47:05+02:00</time>
      </trkpt>
      <trkpt lat="43.59015" lon="2.99631">
        <ele>890.2002</ele>
        <time>2026-08-30T08:47:06+02:00</time>
        <extensions>
          <gpxtpx:TrackPointExtension xmlns:gpxtpx="http://www.garmin.com/xmlschemas/TrackPointExtension/v1">
            <gpxtpx:hr>140</gpxtpx:hr>
          </gpxtpx:TrackPointExtension>
        </extensions>
      </trkpt>
      <trkpt lat="43.59019" lon="2.99632">
        <ele>890.2002</ele>
        <time>2026-08-30T08:47:10+02:00</time>
      </trkpt>
      <trkpt lat="43.5902" lon="2.99632">
        <ele>890.2002</ele>
        <time>2026-08-30T08:47:11+02:00</time>
        <extensions>
          <gpxtpx:TrackPointExtension xmlns:gpxtpx="http://www.garmin.com/xmlschemas/TrackPointExtension/v1">
            <gpxtpx:hr>139</gpxtpx:hr>
          </gpxtpx:TrackPointExtension>
        </extensions>
      </trkpt>
      <trkpt lat="43.59023" lon="2.99631">
        <ele>892.6006</ele>
        <time>2026-08-30T08:47:15+02:00</time>
      </trkpt>
      <trkpt lat="43.59025" lon="2.99631">
        <ele>892.6006</ele>
        <time>2026-08-30T08:47:16+02:00</time>
        <extensions>
          <gpxtpx:TrackPointExtension xmlns:gpxtpx="http://www.garmin.com/xmlschemas/TrackPointExtension/v1">
            <gpxtpx:hr>136</gpxtpx:hr>
          </gpxtpx:TrackPointExtension>
        </extensions>
      </trkpt>
      <trkpt lat="43.59027" lon="2.99629">
        <ele>892.6006</ele>
        <time>2026-08-30T08:47:20+02:00</time>
      </trkpt>
      <trkpt lat="43.59027" lon="2.99628">
        <ele>892.6006</ele>
        <time>2026-08-30T08:47:21+02:00</time>
        <extensions>
          <gpxtpx:TrackPointExtension xmlns:gpxtpx="http://www.garmin.com/xmlschemas/TrackPointExtension/v1">
            <gpxtpx:hr>134</gpxtpx:hr>
          </gpxtpx:TrackPointExtension>
        </extensions>
      </trkpt>
      <trkpt lat="43.59026" lon="2.99623">
        <ele>893.4004</ele>
        <time>2026-08-30T08:47:25+02:00</time>
      </trkpt>
      <trkpt lat="43.59026" lon="2.99622">
        <ele>893.4004</ele>
        <time>2026-08-30T08:47:26+02:00</time>
        <extensions>
          <gpxtpx:TrackPointExtension xmlns:gpxtpx="http://www.garmin.com/xmlschemas/TrackPointExtension/v1">
            <gpxtpx:hr>135</gpxtpx:hr>
          </gpxtpx:TrackPointExtension>
        </extensions>
      </trkpt>
      <trkpt lat="43.59025" lon="2.99616">
        <ele>893.9004</ele>
        <time>2026-08-30T08:47:30+02:00</time>
      </trkpt>
      <trkpt lat="43.59025" lon="2.99615">
        <ele>893.9004</ele>
        <time>2026-08-30T08:47:31+02:00</time>
        <extensions>
          <gpxtpx:TrackPointExtension xmlns:gpxtpx="http://www.garmin.com/xmlschemas/TrackPointExtension/v1">
            <gpxtpx:hr>137</gpxtpx:hr>
          </gpxtpx:TrackPointExtension>
        </extensions>
      </trkpt>
      <trkpt lat="43.59026" lon="2.99611">
        <ele>893.9004</ele>
        <time>2026-08-30T08:47:35+02:00</time>
      </trkpt>
      <trkpt lat="43.59026" lon="2.9961">
        <ele>893.9004</ele>
        <time>2026-08-30T08:47:36+02:00</time>
        <extensions>
          <gpxtpx:TrackPointExtension xmlns:gpxtpx="http://www.garmin.com/xmlschemas/TrackPointExtension/v1">
            <gpxtpx:hr>136</gpxtpx:hr>
          </gpxtpx:TrackPointExtension>
        </extensions>
      </trkpt>
      <trkpt lat="43.59027" lon="2.99606">
        <ele>894.1006</ele>
        <time>2026-08-30T08:47:40+02:00</time>
      </trkpt>
      <trkpt lat="43.59028" lon="2.99606">
        <ele>894.1006</ele>
        <time>2026-08-30T08:47:41+02:00</time>
        <extensions>
          <gpxtpx:TrackPointExtension xmlns:gpxtpx="http://www.garmin.com/xmlschemas/TrackPointExtension/v1">
            <gpxtpx:hr>137</gpxtpx:hr>
          </gpxtpx:TrackPointExtension>
        </extensions>
      </trkpt>
      <trkpt lat="43.59029" lon="2.99603">
        <ele>896.6006</ele>
        <time>2026-08-30T08:47:45+02:00</time>
      </trkpt>
      <trkpt lat="43.59029" lon="2.99602">
        <ele>896.6006</ele>
        <time>2026-08-30T08:47:46+02:00</time>
        <extensions>
          <gpxtpx:TrackPointExtension xmlns:gpxtpx="http://www.garmin.com/xmlschemas/TrackPointExtension/v1">
            <gpxtpx:hr>137</gpxtpx:hr>
          </gpxtpx:TrackPointExtension>
        </extensions>
      </trkpt>
      <trkpt lat="43.59032" lon="2.99602">
        <ele>896.6006</ele>
        <time>2026-08-30T08:47:50+02:00</time>
      </trkpt>
      <trkpt lat="43.59032" lon="2.99603">
        <ele>896.6006</ele>
        <time>2026-08-30T08:47:51+02:00</time>
        <extensions>
          <gpxtpx:TrackPointExtension xmlns:gpxtpx="http://www.garmin.com/xmlschemas/TrackPointExtension/v1">
            <gpxtpx:hr>137</gpxtpx:hr>
          </gpxtpx:TrackPointExtension>
        </extensions>
      </trkpt>
      <trkpt lat="43.59034" lon="2.99604">
        <ele>896.6006</ele>
        <time>2026-08-30T08:47:55+02:00</time>
      </trkpt>
      <trkpt lat="43.59034" lon="2.99604">
        <ele>898.7998</ele>
        <time>2026-08-30T08:47:56+02:00</time>
        <extensions>
          <gpxtpx:TrackPointExtension xmlns:gpxtpx="http://www.garmin.com/xmlschemas/TrackPointExtension/v1">
            <gpxtpx:hr>137</gpxtpx:hr>
          </gpxtpx:TrackPointExtension>
        </extensions>
      </trkpt>
      <trkpt lat="43.59037" lon="2.99606">
        <ele>898.7998</ele>
        <time>2026-08-30T08:48:00+02:00</time>
      </trkpt>
      <trkpt lat="43.59037" lon="2.99607">
        <ele>898.7998</ele>
        <time>2026-08-30T08:48:01+02:00</time>
        <extensions>
          <gpxtpx:TrackPointExtension xmlns:gpxtpx="http://www.garmin.com/xmlschemas/TrackPointExtension/v1">
            <gpxtpx:hr>137</gpxtpx:hr>
          </gpxtpx:TrackPointExtension>
        </extensions>
      </trkpt>
      <trkpt lat="43.59041" lon="2.99606">
        <ele>900.9004</ele>
        <time>2026-08-30T08:48:05+02:00</time>
      </trkpt>
      <trkpt lat="43.59042" lon="2.99606">
        <ele>900.9004</ele>
        <time>2026-08-30T08:48:06+02:00</time>
        <extensions>
          <gpxtpx:TrackPointExtension xmlns:gpxtpx="http://www.garmin.com/xmlschemas/TrackPointExtension/v1">
            <gpxtpx:hr>137</gpxtpx:hr>
          </gpxtpx:TrackPointExtension>
        </extensions>
      </trkpt>
      <trkpt lat="43.59042" lon="2.99602">
        <ele>900.9004</ele>
        <time>2026-08-30T08:48:10+02:00</time>
      </trkpt>
      <trkpt lat="43.59042" lon="2.99601">
        <ele>900.9004</ele>
        <time>2026-08-30T08:48:11+02:00</time>
        <extensions>
          <gpxtpx:TrackPointExtension xmlns:gpxtpx="http://www.garmin.com/xmlschemas/TrackPointExtension/v1">
            <gpxtpx:hr>137</gpxtpx:hr>
          </gpxtpx:TrackPointExtension>
        </extensions>
      </trkpt>
      <trkpt lat="43.59044" lon="2.99598">
        <ele>901.1006</ele>
        <time>2026-08-30T08:48:15+02:00</time>
      </trkpt>
      <trkpt lat="43.59045" lon="2.99598">
        <ele>901.1006</ele>
        <time>2026-08-30T08:48:16+02:00</time>
        <extensions>
          <gpxtpx:TrackPointExtension xmlns:gpxtpx="http://www.garmin.com/xmlschemas/TrackPointExtension/v1">
            <gpxtpx:hr>138</gpxtpx:hr>
          </gpxtpx:TrackPointExtension>
        </extensions>
      </trkpt>
      <trkpt lat="43.59049" lon="2.99598">
        <ele>903.1006</ele>
        <time>2026-08-30T08:48:20+02:00</time>
      </trkpt>
      <trkpt lat="43.5905" lon="2.99598">
        <ele>903.1006</ele>
        <time>2026-08-30T08:48:21+02:00</time>
        <extensions>
          <gpxtpx:TrackPointExtension xmlns:gpxtpx="http://www.garmin.com/xmlschemas/TrackPointExtension/v1">
            <gpxtpx:hr>140</gpxtpx:hr>
          </gpxtpx:TrackPointExtension>
        </extensions>
      </trkpt>
      <trkpt lat="43.59053" lon="2.99596">
        <ele>904.9004</ele>
        <time>2026-08-30T08:48:25+02:00</time>
      </trkpt>
      <trkpt lat="43.59054" lon="2.99595">
        <ele>904.9004</ele>
        <time>2026-08-30T08:48:26+02:00</time>
        <extensions>
          <gpxtpx:TrackPointExtension xmlns:gpxtpx="http://www.garmin.com/xmlschemas/TrackPointExtension/v1">
            <gpxtpx:hr>141</gpxtpx:hr>
          </gpxtpx:TrackPointExtension>
        </extensions>
      </trkpt>
      <trkpt lat="43.59057" lon="2.99593">
        <ele>904.9004</ele>
        <time>2026-08-30T08:48:30+02:00</time>
      </trkpt>
      <trkpt lat="43.59058" lon="2.99593">
        <ele>904.9004</ele>
        <time>2026-08-30T08:48:31+02:00</time>
        <extensions>
          <gpxtpx:TrackPointExtension xmlns:gpxtpx="http://www.garmin.com/xmlschemas/TrackPointExtension/v1">
            <gpxtpx:hr>141</gpxtpx:hr>
          </gpxtpx:TrackPointExtension>
        </extensions>
      </trkpt>
      <trkpt lat="43.59062" lon="2.99592">
        <ele>906.7002</ele>
        <time>2026-08-30T08:48:35+02:00</time>
      </trkpt>
      <trkpt lat="43.59062" lon="2.99591">
        <ele>906.7002</ele>
        <time>2026-08-30T08:48:36+02:00</time>
        <extensions>
          <gpxtpx:TrackPointExtension xmlns:gpxtpx="http://www.garmin.com/xmlschemas/TrackPointExtension/v1">
            <gpxtpx:hr>140</gpxtpx:hr>
          </gpxtpx:TrackPointExtension>
        </extensions>
      </trkpt>
      <trkpt lat="43.59065" lon="2.99587">
        <ele>908.2998</ele>
        <time>2026-08-30T08:48:40+02:00</time>
      </trkpt>
      <trkpt lat="43.59066" lon="2.99586">
        <ele>908.2998</ele>
        <time>2026-08-30T08:48:41+02:00</time>
        <extensions>
          <gpxtpx:TrackPointExtension xmlns:gpxtpx="http://www.garmin.com/xmlschemas/TrackPointExtension/v1">
            <gpxtpx:hr>142</gpxtpx:hr>
          </gpxtpx:TrackPointExtension>
        </extensions>
      </trkpt>
      <trkpt lat="43.59068" lon="2.99584">
        <ele>908.2998</ele>
        <time>2026-08-30T08:48:45+02:00</time>
      </trkpt>
      <trkpt lat="43.59069" lon="2.99583">
        <ele>908.2998</ele>
        <time>2026-08-30T08:48:46+02:00</time>
        <extensions>
          <gpxtpx:TrackPointExtension xmlns:gpxtpx="http://www.garmin.com/xmlschemas/TrackPointExtension/v1">
            <gpxtpx:hr>140</gpxtpx:hr>
          </gpxtpx:TrackPointExtension>
        </extensions>
      </trkpt>
      <trkpt lat="43.5907" lon="2.99581">
        <ele>908.2998</ele>
        <time>2026-08-30T08:48:50+02:00</time>
      </trkpt>
      <trkpt lat="43.5907" lon="2.9958">
        <ele>908.2998</ele>
        <time>2026-08-30T08:48:51+02:00</time>
        <extensions>
          <gpxtpx:TrackPointExtension xmlns:gpxtpx="http://www.garmin.com/xmlschemas/TrackPointExtension/v1">
            <gpxtpx:hr>141</gpxtpx:hr>
          </gpxtpx:TrackPointExtension>
        </extensions>
      </trkpt>
      <trkpt lat="43.59071" lon="2.99577">
        <ele>909.9004</ele>
        <time>2026-08-30T08:48:55+02:00</time>
      </trkpt>
      <trkpt lat="43.59072" lon="2.99577">
        <ele>909.9004</ele>
        <time>2026-08-30T08:48:56+02:00</time>
        <extensions>
          <gpxtpx:TrackPointExtension xmlns:gpxtpx="http://www.garmin.com/xmlschemas/TrackPointExtension/v1">
            <gpxtpx:hr>138</gpxtpx:hr>
          </gpxtpx:TrackPointExtension>
        </extensions>
      </trkpt>
      <trkpt lat="43.59074" lon="2.99574">
        <ele>909.9004</ele>
        <time>2026-08-30T08:49:00+02:00</time>
      </trkpt>
      <trkpt lat="43.59074" lon="2.99573">
        <ele>909.9004</ele>
        <time>2026-08-30T08:49:01+02:00</time>
        <extensions>
          <gpxtpx:TrackPointExtension xmlns:gpxtpx="http://www.garmin.com/xmlschemas/TrackPointExtension/v1">
            <gpxtpx:hr>137</gpxtpx:hr>
          </gpxtpx:TrackPointExtension>
        </extensions>
      </trkpt>
      <trkpt lat="43.59076" lon="2.99571">
        <ele>909.9004</ele>
        <time>2026-08-30T08:49:05+02:00</time>
      </trkpt>
      <trkpt lat="43.59077" lon="2.9957">
        <ele>909.9004</ele>
        <time>2026-08-30T08:49:06+02:00</time>
        <extensions>
          <gpxtpx:TrackPointExtension xmlns:gpxtpx="http://www.garmin.com/xmlschemas/TrackPointExtension/v1">
            <gpxtpx:hr>136</gpxtpx:hr>
          </gpxtpx:TrackPointExtension>
        </extensions>
      </trkpt>
      <trkpt lat="43.59078" lon="2.99568">
        <ele>911.6006</ele>
        <time>2026-08-30T08:49:10+02:00</time>
      </trkpt>
      <trkpt lat="43.59078" lon="2.99567">
        <ele>911.6006</ele>
        <time>2026-08-30T08:49:11+02:00</time>
        <extensions>
          <gpxtpx:TrackPointExtension xmlns:gpxtpx="http://www.garmin.com/xmlschemas/TrackPointExtension/v1">
            <gpxtpx:hr>139</gpxtpx:hr>
          </gpxtpx:TrackPointExtension>
        </extensions>
      </trkpt>
      <trkpt lat="43.59078" lon="2.99564">
        <ele>911.6006</ele>
        <time>2026-08-30T08:49:15+02:00</time>
      </trkpt>
      <trkpt lat="43.59078" lon="2.99563">
        <ele>911.6006</ele>
        <time>2026-08-30T08:49:16+02:00</time>
        <extensions>
          <gpxtpx:TrackPointExtension xmlns:gpxtpx="http://www.garmin.com/xmlschemas/TrackPointExtension/v1">
            <gpxtpx:hr>141</gpxtpx:hr>
          </gpxtpx:TrackPointExtension>
        </extensions>
      </trkpt>
      <trkpt lat="43.59079" lon="2.99561">
        <ele>911.6006</ele>
        <time>2026-08-30T08:49:20+02:00</time>
      </trkpt>
      <trkpt lat="43.5908" lon="2.9956">
        <ele>911.6006</ele>
        <time>2026-08-30T08:49:21+02:00</time>
        <extensions>
          <gpxtpx:TrackPointExtension xmlns:gpxtpx="http://www.garmin.com/xmlschemas/TrackPointExtension/v1">
            <gpxtpx:hr>139</gpxtpx:hr>
          </gpxtpx:TrackPointExtension>
        </extensions>
      </trkpt>
      <trkpt lat="43.59083" lon="2.99558">
        <ele>911.6006</ele>
        <time>2026-08-30T08:49:25+02:00</time>
      </trkpt>
      <trkpt lat="43.59083" lon="2.99557">
        <ele>911.6006</ele>
        <time>2026-08-30T08:49:26+02:00</time>
        <extensions>
          <gpxtpx:TrackPointExtension xmlns:gpxtpx="http://www.garmin.com/xmlschemas/TrackPointExtension/v1">
            <gpxtpx:hr>144</gpxtpx:hr>
          </gpxtpx:TrackPointExtension>
        </extensions>
      </trkpt>
      <trkpt lat="43.59084" lon="2.99555">
        <ele>913.5</ele>
        <time>2026-08-30T08:49:30+02:00</time>
      </trkpt>
      <trkpt lat="43.59085" lon="2.99555">
        <ele>913.5</ele>
        <time>2026-08-30T08:49:31+02:00</time>
        <extensions>
          <gpxtpx:TrackPointExtension xmlns:gpxtpx="http://www.garmin.com/xmlschemas/TrackPointExtension/v1">
            <gpxtpx:hr>142</gpxtpx:hr>
          </gpxtpx:TrackPointExtension>
        </extensions>
      </trkpt>
      <trkpt lat="43.59088" lon="2.99554">
        <ele>913.5</ele>
        <time>2026-08-30T08:49:35+02:00</time>
      </trkpt>
      <trkpt lat="43.59088" lon="2.99553">
        <ele>913.5</ele>
        <time>2026-08-30T08:49:36+02:00</time>
        <extensions>
          <gpxtpx:TrackPointExtension xmlns:gpxtpx="http://www.garmin.com/xmlschemas/TrackPointExtension/v1">
            <gpxtpx:hr>144</gpxtpx:hr>
          </gpxtpx:TrackPointExtension>
        </extensions>
      </trkpt>
      <trkpt lat="43.59089" lon="2.99551">
        <ele>913.5</ele>
        <time>2026-08-30T08:49:40+02:00</time>
      </trkpt>
      <trkpt lat="43.59089" lon="2.99551">
        <ele>913.5</ele>
        <time>2026-08-30T08:49:41+02:00</time>
        <extensions>
          <gpxtpx:TrackPointExtension xmlns:gpxtpx="http://www.garmin.com/xmlschemas/TrackPointExtension/v1">
            <gpxtpx:hr>144</gpxtpx:hr>
          </gpxtpx:TrackPointExtension>
        </extensions>
      </trkpt>
      <trkpt lat="43.5909" lon="2.99547">
        <ele>915.4004</ele>
        <time>2026-08-30T08:49:45+02:00</time>
      </trkpt>
      <trkpt lat="43.5909" lon="2.99545">
        <ele>915.4004</ele>
        <time>2026-08-30T08:49:46+02:00</time>
        <extensions>
          <gpxtpx:TrackPointExtension xmlns:gpxtpx="http://www.garmin.com/xmlschemas/TrackPointExtension/v1">
            <gpxtpx:hr>146</gpxtpx:hr>
          </gpxtpx:TrackPointExtension>
        </extensions>
      </trkpt>
      <trkpt lat="43.59092" lon="2.99541">
        <ele>915.4004</ele>
        <time>2026-08-30T08:49:50+02:00</time>
      </trkpt>
      <trkpt lat="43.59093" lon="2.9954">
        <ele>915.2998</ele>
        <time>2026-08-30T08:49:51+02:00</time>
        <extensions>
          <gpxtpx:TrackPointExtension xmlns:gpxtpx="http://www.garmin.com/xmlschemas/TrackPointExtension/v1">
            <gpxtpx:hr>148</gpxtpx:hr>
          </gpxtpx:TrackPointExtension>
        </extensions>
      </trkpt>
      <trkpt lat="43.59096" lon="2.99538">
        <ele>915.2998</ele>
        <time>2026-08-30T08:49:55+02:00</time>
      </trkpt>
      <trkpt lat="43.59097" lon="2.99537">
        <ele>917.2998</ele>
        <time>2026-08-30T08:49:56+02:00</time>
        <extensions>
          <gpxtpx:TrackPointExtension xmlns:gpxtpx="http://www.garmin.com/xmlschemas/TrackPointExtension/v1">
            <gpxtpx:hr>148</gpxtpx:hr>
          </gpxtpx:TrackPointExtension>
        </extensions>
      </trkpt>
      <trkpt lat="43.59099" lon="2.99535">
        <ele>917.2998</ele>
        <time>2026-08-30T08:50:00+02:00</time>
      </trkpt>
      <trkpt lat="43.591" lon="2.99534">
        <ele>917.2998</ele>
        <time>2026-08-30T08:50:01+02:00</time>
        <extensions>
          <gpxtpx:TrackPointExtension xmlns:gpxtpx="http://www.garmin.com/xmlschemas/TrackPointExtension/v1">
            <gpxtpx:hr>148</gpxtpx:hr>
          </gpxtpx:TrackPointExtension>
        </extensions>
      </trkpt>
      <trkpt lat="43.59103" lon="2.99532">
        <ele>919</ele>
        <time>2026-08-30T08:50:05+02:00</time>
      </trkpt>
      <trkpt lat="43.59104" lon="2.99531">
        <ele>919</ele>
        <time>2026-08-30T08:50:06+02:00</time>
        <extensions>
          <gpxtpx:TrackPointExtension xmlns:gpxtpx="http://www.garmin.com/xmlschemas/TrackPointExtension/v1">
            <gpxtpx:hr>147</gpxtpx:hr>
          </gpxtpx:TrackPointExtension>
        </extensions>
      </trkpt>
      <trkpt lat="43.59104" lon="2.99529">
        <ele>919</ele>
        <time>2026-08-30T08:50:10+02:00</time>
      </trkpt>
      <trkpt lat="43.59104" lon="2.99528">
        <ele>919</ele>
        <time>2026-08-30T08:50:11+02:00</time>
        <extensions>
          <gpxtpx:TrackPointExtension xmlns:gpxtpx="http://www.garmin.com/xmlschemas/TrackPointExtension/v1">
            <gpxtpx:hr>146</gpxtpx:hr>
          </gpxtpx:TrackPointExtension>
        </extensions>
      </trkpt>
      <trkpt lat="43.59101" lon="2.99525">
        <ele>917.1006</ele>
        <time>2026-08-30T08:50:15+02:00</time>
      </trkpt>
      <trkpt lat="43.59101" lon="2.99524">
        <ele>917.1006</ele>
        <time>2026-08-30T08:50:16+02:00</time>
        <extensions>
          <gpxtpx:TrackPointExtension xmlns:gpxtpx="http://www.garmin.com/xmlschemas/TrackPointExtension/v1">
            <gpxtpx:hr>145</gpxtpx:hr>
          </gpxtpx:TrackPointExtension>
        </extensions>
      </trkpt>
      <trkpt lat="43.59099" lon="2.9952">
        <ele>916.7998</ele>
        <time>2026-08-30T08:50:20+02:00</time>
      </trkpt>
      <trkpt lat="43.591" lon="2.99519">
        <ele>916.7998</ele>
        <time>2026-08-30T08:50:21+02:00</time>
        <extensions>
          <gpxtpx:TrackPointExtension xmlns:gpxtpx="http://www.garmin.com/xmlschemas/TrackPointExtension/v1">
            <gpxtpx:hr>145</gpxtpx:hr>
          </gpxtpx:TrackPointExtension>
        </extensions>
      </trkpt>
      <trkpt lat="43.59101" lon="2.99516">
        <ele>916.7998</ele>
        <time>2026-08-30T08:50:25+02:00</time>
      </trkpt>
      <trkpt lat="43.59101" lon="2.99516">
        <ele>916.7998</ele>
        <time>2026-08-30T08:50:26+02:00</time>
        <extensions>
          <gpxtpx:TrackPointExtension xmlns:gpxtpx="http://www.garmin.com/xmlschemas/TrackPointExtension/v1">
            <gpxtpx:hr>144</gpxtpx:hr>
          </gpxtpx:TrackPointExtension>
        </extensions>
      </trkpt>
      <trkpt lat="43.59103" lon="2.99512">
        <ele>918.4004</ele>
        <time>2026-08-30T08:50:30+02:00</time>
      </trkpt>
      <trkpt lat="43.59104" lon="2.99511">
        <ele>918.4004</ele>
        <time>2026-08-30T08:50:31+02:00</time>
        <extensions>
          <gpxtpx:TrackPointExtension xmlns:gpxtpx="http://www.garmin.com/xmlschemas/TrackPointExtension/v1">
            <gpxtpx:hr>142</gpxtpx:hr>
          </gpxtpx:TrackPointExtension>
        </extensions>
      </trkpt>
      <trkpt lat="43.59106" lon="2.99509">
        <ele>918.4004</ele>
        <time>2026-08-30T08:50:35+02:00</time>
      </trkpt>
      <trkpt lat="43.59107" lon="2.99509">
        <ele>918.4004</ele>
        <time>2026-08-30T08:50:36+02:00</time>
        <extensions>
          <gpxtpx:TrackPointExtension xmlns:gpxtpx="http://www.garmin.com/xmlschemas/TrackPointExtension/v1">
            <gpxtpx:hr>142</gpxtpx:hr>
          </gpxtpx:TrackPointExtension>
        </extensions>
      </trkpt>
      <trkpt lat="43.5911" lon="2.99508">
        <ele>920.2998</ele>
        <time>2026-08-30T08:50:40+02:00</time>
      </trkpt>
      <trkpt lat="43.59111" lon="2.99508">
        <ele>920.2998</ele>
        <time>2026-08-30T08:50:41+02:00</time>
        <extensions>
          <gpxtpx:TrackPointExtension xmlns:gpxtpx="http://www.garmin.com/xmlschemas/TrackPointExtension/v1">
            <gpxtpx:hr>140</gpxtpx:hr>
          </gpxtpx:TrackPointExtension>
        </extensions>
      </trkpt>
      <trkpt lat="43.59114" lon="2.99507">
        <ele>920.2998</ele>
        <time>2026-08-30T08:50:45+02:00</time>
      </trkpt>
      <trkpt lat="43.59114" lon="2.99506">
        <ele>919.9004</ele>
        <time>2026-08-30T08:50:46+02:00</time>
        <extensions>
          <gpxtpx:TrackPointExtension xmlns:gpxtpx="http://www.garmin.com/xmlschemas/TrackPointExtension/v1">
            <gpxtpx:hr>141</gpxtpx:hr>
          </gpxtpx:TrackPointExtension>
        </extensions>
      </trkpt>
      <trkpt lat="43.59117" lon="2.99506">
        <ele>921.9004</ele>
        <time>2026-08-30T08:50:50+02:00</time>
      </trkpt>
      <trkpt lat="43.59118" lon="2.99506">
        <ele>921.9004</ele>
        <time>2026-08-30T08:50:51+02:00</time>
        <extensions>
          <gpxtpx:TrackPointExtension xmlns:gpxtpx="http://www.garmin.com/xmlschemas/TrackPointExtension/v1">
            <gpxtpx:hr>142</gpxtpx:hr>
          </gpxtpx:TrackPointExtension>
        </extensions>
      </trkpt>
      <trkpt lat="43.59119" lon="2.99503">
        <ele>921.9004</ele>
        <time>2026-08-30T08:50:55+02:00</time>
      </trkpt>
      <trkpt lat="43.59119" lon="2.99502">
        <ele>921.9004</ele>
        <time>2026-08-30T08:50:56+02:00</time>
        <extensions>
          <gpxtpx:TrackPointExtension xmlns:gpxtpx="http://www.garmin.com/xmlschemas/TrackPointExtension/v1">
            <gpxtpx:hr>141</gpxtpx:hr>
          </gpxtpx:TrackPointExtension>
        </extensions>
      </trkpt>
      <trkpt lat="43.59119" lon="2.99498">
        <ele>921.9004</ele>
        <time>2026-08-30T08:51:00+02:00</time>
      </trkpt>
      <trkpt lat="43.59119" lon="2.99497">
        <ele>921.4004</ele>
        <time>2026-08-30T08:51:01+02:00</time>
        <extensions>
          <gpxtpx:TrackPointExtension xmlns:gpxtpx="http://www.garmin.com/xmlschemas/TrackPointExtension/v1">
            <gpxtpx:hr>141</gpxtpx:hr>
          </gpxtpx:TrackPointExtension>
        </extensions>
      </trkpt>
      <trkpt lat="43.59121" lon="2.99493">
        <ele>923.5</ele>
        <time>2026-08-30T08:51:05+02:00</time>
      </trkpt>
      <trkpt lat="43.59122" lon="2.99492">
        <ele>923.5</ele>
        <time>2026-08-30T08:51:06+02:00</time>
        <extensions>
          <gpxtpx:TrackPointExtension xmlns:gpxtpx="http://www.garmin.com/xmlschemas/TrackPointExtension/v1">
            <gpxtpx:hr>143</gpxtpx:hr>
          </gpxtpx:TrackPointExtension>
        </extensions>
      </trkpt>
      <trkpt lat="43.59125" lon="2.9949">
        <ele>923.5</ele>
        <time>2026-08-30T08:51:10+02:00</time>
      </trkpt>
      <trkpt lat="43.59125" lon="2.9949">
        <ele>923.5</ele>
        <time>2026-08-30T08:51:11+02:00</time>
        <extensions>
          <gpxtpx:TrackPointExtension xmlns:gpxtpx="http://www.garmin.com/xmlschemas/TrackPointExtension/v1">
            <gpxtpx:hr>143</gpxtpx:hr>
          </gpxtpx:TrackPointExtension>
        </extensions>
      </trkpt>
      <trkpt lat="43.59128" lon="2.99489">
        <ele>925</ele>
        <time>2026-08-30T08:51:15+02:00</time>
      </trkpt>
      <trkpt lat="43.59128" lon="2.99488">
        <ele>925</ele>
        <time>2026-08-30T08:51:16+02:00</time>
        <extensions>
          <gpxtpx:TrackPointExtension xmlns:gpxtpx="http://www.garmin.com/xmlschemas/TrackPointExtension/v1">
            <gpxtpx:hr>143</gpxtpx:hr>
          </gpxtpx:TrackPointExtension>
        </extensions>
      </trkpt>
      <trkpt lat="43.59129" lon="2.99485">
        <ele>925</ele>
        <time>2026-08-30T08:51:20+02:00</time>
      </trkpt>
      <trkpt lat="43.59129" lon="2.99484">
        <ele>925</ele>
        <time>2026-08-30T08:51:21+02:00</time>
        <extensions>
          <gpxtpx:TrackPointExtension xmlns:gpxtpx="http://www.garmin.com/xmlschemas/TrackPointExtension/v1">
            <gpxtpx:hr>153</gpxtpx:hr>
          </gpxtpx:TrackPointExtension>
        </extensions>
      </trkpt>
      <trkpt lat="43.59131" lon="2.99481">
        <ele>925</ele>
        <time>2026-08-30T08:51:25+02:00</time>
      </trkpt>
      <trkpt lat="43.59132" lon="2.99481">
        <ele>925</ele>
        <time>2026-08-30T08:51:26+02:00</time>
        <extensions>
          <gpxtpx:TrackPointExtension xmlns:gpxtpx="http://www.garmin.com/xmlschemas/TrackPointExtension/v1">
            <gpxtpx:hr>151</gpxtpx:hr>
          </gpxtpx:TrackPointExtension>
        </extensions>
      </trkpt>
      <trkpt lat="43.59132" lon="2.99479">
        <ele>924.2998</ele>
        <time>2026-08-30T08:51:30+02:00</time>
      </trkpt>
      <trkpt lat="43.59132" lon="2.99478">
        <ele>924.2998</ele>
        <time>2026-08-30T08:51:31+02:00</time>
        <extensions>
          <gpxtpx:TrackPointExtension xmlns:gpxtpx="http://www.garmin.com/xmlschemas/TrackPointExtension/v1">
            <gpxtpx:hr>150</gpxtpx:hr>
          </gpxtpx:TrackPointExtension>
        </extensions>
      </trkpt>
      <trkpt lat="43.59132" lon="2.99474">
        <ele>924.2998</ele>
        <time>2026-08-30T08:51:35+02:00</time>
      </trkpt>
      <trkpt lat="43.59132" lon="2.99473">
        <ele>924.2998</ele>
        <time>2026-08-30T08:51:36+02:00</time>
        <extensions>
          <gpxtpx:TrackPointExtension xmlns:gpxtpx="http://www.garmin.com/xmlschemas/TrackPointExtension/v1">
            <gpxtpx:hr>148</gpxtpx:hr>
          </gpxtpx:TrackPointExtension>
        </extensions>
      </trkpt>
      <trkpt lat="43.59134" lon="2.99472">
        <ele>926.5</ele>
        <time>2026-08-30T08:51:40+02:00</time>
      </trkpt>
      <trkpt lat="43.59135" lon="2.99471">
        <ele>925.7002</ele>
        <time>2026-08-30T08:51:41+02:00</time>
        <extensions>
          <gpxtpx:TrackPointExtension xmlns:gpxtpx="http://www.garmin.com/xmlschemas/TrackPointExtension/v1">
            <gpxtpx:hr>148</gpxtpx:hr>
          </gpxtpx:TrackPointExtension>
        </extensions>
      </trkpt>
      <trkpt lat="43.59139" lon="2.9947">
        <ele>925.7002</ele>
        <time>2026-08-30T08:51:45+02:00</time>
      </trkpt>
      <trkpt lat="43.5914" lon="2.99469">
        <ele>928</ele>
        <time>2026-08-30T08:51:46+02:00</time>
        <extensions>
          <gpxtpx:TrackPointExtension xmlns:gpxtpx="http://www.garmin.com/xmlschemas/TrackPointExtension/v1">
            <gpxtpx:hr>147</gpxtpx:hr>
          </gpxtpx:TrackPointExtension>
        </extensions>
      </trkpt>
      <trkpt lat="43.59143" lon="2.99468">
        <ele>928</ele>
        <time>2026-08-30T08:51:50+02:00</time>
      </trkpt>
      <trkpt lat="43.59144" lon="2.99468">
        <ele>928</ele>
        <time>2026-08-30T08:51:51+02:00</time>
        <extensions>
          <gpxtpx:TrackPointExtension xmlns:gpxtpx="http://www.garmin.com/xmlschemas/TrackPointExtension/v1">
            <gpxtpx:hr>145</gpxtpx:hr>
          </gpxtpx:TrackPointExtension>
        </extensions>
      </trkpt>
      <trkpt lat="43.59144" lon="2.99464">
        <ele>928</ele>
        <time>2026-08-30T08:51:55+02:00</time>
      </trkpt>
      <trkpt lat="43.59144" lon="2.99462">
        <ele>927</ele>
        <time>2026-08-30T08:51:56+02:00</time>
        <extensions>
          <gpxtpx:TrackPointExtension xmlns:gpxtpx="http://www.garmin.com/xmlschemas/TrackPointExtension/v1">
            <gpxtpx:hr>145</gpxtpx:hr>
          </gpxtpx:TrackPointExtension>
        </extensions>
      </trkpt>
      <trkpt lat="43.59147" lon="2.99459">
        <ele>929.4004</ele>
        <time>2026-08-30T08:52:00+02:00</time>
      </trkpt>
      <trkpt lat="43.59148" lon="2.99458">
        <ele>929.4004</ele>
        <time>2026-08-30T08:52:01+02:00</time>
        <extensions>
          <gpxtpx:TrackPointExtension xmlns:gpxtpx="http://www.garmin.com/xmlschemas/TrackPointExtension/v1">
            <gpxtpx:hr>143</gpxtpx:hr>
          </gpxtpx:TrackPointExtension>
        </extensions>
      </trkpt>
      <trkpt lat="43.59151" lon="2.99456">
        <ele>929.4004</ele>
        <time>2026-08-30T08:52:05+02:00</time>
      </trkpt>
      <trkpt lat="43.59152" lon="2.99455">
        <ele>929.4004</ele>
        <time>2026-08-30T08:52:06+02:00</time>
        <extensions>
          <gpxtpx:TrackPointExtension xmlns:gpxtpx="http://www.garmin.com/xmlschemas/TrackPointExtension/v1">
            <gpxtpx:hr>135</gpxtpx:hr>
          </gpxtpx:TrackPointExtension>
        </extensions>
      </trkpt>
      <trkpt lat="43.59155" lon="2.99453">
        <ele>930.9004</ele>
        <time>2026-08-30T08:52:10+02:00</time>
      </trkpt>
      <trkpt lat="43.59156" lon="2.99452">
        <ele>930.9004</ele>
        <time>2026-08-30T08:52:11+02:00</time>
        <extensions>
          <gpxtpx:TrackPointExtension xmlns:gpxtpx="http://www.garmin.com/xmlschemas/TrackPointExtension/v1">
            <gpxtpx:hr>133</gpxtpx:hr>
          </gpxtpx:TrackPointExtension>
        </extensions>
      </trkpt>
      <trkpt lat="43.59158" lon="2.99449">
        <ele>930.9004</ele>
        <time>2026-08-30T08:52:15+02:00</time>
      </trkpt>
      <trkpt lat="43.59158" lon="2.99448">
        <ele>930.9004</ele>
        <time>2026-08-30T08:52:16+02:00</time>
        <extensions>
          <gpxtpx:TrackPointExtension xmlns:gpxtpx="http://www.garmin.com/xmlschemas/TrackPointExtension/v1">
            <gpxtpx:hr>131</gpxtpx:hr>
          </gpxtpx:TrackPointExtension>
        </extensions>
      </trkpt>
      <trkpt lat="43.59161" lon="2.99448">
        <ele>933.2998</ele>
        <time>2026-08-30T08:52:20+02:00</time>
      </trkpt>
      <trkpt lat="43.59162" lon="2.99448">
        <ele>933.2998</ele>
        <time>2026-08-30T08:52:21+02:00</time>
        <extensions>
          <gpxtpx:TrackPointExtension xmlns:gpxtpx="http://www.garmin.com/xmlschemas/TrackPointExtension/v1">
            <gpxtpx:hr>131</gpxtpx:hr>
          </gpxtpx:TrackPointExtension>
        </extensions>
      </trkpt>
      <trkpt lat="43.59166" lon="2.99447">
        <ele>935.7002</ele>
        <time>2026-08-30T08:52:25+02:00</time>
      </trkpt>
      <trkpt lat="43.59167" lon="2.99447">
        <ele>935.7002</ele>
        <time>2026-08-30T08:52:26+02:00</time>
        <extensions>
          <gpxtpx:TrackPointExtension xmlns:gpxtpx="http://www.garmin.com/xmlschemas/TrackPointExtension/v1">
            <gpxtpx:hr>129</gpxtpx:hr>
          </gpxtpx:TrackPointExtension>
        </extensions>
      </trkpt>
      <trkpt lat="43.5917" lon="2.99449">
        <ele>935.7002</ele>
        <time>2026-08-30T08:52:30+02:00</time>
      </trkpt>
      <trkpt lat="43.59171" lon="2.99449">
        <ele>938</ele>
        <time>2026-08-30T08:52:31+02:00</time>
        <extensions>
          <gpxtpx:TrackPointExtension xmlns:gpxtpx="http://www.garmin.com/xmlschemas/TrackPointExtension/v1">
            <gpxtpx:hr>129</gpxtpx:hr>
          </gpxtpx:TrackPointExtension>
        </extensions>
      </trkpt>
      <trkpt lat="43.59175" lon="2.9945">
        <ele>938</ele>
        <time>2026-08-30T08:52:35+02:00</time>
      </trkpt>
      <trkpt lat="43.59176" lon="2.9945">
        <ele>938</ele>
        <time>2026-08-30T08:52:36+02:00</time>
        <extensions>
          <gpxtpx:TrackPointExtension xmlns:gpxtpx="http://www.garmin.com/xmlschemas/TrackPointExtension/v1">
            <gpxtpx:hr>128</gpxtpx:hr>
          </gpxtpx:TrackPointExtension>
        </extensions>
      </trkpt>
      <trkpt lat="43.59179" lon="2.99449">
        <ele>940.2998</ele>
        <time>2026-08-30T08:52:40+02:00</time>
      </trkpt>
      <trkpt lat="43.5918" lon="2.99449">
        <ele>940.2998</ele>
        <time>2026-08-30T08:52:41+02:00</time>
        <extensions>
          <gpxtpx:TrackPointExtension xmlns:gpxtpx="http://www.garmin.com/xmlschemas/TrackPointExtension/v1">
            <gpxtpx:hr>130</gpxtpx:hr>
          </gpxtpx:TrackPointExtension>
        </extensions>
      </trkpt>
      <trkpt lat="43.59183" lon="2.9945">
        <ele>942.5</ele>
        <time>2026-08-30T08:52:45+02:00</time>
      </trkpt>
      <trkpt lat="43.59184" lon="2.99449">
        <ele>942.5</ele>
        <time>2026-08-30T08:52:46+02:00</time>
        <extensions>
          <gpxtpx:TrackPointExtension xmlns:gpxtpx="http://www.garmin.com/xmlschemas/TrackPointExtension/v1">
            <gpxtpx:hr>129</gpxtpx:hr>
          </gpxtpx:TrackPointExtension>
        </extensions>
      </trkpt>
      <trkpt lat="43.59188" lon="2.99447">
        <ele>942.5</ele>
        <time>2026-08-30T08:52:50+02:00</time>
      </trkpt>
      <trkpt lat="43.59189" lon="2.99446">
        <ele>941.7998</ele>
        <time>2026-08-30T08:52:51+02:00</time>
        <extensions>
          <gpxtpx:TrackPointExtension xmlns:gpxtpx="http://www.garmin.com/xmlschemas/TrackPointExtension/v1">
            <gpxtpx:hr>128</gpxtpx:hr>
          </gpxtpx:TrackPointExtension>
        </extensions>
      </trkpt>
      <trkpt lat="43.59192" lon="2.99444">
        <ele>944</ele>
        <time>2026-08-30T08:52:55+02:00</time>
      </trkpt>
      <trkpt lat="43.59193" lon="2.99443">
        <ele>944</ele>
        <time>2026-08-30T08:52:56+02:00</time>
        <extensions>
          <gpxtpx:TrackPointExtension xmlns:gpxtpx="http://www.garmin.com/xmlschemas/TrackPointExtension/v1">
            <gpxtpx:hr>127</gpxtpx:hr>
          </gpxtpx:TrackPointExtension>
        </extensions>
      </trkpt>
      <trkpt lat="43.59197" lon="2.99443">
        <ele>946.1006</ele>
        <time>2026-08-30T08:53:00+02:00</time>
      </trkpt>
      <trkpt lat="43.59197" lon="2.99444">
        <ele>946.1006</ele>
        <time>2026-08-30T08:53:01+02:00</time>
        <extensions>
          <gpxtpx:TrackPointExtension xmlns:gpxtpx="http://www.garmin.com/xmlschemas/TrackPointExtension/v1">
            <gpxtpx:hr>129</gpxtpx:hr>
          </gpxtpx:TrackPointExtension>
        </extensions>
      </trkpt>
      <trkpt lat="43.59201" lon="2.99444">
        <ele>946.1006</ele>
        <time>2026-08-30T08:53:05+02:00</time>
      </trkpt>
      <trkpt lat="43.59201" lon="2.99444">
        <ele>946.1006</ele>
        <time>2026-08-30T08:53:06+02:00</time>
        <extensions>
          <gpxtpx:TrackPointExtension xmlns:gpxtpx="http://www.garmin.com/xmlschemas/TrackPointExtension/v1">
            <gpxtpx:hr>128</gpxtpx:hr>
          </gpxtpx:TrackPointExtension>
        </extensions>
      </trkpt>
      <trkpt lat="43.59204" lon="2.99442">
        <ele>948.1006</ele>
        <time>2026-08-30T08:53:10+02:00</time>
      </trkpt>
      <trkpt lat="43.59205" lon="2.99442">
        <ele>948.1006</ele>
        <time>2026-08-30T08:53:11+02:00</time>
        <extensions>
          <gpxtpx:TrackPointExtension xmlns:gpxtpx="http://www.garmin.com/xmlschemas/TrackPointExtension/v1">
            <gpxtpx:hr>133</gpxtpx:hr>
          </gpxtpx:TrackPointExtension>
        </extensions>
      </trkpt>
      <trkpt lat="43.59209" lon="2.99441">
        <ele>950.1006</ele>
        <time>2026-08-30T08:53:15+02:00</time>
      </trkpt>
      <trkpt lat="43.5921" lon="2.99441">
        <ele>950.1006</ele>
        <time>2026-08-30T08:53:16+02:00</time>
        <extensions>
          <gpxtpx:TrackPointExtension xmlns:gpxtpx="http://www.garmin.com/xmlschemas/TrackPointExtension/v1">
            <gpxtpx:hr>135</gpxtpx:hr>
          </gpxtpx:TrackPointExtension>
        </extensions>
      </trkpt>
      <trkpt lat="43.59213" lon="2.99441">
        <ele>950.1006</ele>
        <time>2026-08-30T08:53:20+02:00</time>
      </trkpt>
      <trkpt lat="43.59214" lon="2.99441">
        <ele>950.1006</ele>
        <time>2026-08-30T08:53:21+02:00</time>
        <extensions>
          <gpxtpx:TrackPointExtension xmlns:gpxtpx="http://www.garmin.com/xmlschemas/TrackPointExtension/v1">
            <gpxtpx:hr>134</gpxtpx:hr>
          </gpxtpx:TrackPointExtension>
        </extensions>
      </trkpt>
      <trkpt lat="43.59215" lon="2.99438">
        <ele>952</ele>
        <time>2026-08-30T08:53:25+02:00</time>
      </trkpt>
      <trkpt lat="43.59214" lon="2.99437">
        <ele>951.2002</ele>
        <time>2026-08-30T08:53:26+02:00</time>
        <extensions>
          <gpxtpx:TrackPointExtension xmlns:gpxtpx="http://www.garmin.com/xmlschemas/TrackPointExtension/v1">
            <gpxtpx:hr>133</gpxtpx:hr>
          </gpxtpx:TrackPointExtension>
        </extensions>
      </trkpt>
      <trkpt lat="43.59215" lon="2.99433">
        <ele>951.2002</ele>
        <time>2026-08-30T08:53:30+02:00</time>
      </trkpt>
      <trkpt lat="43.59215" lon="2.99432">
        <ele>951.2002</ele>
        <time>2026-08-30T08:53:31+02:00</time>
        <extensions>
          <gpxtpx:TrackPointExtension xmlns:gpxtpx="http://www.garmin.com/xmlschemas/TrackPointExtension/v1">
            <gpxtpx:hr>135</gpxtpx:hr>
          </gpxtpx:TrackPointExtension>
        </extensions>
      </trkpt>
      <trkpt lat="43.59217" lon="2.99427">
        <ele>950.1006</ele>
        <time>2026-08-30T08:53:35+02:00</time>
      </trkpt>
      <trkpt lat="43.59217" lon="2.99426">
        <ele>950.1006</ele>
        <time>2026-08-30T08:53:36+02:00</time>
        <extensions>
          <gpxtpx:TrackPointExtension xmlns:gpxtpx="http://www.garmin.com/xmlschemas/TrackPointExtension/v1">
            <gpxtpx:hr>136</gpxtpx:hr>
          </gpxtpx:TrackPointExtension>
        </extensions>
      </trkpt>
      <trkpt lat="43.5922" lon="2.99423">
        <ele>950.1006</ele>
        <time>2026-08-30T08:53:40+02:00</time>
      </trkpt>
      <trkpt lat="43.59221" lon="2.99422">
        <ele>952</ele>
        <time>2026-08-30T08:53:41+02:00</time>
        <extensions>
          <gpxtpx:TrackPointExtension xmlns:gpxtpx="http://www.garmin.com/xmlschemas/TrackPointExtension/v1">
            <gpxtpx:hr>134</gpxtpx:hr>
          </gpxtpx:TrackPointExtension>
        </extensions>
      </trkpt>
      <trkpt lat="43.59224" lon="2.9942">
        <ele>950.7998</ele>
        <time>2026-08-30T08:53:45+02:00</time>
      </trkpt>
      <trkpt lat="43.59225" lon="2.99419">
        <ele>950.7998</ele>
        <time>2026-08-30T08:53:46+02:00</time>
        <extensions>
          <gpxtpx:TrackPointExtension xmlns:gpxtpx="http://www.garmin.com/xmlschemas/TrackPointExtension/v1">
            <gpxtpx:hr>133</gpxtpx:hr>
          </gpxtpx:TrackPointExtension>
        </extensions>
      </trkpt>
      <trkpt lat="43.59227" lon="2.99416">
        <ele>952.7998</ele>
        <time>2026-08-30T08:53:50+02:00</time>
      </trkpt>
      <trkpt lat="43.59227" lon="2.99415">
        <ele>952.7998</ele>
        <time>2026-08-30T08:53:51+02:00</time>
        <extensions>
          <gpxtpx:TrackPointExtension xmlns:gpxtpx="http://www.garmin.com/xmlschemas/TrackPointExtension/v1">
            <gpxtpx:hr>134</gpxtpx:hr>
          </gpxtpx:TrackPointExtension>
        </extensions>
      </trkpt>
      <trkpt lat="43.59229" lon="2.9941">
        <ele>951.5</ele>
        <time>2026-08-30T08:53:55+02:00</time>
      </trkpt>
      <trkpt lat="43.59229" lon="2.99409">
        <ele>951.5</ele>
        <time>2026-08-30T08:53:56+02:00</time>
        <extensions>
          <gpxtpx:TrackPointExtension xmlns:gpxtpx="http://www.garmin.com/xmlschemas/TrackPointExtension/v1">
            <gpxtpx:hr>134</gpxtpx:hr>
          </gpxtpx:TrackPointExtension>
        </extensions>
      </trkpt>
      <trkpt lat="43.59231" lon="2.99403">
        <ele>950.1006</ele>
        <time>2026-08-30T08:54:00+02:00</time>
      </trkpt>
      <trkpt lat="43.59231" lon="2.99401">
        <ele>950.1006</ele>
        <time>2026-08-30T08:54:01+02:00</time>
        <extensions>
          <gpxtpx:TrackPointExtension xmlns:gpxtpx="http://www.garmin.com/xmlschemas/TrackPointExtension/v1">
            <gpxtpx:hr>134</gpxtpx:hr>
          </gpxtpx:TrackPointExtension>
        </extensions>
      </trkpt>
      <trkpt lat="43.59233" lon="2.99397">
        <ele>950.1006</ele>
        <time>2026-08-30T08:54:05+02:00</time>
      </trkpt>
      <trkpt lat="43.59233" lon="2.99395">
        <ele>952.2998</ele>
        <time>2026-08-30T08:54:06+02:00</time>
        <extensions>
          <gpxtpx:TrackPointExtension xmlns:gpxtpx="http://www.garmin.com/xmlschemas/TrackPointExtension/v1">
            <gpxtpx:hr>135</gpxtpx:hr>
          </gpxtpx:TrackPointExtension>
        </extensions>
      </trkpt>
      <trkpt lat="43.59233" lon="2.9939">
        <ele>950.9004</ele>
        <time>2026-08-30T08:54:10+02:00</time>
      </trkpt>
      <trkpt lat="43.59233" lon="2.99388">
        <ele>950.9004</ele>
        <time>2026-08-30T08:54:11+02:00</time>
        <extensions>
          <gpxtpx:TrackPointExtension xmlns:gpxtpx="http://www.garmin.com/xmlschemas/TrackPointExtension/v1">
            <gpxtpx:hr>134</gpxtpx:hr>
          </gpxtpx:TrackPointExtension>
        </extensions>
      </trkpt>
      <trkpt lat="43.59234" lon="2.99383">
        <ele>949.2998</ele>
        <time>2026-08-30T08:54:15+02:00</time>
      </trkpt>
      <trkpt lat="43.59234" lon="2.99382">
        <ele>949.2998</ele>
        <time>2026-08-30T08:54:16+02:00</time>
        <extensions>
          <gpxtpx:TrackPointExtension xmlns:gpxtpx="http://www.garmin.com/xmlschemas/TrackPointExtension/v1">
            <gpxtpx:hr>133</gpxtpx:hr>
          </gpxtpx:TrackPointExtension>
        </extensions>
      </trkpt>
      <trkpt lat="43.59233" lon="2.99377">
        <ele>944.9004</ele>
        <time>2026-08-30T08:54:20+02:00</time>
      </trkpt>
      <trkpt lat="43.59232" lon="2.99376">
        <ele>944.9004</ele>
        <time>2026-08-30T08:54:21+02:00</time>
        <extensions>
          <gpxtpx:TrackPointExtension xmlns:gpxtpx="http://www.garmin.com/xmlschemas/TrackPointExtension/v1">
            <gpxtpx:hr>133</gpxtpx:hr>
          </gpxtpx:TrackPointExtension>
        </extensions>
      </trkpt>
      <trkpt lat="43.59232" lon="2.99375">
        <ele>944.9004</ele>
        <time>2026-08-30T08:54:25+02:00</time>
      </trkpt>
      <trkpt lat="43.59232" lon="2.99375">
        <ele>944.9004</ele>
        <time>2026-08-30T08:54:26+02:00</time>
        <extensions>
          <gpxtpx:TrackPointExtension xmlns:gpxtpx="http://www.garmin.com/xmlschemas/TrackPointExtension/v1">
            <gpxtpx:hr>132</gpxtpx:hr>
          </gpxtpx:TrackPointExtension>
        </extensions>
      </trkpt>
      <trkpt lat="43.59232" lon="2.99374">
        <ele>944.9004</ele>
        <time>2026-08-30T08:54:30+02:00</time>
      </trkpt>
      <trkpt lat="43.59232" lon="2.99374">
        <ele>944.9004</ele>
        <time>2026-08-30T08:54:31+02:00</time>
        <extensions>
          <gpxtpx:TrackPointExtension xmlns:gpxtpx="http://www.garmin.com/xmlschemas/TrackPointExtension/v1">
            <gpxtpx:hr>132</gpxtpx:hr>
          </gpxtpx:TrackPointExtension>
        </extensions>
      </trkpt>
      <trkpt lat="43.59232" lon="2.99374">
        <ele>944.9004</ele>
        <time>2026-08-30T08:54:35+02:00</time>
        <extensions>
          <gpxtpx:TrackPointExtension xmlns:gpxtpx="http://www.garmin.com/xmlschemas/TrackPointExtension/v1">
            <gpxtpx:hr>131</gpxtpx:hr>
          </gpxtpx:TrackPointExtension>
        </extensions>
      </trkpt>
      <trkpt lat="43.59231" lon="2.99373">
        <ele>970.65</ele>
        <time>2026-08-30T07:10:30.412Z</time>
      </trkpt>
      <trkpt lat="43.59231" lon="2.99375">
        <ele>969.05</ele>
        <time>2026-08-30T07:10:36.190Z</time>
      </trkpt>
      <trkpt lat="43.59232" lon="2.99376">
        <ele>969.85</ele>
        <time>2026-08-30T07:10:41.190Z</time>
      </trkpt>
      <trkpt lat="43.59232" lon="2.99375">
        <ele>968.95</ele>
        <time>2026-08-30T07:10:46.190Z</time>
      </trkpt>
      <trkpt lat="43.59232" lon="2.99375">
        <ele>968.65</ele>
        <time>2026-08-30T07:10:51.190Z</time>
      </trkpt>
      <trkpt lat="43.59232" lon="2.99375">
        <ele>968.25</ele>
        <time>2026-08-30T07:10:56.190Z</time>
      </trkpt>
      <trkpt lat="43.59232" lon="2.99375">
        <ele>969.25</ele>
        <time>2026-08-30T07:11:01.190Z</time>
      </trkpt>
      <trkpt lat="43.59232" lon="2.99375">
        <ele>969.35</ele>
        <time>2026-08-30T07:11:06.190Z</time>
      </trkpt>
      <trkpt lat="43.59232" lon="2.99375">
        <ele>969.35</ele>
        <time>2026-08-30T07:11:11.190Z</time>
      </trkpt>
      <trkpt lat="43.59232" lon="2.99375">
        <ele>969.35</ele>
        <time>2026-08-30T07:11:16.190Z</time>
      </trkpt>
      <trkpt lat="43.59232" lon="2.99375">
        <ele>969.35</ele>
        <time>2026-08-30T07:11:21.190Z</time>
      </trkpt>
      <trkpt lat="43.59232" lon="2.99375">
        <ele>969.35</ele>
        <time>2026-08-30T07:11:26.190Z</time>
      </trkpt>
      <trkpt lat="43.59232" lon="2.99375">
        <ele>969.35</ele>
        <time>2026-08-30T07:11:31.190Z</time>
      </trkpt>
      <trkpt lat="43.59232" lon="2.99375">
        <ele>969.35</ele>
        <time>2026-08-30T07:11:36.190Z</time>
      </trkpt>
      <trkpt lat="43.59232" lon="2.99375">
        <ele>969.35</ele>
        <time>2026-08-30T07:11:41.190Z</time>
      </trkpt>
      <trkpt lat="43.59232" lon="2.99375">
        <ele>969.35</ele>
        <time>2026-08-30T07:11:46.190Z</time>
      </trkpt>
      <trkpt lat="43.59232" lon="2.99375">
        <ele>969.35</ele>
        <time>2026-08-30T07:11:51.190Z</time>
      </trkpt>
      <trkpt lat="43.59232" lon="2.99375">
        <ele>969.35</ele>
        <time>2026-08-30T07:11:56.190Z</time>
      </trkpt>
      <trkpt lat="43.59232" lon="2.99375">
        <ele>969.35</ele>
        <time>2026-08-30T07:12:01.190Z</time>
      </trkpt>
      <trkpt lat="43.59232" lon="2.99375">
        <ele>969.35</ele>
        <time>2026-08-30T07:12:06.190Z</time>
      </trkpt>
      <trkpt lat="43.59232" lon="2.99375">
        <ele>969.35</ele>
        <time>2026-08-30T07:12:11.190Z</time>
      </trkpt>
      <trkpt lat="43.59232" lon="2.99375">
        <ele>969.35</ele>
        <time>2026-08-30T07:12:16.190Z</time>
      </trkpt>
      <trkpt lat="43.59232" lon="2.99375">
        <ele>969.35</ele>
        <time>2026-08-30T07:12:21.190Z</time>
      </trkpt>
      <trkpt lat="43.59232" lon="2.99375">
        <ele>969.35</ele>
        <time>2026-08-30T07:12:26.190Z</time>
      </trkpt>
      <trkpt lat="43.59232" lon="2.99375">
        <ele>969.35</ele>
        <time>2026-08-30T07:12:31.190Z</time>
      </trkpt>
      <trkpt lat="43.59232" lon="2.99375">
        <ele>969.35</ele>
        <time>2026-08-30T07:12:36.190Z</time>
      </trkpt>
      <trkpt lat="43.59233" lon="2.99387">
        <ele>969.85</ele>
        <time>2026-08-30T07:12:41.190Z</time>
      </trkpt>
      <trkpt lat="43.59233" lon="2.99395">
        <ele>970.25</ele>
        <time>2026-08-30T07:12:46.190Z</time>
      </trkpt>
      <trkpt lat="43.59232" lon="2.99402">
        <ele>969.95</ele>
        <time>2026-08-30T07:12:51.190Z</time>
      </trkpt>
      <trkpt lat="43.5923" lon="2.99408">
        <ele>969.15</ele>
        <time>2026-08-30T07:12:56.190Z</time>
      </trkpt>
      <trkpt lat="43.59229" lon="2.99414">
        <ele>967.95</ele>
        <time>2026-08-30T07:13:01.190Z</time>
      </trkpt>
      <trkpt lat="43.59226" lon="2.99418">
        <ele>966.45</ele>
        <time>2026-08-30T07:13:06.190Z</time>
      </trkpt>
      <trkpt lat="43.59225" lon="2.99422">
        <ele>966.85</ele>
        <time>2026-08-30T07:13:11.190Z</time>
      </trkpt>
      <trkpt lat="43.59226" lon="2.99425">
        <ele>965.85</ele>
        <time>2026-08-30T07:13:16.190Z</time>
      </trkpt>
      <trkpt lat="43.59229" lon="2.9943">
        <ele>964.65</ele>
        <time>2026-08-30T07:13:21.190Z</time>
      </trkpt>
      <trkpt lat="43.59233" lon="2.99434">
        <ele>964.65</ele>
        <time>2026-08-30T07:13:26.190Z</time>
      </trkpt>
      <trkpt lat="43.59234" lon="2.99439">
        <ele>962.35</ele>
        <time>2026-08-30T07:13:31.190Z</time>
      </trkpt>
      <trkpt lat="43.59234" lon="2.99442">
        <ele>960.35</ele>
        <time>2026-08-30T07:13:36.190Z</time>
      </trkpt>
      <trkpt lat="43.59235" lon="2.99445">
        <ele>958.25</ele>
        <time>2026-08-30T07:13:41.190Z</time>
      </trkpt>
      <trkpt lat="43.59237" lon="2.99451">
        <ele>956.75</ele>
        <time>2026-08-30T07:13:46.190Z</time>
      </trkpt>
      <trkpt lat="43.5924" lon="2.99455">
        <ele>956.05</ele>
        <time>2026-08-30T07:13:51.190Z</time>
      </trkpt>
      <trkpt lat="43.59242" lon="2.99463">
        <ele>955.15</ele>
        <time>2026-08-30T07:13:56.190Z</time>
      </trkpt>
      <trkpt lat="43.59244" lon="2.9947">
        <ele>953.75</ele>
        <time>2026-08-30T07:14:01.190Z</time>
      </trkpt>
      <trkpt lat="43.59248" lon="2.99469">
        <ele>954.75</ele>
        <time>2026-08-30T07:14:06.190Z</time>
      </trkpt>
      <trkpt lat="43.59251" lon="2.99472">
        <ele>954.55</ele>
        <time>2026-08-30T07:14:11.190Z</time>
      </trkpt>
      <trkpt lat="43.59252" lon="2.99475">
        <ele>955.05</ele>
        <time>2026-08-30T07:14:16.190Z</time>
      </trkpt>
      <trkpt lat="43.59255" lon="2.99477">
        <ele>955.15</ele>
        <time>2026-08-30T07:14:21.190Z</time>
      </trkpt>
      <trkpt lat="43.59258" lon="2.99479">
        <ele>954.95</ele>
        <time>2026-08-30T07:14:26.190Z</time>
      </trkpt>
      <trkpt lat="43.59261" lon="2.99485">
        <ele>955.25</ele>
        <time>2026-08-30T07:14:31.190Z</time>
      </trkpt>
      <trkpt lat="43.59266" lon="2.99487">
        <ele>955.45</ele>
        <time>2026-08-30T07:14:36.190Z</time>
      </trkpt>
      <trkpt lat="43.59273" lon="2.99492">
        <ele>955.35</ele>
        <time>2026-08-30T07:14:42.190Z</time>
      </trkpt>
      <trkpt lat="43.59277" lon="2.99498">
        <ele>954.75</ele>
        <time>2026-08-30T07:14:47.190Z</time>
      </trkpt>
      <trkpt lat="43.59281" lon="2.99505">
        <ele>955.35</ele>
        <time>2026-08-30T07:14:52.190Z</time>
      </trkpt>
      <trkpt lat="43.59285" lon="2.99508">
        <ele>955.45</ele>
        <time>2026-08-30T07:14:57.190Z</time>
      </trkpt>
      <trkpt lat="43.59286" lon="2.99513">
        <ele>956.15</ele>
        <time>2026-08-30T07:15:02.190Z</time>
      </trkpt>
      <trkpt lat="43.59289" lon="2.99516">
        <ele>957.85</ele>
        <time>2026-08-30T07:15:07.190Z</time>
      </trkpt>
      <trkpt lat="43.59292" lon="2.99521">
        <ele>959.25</ele>
        <time>2026-08-30T07:15:12.190Z</time>
      </trkpt>
      <trkpt lat="43.59296" lon="2.99526">
        <ele>961.75</ele>
        <time>2026-08-30T07:15:17.190Z</time>
      </trkpt>
      <trkpt lat="43.59301" lon="2.99527">
        <ele>961.15</ele>
        <time>2026-08-30T07:15:22.190Z</time>
      </trkpt>
      <trkpt lat="43.59305" lon="2.99531">
        <ele>961.55</ele>
        <time>2026-08-30T07:15:27.190Z</time>
      </trkpt>
      <trkpt lat="43.59307" lon="2.99537">
        <ele>961.55</ele>
        <time>2026-08-30T07:15:32.190Z</time>
      </trkpt>
      <trkpt lat="43.59311" lon="2.99541">
        <ele>960.05</ele>
        <time>2026-08-30T07:15:37.190Z</time>
      </trkpt>
      <trkpt lat="43.59316" lon="2.99545">
        <ele>959.95</ele>
        <time>2026-08-30T07:15:42.190Z</time>
      </trkpt>
      <trkpt lat="43.5932" lon="2.99551">
        <ele>958.95</ele>
        <time>2026-08-30T07:15:47.190Z</time>
      </trkpt>
      <trkpt lat="43.59325" lon="2.99556">
        <ele>960.65</ele>
        <time>2026-08-30T07:15:53.189Z</time>
      </trkpt>
      <trkpt lat="43.59329" lon="2.99561">
        <ele>961.75</ele>
        <time>2026-08-30T07:15:58.189Z</time>
      </trkpt>
      <trkpt lat="43.59332" lon="2.99565">
        <ele>963.35</ele>
        <time>2026-08-30T07:16:03.189Z</time>
      </trkpt>
      <trkpt lat="43.59335" lon="2.99566">
        <ele>964.75</ele>
        <time>2026-08-30T07:16:08.189Z</time>
      </trkpt>
      <trkpt lat="43.59339" lon="2.99568">
        <ele>964.95</ele>
        <time>2026-08-30T07:16:13.189Z</time>
      </trkpt>
      <trkpt lat="43.59342" lon="2.99568">
        <ele>964.85</ele>
        <time>2026-08-30T07:16:18.189Z</time>
      </trkpt>
      <trkpt lat="43.59345" lon="2.99568">
        <ele>965.05</ele>
        <time>2026-08-30T07:16:23.189Z</time>
      </trkpt>
      <trkpt lat="43.5935" lon="2.99569">
        <ele>967.15</ele>
        <time>2026-08-30T07:16:28.189Z</time>
      </trkpt>
      <trkpt lat="43.59353" lon="2.9957">
        <ele>969.25</ele>
        <time>2026-08-30T07:16:33.189Z</time>
      </trkpt>
      <trkpt lat="43.59357" lon="2.9957">
        <ele>971.75</ele>
        <time>2026-08-30T07:16:38.189Z</time>
      </trkpt>
      <trkpt lat="43.59359" lon="2.99569">
        <ele>974.35</ele>
        <time>2026-08-30T07:16:43.189Z</time>
      </trkpt>
      <trkpt lat="43.59362" lon="2.9957">
        <ele>975.85</ele>
        <time>2026-08-30T07:16:48.189Z</time>
      </trkpt>
      <trkpt lat="43.59365" lon="2.99574">
        <ele>977.85</ele>
        <time>2026-08-30T07:16:53.189Z</time>
      </trkpt>
      <trkpt lat="43.59369" lon="2.99577">
        <ele>979.55</ele>
        <time>2026-08-30T07:16:58.189Z</time>
      </trkpt>
      <trkpt lat="43.59372" lon="2.99576">
        <ele>979.85</ele>
        <time>2026-08-30T07:17:03.189Z</time>
      </trkpt>
      <trkpt lat="43.59376" lon="2.99582">
        <ele>980.15</ele>
        <time>2026-08-30T07:17:08.189Z</time>
      </trkpt>
      <trkpt lat="43.5938" lon="2.99587">
        <ele>980.75</ele>
        <time>2026-08-30T07:17:13.189Z</time>
      </trkpt>
      <trkpt lat="43.59384" lon="2.99591">
        <ele>980.65</ele>
        <time>2026-08-30T07:17:18.189Z</time>
      </trkpt>
      <trkpt lat="43.59388" lon="2.99594">
        <ele>979.95</ele>
        <time>2026-08-30T07:17:23.189Z</time>
      </trkpt>
      <trkpt lat="43.59393" lon="2.99596">
        <ele>978.75</ele>
        <time>2026-08-30T07:17:28.189Z</time>
      </trkpt>
      <trkpt lat="43.59397" lon="2.99596">
        <ele>978.05</ele>
        <time>2026-08-30T07:17:33.189Z</time>
      </trkpt>
      <trkpt lat="43.59401" lon="2.99594">
        <ele>978.35</ele>
        <time>2026-08-30T07:17:38.189Z</time>
      </trkpt>
      <trkpt lat="43.59404" lon="2.99592">
        <ele>979.25</ele>
        <time>2026-08-30T07:17:43.189Z</time>
      </trkpt>
      <trkpt lat="43.59408" lon="2.99591">
        <ele>980.55</ele>
        <time>2026-08-30T07:17:48.189Z</time>
      </trkpt>
      <trkpt lat="43.59412" lon="2.99591">
        <ele>982.65</ele>
        <time>2026-08-30T07:17:53.189Z</time>
      </trkpt>
      <trkpt lat="43.59417" lon="2.99594">
        <ele>983.95</ele>
        <time>2026-08-30T07:17:58.189Z</time>
      </trkpt>
      <trkpt lat="43.59423" lon="2.99597">
        <ele>984.35</ele>
        <time>2026-08-30T07:18:03.189Z</time>
      </trkpt>
      <trkpt lat="43.59428" lon="2.996">
        <ele>984.75</ele>
        <time>2026-08-30T07:18:08.189Z</time>
      </trkpt>
      <trkpt lat="43.59434" lon="2.99596">
        <ele>984.75</ele>
        <time>2026-08-30T07:18:13.189Z</time>
      </trkpt>
      <trkpt lat="43.59437" lon="2.99593">
        <ele>985.75</ele>
        <time>2026-08-30T07:18:18.189Z</time>
      </trkpt>
      <trkpt lat="43.59441" lon="2.99595">
        <ele>986.25</ele>
        <time>2026-08-30T07:18:23.189Z</time>
      </trkpt>
      <trkpt lat="43.59444" lon="2.99597">
        <ele>987.05</ele>
        <time>2026-08-30T07:18:28.189Z</time>
      </trkpt>
      <trkpt lat="43.59448" lon="2.99596">
        <ele>987.95</ele>
        <time>2026-08-30T07:18:33.189Z</time>
      </trkpt>
      <trkpt lat="43.59453" lon="2.99595">
        <ele>989.35</ele>
        <time>2026-08-30T07:18:38.189Z</time>
      </trkpt>
      <trkpt lat="43.59457" lon="2.99594">
        <ele>991.15</ele>
        <time>2026-08-30T07:18:43.189Z</time>
      </trkpt>
      <trkpt lat="43.59462" lon="2.99596">
        <ele>992.65</ele>
        <time>2026-08-30T07:18:48.189Z</time>
      </trkpt>
      <trkpt lat="43.59465" lon="2.99601">
        <ele>993.85</ele>
        <time>2026-08-30T07:18:53.189Z</time>
      </trkpt>
      <trkpt lat="43.5947" lon="2.99603">
        <ele>994.45</ele>
        <time>2026-08-30T07:18:58.189Z</time>
      </trkpt>
      <trkpt lat="43.59475" lon="2.99604">
        <ele>995.55</ele>
        <time>2026-08-30T07:19:03.189Z</time>
      </trkpt>
      <trkpt lat="43.59478" lon="2.99606">
        <ele>996.25</ele>
        <time>2026-08-30T07:19:08.189Z</time>
      </trkpt>
      <trkpt lat="43.59481" lon="2.99605">
        <ele>996.75</ele>
        <time>2026-08-30T07:19:13.189Z</time>
      </trkpt>
      <trkpt lat="43.59487" lon="2.99604">
        <ele>997.35</ele>
        <time>2026-08-30T07:19:18.189Z</time>
      </trkpt>
      <trkpt lat="43.59493" lon="2.99605">
        <ele>995.85</ele>
        <time>2026-08-30T07:19:23.189Z</time>
      </trkpt>
      <trkpt lat="43.59498" lon="2.99608">
        <ele>994.35</ele>
        <time>2026-08-30T07:19:28.189Z</time>
      </trkpt>
      <trkpt lat="43.59505" lon="2.99609">
        <ele>994.65</ele>
        <time>2026-08-30T07:19:33.189Z</time>
      </trkpt>
      <trkpt lat="43.59512" lon="2.9961">
        <ele>995.05</ele>
        <time>2026-08-30T07:19:38.189Z</time>
      </trkpt>
      <trkpt lat="43.59519" lon="2.99611">
        <ele>995.55</ele>
        <time>2026-08-30T07:19:43.189Z</time>
      </trkpt>
      <trkpt lat="43.59524" lon="2.99613">
        <ele>995.75</ele>
        <time>2026-08-30T07:19:48.189Z</time>
      </trkpt>
      <trkpt lat="43.59528" lon="2.99616">
        <ele>995.75</ele>
        <time>2026-08-30T07:19:53.189Z</time>
      </trkpt>
      <trkpt lat="43.59533" lon="2.99617">
        <ele>994.85</ele>
        <time>2026-08-30T07:19:58.189Z</time>
      </trkpt>
      <trkpt lat="43.59538" lon="2.99617">
        <ele>995.35</ele>
        <time>2026-08-30T07:20:03.189Z</time>
      </trkpt>
      <trkpt lat="43.59544" lon="2.99617">
        <ele>997.25</ele>
        <time>2026-08-30T07:20:08.189Z</time>
      </trkpt>
      <trkpt lat="43.59548" lon="2.99618">
        <ele>998.95</ele>
        <time>2026-08-30T07:20:13.189Z</time>
      </trkpt>
      <trkpt lat="43.59554" lon="2.99622">
        <ele>999.35</ele>
        <time>2026-08-30T07:20:18.189Z</time>
      </trkpt>
      <trkpt lat="43.59558" lon="2.99627">
        <ele>999.45</ele>
        <time>2026-08-30T07:20:23.189Z</time>
      </trkpt>
      <trkpt lat="43.59563" lon="2.9963">
        <ele>999.05</ele>
        <time>2026-08-30T07:20:28.189Z</time>
      </trkpt>
      <trkpt lat="43.5957" lon="2.99636">
        <ele>997.55</ele>
        <time>2026-08-30T07:20:33.189Z</time>
      </trkpt>
      <trkpt lat="43.59575" lon="2.99639">
        <ele>997.15</ele>
        <time>2026-08-30T07:20:38.189Z</time>
      </trkpt>
      <trkpt lat="43.59579" lon="2.99642">
        <ele>996.75</ele>
        <time>2026-08-30T07:20:43.189Z</time>
      </trkpt>
      <trkpt lat="43.59584" lon="2.99645">
        <ele>996.55</ele>
        <time>2026-08-30T07:20:48.189Z</time>
      </trkpt>
      <trkpt lat="43.59587" lon="2.99646">
        <ele>997.95</ele>
        <time>2026-08-30T07:20:53.189Z</time>
      </trkpt>
      <trkpt lat="43.59594" lon="2.9965">
        <ele>998.25</ele>
        <time>2026-08-30T07:20:58.189Z</time>
      </trkpt>
      <trkpt lat="43.596" lon="2.99653">
        <ele>998.75</ele>
        <time>2026-08-30T07:21:03.189Z</time>
      </trkpt>
      <trkpt lat="43.59604" lon="2.99653">
        <ele>999.65</ele>
        <time>2026-08-30T07:21:08.189Z</time>
      </trkpt>
      <trkpt lat="43.59609" lon="2.99659">
        <ele>1000.65</ele>
        <time>2026-08-30T07:21:13.189Z</time>
      </trkpt>
      <trkpt lat="43.59614" lon="2.99663">
        <ele>1001.05</ele>
        <time>2026-08-30T07:21:18.189Z</time>
      </trkpt>
      <trkpt lat="43.5962" lon="2.99661">
        <ele>1003.35</ele>
        <time>2026-08-30T07:21:24.188Z</time>
      </trkpt>
      <trkpt lat="43.59625" lon="2.99661">
        <ele>1004.25</ele>
        <time>2026-08-30T07:21:29.188Z</time>
      </trkpt>
      <trkpt lat="43.59629" lon="2.99661">
        <ele>1005.65</ele>
        <time>2026-08-30T07:21:34.188Z</time>
      </trkpt>
      <trkpt lat="43.59634" lon="2.99666">
        <ele>1006.15</ele>
        <time>2026-08-30T07:21:39.188Z</time>
      </trkpt>
      <trkpt lat="43.59639" lon="2.9967">
        <ele>1005.15</ele>
        <time>2026-08-30T07:21:44.188Z</time>
      </trkpt>
      <trkpt lat="43.59643" lon="2.99673">
        <ele>1004.75</ele>
        <time>2026-08-30T07:21:49.188Z</time>
      </trkpt>
      <trkpt lat="43.59648" lon="2.99677">
        <ele>1004.85</ele>
        <time>2026-08-30T07:21:54.188Z</time>
      </trkpt>
      <trkpt lat="43.59652" lon="2.99679">
        <ele>1005.95</ele>
        <time>2026-08-30T07:21:59.188Z</time>
      </trkpt>
      <trkpt lat="43.59657" lon="2.99684">
        <ele>1008.45</ele>
        <time>2026-08-30T07:22:04.188Z</time>
      </trkpt>
      <trkpt lat="43.59664" lon="2.99687">
        <ele>1008.75</ele>
        <time>2026-08-30T07:22:09.188Z</time>
      </trkpt>
      <trkpt lat="43.59669" lon="2.99691">
        <ele>1008.65</ele>
        <time>2026-08-30T07:22:14.188Z</time>
      </trkpt>
      <trkpt lat="43.59674" lon="2.99695">
        <ele>1009.35</ele>
        <time>2026-08-30T07:22:19.188Z</time>
      </trkpt>
      <trkpt lat="43.59679" lon="2.99698">
        <ele>1010.25</ele>
        <time>2026-08-30T07:22:24.188Z</time>
      </trkpt>
      <trkpt lat="43.59682" lon="2.99701">
        <ele>1010.25</ele>
        <time>2026-08-30T07:22:29.188Z</time>
      </trkpt>
      <trkpt lat="43.59686" lon="2.99705">
        <ele>1010.15</ele>
        <time>2026-08-30T07:22:34.188Z</time>
      </trkpt>
      <trkpt lat="43.59691" lon="2.99709">
        <ele>1009.95</ele>
        <time>2026-08-30T07:22:39.188Z</time>
      </trkpt>
      <trkpt lat="43.59697" lon="2.99715">
        <ele>1009.45</ele>
        <time>2026-08-30T07:22:44.188Z</time>
      </trkpt>
      <trkpt lat="43.59702" lon="2.99719">
        <ele>1009.95</ele>
        <time>2026-08-30T07:22:49.188Z</time>
      </trkpt>
      <trkpt lat="43.59707" lon="2.99726">
        <ele>1010.45</ele>
        <time>2026-08-30T07:22:54.188Z</time>
      </trkpt>
      <trkpt lat="43.59712" lon="2.99731">
        <ele>1010.25</ele>
        <time>2026-08-30T07:22:59.188Z</time>
      </trkpt>
      <trkpt lat="43.59717" lon="2.99734">
        <ele>1010.85</ele>
        <time>2026-08-30T07:23:04.188Z</time>
      </trkpt>
      <trkpt lat="43.59723" lon="2.99739">
        <ele>1012.25</ele>
        <time>2026-08-30T07:23:09.188Z</time>
      </trkpt>
      <trkpt lat="43.59727" lon="2.99744">
        <ele>1013.05</ele>
        <time>2026-08-30T07:23:14.188Z</time>
      </trkpt>
      <trkpt lat="43.59733" lon="2.99747">
        <ele>1014.05</ele>
        <time>2026-08-30T07:23:19.188Z</time>
      </trkpt>
      <trkpt lat="43.59738" lon="2.99752">
        <ele>1014.25</ele>
        <time>2026-08-30T07:23:24.188Z</time>
      </trkpt>
      <trkpt lat="43.59743" lon="2.99757">
        <ele>1015.15</ele>
        <time>2026-08-30T07:23:29.188Z</time>
      </trkpt>
      <trkpt lat="43.59748" lon="2.9976">
        <ele>1015.75</ele>
        <time>2026-08-30T07:23:34.188Z</time>
      </trkpt>
      <trkpt lat="43.59752" lon="2.99763">
        <ele>1015.55</ele>
        <time>2026-08-30T07:23:39.188Z</time>
      </trkpt>
      <trkpt lat="43.59756" lon="2.99766">
        <ele>1016.55</ele>
        <time>2026-08-30T07:23:44.188Z</time>
      </trkpt>
      <trkpt lat="43.5976" lon="2.99766">
        <ele>1016.95</ele>
        <time>2026-08-30T07:23:49.188Z</time>
      </trkpt>
      <trkpt lat="43.59764" lon="2.99765">
        <ele>1016.95</ele>
        <time>2026-08-30T07:23:54.188Z</time>
      </trkpt>
      <trkpt lat="43.5977" lon="2.99766">
        <ele>1017.35</ele>
        <time>2026-08-30T07:23:59.188Z</time>
      </trkpt>
      <trkpt lat="43.59776" lon="2.99765">
        <ele>1018.25</ele>
        <time>2026-08-30T07:24:04.188Z</time>
      </trkpt>
      <trkpt lat="43.59781" lon="2.99767">
        <ele>1019.15</ele>
        <time>2026-08-30T07:24:09.188Z</time>
      </trkpt>
      <trkpt lat="43.59785" lon="2.9977">
        <ele>1018.25</ele>
        <time>2026-08-30T07:24:14.188Z</time>
      </trkpt>
      <trkpt lat="43.5979" lon="2.99768">
        <ele>1019.75</ele>
        <time>2026-08-30T07:24:20.187Z</time>
      </trkpt>
      <trkpt lat="43.59794" lon="2.99768">
        <ele>1019.55</ele>
        <time>2026-08-30T07:24:25.188Z</time>
      </trkpt>
      <trkpt lat="43.59799" lon="2.99767">
        <ele>1020.35</ele>
        <time>2026-08-30T07:24:30.188Z</time>
      </trkpt>
      <trkpt lat="43.59804" lon="2.99771">
        <ele>1019.95</ele>
        <time>2026-08-30T07:24:35.188Z</time>
      </trkpt>
      <trkpt lat="43.5981" lon="2.99777">
        <ele>1019.85</ele>
        <time>2026-08-30T07:24:40.188Z</time>
      </trkpt>
      <trkpt lat="43.59814" lon="2.99783">
        <ele>1020.75</ele>
        <time>2026-08-30T07:24:45.188Z</time>
      </trkpt>
      <trkpt lat="43.59816" lon="2.99788">
        <ele>1021.95</ele>
        <time>2026-08-30T07:24:50.188Z</time>
      </trkpt>
      <trkpt lat="43.59818" lon="2.99798">
        <ele>1022.45</ele>
        <time>2026-08-30T07:24:55.188Z</time>
      </trkpt>
      <trkpt lat="43.59819" lon="2.99804">
        <ele>1024.65</ele>
        <time>2026-08-30T07:25:00.188Z</time>
      </trkpt>
      <trkpt lat="43.59822" lon="2.99811">
        <ele>1026.95</ele>
        <time>2026-08-30T07:25:05.188Z</time>
      </trkpt>
      <trkpt lat="43.59824" lon="2.99817">
        <ele>1027.45</ele>
        <time>2026-08-30T07:25:10.188Z</time>
      </trkpt>
      <trkpt lat="43.59826" lon="2.99823">
        <ele>1027.15</ele>
        <time>2026-08-30T07:25:15.188Z</time>
      </trkpt>
      <trkpt lat="43.59831" lon="2.99825">
        <ele>1026.85</ele>
        <time>2026-08-30T07:25:20.188Z</time>
      </trkpt>
      <trkpt lat="43.59836" lon="2.99825">
        <ele>1027.15</ele>
        <time>2026-08-30T07:25:25.188Z</time>
      </trkpt>
      <trkpt lat="43.5984" lon="2.99828">
        <ele>1027.05</ele>
        <time>2026-08-30T07:25:30.188Z</time>
      </trkpt>
      <trkpt lat="43.59846" lon="2.99831">
        <ele>1027.25</ele>
        <time>2026-08-30T07:25:35.188Z</time>
      </trkpt>
      <trkpt lat="43.59851" lon="2.9983">
        <ele>1027.05</ele>
        <time>2026-08-30T07:25:40.188Z</time>
      </trkpt>
      <trkpt lat="43.59857" lon="2.9983">
        <ele>1029.55</ele>
        <time>2026-08-30T07:25:45.188Z</time>
      </trkpt>
      <trkpt lat="43.59862" lon="2.99833">
        <ele>1030.05</ele>
        <time>2026-08-30T07:25:50.188Z</time>
      </trkpt>
      <trkpt lat="43.59869" lon="2.99836">
        <ele>1030.75</ele>
        <time>2026-08-30T07:25:55.188Z</time>
      </trkpt>
      <trkpt lat="43.59872" lon="2.99841">
        <ele>1030.65</ele>
        <time>2026-08-30T07:26:00.188Z</time>
      </trkpt>
      <trkpt lat="43.59877" lon="2.99845">
        <ele>1030.85</ele>
        <time>2026-08-30T07:26:05.188Z</time>
      </trkpt>
      <trkpt lat="43.59883" lon="2.99847">
        <ele>1031.65</ele>
        <time>2026-08-30T07:26:10.188Z</time>
      </trkpt>
      <trkpt lat="43.5989" lon="2.99846">
        <ele>1031.85</ele>
        <time>2026-08-30T07:26:15.188Z</time>
      </trkpt>
      <trkpt lat="43.59895" lon="2.99843">
        <ele>1031.25</ele>
        <time>2026-08-30T07:26:20.188Z</time>
      </trkpt>
      <trkpt lat="43.59902" lon="2.99841">
        <ele>1032.15</ele>
        <time>2026-08-30T07:26:25.188Z</time>
      </trkpt>
      <trkpt lat="43.59908" lon="2.99839">
        <ele>1032.25</ele>
        <time>2026-08-30T07:26:30.188Z</time>
      </trkpt>
      <trkpt lat="43.59917" lon="2.99838">
        <ele>1032.65</ele>
        <time>2026-08-30T07:26:35.188Z</time>
      </trkpt>
      <trkpt lat="43.59924" lon="2.99838">
        <ele>1032.35</ele>
        <time>2026-08-30T07:26:41.187Z</time>
      </trkpt>
      <trkpt lat="43.5993" lon="2.99837">
        <ele>1032.05</ele>
        <time>2026-08-30T07:26:46.187Z</time>
      </trkpt>
      <trkpt lat="43.59937" lon="2.99835">
        <ele>1031.05</ele>
        <time>2026-08-30T07:26:51.187Z</time>
      </trkpt>
      <trkpt lat="43.59943" lon="2.99833">
        <ele>1030.55</ele>
        <time>2026-08-30T07:26:56.187Z</time>
      </trkpt>
      <trkpt lat="43.59949" lon="2.9983">
        <ele>1031.25</ele>
        <time>2026-08-30T07:27:01.187Z</time>
      </trkpt>
      <trkpt lat="43.59956" lon="2.99825">
        <ele>1032.35</ele>
        <time>2026-08-30T07:27:06.187Z</time>
      </trkpt>
      <trkpt lat="43.59962" lon="2.99822">
        <ele>1031.35</ele>
        <time>2026-08-30T07:27:11.187Z</time>
      </trkpt>
      <trkpt lat="43.59968" lon="2.99819">
        <ele>1030.15</ele>
        <time>2026-08-30T07:27:16.187Z</time>
      </trkpt>
      <trkpt lat="43.59974" lon="2.99817">
        <ele>1030.15</ele>
        <time>2026-08-30T07:27:21.187Z</time>
      </trkpt>
      <trkpt lat="43.5998" lon="2.99814">
        <ele>1030.15</ele>
        <time>2026-08-30T07:27:26.187Z</time>
      </trkpt>
      <trkpt lat="43.59988" lon="2.99814">
        <ele>1030.25</ele>
        <time>2026-08-30T07:27:31.187Z</time>
      </trkpt>
      <trkpt lat="43.59993" lon="2.99811">
        <ele>1031.05</ele>
        <time>2026-08-30T07:27:36.187Z</time>
      </trkpt>
      <trkpt lat="43.6" lon="2.99808">
        <ele>1031.15</ele>
        <time>2026-08-30T07:27:41.187Z</time>
      </trkpt>
      <trkpt lat="43.60005" lon="2.99803">
        <ele>1029.85</ele>
        <time>2026-08-30T07:27:46.187Z</time>
      </trkpt>
      <trkpt lat="43.60011" lon="2.99799">
        <ele>1028.85</ele>
        <time>2026-08-30T07:27:51.187Z</time>
      </trkpt>
      <trkpt lat="43.60017" lon="2.99795">
        <ele>1029.35</ele>
        <time>2026-08-30T07:27:56.187Z</time>
      </trkpt>
      <trkpt lat="43.60024" lon="2.99792">
        <ele>1030.05</ele>
        <time>2026-08-30T07:28:02.187Z</time>
      </trkpt>
      <trkpt lat="43.6003" lon="2.99789">
        <ele>1030.15</ele>
        <time>2026-08-30T07:28:07.187Z</time>
      </trkpt>
      <trkpt lat="43.60036" lon="2.99786">
        <ele>1030.65</ele>
        <time>2026-08-30T07:28:12.187Z</time>
      </trkpt>
      <trkpt lat="43.60041" lon="2.99782">
        <ele>1031.45</ele>
        <time>2026-08-30T07:28:17.187Z</time>
      </trkpt>
      <trkpt lat="43.60047" lon="2.99779">
        <ele>1031.85</ele>
        <time>2026-08-30T07:28:22.187Z</time>
      </trkpt>
      <trkpt lat="43.60054" lon="2.99774">
        <ele>1031.85</ele>
        <time>2026-08-30T07:28:27.187Z</time>
      </trkpt>
      <trkpt lat="43.60059" lon="2.99771">
        <ele>1032.35</ele>
        <time>2026-08-30T07:28:32.187Z</time>
      </trkpt>
      <trkpt lat="43.60065" lon="2.99765">
        <ele>1033.75</ele>
        <time>2026-08-30T07:28:37.187Z</time>
      </trkpt>
      <trkpt lat="43.6007" lon="2.9976">
        <ele>1033.85</ele>
        <time>2026-08-30T07:28:42.187Z</time>
      </trkpt>
      <trkpt lat="43.60075" lon="2.99756">
        <ele>1033.65</ele>
        <time>2026-08-30T07:28:47.187Z</time>
      </trkpt>
      <trkpt lat="43.60082" lon="2.99752">
        <ele>1034.45</ele>
        <time>2026-08-30T07:28:52.187Z</time>
      </trkpt>
      <trkpt lat="43.60087" lon="2.99749">
        <ele>1034.65</ele>
        <time>2026-08-30T07:28:57.187Z</time>
      </trkpt>
      <trkpt lat="43.60094" lon="2.99747">
        <ele>1035.05</ele>
        <time>2026-08-30T07:29:02.187Z</time>
      </trkpt>
      <trkpt lat="43.601" lon="2.99745">
        <ele>1034.05</ele>
        <time>2026-08-30T07:29:07.187Z</time>
      </trkpt>
      <trkpt lat="43.60106" lon="2.99741">
        <ele>1033.45</ele>
        <time>2026-08-30T07:29:12.187Z</time>
      </trkpt>
      <trkpt lat="43.60112" lon="2.99737">
        <ele>1032.55</ele>
        <time>2026-08-30T07:29:17.187Z</time>
      </trkpt>
      <trkpt lat="43.60117" lon="2.99732">
        <ele>1032.45</ele>
        <time>2026-08-30T07:29:22.187Z</time>
      </trkpt>
      <trkpt lat="43.60123" lon="2.99727">
        <ele>1032.55</ele>
        <time>2026-08-30T07:29:27.187Z</time>
      </trkpt>
      <trkpt lat="43.60129" lon="2.99722">
        <ele>1032.45</ele>
        <time>2026-08-30T07:29:32.187Z</time>
      </trkpt>
      <trkpt lat="43.60133" lon="2.99715">
        <ele>1032.75</ele>
        <time>2026-08-30T07:29:37.187Z</time>
      </trkpt>
      <trkpt lat="43.60139" lon="2.99709">
        <ele>1033.15</ele>
        <time>2026-08-30T07:29:42.187Z</time>
      </trkpt>
      <trkpt lat="43.60144" lon="2.99701">
        <ele>1032.25</ele>
        <time>2026-08-30T07:29:47.187Z</time>
      </trkpt>
      <trkpt lat="43.60147" lon="2.99695">
        <ele>1031.45</ele>
        <time>2026-08-30T07:29:52.187Z</time>
      </trkpt>
      <trkpt lat="43.60153" lon="2.9969">
        <ele>1031.35</ele>
        <time>2026-08-30T07:29:57.187Z</time>
      </trkpt>
      <trkpt lat="43.60159" lon="2.99684">
        <ele>1031.45</ele>
        <time>2026-08-30T07:30:02.187Z</time>
      </trkpt>
      <trkpt lat="43.60163" lon="2.99677">
        <ele>1030.65</ele>
        <time>2026-08-30T07:30:07.187Z</time>
      </trkpt>
      <trkpt lat="43.60168" lon="2.9967">
        <ele>1030.85</ele>
        <time>2026-08-30T07:30:12.187Z</time>
      </trkpt>
      <trkpt lat="43.60175" lon="2.99664">
        <ele>1032.25</ele>
        <time>2026-08-30T07:30:17.187Z</time>
      </trkpt>
      <trkpt lat="43.6018" lon="2.99661">
        <ele>1032.25</ele>
        <time>2026-08-30T07:30:22.187Z</time>
      </trkpt>
      <trkpt lat="43.60186" lon="2.99658">
        <ele>1030.65</ele>
        <time>2026-08-30T07:30:27.187Z</time>
      </trkpt>
      <trkpt lat="43.60192" lon="2.99657">
        <ele>1029.95</ele>
        <time>2026-08-30T07:30:32.187Z</time>
      </trkpt>
      <trkpt lat="43.60199" lon="2.99656">
        <ele>1028.95</ele>
        <time>2026-08-30T07:30:37.187Z</time>
      </trkpt>
      <trkpt lat="43.60204" lon="2.99655">
        <ele>1029.35</ele>
        <time>2026-08-30T07:30:42.187Z</time>
      </trkpt>
      <trkpt lat="43.6021" lon="2.99652">
        <ele>1028.85</ele>
        <time>2026-08-30T07:30:47.187Z</time>
      </trkpt>
      <trkpt lat="43.60216" lon="2.99644">
        <ele>1027.75</ele>
        <time>2026-08-30T07:30:52.187Z</time>
      </trkpt>
      <trkpt lat="43.60219" lon="2.99635">
        <ele>1027.95</ele>
        <time>2026-08-30T07:30:57.187Z</time>
      </trkpt>
      <trkpt lat="43.60223" lon="2.99629">
        <ele>1027.85</ele>
        <time>2026-08-30T07:31:02.187Z</time>
      </trkpt>
      <trkpt lat="43.60227" lon="2.99622">
        <ele>1027.35</ele>
        <time>2026-08-30T07:31:07.187Z</time>
      </trkpt>
      <trkpt lat="43.6023" lon="2.99615">
        <ele>1029.15</ele>
        <time>2026-08-30T07:31:12.187Z</time>
      </trkpt>
      <trkpt lat="43.60234" lon="2.99607">
        <ele>1030.55</ele>
        <time>2026-08-30T07:31:17.187Z</time>
      </trkpt>
      <trkpt lat="43.60239" lon="2.99604">
        <ele>1032.25</ele>
        <time>2026-08-30T07:31:22.187Z</time>
      </trkpt>
      <trkpt lat="43.60246" lon="2.99604">
        <ele>1034.95</ele>
        <time>2026-08-30T07:31:27.187Z</time>
      </trkpt>
      <trkpt lat="43.60252" lon="2.99604">
        <ele>1035.05</ele>
        <time>2026-08-30T07:31:32.187Z</time>
      </trkpt>
      <trkpt lat="43.60257" lon="2.99605">
        <ele>1035.15</ele>
        <time>2026-08-30T07:31:37.187Z</time>
      </trkpt>
      <trkpt lat="43.60265" lon="2.99605">
        <ele>1034.95</ele>
        <time>2026-08-30T07:31:42.187Z</time>
      </trkpt>
      <trkpt lat="43.60271" lon="2.99607">
        <ele>1036.35</ele>
        <time>2026-08-30T07:31:47.187Z</time>
      </trkpt>
      <trkpt lat="43.60277" lon="2.99608">
        <ele>1037.25</ele>
        <time>2026-08-30T07:31:52.187Z</time>
      </trkpt>
      <trkpt lat="43.60284" lon="2.99608">
        <ele>1037.55</ele>
        <time>2026-08-30T07:31:58.186Z</time>
      </trkpt>
      <trkpt lat="43.60291" lon="2.99608">
        <ele>1038.05</ele>
        <time>2026-08-30T07:32:03.186Z</time>
      </trkpt>
      <trkpt lat="43.60298" lon="2.99607">
        <ele>1038.85</ele>
        <time>2026-08-30T07:32:08.186Z</time>
      </trkpt>
      <trkpt lat="43.60304" lon="2.99606">
        <ele>1039.55</ele>
        <time>2026-08-30T07:32:13.186Z</time>
      </trkpt>
      <trkpt lat="43.60309" lon="2.99604">
        <ele>1039.35</ele>
        <time>2026-08-30T07:32:18.186Z</time>
      </trkpt>
      <trkpt lat="43.60316" lon="2.99602">
        <ele>1039.65</ele>
        <time>2026-08-30T07:32:23.186Z</time>
      </trkpt>
      <trkpt lat="43.60322" lon="2.99599">
        <ele>1040.45</ele>
        <time>2026-08-30T07:32:28.186Z</time>
      </trkpt>
      <trkpt lat="43.60328" lon="2.99597">
        <ele>1040.65</ele>
        <time>2026-08-30T07:32:33.186Z</time>
      </trkpt>
      <trkpt lat="43.60334" lon="2.99596">
        <ele>1040.35</ele>
        <time>2026-08-30T07:32:38.186Z</time>
      </trkpt>
      <trkpt lat="43.60341" lon="2.99594">
        <ele>1040.15</ele>
        <time>2026-08-30T07:32:43.186Z</time>
      </trkpt>
      <trkpt lat="43.60348" lon="2.99591">
        <ele>1040.55</ele>
        <time>2026-08-30T07:32:48.186Z</time>
      </trkpt>
      <trkpt lat="43.60354" lon="2.99588">
        <ele>1039.95</ele>
        <time>2026-08-30T07:32:53.186Z</time>
      </trkpt>
      <trkpt lat="43.60359" lon="2.99584">
        <ele>1040.05</ele>
        <time>2026-08-30T07:32:58.186Z</time>
      </trkpt>
      <trkpt lat="43.60365" lon="2.99583">
        <ele>1039.65</ele>
        <time>2026-08-30T07:33:03.186Z</time>
      </trkpt>
      <trkpt lat="43.60371" lon="2.9958">
        <ele>1040.35</ele>
        <time>2026-08-30T07:33:08.186Z</time>
      </trkpt>
      <trkpt lat="43.60376" lon="2.99578">
        <ele>1041.55</ele>
        <time>2026-08-30T07:33:13.186Z</time>
      </trkpt>
      <trkpt lat="43.60383" lon="2.99576">
        <ele>1042.15</ele>
        <time>2026-08-30T07:33:18.186Z</time>
      </trkpt>
      <trkpt lat="43.60388" lon="2.99574">
        <ele>1043.25</ele>
        <time>2026-08-30T07:33:23.186Z</time>
      </trkpt>
      <trkpt lat="43.60393" lon="2.99576">
        <ele>1043.95</ele>
        <time>2026-08-30T07:33:28.186Z</time>
      </trkpt>
      <trkpt lat="43.60398" lon="2.99579">
        <ele>1043.65</ele>
        <time>2026-08-30T07:33:33.186Z</time>
      </trkpt>
      <trkpt lat="43.60404" lon="2.99579">
        <ele>1043.65</ele>
        <time>2026-08-30T07:33:38.186Z</time>
      </trkpt>
      <trkpt lat="43.6041" lon="2.99577">
        <ele>1043.35</ele>
        <time>2026-08-30T07:33:43.186Z</time>
      </trkpt>
      <trkpt lat="43.60416" lon="2.99572">
        <ele>1043.25</ele>
        <time>2026-08-30T07:33:48.186Z</time>
      </trkpt>
      <trkpt lat="43.60419" lon="2.99567">
        <ele>1043.85</ele>
        <time>2026-08-30T07:33:53.186Z</time>
      </trkpt>
      <trkpt lat="43.60419" lon="2.99567">
        <ele>1044.15</ele>
        <time>2026-08-30T07:33:58.186Z</time>
      </trkpt>
      <trkpt lat="43.60419" lon="2.99568">
        <ele>1044.75</ele>
        <time>2026-08-30T07:34:03.186Z</time>
      </trkpt>
      <trkpt lat="43.60419" lon="2.99568">
        <ele>1044.75</ele>
        <time>2026-08-30T07:34:08.186Z</time>
      </trkpt>
      <trkpt lat="43.60419" lon="2.99568">
        <ele>1044.75</ele>
        <time>2026-08-30T07:34:13.186Z</time>
      </trkpt>
      <trkpt lat="43.60419" lon="2.99568">
        <ele>1044.75</ele>
        <time>2026-08-30T07:34:18.186Z</time>
      </trkpt>
      <trkpt lat="43.60419" lon="2.99568">
        <ele>1044.75</ele>
        <time>2026-08-30T07:34:23.186Z</time>
      </trkpt>
      <trkpt lat="43.60419" lon="2.99568">
        <ele>1044.75</ele>
        <time>2026-08-30T07:34:28.186Z</time>
      </trkpt>
      <trkpt lat="43.60419" lon="2.99568">
        <ele>1044.75</ele>
        <time>2026-08-30T07:34:33.186Z</time>
      </trkpt>
      <trkpt lat="43.60419" lon="2.99568">
        <ele>1044.75</ele>
        <time>2026-08-30T07:34:38.186Z</time>
      </trkpt>
      <trkpt lat="43.60419" lon="2.99568">
        <ele>1044.75</ele>
        <time>2026-08-30T07:34:43.186Z</time>
      </trkpt>
      <trkpt lat="43.60419" lon="2.99568">
        <ele>1044.75</ele>
        <time>2026-08-30T07:34:48.186Z</time>
      </trkpt>
      <trkpt lat="43.60419" lon="2.99568">
        <ele>1044.75</ele>
        <time>2026-08-30T07:34:53.186Z</time>
      </trkpt>
      <trkpt lat="43.60419" lon="2.99568">
        <ele>1044.75</ele>
        <time>2026-08-30T07:34:58.186Z</time>
      </trkpt>
      <trkpt lat="43.60419" lon="2.99568">
        <ele>1044.75</ele>
        <time>2026-08-30T07:35:03.186Z</time>
      </trkpt>
      <trkpt lat="43.60419" lon="2.99568">
        <ele>1044.75</ele>
        <time>2026-08-30T07:35:08.186Z</time>
      </trkpt>
      <trkpt lat="43.60419" lon="2.99568">
        <ele>1044.75</ele>
        <time>2026-08-30T07:35:13.186Z</time>
      </trkpt>
      <trkpt lat="43.60419" lon="2.99568">
        <ele>1044.75</ele>
        <time>2026-08-30T07:35:18.186Z</time>
      </trkpt>
      <trkpt lat="43.60419" lon="2.99568">
        <ele>1044.75</ele>
        <time>2026-08-30T07:35:23.186Z</time>
      </trkpt>
      <trkpt lat="43.60419" lon="2.99568">
        <ele>1044.75</ele>
        <time>2026-08-30T07:35:28.186Z</time>
      </trkpt>
      <trkpt lat="43.60419" lon="2.99568">
        <ele>1044.75</ele>
        <time>2026-08-30T07:35:33.186Z</time>
      </trkpt>
      <trkpt lat="43.60419" lon="2.99568">
        <ele>1044.75</ele>
        <time>2026-08-30T07:35:38.186Z</time>
      </trkpt>
      <trkpt lat="43.60419" lon="2.99568">
        <ele>1044.75</ele>
        <time>2026-08-30T07:35:43.186Z</time>
      </trkpt>
      <trkpt lat="43.60419" lon="2.99568">
        <ele>1044.75</ele>
        <time>2026-08-30T07:35:48.186Z</time>
      </trkpt>
      <trkpt lat="43.60419" lon="2.99568">
        <ele>1044.75</ele>
        <time>2026-08-30T07:35:53.186Z</time>
      </trkpt>
      <trkpt lat="43.60419" lon="2.99568">
        <ele>1044.75</ele>
        <time>2026-08-30T07:35:58.186Z</time>
      </trkpt>
      <trkpt lat="43.60419" lon="2.99568">
        <ele>1044.75</ele>
        <time>2026-08-30T07:36:03.186Z</time>
      </trkpt>
      <trkpt lat="43.60419" lon="2.99568">
        <ele>1044.75</ele>
        <time>2026-08-30T07:36:08.186Z</time>
      </trkpt>
      <trkpt lat="43.6042" lon="2.99574">
        <ele>1047.05</ele>
        <time>2026-08-30T07:36:13.186Z</time>
      </trkpt>
      <trkpt lat="43.60421" lon="2.99582">
        <ele>1046.95</ele>
        <time>2026-08-30T07:36:18.186Z</time>
      </trkpt>
      <trkpt lat="43.60424" lon="2.9959">
        <ele>1045.85</ele>
        <time>2026-08-30T07:36:23.186Z</time>
      </trkpt>
      <trkpt lat="43.60426" lon="2.99596">
        <ele>1044.65</ele>
        <time>2026-08-30T07:36:28.186Z</time>
      </trkpt>
      <trkpt lat="43.60427" lon="2.99604">
        <ele>1043.95</ele>
        <time>2026-08-30T07:36:33.186Z</time>
      </trkpt>
      <trkpt lat="43.60428" lon="2.99611">
        <ele>1042.55</ele>
        <time>2026-08-30T07:36:38.186Z</time>
      </trkpt>
      <trkpt lat="43.60428" lon="2.99618">
        <ele>1041.15</ele>
        <time>2026-08-30T07:36:43.186Z</time>
      </trkpt>
      <trkpt lat="43.60429" lon="2.99626">
        <ele>1040.55</ele>
        <time>2026-08-30T07:36:48.186Z</time>
      </trkpt>
      <trkpt lat="43.60432" lon="2.99632">
        <ele>1040.25</ele>
        <time>2026-08-30T07:36:53.186Z</time>
      </trkpt>
      <trkpt lat="43.60434" lon="2.99638">
        <ele>1039.55</ele>
        <time>2026-08-30T07:36:58.186Z</time>
      </trkpt>
      <trkpt lat="43.60435" lon="2.99644">
        <ele>1038.75</ele>
        <time>2026-08-30T07:37:03.186Z</time>
      </trkpt>
      <trkpt lat="43.60437" lon="2.99652">
        <ele>1037.95</ele>
        <time>2026-08-30T07:37:08.186Z</time>
      </trkpt>
      <trkpt lat="43.60439" lon="2.99661">
        <ele>1036.85</ele>
        <time>2026-08-30T07:37:13.186Z</time>
      </trkpt>
      <trkpt lat="43.60442" lon="2.99668">
        <ele>1035.65</ele>
        <time>2026-08-30T07:37:18.186Z</time>
      </trkpt>
      <trkpt lat="43.60447" lon="2.99671">
        <ele>1034.45</ele>
        <time>2026-08-30T07:37:23.186Z</time>
      </trkpt>
      <trkpt lat="43.60452" lon="2.99677">
        <ele>1032.95</ele>
        <time>2026-08-30T07:37:29.185Z</time>
      </trkpt>
      <trkpt lat="43.60455" lon="2.99683">
        <ele>1032.65</ele>
        <time>2026-08-30T07:37:34.185Z</time>
      </trkpt>
      <trkpt lat="43.60457" lon="2.99689">
        <ele>1032.35</ele>
        <time>2026-08-30T07:37:39.185Z</time>
      </trkpt>
      <trkpt lat="43.60457" lon="2.99696">
        <ele>1030.45</ele>
        <time>2026-08-30T07:37:44.185Z</time>
      </trkpt>
      <trkpt lat="43.60458" lon="2.99702">
        <ele>1029.65</ele>
        <time>2026-08-30T07:37:49.185Z</time>
      </trkpt>
      <trkpt lat="43.60462" lon="2.99706">
        <ele>1029.25</ele>
        <time>2026-08-30T07:37:54.185Z</time>
      </trkpt>
      <trkpt lat="43.60462" lon="2.99713">
        <ele>1028.05</ele>
        <time>2026-08-30T07:37:59.185Z</time>
      </trkpt>
      <trkpt lat="43.60467" lon="2.99718">
        <ele>1027.65</ele>
        <time>2026-08-30T07:38:04.185Z</time>
      </trkpt>
      <trkpt lat="43.60472" lon="2.99723">
        <ele>1026.85</ele>
        <time>2026-08-30T07:38:09.185Z</time>
      </trkpt>
      <trkpt lat="43.60475" lon="2.9973">
        <ele>1025.35</ele>
        <time>2026-08-30T07:38:14.185Z</time>
      </trkpt>
      <trkpt lat="43.60479" lon="2.99738">
        <ele>1025.55</ele>
        <time>2026-08-30T07:38:19.185Z</time>
      </trkpt>
      <trkpt lat="43.60483" lon="2.99742">
        <ele>1024.45</ele>
        <time>2026-08-30T07:38:24.185Z</time>
      </trkpt>
      <trkpt lat="43.60487" lon="2.99749">
        <ele>1023.55</ele>
        <time>2026-08-30T07:38:29.185Z</time>
      </trkpt>
      <trkpt lat="43.60492" lon="2.99753">
        <ele>1021.75</ele>
        <time>2026-08-30T07:38:34.185Z</time>
      </trkpt>
      <trkpt lat="43.60496" lon="2.9976">
        <ele>1020.75</ele>
        <time>2026-08-30T07:38:39.185Z</time>
      </trkpt>
      <trkpt lat="43.60496" lon="2.9977">
        <ele>1019.15</ele>
        <time>2026-08-30T07:38:44.185Z</time>
      </trkpt>
      <trkpt lat="43.60499" lon="2.99777">
        <ele>1019.05</ele>
        <time>2026-08-30T07:38:49.185Z</time>
      </trkpt>
      <trkpt lat="43.60502" lon="2.99784">
        <ele>1018.35</ele>
        <time>2026-08-30T07:38:54.185Z</time>
      </trkpt>
      <trkpt lat="43.60505" lon="2.99791">
        <ele>1018.45</ele>
        <time>2026-08-30T07:38:59.185Z</time>
      </trkpt>
      <trkpt lat="43.60509" lon="2.998">
        <ele>1017.05</ele>
        <time>2026-08-30T07:39:04.185Z</time>
      </trkpt>
      <trkpt lat="43.6051" lon="2.9981">
        <ele>1016.15</ele>
        <time>2026-08-30T07:39:09.185Z</time>
      </trkpt>
      <trkpt lat="43.60514" lon="2.99819">
        <ele>1015.75</ele>
        <time>2026-08-30T07:39:14.185Z</time>
      </trkpt>
      <trkpt lat="43.60517" lon="2.99826">
        <ele>1013.95</ele>
        <time>2026-08-30T07:39:19.185Z</time>
      </trkpt>
      <trkpt lat="43.60518" lon="2.99835">
        <ele>1013.25</ele>
        <time>2026-08-30T07:39:24.185Z</time>
      </trkpt>
      <trkpt lat="43.6052" lon="2.99841">
        <ele>1012.05</ele>
        <time>2026-08-30T07:39:29.185Z</time>
      </trkpt>
      <trkpt lat="43.60523" lon="2.99849">
        <ele>1010.35</ele>
        <time>2026-08-30T07:39:34.185Z</time>
      </trkpt>
      <trkpt lat="43.60525" lon="2.99855">
        <ele>1009.15</ele>
        <time>2026-08-30T07:39:39.185Z</time>
      </trkpt>
      <trkpt lat="43.60529" lon="2.99859">
        <ele>1007.25</ele>
        <time>2026-08-30T07:39:44.185Z</time>
      </trkpt>
      <trkpt lat="43.60533" lon="2.99866">
        <ele>1006.05</ele>
        <time>2026-08-30T07:39:49.185Z</time>
      </trkpt>
      <trkpt lat="43.60538" lon="2.99873">
        <ele>1005.45</ele>
        <time>2026-08-30T07:39:54.185Z</time>
      </trkpt>
      <trkpt lat="43.6054" lon="2.99881">
        <ele>1004.15</ele>
        <time>2026-08-30T07:39:59.185Z</time>
      </trkpt>
      <trkpt lat="43.60544" lon="2.99885">
        <ele>1003.35</ele>
        <time>2026-08-30T07:40:04.185Z</time>
      </trkpt>
      <trkpt lat="43.60549" lon="2.99889">
        <ele>1002.75</ele>
        <time>2026-08-30T07:40:09.185Z</time>
      </trkpt>
      <trkpt lat="43.60556" lon="2.99895">
        <ele>1003.35</ele>
        <time>2026-08-30T07:40:14.185Z</time>
      </trkpt>
      <trkpt lat="43.60562" lon="2.99902">
        <ele>1005.15</ele>
        <time>2026-08-30T07:40:19.185Z</time>
      </trkpt>
      <trkpt lat="43.60564" lon="2.99912">
        <ele>1004.75</ele>
        <time>2026-08-30T07:40:24.185Z</time>
      </trkpt>
      <trkpt lat="43.6057" lon="2.99919">
        <ele>1004.25</ele>
        <time>2026-08-30T07:40:29.185Z</time>
      </trkpt>
      <trkpt lat="43.60574" lon="2.99925">
        <ele>1003.75</ele>
        <time>2026-08-30T07:40:34.185Z</time>
      </trkpt>
      <trkpt lat="43.60576" lon="2.99932">
        <ele>1001.85</ele>
        <time>2026-08-30T07:40:39.185Z</time>
      </trkpt>
      <trkpt lat="43.60579" lon="2.99939">
        <ele>999.55</ele>
        <time>2026-08-30T07:40:44.185Z</time>
      </trkpt>
      <trkpt lat="43.60583" lon="2.99947">
        <ele>997.85</ele>
        <time>2026-08-30T07:40:49.185Z</time>
      </trkpt>
      <trkpt lat="43.60586" lon="2.99954">
        <ele>997.55</ele>
        <time>2026-08-30T07:40:54.185Z</time>
      </trkpt>
      <trkpt lat="43.60586" lon="2.99962">
        <ele>994.75</ele>
        <time>2026-08-30T07:40:59.185Z</time>
      </trkpt>
      <trkpt lat="43.6059" lon="2.99965">
        <ele>993.05</ele>
        <time>2026-08-30T07:41:04.185Z</time>
      </trkpt>
      <trkpt lat="43.60593" lon="2.99972">
        <ele>992.55</ele>
        <time>2026-08-30T07:41:09.185Z</time>
      </trkpt>
      <trkpt lat="43.60599" lon="2.99976">
        <ele>992.55</ele>
        <time>2026-08-30T07:41:14.185Z</time>
      </trkpt>
      <trkpt lat="43.60605" lon="2.9998">
        <ele>991.35</ele>
        <time>2026-08-30T07:41:19.185Z</time>
      </trkpt>
      <trkpt lat="43.60612" lon="2.99986">
        <ele>991.25</ele>
        <time>2026-08-30T07:41:24.185Z</time>
      </trkpt>
      <trkpt lat="43.60619" lon="2.99992">
        <ele>991.25</ele>
        <time>2026-08-30T07:41:29.185Z</time>
      </trkpt>
      <trkpt lat="43.60626" lon="2.99994">
        <ele>990.85</ele>
        <time>2026-08-30T07:41:34.185Z</time>
      </trkpt>
      <trkpt lat="43.60631" lon="3">
        <ele>991.15</ele>
        <time>2026-08-30T07:41:39.185Z</time>
      </trkpt>
      <trkpt lat="43.60634" lon="3.00008">
        <ele>989.75</ele>
        <time>2026-08-30T07:41:44.185Z</time>
      </trkpt>
      <trkpt lat="43.60636" lon="3.00015">
        <ele>989.35</ele>
        <time>2026-08-30T07:41:49.185Z</time>
      </trkpt>
      <trkpt lat="43.60642" lon="3.00018">
        <ele>987.85</ele>
        <time>2026-08-30T07:41:54.185Z</time>
      </trkpt>
      <trkpt lat="43.60645" lon="3.00026">
        <ele>986.85</ele>
        <time>2026-08-30T07:41:59.185Z</time>
      </trkpt>
      <trkpt lat="43.60647" lon="3.00036">
        <ele>985.95</ele>
        <time>2026-08-30T07:42:05.185Z</time>
      </trkpt>
      <trkpt lat="43.60649" lon="3.00043">
        <ele>984.05</ele>
        <time>2026-08-30T07:42:10.185Z</time>
      </trkpt>
      <trkpt lat="43.60652" lon="3.00049">
        <ele>981.65</ele>
        <time>2026-08-30T07:42:15.185Z</time>
      </trkpt>
      <trkpt lat="43.60652" lon="3.00058">
        <ele>980.75</ele>
        <time>2026-08-30T07:42:20.185Z</time>
      </trkpt>
      <trkpt lat="43.60655" lon="3.00065">
        <ele>979.55</ele>
        <time>2026-08-30T07:42:25.185Z</time>
      </trkpt>
      <trkpt lat="43.60661" lon="3.0007">
        <ele>978.15</ele>
        <time>2026-08-30T07:42:30.185Z</time>
      </trkpt>
      <trkpt lat="43.60667" lon="3.00076">
        <ele>977.65</ele>
        <time>2026-08-30T07:42:35.185Z</time>
      </trkpt>
      <trkpt lat="43.60672" lon="3.00083">
        <ele>976.45</ele>
        <time>2026-08-30T07:42:40.185Z</time>
      </trkpt>
      <trkpt lat="43.60678" lon="3.00085">
        <ele>975.25</ele>
        <time>2026-08-30T07:42:45.185Z</time>
      </trkpt>
      <trkpt lat="43.60681" lon="3.00092">
        <ele>974.45</ele>
        <time>2026-08-30T07:42:50.185Z</time>
      </trkpt>
      <trkpt lat="43.60686" lon="3.00097">
        <ele>973.55</ele>
        <time>2026-08-30T07:42:55.185Z</time>
      </trkpt>
      <trkpt lat="43.60691" lon="3.00102">
        <ele>973.45</ele>
        <time>2026-08-30T07:43:01.184Z</time>
      </trkpt>
      <trkpt lat="43.60699" lon="3.00104">
        <ele>973.45</ele>
        <time>2026-08-30T07:43:06.184Z</time>
      </trkpt>
      <trkpt lat="43.60706" lon="3.00106">
        <ele>973.85</ele>
        <time>2026-08-30T07:43:11.184Z</time>
      </trkpt>
      <trkpt lat="43.60712" lon="3.00109">
        <ele>973.85</ele>
        <time>2026-08-30T07:43:16.184Z</time>
      </trkpt>
      <trkpt lat="43.60713" lon="3.00118">
        <ele>973.25</ele>
        <time>2026-08-30T07:43:21.184Z</time>
      </trkpt>
      <trkpt lat="43.60717" lon="3.00126">
        <ele>972.95</ele>
        <time>2026-08-30T07:43:26.184Z</time>
      </trkpt>
      <trkpt lat="43.60722" lon="3.00132">
        <ele>972.55</ele>
        <time>2026-08-30T07:43:31.184Z</time>
      </trkpt>
      <trkpt lat="43.60725" lon="3.00141">
        <ele>972.05</ele>
        <time>2026-08-30T07:43:36.184Z</time>
      </trkpt>
      <trkpt lat="43.60729" lon="3.00149">
        <ele>971.55</ele>
        <time>2026-08-30T07:43:41.184Z</time>
      </trkpt>
      <trkpt lat="43.60734" lon="3.00156">
        <ele>971.05</ele>
        <time>2026-08-30T07:43:46.184Z</time>
      </trkpt>
      <trkpt lat="43.60737" lon="3.00162">
        <ele>970.65</ele>
        <time>2026-08-30T07:43:51.184Z</time>
      </trkpt>
      <trkpt lat="43.60739" lon="3.00168">
        <ele>969.05</ele>
        <time>2026-08-30T07:43:56.184Z</time>
      </trkpt>
      <trkpt lat="43.60743" lon="3.00174">
        <ele>968.35</ele>
        <time>2026-08-30T07:44:01.184Z</time>
      </trkpt>
      <trkpt lat="43.60746" lon="3.00183">
        <ele>966.75</ele>
        <time>2026-08-30T07:44:06.184Z</time>
      </trkpt>
      <trkpt lat="43.6075" lon="3.00186">
        <ele>966.05</ele>
        <time>2026-08-30T07:44:11.184Z</time>
      </trkpt>
      <trkpt lat="43.60756" lon="3.0019">
        <ele>965.55</ele>
        <time>2026-08-30T07:44:16.184Z</time>
      </trkpt>
      <trkpt lat="43.6076" lon="3.00198">
        <ele>965.55</ele>
        <time>2026-08-30T07:44:21.184Z</time>
      </trkpt>
      <trkpt lat="43.60766" lon="3.00201">
        <ele>965.15</ele>
        <time>2026-08-30T07:44:26.184Z</time>
      </trkpt>
      <trkpt lat="43.60773" lon="3.00204">
        <ele>965.05</ele>
        <time>2026-08-30T07:44:31.184Z</time>
      </trkpt>
      <trkpt lat="43.60779" lon="3.00208">
        <ele>966.75</ele>
        <time>2026-08-30T07:44:36.184Z</time>
      </trkpt>
      <trkpt lat="43.60782" lon="3.00213">
        <ele>964.65</ele>
        <time>2026-08-30T07:44:41.184Z</time>
      </trkpt>
      <trkpt lat="43.60786" lon="3.00221">
        <ele>962.55</ele>
        <time>2026-08-30T07:44:46.184Z</time>
      </trkpt>
      <trkpt lat="43.6079" lon="3.00227">
        <ele>960.85</ele>
        <time>2026-08-30T07:44:51.184Z</time>
      </trkpt>
      <trkpt lat="43.60796" lon="3.00233">
        <ele>960.05</ele>
        <time>2026-08-30T07:44:56.184Z</time>
      </trkpt>
      <trkpt lat="43.60801" lon="3.00237">
        <ele>959.85</ele>
        <time>2026-08-30T07:45:01.184Z</time>
      </trkpt>
      <trkpt lat="43.60808" lon="3.00239">
        <ele>958.75</ele>
        <time>2026-08-30T07:45:06.184Z</time>
      </trkpt>
      <trkpt lat="43.60813" lon="3.00239">
        <ele>957.45</ele>
        <time>2026-08-30T07:45:11.184Z</time>
      </trkpt>
      <trkpt lat="43.60817" lon="3.00243">
        <ele>956.45</ele>
        <time>2026-08-30T07:45:16.184Z</time>
      </trkpt>
      <trkpt lat="43.60823" lon="3.00245">
        <ele>955.95</ele>
        <time>2026-08-30T07:45:21.184Z</time>
      </trkpt>
      <trkpt lat="43.60827" lon="3.0025">
        <ele>954.15</ele>
        <time>2026-08-30T07:45:26.184Z</time>
      </trkpt>
      <trkpt lat="43.6083" lon="3.00256">
        <ele>952.55</ele>
        <time>2026-08-30T07:45:31.184Z</time>
      </trkpt>
      <trkpt lat="43.60832" lon="3.00261">
        <ele>950.35</ele>
        <time>2026-08-30T07:45:36.184Z</time>
      </trkpt>
      <trkpt lat="43.60836" lon="3.00265">
        <ele>948.95</ele>
        <time>2026-08-30T07:45:41.184Z</time>
      </trkpt>
      <trkpt lat="43.60838" lon="3.0027">
        <ele>947.45</ele>
        <time>2026-08-30T07:45:46.184Z</time>
      </trkpt>
      <trkpt lat="43.6084" lon="3.00275">
        <ele>945.85</ele>
        <time>2026-08-30T07:45:51.184Z</time>
      </trkpt>
      <trkpt lat="43.60847" lon="3.00275">
        <ele>945.85</ele>
        <time>2026-08-30T07:45:56.184Z</time>
      </trkpt>
      <trkpt lat="43.60851" lon="3.00281">
        <ele>944.35</ele>
        <time>2026-08-30T07:46:01.184Z</time>
      </trkpt>
      <trkpt lat="43.60855" lon="3.00283">
        <ele>943.55</ele>
        <time>2026-08-30T07:46:06.184Z</time>
      </trkpt>
      <trkpt lat="43.60861" lon="3.00284">
        <ele>942.45</ele>
        <time>2026-08-30T07:46:11.184Z</time>
      </trkpt>
      <trkpt lat="43.60867" lon="3.00282">
        <ele>940.55</ele>
        <time>2026-08-30T07:46:16.184Z</time>
      </trkpt>
      <trkpt lat="43.60872" lon="3.00287">
        <ele>939.55</ele>
        <time>2026-08-30T07:46:21.184Z</time>
      </trkpt>
      <trkpt lat="43.60876" lon="3.00294">
        <ele>938.35</ele>
        <time>2026-08-30T07:46:26.184Z</time>
      </trkpt>
      <trkpt lat="43.6088" lon="3.00297">
        <ele>937.95</ele>
        <time>2026-08-30T07:46:31.184Z</time>
      </trkpt>
      <trkpt lat="43.60882" lon="3.00299">
        <ele>937.75</ele>
        <time>2026-08-30T07:46:36.184Z</time>
      </trkpt>
      <trkpt lat="43.60886" lon="3.00302">
        <ele>936.25</ele>
        <time>2026-08-30T07:46:41.184Z</time>
      </trkpt>
      <trkpt lat="43.60887" lon="3.00308">
        <ele>933.85</ele>
        <time>2026-08-30T07:46:46.184Z</time>
      </trkpt>
      <trkpt lat="43.60888" lon="3.00314">
        <ele>931.55</ele>
        <time>2026-08-30T07:46:51.184Z</time>
      </trkpt>
      <trkpt lat="43.60889" lon="3.0032">
        <ele>930.05</ele>
        <time>2026-08-30T07:46:56.184Z</time>
      </trkpt>
      <trkpt lat="43.60892" lon="3.00326">
        <ele>929.45</ele>
        <time>2026-08-30T07:47:01.184Z</time>
      </trkpt>
      <trkpt lat="43.60894" lon="3.00331">
        <ele>928.05</ele>
        <time>2026-08-30T07:47:07.184Z</time>
      </trkpt>
      <trkpt lat="43.60899" lon="3.00337">
        <ele>926.25</ele>
        <time>2026-08-30T07:47:12.184Z</time>
      </trkpt>
      <trkpt lat="43.60902" lon="3.00342">
        <ele>924.45</ele>
        <time>2026-08-30T07:47:17.184Z</time>
      </trkpt>
      <trkpt lat="43.60907" lon="3.00343">
        <ele>922.65</ele>
        <time>2026-08-30T07:47:22.184Z</time>
      </trkpt>
      <trkpt lat="43.60911" lon="3.00349">
        <ele>921.45</ele>
        <time>2026-08-30T07:47:27.184Z</time>
      </trkpt>
      <trkpt lat="43.60916" lon="3.00351">
        <ele>920.65</ele>
        <time>2026-08-30T07:47:32.184Z</time>
      </trkpt>
      <trkpt lat="43.60919" lon="3.00354">
        <ele>919.75</ele>
        <time>2026-08-30T07:47:37.184Z</time>
      </trkpt>
      <trkpt lat="43.60921" lon="3.00359">
        <ele>918.05</ele>
        <time>2026-08-30T07:47:42.184Z</time>
      </trkpt>
      <trkpt lat="43.60923" lon="3.00368">
        <ele>915.65</ele>
        <time>2026-08-30T07:47:47.184Z</time>
      </trkpt>
      <trkpt lat="43.60928" lon="3.00374">
        <ele>913.55</ele>
        <time>2026-08-30T07:47:52.184Z</time>
      </trkpt>
      <trkpt lat="43.60933" lon="3.00382">
        <ele>911.35</ele>
        <time>2026-08-30T07:47:57.184Z</time>
      </trkpt>
      <trkpt lat="43.60939" lon="3.00388">
        <ele>909.25</ele>
        <time>2026-08-30T07:48:02.184Z</time>
      </trkpt>
      <trkpt lat="43.60944" lon="3.00394">
        <ele>907.85</ele>
        <time>2026-08-30T07:48:07.184Z</time>
      </trkpt>
      <trkpt lat="43.60949" lon="3.004">
        <ele>906.65</ele>
        <time>2026-08-30T07:48:12.184Z</time>
      </trkpt>
      <trkpt lat="43.60955" lon="3.00408">
        <ele>905.25</ele>
        <time>2026-08-30T07:48:17.184Z</time>
      </trkpt>
      <trkpt lat="43.60957" lon="3.00417">
        <ele>901.25</ele>
        <time>2026-08-30T07:48:23.183Z</time>
      </trkpt>
      <trkpt lat="43.60956" lon="3.00424">
        <ele>899.85</ele>
        <time>2026-08-30T07:48:28.183Z</time>
      </trkpt>
      <trkpt lat="43.6096" lon="3.00432">
        <ele>897.75</ele>
        <time>2026-08-30T07:48:33.183Z</time>
      </trkpt>
      <trkpt lat="43.60962" lon="3.00441">
        <ele>896.65</ele>
        <time>2026-08-30T07:48:38.183Z</time>
      </trkpt>
      <trkpt lat="43.60968" lon="3.00448">
        <ele>896.05</ele>
        <time>2026-08-30T07:48:43.183Z</time>
      </trkpt>
      <trkpt lat="43.60973" lon="3.00456">
        <ele>894.25</ele>
        <time>2026-08-30T07:48:48.183Z</time>
      </trkpt>
      <trkpt lat="43.60977" lon="3.0046">
        <ele>891.75</ele>
        <time>2026-08-30T07:48:53.183Z</time>
      </trkpt>
      <trkpt lat="43.60985" lon="3.00462">
        <ele>891.45</ele>
        <time>2026-08-30T07:48:58.183Z</time>
      </trkpt>
      <trkpt lat="43.60989" lon="3.00467">
        <ele>889.65</ele>
        <time>2026-08-30T07:49:03.183Z</time>
      </trkpt>
      <trkpt lat="43.60993" lon="3.00474">
        <ele>887.05</ele>
        <time>2026-08-30T07:49:08.183Z</time>
      </trkpt>
      <trkpt lat="43.60995" lon="3.0048">
        <ele>886.55</ele>
        <time>2026-08-30T07:49:13.183Z</time>
      </trkpt>
      <trkpt lat="43.60998" lon="3.00485">
        <ele>884.45</ele>
        <time>2026-08-30T07:49:18.183Z</time>
      </trkpt>
      <trkpt lat="43.60999" lon="3.00492">
        <ele>881.15</ele>
        <time>2026-08-30T07:49:23.183Z</time>
      </trkpt>
      <trkpt lat="43.61002" lon="3.00495">
        <ele>879.35</ele>
        <time>2026-08-30T07:49:28.183Z</time>
      </trkpt>
      <trkpt lat="43.61007" lon="3.00501">
        <ele>877.45</ele>
        <time>2026-08-30T07:49:33.183Z</time>
      </trkpt>
      <trkpt lat="43.61013" lon="3.00504">
        <ele>875.05</ele>
        <time>2026-08-30T07:49:38.183Z</time>
      </trkpt>
      <trkpt lat="43.61019" lon="3.00508">
        <ele>872.75</ele>
        <time>2026-08-30T07:49:43.183Z</time>
      </trkpt>
      <trkpt lat="43.61024" lon="3.00513">
        <ele>871.25</ele>
        <time>2026-08-30T07:49:48.183Z</time>
      </trkpt>
      <trkpt lat="43.61028" lon="3.00521">
        <ele>869.95</ele>
        <time>2026-08-30T07:49:53.183Z</time>
      </trkpt>
      <trkpt lat="43.61031" lon="3.00525">
        <ele>869.45</ele>
        <time>2026-08-30T07:49:58.183Z</time>
      </trkpt>
      <trkpt lat="43.61033" lon="3.00533">
        <ele>869.45</ele>
        <time>2026-08-30T07:50:03.183Z</time>
      </trkpt>
      <trkpt lat="43.6104" lon="3.00535">
        <ele>868.15</ele>
        <time>2026-08-30T07:50:08.183Z</time>
      </trkpt>
      <trkpt lat="43.61044" lon="3.00539">
        <ele>864.25</ele>
        <time>2026-08-30T07:50:13.183Z</time>
      </trkpt>
      <trkpt lat="43.61044" lon="3.00546">
        <ele>862.85</ele>
        <time>2026-08-30T07:50:18.183Z</time>
      </trkpt>
      <trkpt lat="43.61047" lon="3.0055">
        <ele>860.05</ele>
        <time>2026-08-30T07:50:23.183Z</time>
      </trkpt>
      <trkpt lat="43.6105" lon="3.00554">
        <ele>857.75</ele>
        <time>2026-08-30T07:50:28.183Z</time>
      </trkpt>
      <trkpt lat="43.6105" lon="3.00561">
        <ele>855.35</ele>
        <time>2026-08-30T07:50:33.183Z</time>
      </trkpt>
      <trkpt lat="43.61052" lon="3.00568">
        <ele>853.45</ele>
        <time>2026-08-30T07:50:38.183Z</time>
      </trkpt>
      <trkpt lat="43.61053" lon="3.00575">
        <ele>852.15</ele>
        <time>2026-08-30T07:50:43.183Z</time>
      </trkpt>
      <trkpt lat="43.61051" lon="3.00583">
        <ele>849.25</ele>
        <time>2026-08-30T07:50:48.183Z</time>
      </trkpt>
      <trkpt lat="43.61055" lon="3.00587">
        <ele>847.15</ele>
        <time>2026-08-30T07:50:53.183Z</time>
      </trkpt>
      <trkpt lat="43.61058" lon="3.00592">
        <ele>846.25</ele>
        <time>2026-08-30T07:50:58.183Z</time>
      </trkpt>
      <trkpt lat="43.61058" lon="3.00598">
        <ele>844.55</ele>
        <time>2026-08-30T07:51:03.183Z</time>
      </trkpt>
      <trkpt lat="43.61056" lon="3.00605">
        <ele>842.65</ele>
        <time>2026-08-30T07:51:08.183Z</time>
      </trkpt>
      <trkpt lat="43.61056" lon="3.00612">
        <ele>840.85</ele>
        <time>2026-08-30T07:51:13.183Z</time>
      </trkpt>
      <trkpt lat="43.61059" lon="3.00621">
        <ele>839.65</ele>
        <time>2026-08-30T07:51:18.183Z</time>
      </trkpt>
      <trkpt lat="43.61064" lon="3.00621">
        <ele>838.25</ele>
        <time>2026-08-30T07:51:23.183Z</time>
      </trkpt>
      <trkpt lat="43.6107" lon="3.00621">
        <ele>836.05</ele>
        <time>2026-08-30T07:51:28.183Z</time>
      </trkpt>
      <trkpt lat="43.61074" lon="3.00627">
        <ele>833.55</ele>
        <time>2026-08-30T07:51:33.183Z</time>
      </trkpt>
      <trkpt lat="43.61077" lon="3.00636">
        <ele>831.55</ele>
        <time>2026-08-30T07:51:38.183Z</time>
      </trkpt>
      <trkpt lat="43.61081" lon="3.00643">
        <ele>829.45</ele>
        <time>2026-08-30T07:51:43.183Z</time>
      </trkpt>
      <trkpt lat="43.61079" lon="3.0065">
        <ele>826.95</ele>
        <time>2026-08-30T07:51:48.183Z</time>
      </trkpt>
      <trkpt lat="43.61078" lon="3.0066">
        <ele>824.75</ele>
        <time>2026-08-30T07:51:53.183Z</time>
      </trkpt>
      <trkpt lat="43.6108" lon="3.00665">
        <ele>822.65</ele>
        <time>2026-08-30T07:51:58.183Z</time>
      </trkpt>
      <trkpt lat="43.61078" lon="3.00674">
        <ele>821.55</ele>
        <time>2026-08-30T07:52:03.183Z</time>
      </trkpt>
      <trkpt lat="43.61072" lon="3.00681">
        <ele>819.75</ele>
        <time>2026-08-30T07:52:08.183Z</time>
      </trkpt>
      <trkpt lat="43.61067" lon="3.00687">
        <ele>817.05</ele>
        <time>2026-08-30T07:52:13.183Z</time>
      </trkpt>
      <trkpt lat="43.61062" lon="3.00693">
        <ele>814.95</ele>
        <time>2026-08-30T07:52:18.183Z</time>
      </trkpt>
      <trkpt lat="43.61056" lon="3.00694">
        <ele>813.35</ele>
        <time>2026-08-30T07:52:23.183Z</time>
      </trkpt>
      <trkpt lat="43.61055" lon="3.007">
        <ele>812.05</ele>
        <time>2026-08-30T07:52:28.183Z</time>
      </trkpt>
      <trkpt lat="43.61057" lon="3.00705">
        <ele>812.35</ele>
        <time>2026-08-30T07:52:33.183Z</time>
      </trkpt>
      <trkpt lat="43.61059" lon="3.00713">
        <ele>810.85</ele>
        <time>2026-08-30T07:52:38.183Z</time>
      </trkpt>
      <trkpt lat="43.61061" lon="3.00721">
        <ele>809.15</ele>
        <time>2026-08-30T07:52:43.183Z</time>
      </trkpt>
      <trkpt lat="43.61066" lon="3.00726">
        <ele>807.35</ele>
        <time>2026-08-30T07:52:48.183Z</time>
      </trkpt>
      <trkpt lat="43.61069" lon="3.00733">
        <ele>805.45</ele>
        <time>2026-08-30T07:52:53.183Z</time>
      </trkpt>
      <trkpt lat="43.61073" lon="3.00737">
        <ele>803.35</ele>
        <time>2026-08-30T07:52:58.183Z</time>
      </trkpt>
      <trkpt lat="43.61078" lon="3.00738">
        <ele>800.85</ele>
        <time>2026-08-30T07:53:03.183Z</time>
      </trkpt>
      <trkpt lat="43.61084" lon="3.00737">
        <ele>799.65</ele>
        <time>2026-08-30T07:53:08.183Z</time>
      </trkpt>
      <trkpt lat="43.61091" lon="3.00737">
        <ele>798.05</ele>
        <time>2026-08-30T07:53:13.183Z</time>
      </trkpt>
      <trkpt lat="43.61099" lon="3.00736">
        <ele>797.25</ele>
        <time>2026-08-30T07:53:18.183Z</time>
      </trkpt>
      <trkpt lat="43.61105" lon="3.00736">
        <ele>796.25</ele>
        <time>2026-08-30T07:53:23.183Z</time>
      </trkpt>
      <trkpt lat="43.6111" lon="3.00733">
        <ele>794.65</ele>
        <time>2026-08-30T07:53:28.183Z</time>
      </trkpt>
      <trkpt lat="43.61116" lon="3.00727">
        <ele>793.75</ele>
        <time>2026-08-30T07:53:33.183Z</time>
      </trkpt>
      <trkpt lat="43.61123" lon="3.00732">
        <ele>791.85</ele>
        <time>2026-08-30T07:53:38.183Z</time>
      </trkpt>
      <trkpt lat="43.61119" lon="3.0074">
        <ele>791.05</ele>
        <time>2026-08-30T07:53:43.183Z</time>
      </trkpt>
      <trkpt lat="43.61115" lon="3.0075">
        <ele>789.05</ele>
        <time>2026-08-30T07:53:48.183Z</time>
      </trkpt>
      <trkpt lat="43.6111" lon="3.00757">
        <ele>787.85</ele>
        <time>2026-08-30T07:53:53.183Z</time>
      </trkpt>
      <trkpt lat="43.6111" lon="3.0076">
        <ele>786.35</ele>
        <time>2026-08-30T07:53:58.183Z</time>
      </trkpt>
      <trkpt lat="43.61106" lon="3.00768">
        <ele>784.35</ele>
        <time>2026-08-30T07:54:04.182Z</time>
      </trkpt>
      <trkpt lat="43.61102" lon="3.00772">
        <ele>783.75</ele>
        <time>2026-08-30T07:54:09.182Z</time>
      </trkpt>
      <trkpt lat="43.61096" lon="3.0078">
        <ele>782.35</ele>
        <time>2026-08-30T07:54:14.182Z</time>
      </trkpt>
      <trkpt lat="43.6109" lon="3.00786">
        <ele>781.05</ele>
        <time>2026-08-30T07:54:19.182Z</time>
      </trkpt>
      <trkpt lat="43.61084" lon="3.0079">
        <ele>781.25</ele>
        <time>2026-08-30T07:54:25.182Z</time>
      </trkpt>
      <trkpt lat="43.61077" lon="3.00793">
        <ele>780.95</ele>
        <time>2026-08-30T07:54:30.182Z</time>
      </trkpt>
      <trkpt lat="43.61075" lon="3.00799">
        <ele>780.25</ele>
        <time>2026-08-30T07:54:35.182Z</time>
      </trkpt>
      <trkpt lat="43.61073" lon="3.00805">
        <ele>778.45</ele>
        <time>2026-08-30T07:54:40.182Z</time>
      </trkpt>
      <trkpt lat="43.6108" lon="3.00809">
        <ele>776.65</ele>
        <time>2026-08-30T07:54:45.182Z</time>
      </trkpt>
      <trkpt lat="43.61086" lon="3.00811">
        <ele>775.25</ele>
        <time>2026-08-30T07:54:50.182Z</time>
      </trkpt>
      <trkpt lat="43.61093" lon="3.0081">
        <ele>775.95</ele>
        <time>2026-08-30T07:54:55.182Z</time>
      </trkpt>
      <trkpt lat="43.61098" lon="3.00811">
        <ele>777.85</ele>
        <time>2026-08-30T07:55:00.182Z</time>
      </trkpt>
      <trkpt lat="43.61093" lon="3.00821">
        <ele>775.95</ele>
        <time>2026-08-30T07:55:05.182Z</time>
      </trkpt>
      <trkpt lat="43.61087" lon="3.00828">
        <ele>770.85</ele>
        <time>2026-08-30T07:55:10.182Z</time>
      </trkpt>
      <trkpt lat="43.61082" lon="3.00835">
        <ele>769.05</ele>
        <time>2026-08-30T07:55:15.182Z</time>
      </trkpt>
      <trkpt lat="43.61081" lon="3.00836">
        <ele>768.75</ele>
        <time>2026-08-30T07:55:20.182Z</time>
      </trkpt>
      <trkpt lat="43.61074" lon="3.00838">
        <ele>769.15</ele>
        <time>2026-08-30T07:55:25.182Z</time>
      </trkpt>
      <trkpt lat="43.61066" lon="3.00838">
        <ele>768.55</ele>
        <time>2026-08-30T07:55:30.182Z</time>
      </trkpt>
      <trkpt lat="43.61058" lon="3.00837">
        <ele>766.45</ele>
        <time>2026-08-30T07:55:35.182Z</time>
      </trkpt>
      <trkpt lat="43.61051" lon="3.00831">
        <ele>764.95</ele>
        <time>2026-08-30T07:55:40.182Z</time>
      </trkpt>
      <trkpt lat="43.61044" lon="3.00822">
        <ele>763.95</ele>
        <time>2026-08-30T07:55:46.182Z</time>
      </trkpt>
      <trkpt lat="43.61038" lon="3.00817">
        <ele>764.05</ele>
        <time>2026-08-30T07:55:51.182Z</time>
      </trkpt>
      <trkpt lat="43.61032" lon="3.00812">
        <ele>764.15</ele>
        <time>2026-08-30T07:55:56.182Z</time>
      </trkpt>
      <trkpt lat="43.61027" lon="3.00807">
        <ele>765.35</ele>
        <time>2026-08-30T07:56:01.182Z</time>
      </trkpt>
      <trkpt lat="43.61025" lon="3.00803">
        <ele>766.65</ele>
        <time>2026-08-30T07:56:06.182Z</time>
      </trkpt>
      <trkpt lat="43.61022" lon="3.00802">
        <ele>767.55</ele>
        <time>2026-08-30T07:56:11.182Z</time>
      </trkpt>
      <trkpt lat="43.61016" lon="3.00807">
        <ele>770.25</ele>
        <time>2026-08-30T07:56:16.182Z</time>
      </trkpt>
      <trkpt lat="43.6101" lon="3.00814">
        <ele>770.75</ele>
        <time>2026-08-30T07:56:21.182Z</time>
      </trkpt>
      <trkpt lat="43.6101" lon="3.00814">
        <ele>767.15</ele>
        <time>2026-08-30T07:56:26.182Z</time>
      </trkpt>
      <trkpt lat="43.61005" lon="3.00811">
        <ele>762.25</ele>
        <time>2026-08-30T07:56:31.182Z</time>
      </trkpt>
      <trkpt lat="43.60998" lon="3.00812">
        <ele>758.35</ele>
        <time>2026-08-30T07:56:36.182Z</time>
      </trkpt>
      <trkpt lat="43.60993" lon="3.0081">
        <ele>755.15</ele>
        <time>2026-08-30T07:56:41.182Z</time>
      </trkpt>
      <trkpt lat="43.60989" lon="3.00807">
        <ele>753.55</ele>
        <time>2026-08-30T07:56:46.182Z</time>
      </trkpt>
      <trkpt lat="43.60988" lon="3.00806">
        <ele>754.75</ele>
        <time>2026-08-30T07:56:51.182Z</time>
      </trkpt>
      <trkpt lat="43.60987" lon="3.00806">
        <ele>755.45</ele>
        <time>2026-08-30T07:56:57.182Z</time>
      </trkpt>
      <trkpt lat="43.60987" lon="3.00806">
        <ele>755.45</ele>
        <time>2026-08-30T07:57:02.182Z</time>
      </trkpt>
      <trkpt lat="43.60983" lon="3.008">
        <ele>755.95</ele>
        <time>2026-08-30T07:57:07.182Z</time>
      </trkpt>
      <trkpt lat="43.60977" lon="3.00796">
        <ele>754.15</ele>
        <time>2026-08-30T07:57:12.182Z</time>
      </trkpt>
      <trkpt lat="43.60971" lon="3.00796">
        <ele>752.85</ele>
        <time>2026-08-30T07:57:17.182Z</time>
      </trkpt>
      <trkpt lat="43.60965" lon="3.00797">
        <ele>751.15</ele>
        <time>2026-08-30T07:57:22.182Z</time>
      </trkpt>
      <trkpt lat="43.6096" lon="3.00794">
        <ele>750.85</ele>
        <time>2026-08-30T07:57:27.182Z</time>
      </trkpt>
      <trkpt lat="43.60953" lon="3.00795">
        <ele>749.75</ele>
        <time>2026-08-30T07:57:32.182Z</time>
      </trkpt>
      <trkpt lat="43.6095" lon="3.00795">
        <ele>748.35</ele>
        <time>2026-08-30T07:57:37.182Z</time>
      </trkpt>
      <trkpt lat="43.60945" lon="3.00797">
        <ele>748.25</ele>
        <time>2026-08-30T07:57:42.182Z</time>
      </trkpt>
      <trkpt lat="43.60939" lon="3.00799">
        <ele>747.65</ele>
        <time>2026-08-30T07:57:47.182Z</time>
      </trkpt>
      <trkpt lat="43.60932" lon="3.00798">
        <ele>746.95</ele>
        <time>2026-08-30T07:57:53.182Z</time>
      </trkpt>
      <trkpt lat="43.60926" lon="3.008">
        <ele>746.95</ele>
        <time>2026-08-30T07:57:58.182Z</time>
      </trkpt>
      <trkpt lat="43.60922" lon="3.00801">
        <ele>744.25</ele>
        <time>2026-08-30T07:58:03.182Z</time>
      </trkpt>
      <trkpt lat="43.60915" lon="3.00797">
        <ele>742.55</ele>
        <time>2026-08-30T07:58:08.182Z</time>
      </trkpt>
      <trkpt lat="43.6091" lon="3.00796">
        <ele>740.55</ele>
        <time>2026-08-30T07:58:13.182Z</time>
      </trkpt>
      <trkpt lat="43.60904" lon="3.00798">
        <ele>739.65</ele>
        <time>2026-08-30T07:58:18.182Z</time>
      </trkpt>
      <trkpt lat="43.60897" lon="3.00797">
        <ele>738.45</ele>
        <time>2026-08-30T07:58:23.182Z</time>
      </trkpt>
      <trkpt lat="43.60889" lon="3.008">
        <ele>738.65</ele>
        <time>2026-08-30T07:58:28.182Z</time>
      </trkpt>
      <trkpt lat="43.60883" lon="3.00801">
        <ele>738.25</ele>
        <time>2026-08-30T07:58:33.182Z</time>
      </trkpt>
      <trkpt lat="43.60877" lon="3.00797">
        <ele>737.85</ele>
        <time>2026-08-30T07:58:38.182Z</time>
      </trkpt>
      <trkpt lat="43.60869" lon="3.00796">
        <ele>735.95</ele>
        <time>2026-08-30T07:58:43.182Z</time>
      </trkpt>
      <trkpt lat="43.60862" lon="3.00795">
        <ele>737.85</ele>
        <time>2026-08-30T07:58:48.182Z</time>
      </trkpt>
      <trkpt lat="43.60855" lon="3.00794">
        <ele>740.05</ele>
        <time>2026-08-30T07:58:53.182Z</time>
      </trkpt>
      <trkpt lat="43.6085" lon="3.00793">
        <ele>738.45</ele>
        <time>2026-08-30T07:58:58.182Z</time>
      </trkpt>
      <trkpt lat="43.60844" lon="3.00789">
        <ele>733.45</ele>
        <time>2026-08-30T07:59:04.182Z</time>
      </trkpt>
      <trkpt lat="43.60836" lon="3.00786">
        <ele>732.35</ele>
        <time>2026-08-30T07:59:09.182Z</time>
      </trkpt>
      <trkpt lat="43.6083" lon="3.00781">
        <ele>732.05</ele>
        <time>2026-08-30T07:59:14.182Z</time>
      </trkpt>
      <trkpt lat="43.60823" lon="3.00779">
        <ele>729.85</ele>
        <time>2026-08-30T07:59:19.182Z</time>
      </trkpt>
      <trkpt lat="43.60818" lon="3.0078">
        <ele>728.65</ele>
        <time>2026-08-30T07:59:24.182Z</time>
      </trkpt>
      <trkpt lat="43.60812" lon="3.0078">
        <ele>727.15</ele>
        <time>2026-08-30T07:59:29.182Z</time>
      </trkpt>
      <trkpt lat="43.60806" lon="3.00777">
        <ele>727.75</ele>
        <time>2026-08-30T07:59:34.182Z</time>
      </trkpt>
      <trkpt lat="43.60802" lon="3.00771">
        <ele>728.05</ele>
        <time>2026-08-30T07:59:39.182Z</time>
      </trkpt>
      <trkpt lat="43.60796" lon="3.00765">
        <ele>728.65</ele>
        <time>2026-08-30T07:59:45.181Z</time>
      </trkpt>
      <trkpt lat="43.60789" lon="3.00771">
        <ele>732.05</ele>
        <time>2026-08-30T07:59:51.181Z</time>
      </trkpt>
      <trkpt lat="43.60782" lon="3.00776">
        <ele>734.75</ele>
        <time>2026-08-30T07:59:56.181Z</time>
      </trkpt>
      <trkpt lat="43.60777" lon="3.00774">
        <ele>737.05</ele>
        <time>2026-08-30T08:00:01.181Z</time>
      </trkpt>
      <trkpt lat="43.60772" lon="3.00772">
        <ele>736.25</ele>
        <time>2026-08-30T08:00:06.181Z</time>
      </trkpt>
      <trkpt lat="43.60769" lon="3.00772">
        <ele>733.05</ele>
        <time>2026-08-30T08:00:11.181Z</time>
      </trkpt>
      <trkpt lat="43.60765" lon="3.00769">
        <ele>730.05</ele>
        <time>2026-08-30T08:00:16.181Z</time>
      </trkpt>
      <trkpt lat="43.60758" lon="3.00765">
        <ele>727.75</ele>
        <time>2026-08-30T08:00:21.181Z</time>
      </trkpt>
      <trkpt lat="43.60752" lon="3.00759">
        <ele>724.65</ele>
        <time>2026-08-30T08:00:26.181Z</time>
      </trkpt>
      <trkpt lat="43.60746" lon="3.00754">
        <ele>723.55</ele>
        <time>2026-08-30T08:00:31.181Z</time>
      </trkpt>
      <trkpt lat="43.60739" lon="3.00752">
        <ele>722.65</ele>
        <time>2026-08-30T08:00:36.181Z</time>
      </trkpt>
      <trkpt lat="43.60733" lon="3.00757">
        <ele>721.55</ele>
        <time>2026-08-30T08:00:41.181Z</time>
      </trkpt>
      <trkpt lat="43.60728" lon="3.00764">
        <ele>719.55</ele>
        <time>2026-08-30T08:00:46.181Z</time>
      </trkpt>
      <trkpt lat="43.60721" lon="3.00767">
        <ele>717.95</ele>
        <time>2026-08-30T08:00:51.181Z</time>
      </trkpt>
      <trkpt lat="43.60715" lon="3.00771">
        <ele>718.15</ele>
        <time>2026-08-30T08:00:56.181Z</time>
      </trkpt>
      <trkpt lat="43.60709" lon="3.0077">
        <ele>718.65</ele>
        <time>2026-08-30T08:01:01.181Z</time>
      </trkpt>
      <trkpt lat="43.60704" lon="3.00775">
        <ele>718.05</ele>
        <time>2026-08-30T08:01:06.181Z</time>
      </trkpt>
      <trkpt lat="43.607" lon="3.0078">
        <ele>717.55</ele>
        <time>2026-08-30T08:01:11.181Z</time>
      </trkpt>
      <trkpt lat="43.60694" lon="3.00785">
        <ele>716.95</ele>
        <time>2026-08-30T08:01:16.181Z</time>
      </trkpt>
      <trkpt lat="43.60688" lon="3.00786">
        <ele>717.45</ele>
        <time>2026-08-30T08:01:21.181Z</time>
      </trkpt>
      <trkpt lat="43.60681" lon="3.00788">
        <ele>718.75</ele>
        <time>2026-08-30T08:01:26.181Z</time>
      </trkpt>
      <trkpt lat="43.60673" lon="3.00784">
        <ele>719.95</ele>
        <time>2026-08-30T08:01:31.181Z</time>
      </trkpt>
      <trkpt lat="43.60669" lon="3.00784">
        <ele>719.35</ele>
        <time>2026-08-30T08:01:36.181Z</time>
      </trkpt>
      <trkpt lat="43.60665" lon="3.00788">
        <ele>717.15</ele>
        <time>2026-08-30T08:01:42.181Z</time>
      </trkpt>
      <trkpt lat="43.60662" lon="3.00788">
        <ele>717.35</ele>
        <time>2026-08-30T08:01:47.181Z</time>
      </trkpt>
      <trkpt lat="43.60657" lon="3.00792">
        <ele>716.15</ele>
        <time>2026-08-30T08:01:52.181Z</time>
      </trkpt>
      <trkpt lat="43.60652" lon="3.00797">
        <ele>715.65</ele>
        <time>2026-08-30T08:01:57.181Z</time>
      </trkpt>
      <trkpt lat="43.60647" lon="3.00804">
        <ele>715.15</ele>
        <time>2026-08-30T08:02:03.181Z</time>
      </trkpt>
      <trkpt lat="43.60646" lon="3.00808">
        <ele>716.15</ele>
        <time>2026-08-30T08:02:08.181Z</time>
      </trkpt>
      <trkpt lat="43.60641" lon="3.0081">
        <ele>715.65</ele>
        <time>2026-08-30T08:02:13.181Z</time>
      </trkpt>
      <trkpt lat="43.60637" lon="3.00811">
        <ele>714.95</ele>
        <time>2026-08-30T08:02:18.181Z</time>
      </trkpt>
      <trkpt lat="43.60633" lon="3.00813">
        <ele>714.35</ele>
        <time>2026-08-30T08:02:23.181Z</time>
      </trkpt>
      <trkpt lat="43.60628" lon="3.00815">
        <ele>714.05</ele>
        <time>2026-08-30T08:02:28.181Z</time>
      </trkpt>
      <trkpt lat="43.60623" lon="3.00821">
        <ele>714.35</ele>
        <time>2026-08-30T08:02:33.181Z</time>
      </trkpt>
      <trkpt lat="43.60619" lon="3.00828">
        <ele>713.45</ele>
        <time>2026-08-30T08:02:38.181Z</time>
      </trkpt>
      <trkpt lat="43.60615" lon="3.00835">
        <ele>712.15</ele>
        <time>2026-08-30T08:02:43.181Z</time>
      </trkpt>
      <trkpt lat="43.60613" lon="3.00845">
        <ele>713.15</ele>
        <time>2026-08-30T08:02:48.181Z</time>
      </trkpt>
      <trkpt lat="43.60607" lon="3.00849">
        <ele>713.15</ele>
        <time>2026-08-30T08:02:53.181Z</time>
      </trkpt>
      <trkpt lat="43.606" lon="3.00852">
        <ele>715.05</ele>
        <time>2026-08-30T08:02:58.181Z</time>
      </trkpt>
      <trkpt lat="43.60599" lon="3.00857">
        <ele>716.55</ele>
        <time>2026-08-30T08:03:03.181Z</time>
      </trkpt>
      <trkpt lat="43.60594" lon="3.00862">
        <ele>713.95</ele>
        <time>2026-08-30T08:03:08.181Z</time>
      </trkpt>
      <trkpt lat="43.60589" lon="3.00867">
        <ele>711.55</ele>
        <time>2026-08-30T08:03:13.181Z</time>
      </trkpt>
      <trkpt lat="43.60586" lon="3.0087">
        <ele>710.05</ele>
        <time>2026-08-30T08:03:18.181Z</time>
      </trkpt>
      <trkpt lat="43.6058" lon="3.00873">
        <ele>706.75</ele>
        <time>2026-08-30T08:03:23.181Z</time>
      </trkpt>
      <trkpt lat="43.60575" lon="3.00879">
        <ele>706.35</ele>
        <time>2026-08-30T08:03:29.181Z</time>
      </trkpt>
      <trkpt lat="43.60572" lon="3.00881">
        <ele>706.35</ele>
        <time>2026-08-30T08:03:34.181Z</time>
      </trkpt>
      <trkpt lat="43.60568" lon="3.00882">
        <ele>705.55</ele>
        <time>2026-08-30T08:03:39.181Z</time>
      </trkpt>
      <trkpt lat="43.60566" lon="3.00886">
        <ele>704.45</ele>
        <time>2026-08-30T08:03:44.181Z</time>
      </trkpt>
      <trkpt lat="43.60568" lon="3.00889">
        <ele>703.25</ele>
        <time>2026-08-30T08:03:49.181Z</time>
      </trkpt>
      <trkpt lat="43.60568" lon="3.00893">
        <ele>702.95</ele>
        <time>2026-08-30T08:03:54.181Z</time>
      </trkpt>
      <trkpt lat="43.60562" lon="3.00899">
        <ele>702.75</ele>
        <time>2026-08-30T08:03:59.181Z</time>
      </trkpt>
      <trkpt lat="43.6056" lon="3.00894">
        <ele>701.45</ele>
        <time>2026-08-30T08:04:04.181Z</time>
      </trkpt>
      <trkpt lat="43.60557" lon="3.00893">
        <ele>700.75</ele>
        <time>2026-08-30T08:04:09.181Z</time>
      </trkpt>
      <trkpt lat="43.60555" lon="3.00894">
        <ele>699.55</ele>
        <time>2026-08-30T08:04:14.181Z</time>
      </trkpt>
      <trkpt lat="43.60554" lon="3.00896">
        <ele>698.45</ele>
        <time>2026-08-30T08:04:19.181Z</time>
      </trkpt>
      <trkpt lat="43.6055" lon="3.009">
        <ele>697.15</ele>
        <time>2026-08-30T08:04:24.181Z</time>
      </trkpt>
      <trkpt lat="43.60547" lon="3.00903">
        <ele>695.15</ele>
        <time>2026-08-30T08:04:29.181Z</time>
      </trkpt>
      <trkpt lat="43.60545" lon="3.00906">
        <ele>694.35</ele>
        <time>2026-08-30T08:04:34.181Z</time>
      </trkpt>
      <trkpt lat="43.60539" lon="3.00909">
        <ele>694.45</ele>
        <time>2026-08-30T08:04:39.181Z</time>
      </trkpt>
      <trkpt lat="43.60532" lon="3.00904">
        <ele>694.35</ele>
        <time>2026-08-30T08:04:44.181Z</time>
      </trkpt>
      <trkpt lat="43.60527" lon="3.00897">
        <ele>695.75</ele>
        <time>2026-08-30T08:04:49.181Z</time>
      </trkpt>
      <trkpt lat="43.60526" lon="3.00889">
        <ele>695.65</ele>
        <time>2026-08-30T08:04:54.181Z</time>
      </trkpt>
      <trkpt lat="43.60525" lon="3.00884">
        <ele>696.35</ele>
        <time>2026-08-30T08:04:59.181Z</time>
      </trkpt>
      <trkpt lat="43.60522" lon="3.00877">
        <ele>696.75</ele>
        <time>2026-08-30T08:05:05.180Z</time>
      </trkpt>
      <trkpt lat="43.60522" lon="3.00871">
        <ele>697.25</ele>
        <time>2026-08-30T08:05:10.180Z</time>
      </trkpt>
      <trkpt lat="43.60518" lon="3.0087">
        <ele>698.95</ele>
        <time>2026-08-30T08:05:15.180Z</time>
      </trkpt>
      <trkpt lat="43.60516" lon="3.00866">
        <ele>703.05</ele>
        <time>2026-08-30T08:05:20.180Z</time>
      </trkpt>
      <trkpt lat="43.60513" lon="3.00861">
        <ele>702.65</ele>
        <time>2026-08-30T08:05:25.180Z</time>
      </trkpt>
      <trkpt lat="43.6051" lon="3.00856">
        <ele>701.05</ele>
        <time>2026-08-30T08:05:30.180Z</time>
      </trkpt>
      <trkpt lat="43.60505" lon="3.00858">
        <ele>701.45</ele>
        <time>2026-08-30T08:05:35.180Z</time>
      </trkpt>
      <trkpt lat="43.60502" lon="3.00857">
        <ele>701.55</ele>
        <time>2026-08-30T08:05:40.180Z</time>
      </trkpt>
      <trkpt lat="43.60498" lon="3.00853">
        <ele>699.55</ele>
        <time>2026-08-30T08:05:45.180Z</time>
      </trkpt>
      <trkpt lat="43.60493" lon="3.00854">
        <ele>698.05</ele>
        <time>2026-08-30T08:05:50.180Z</time>
      </trkpt>
      <trkpt lat="43.60491" lon="3.00852">
        <ele>696.75</ele>
        <time>2026-08-30T08:05:55.180Z</time>
      </trkpt>
      <trkpt lat="43.6049" lon="3.00844">
        <ele>694.95</ele>
        <time>2026-08-30T08:06:00.180Z</time>
      </trkpt>
      <trkpt lat="43.60487" lon="3.00838">
        <ele>693.95</ele>
        <time>2026-08-30T08:06:05.180Z</time>
      </trkpt>
      <trkpt lat="43.60484" lon="3.00834">
        <ele>694.25</ele>
        <time>2026-08-30T08:06:10.180Z</time>
      </trkpt>
      <trkpt lat="43.60477" lon="3.00837">
        <ele>696.75</ele>
        <time>2026-08-30T08:06:15.180Z</time>
      </trkpt>
      <trkpt lat="43.60471" lon="3.00834">
        <ele>698.05</ele>
        <time>2026-08-30T08:06:20.180Z</time>
      </trkpt>
      <trkpt lat="43.60468" lon="3.00828">
        <ele>697.35</ele>
        <time>2026-08-30T08:06:25.180Z</time>
      </trkpt>
      <trkpt lat="43.60462" lon="3.00826">
        <ele>694.55</ele>
        <time>2026-08-30T08:06:30.180Z</time>
      </trkpt>
      <trkpt lat="43.60458" lon="3.00826">
        <ele>692.05</ele>
        <time>2026-08-30T08:06:35.180Z</time>
      </trkpt>
      <trkpt lat="43.60454" lon="3.00828">
        <ele>691.35</ele>
        <time>2026-08-30T08:06:40.180Z</time>
      </trkpt>
      <trkpt lat="43.60448" lon="3.00825">
        <ele>690.55</ele>
        <time>2026-08-30T08:06:45.180Z</time>
      </trkpt>
      <trkpt lat="43.60444" lon="3.0082">
        <ele>689.95</ele>
        <time>2026-08-30T08:06:50.180Z</time>
      </trkpt>
      <trkpt lat="43.60438" lon="3.0082">
        <ele>690.35</ele>
        <time>2026-08-30T08:06:55.180Z</time>
      </trkpt>
      <trkpt lat="43.60432" lon="3.00821">
        <ele>691.15</ele>
        <time>2026-08-30T08:07:00.180Z</time>
      </trkpt>
      <trkpt lat="43.60428" lon="3.00816">
        <ele>691.25</ele>
        <time>2026-08-30T08:07:05.180Z</time>
      </trkpt>
      <trkpt lat="43.60424" lon="3.00813">
        <ele>690.15</ele>
        <time>2026-08-30T08:07:10.180Z</time>
      </trkpt>
      <trkpt lat="43.60419" lon="3.00811">
        <ele>688.55</ele>
        <time>2026-08-30T08:07:15.180Z</time>
      </trkpt>
      <trkpt lat="43.60414" lon="3.00807">
        <ele>688.15</ele>
        <time>2026-08-30T08:07:20.180Z</time>
      </trkpt>
      <trkpt lat="43.6041" lon="3.00802">
        <ele>687.45</ele>
        <time>2026-08-30T08:07:25.180Z</time>
      </trkpt>
      <trkpt lat="43.60406" lon="3.00791">
        <ele>686.85</ele>
        <time>2026-08-30T08:07:30.180Z</time>
      </trkpt>
      <trkpt lat="43.60401" lon="3.00786">
        <ele>686.65</ele>
        <time>2026-08-30T08:07:35.180Z</time>
      </trkpt>
      <trkpt lat="43.60396" lon="3.00783">
        <ele>686.45</ele>
        <time>2026-08-30T08:07:40.180Z</time>
      </trkpt>
      <trkpt lat="43.60392" lon="3.0078">
        <ele>686.05</ele>
        <time>2026-08-30T08:07:45.180Z</time>
      </trkpt>
      <trkpt lat="43.60385" lon="3.00781">
        <ele>686.25</ele>
        <time>2026-08-30T08:07:50.180Z</time>
      </trkpt>
      <trkpt lat="43.60377" lon="3.00783">
        <ele>685.85</ele>
        <time>2026-08-30T08:07:55.180Z</time>
      </trkpt>
      <trkpt lat="43.60369" lon="3.00787">
        <ele>685.35</ele>
        <time>2026-08-30T08:08:00.180Z</time>
      </trkpt>
      <trkpt lat="43.60364" lon="3.00788">
        <ele>685.15</ele>
        <time>2026-08-30T08:08:05.180Z</time>
      </trkpt>
      <trkpt lat="43.60359" lon="3.00787">
        <ele>685.35</ele>
        <time>2026-08-30T08:08:10.180Z</time>
      </trkpt>
      <trkpt lat="43.60356" lon="3.00789">
        <ele>685.25</ele>
        <time>2026-08-30T08:08:15.180Z</time>
      </trkpt>
      <trkpt lat="43.60349" lon="3.00792">
        <ele>683.65</ele>
        <time>2026-08-30T08:08:20.180Z</time>
      </trkpt>
      <trkpt lat="43.60344" lon="3.00792">
        <ele>682.65</ele>
        <time>2026-08-30T08:08:25.180Z</time>
      </trkpt>
      <trkpt lat="43.60338" lon="3.00791">
        <ele>683.15</ele>
        <time>2026-08-30T08:08:30.180Z</time>
      </trkpt>
      <trkpt lat="43.60334" lon="3.00793">
        <ele>683.35</ele>
        <time>2026-08-30T08:08:35.180Z</time>
      </trkpt>
      <trkpt lat="43.6033" lon="3.00795">
        <ele>682.15</ele>
        <time>2026-08-30T08:08:40.180Z</time>
      </trkpt>
      <trkpt lat="43.60326" lon="3.00799">
        <ele>680.75</ele>
        <time>2026-08-30T08:08:45.180Z</time>
      </trkpt>
      <trkpt lat="43.60322" lon="3.00802">
        <ele>679.15</ele>
        <time>2026-08-30T08:08:50.180Z</time>
      </trkpt>
      <trkpt lat="43.60318" lon="3.00804">
        <ele>676.95</ele>
        <time>2026-08-30T08:08:55.180Z</time>
      </trkpt>
      <trkpt lat="43.60314" lon="3.00806">
        <ele>675.15</ele>
        <time>2026-08-30T08:09:00.180Z</time>
      </trkpt>
      <trkpt lat="43.6031" lon="3.0081">
        <ele>672.75</ele>
        <time>2026-08-30T08:09:05.180Z</time>
      </trkpt>
      <trkpt lat="43.60306" lon="3.00815">
        <ele>671.35</ele>
        <time>2026-08-30T08:09:10.180Z</time>
      </trkpt>
      <trkpt lat="43.60301" lon="3.00819">
        <ele>670.65</ele>
        <time>2026-08-30T08:09:15.180Z</time>
      </trkpt>
      <trkpt lat="43.60296" lon="3.00822">
        <ele>669.65</ele>
        <time>2026-08-30T08:09:20.180Z</time>
      </trkpt>
      <trkpt lat="43.60289" lon="3.00823">
        <ele>670.75</ele>
        <time>2026-08-30T08:09:25.180Z</time>
      </trkpt>
      <trkpt lat="43.60282" lon="3.00824">
        <ele>670.35</ele>
        <time>2026-08-30T08:09:30.180Z</time>
      </trkpt>
      <trkpt lat="43.60277" lon="3.00827">
        <ele>667.25</ele>
        <time>2026-08-30T08:09:35.180Z</time>
      </trkpt>
      <trkpt lat="43.60274" lon="3.00829">
        <ele>663.85</ele>
        <time>2026-08-30T08:09:40.180Z</time>
      </trkpt>
      <trkpt lat="43.60269" lon="3.00829">
        <ele>661.55</ele>
        <time>2026-08-30T08:09:45.180Z</time>
      </trkpt>
      <trkpt lat="43.60263" lon="3.0083">
        <ele>659.45</ele>
        <time>2026-08-30T08:09:50.180Z</time>
      </trkpt>
      <trkpt lat="43.60259" lon="3.00832">
        <ele>659.65</ele>
        <time>2026-08-30T08:09:55.180Z</time>
      </trkpt>
      <trkpt lat="43.60254" lon="3.0083">
        <ele>659.25</ele>
        <time>2026-08-30T08:10:00.180Z</time>
      </trkpt>
      <trkpt lat="43.60246" lon="3.00833">
        <ele>658.65</ele>
        <time>2026-08-30T08:10:06.179Z</time>
      </trkpt>
      <trkpt lat="43.6024" lon="3.00831">
        <ele>657.65</ele>
        <time>2026-08-30T08:10:11.179Z</time>
      </trkpt>
      <trkpt lat="43.60233" lon="3.00829">
        <ele>657.95</ele>
        <time>2026-08-30T08:10:16.179Z</time>
      </trkpt>
      <trkpt lat="43.60226" lon="3.00831">
        <ele>659.55</ele>
        <time>2026-08-30T08:10:21.179Z</time>
      </trkpt>
      <trkpt lat="43.60219" lon="3.0083">
        <ele>662.35</ele>
        <time>2026-08-30T08:10:26.179Z</time>
      </trkpt>
      <trkpt lat="43.60213" lon="3.00829">
        <ele>663.15</ele>
        <time>2026-08-30T08:10:31.179Z</time>
      </trkpt>
      <trkpt lat="43.60207" lon="3.00827">
        <ele>664.85</ele>
        <time>2026-08-30T08:10:36.179Z</time>
      </trkpt>
      <trkpt lat="43.60202" lon="3.00823">
        <ele>665.15</ele>
        <time>2026-08-30T08:10:41.179Z</time>
      </trkpt>
      <trkpt lat="43.60198" lon="3.00817">
        <ele>665.45</ele>
        <time>2026-08-30T08:10:46.179Z</time>
      </trkpt>
      <trkpt lat="43.60192" lon="3.00813">
        <ele>664.85</ele>
        <time>2026-08-30T08:10:51.179Z</time>
      </trkpt>
      <trkpt lat="43.60189" lon="3.00805">
        <ele>664.95</ele>
        <time>2026-08-30T08:10:56.179Z</time>
      </trkpt>
      <trkpt lat="43.60184" lon="3.00798">
        <ele>666.55</ele>
        <time>2026-08-30T08:11:01.179Z</time>
      </trkpt>
      <trkpt lat="43.60177" lon="3.00791">
        <ele>667.85</ele>
        <time>2026-08-30T08:11:06.179Z</time>
      </trkpt>
      <trkpt lat="43.60173" lon="3.00787">
        <ele>668.15</ele>
        <time>2026-08-30T08:11:11.179Z</time>
      </trkpt>
      <trkpt lat="43.6017" lon="3.00784">
        <ele>666.85</ele>
        <time>2026-08-30T08:11:16.179Z</time>
      </trkpt>
      <trkpt lat="43.60167" lon="3.00778">
        <ele>665.45</ele>
        <time>2026-08-30T08:11:21.179Z</time>
      </trkpt>
      <trkpt lat="43.60166" lon="3.00775">
        <ele>664.05</ele>
        <time>2026-08-30T08:11:26.179Z</time>
      </trkpt>
      <trkpt lat="43.6016" lon="3.00774">
        <ele>663.65</ele>
        <time>2026-08-30T08:11:31.179Z</time>
      </trkpt>
      <trkpt lat="43.60154" lon="3.00769">
        <ele>663.45</ele>
        <time>2026-08-30T08:11:36.179Z</time>
      </trkpt>
      <trkpt lat="43.60149" lon="3.00764">
        <ele>663.45</ele>
        <time>2026-08-30T08:11:41.179Z</time>
      </trkpt>
      <trkpt lat="43.60143" lon="3.00762">
        <ele>662.15</ele>
        <time>2026-08-30T08:11:46.179Z</time>
      </trkpt>
      <trkpt lat="43.60138" lon="3.00757">
        <ele>661.35</ele>
        <time>2026-08-30T08:11:51.179Z</time>
      </trkpt>
      <trkpt lat="43.60135" lon="3.00751">
        <ele>660.75</ele>
        <time>2026-08-30T08:11:56.179Z</time>
      </trkpt>
      <trkpt lat="43.60134" lon="3.00748">
        <ele>659.85</ele>
        <time>2026-08-30T08:12:01.179Z</time>
      </trkpt>
      <trkpt lat="43.60134" lon="3.00747">
        <ele>658.95</ele>
        <time>2026-08-30T08:12:06.179Z</time>
      </trkpt>
      <trkpt lat="43.60132" lon="3.00745">
        <ele>659.35</ele>
        <time>2026-08-30T08:12:11.179Z</time>
      </trkpt>
      <trkpt lat="43.60127" lon="3.00742">
        <ele>659.55</ele>
        <time>2026-08-30T08:12:16.179Z</time>
      </trkpt>
      <trkpt lat="43.60121" lon="3.00741">
        <ele>658.85</ele>
        <time>2026-08-30T08:12:21.179Z</time>
      </trkpt>
      <trkpt lat="43.60115" lon="3.00742">
        <ele>657.55</ele>
        <time>2026-08-30T08:12:26.179Z</time>
      </trkpt>
      <trkpt lat="43.60109" lon="3.0074">
        <ele>657.85</ele>
        <time>2026-08-30T08:12:31.179Z</time>
      </trkpt>
      <trkpt lat="43.60102" lon="3.00739">
        <ele>656.45</ele>
        <time>2026-08-30T08:12:36.179Z</time>
      </trkpt>
      <trkpt lat="43.60097" lon="3.00743">
        <ele>655.75</ele>
        <time>2026-08-30T08:12:41.179Z</time>
      </trkpt>
      <trkpt lat="43.60091" lon="3.00747">
        <ele>654.85</ele>
        <time>2026-08-30T08:12:46.179Z</time>
      </trkpt>
      <trkpt lat="43.60085" lon="3.00751">
        <ele>655.15</ele>
        <time>2026-08-30T08:12:51.179Z</time>
      </trkpt>
      <trkpt lat="43.60079" lon="3.00753">
        <ele>655.15</ele>
        <time>2026-08-30T08:12:56.179Z</time>
      </trkpt>
      <trkpt lat="43.60075" lon="3.0075">
        <ele>655.85</ele>
        <time>2026-08-30T08:13:01.179Z</time>
      </trkpt>
      <trkpt lat="43.60067" lon="3.00751">
        <ele>657.75</ele>
        <time>2026-08-30T08:13:06.179Z</time>
      </trkpt>
      <trkpt lat="43.60063" lon="3.0075">
        <ele>657.55</ele>
        <time>2026-08-30T08:13:11.179Z</time>
      </trkpt>
      <trkpt lat="43.60059" lon="3.0075">
        <ele>655.85</ele>
        <time>2026-08-30T08:13:16.179Z</time>
      </trkpt>
      <trkpt lat="43.60053" lon="3.0075">
        <ele>656.05</ele>
        <time>2026-08-30T08:13:21.179Z</time>
      </trkpt>
      <trkpt lat="43.60047" lon="3.00749">
        <ele>654.85</ele>
        <time>2026-08-30T08:13:26.179Z</time>
      </trkpt>
      <trkpt lat="43.60043" lon="3.00745">
        <ele>652.25</ele>
        <time>2026-08-30T08:13:31.179Z</time>
      </trkpt>
      <trkpt lat="43.60038" lon="3.00742">
        <ele>651.35</ele>
        <time>2026-08-30T08:13:36.179Z</time>
      </trkpt>
      <trkpt lat="43.60033" lon="3.00741">
        <ele>650.35</ele>
        <time>2026-08-30T08:13:41.179Z</time>
      </trkpt>
      <trkpt lat="43.60028" lon="3.00739">
        <ele>649.55</ele>
        <time>2026-08-30T08:13:46.179Z</time>
      </trkpt>
      <trkpt lat="43.60024" lon="3.00739">
        <ele>649.45</ele>
        <time>2026-08-30T08:13:51.179Z</time>
      </trkpt>
      <trkpt lat="43.60018" lon="3.00741">
        <ele>648.95</ele>
        <time>2026-08-30T08:13:56.179Z</time>
      </trkpt>
      <trkpt lat="43.60012" lon="3.00737">
        <ele>647.95</ele>
        <time>2026-08-30T08:14:01.179Z</time>
      </trkpt>
      <trkpt lat="43.60007" lon="3.00733">
        <ele>647.45</ele>
        <time>2026-08-30T08:14:06.179Z</time>
      </trkpt>
      <trkpt lat="43.60002" lon="3.00731">
        <ele>645.95</ele>
        <time>2026-08-30T08:14:11.179Z</time>
      </trkpt>
      <trkpt lat="43.59995" lon="3.00728">
        <ele>647.35</ele>
        <time>2026-08-30T08:14:16.179Z</time>
      </trkpt>
      <trkpt lat="43.59989" lon="3.00725">
        <ele>648.05</ele>
        <time>2026-08-30T08:14:21.179Z</time>
      </trkpt>
      <trkpt lat="43.59982" lon="3.00722">
        <ele>647.15</ele>
        <time>2026-08-30T08:14:26.179Z</time>
      </trkpt>
      <trkpt lat="43.59977" lon="3.00722">
        <ele>645.95</ele>
        <time>2026-08-30T08:14:31.179Z</time>
      </trkpt>
      <trkpt lat="43.59972" lon="3.00723">
        <ele>646.65</ele>
        <time>2026-08-30T08:14:36.179Z</time>
      </trkpt>
      <trkpt lat="43.59966" lon="3.00722">
        <ele>646.25</ele>
        <time>2026-08-30T08:14:41.179Z</time>
      </trkpt>
      <trkpt lat="43.59961" lon="3.00719">
        <ele>645.45</ele>
        <time>2026-08-30T08:14:46.179Z</time>
      </trkpt>
      <trkpt lat="43.59955" lon="3.00717">
        <ele>644.05</ele>
        <time>2026-08-30T08:14:51.179Z</time>
      </trkpt>
      <trkpt lat="43.59948" lon="3.00716">
        <ele>643.15</ele>
        <time>2026-08-30T08:14:56.179Z</time>
      </trkpt>
      <trkpt lat="43.59944" lon="3.00713">
        <ele>642.05</ele>
        <time>2026-08-30T08:15:01.179Z</time>
      </trkpt>
      <trkpt lat="43.59939" lon="3.00708">
        <ele>639.65</ele>
        <time>2026-08-30T08:15:06.179Z</time>
      </trkpt>
      <trkpt lat="43.59934" lon="3.00703">
        <ele>639.15</ele>
        <time>2026-08-30T08:15:12.178Z</time>
      </trkpt>
      <trkpt lat="43.59929" lon="3.00695">
        <ele>636.65</ele>
        <time>2026-08-30T08:15:17.178Z</time>
      </trkpt>
      <trkpt lat="43.59923" lon="3.00688">
        <ele>635.25</ele>
        <time>2026-08-30T08:15:22.178Z</time>
      </trkpt>
      <trkpt lat="43.59919" lon="3.00683">
        <ele>634.75</ele>
        <time>2026-08-30T08:15:27.178Z</time>
      </trkpt>
      <trkpt lat="43.59917" lon="3.00676">
        <ele>633.75</ele>
        <time>2026-08-30T08:15:32.178Z</time>
      </trkpt>
      <trkpt lat="43.59909" lon="3.0067">
        <ele>632.75</ele>
        <time>2026-08-30T08:15:37.178Z</time>
      </trkpt>
      <trkpt lat="43.59903" lon="3.00666">
        <ele>633.95</ele>
        <time>2026-08-30T08:15:42.178Z</time>
      </trkpt>
      <trkpt lat="43.59898" lon="3.00666">
        <ele>635.65</ele>
        <time>2026-08-30T08:15:47.178Z</time>
      </trkpt>
      <trkpt lat="43.59892" lon="3.0066">
        <ele>637.85</ele>
        <time>2026-08-30T08:15:52.178Z</time>
      </trkpt>
      <trkpt lat="43.59886" lon="3.00659">
        <ele>639.35</ele>
        <time>2026-08-30T08:15:57.178Z</time>
      </trkpt>
      <trkpt lat="43.5988" lon="3.00654">
        <ele>639.35</ele>
        <time>2026-08-30T08:16:02.178Z</time>
      </trkpt>
      <trkpt lat="43.59875" lon="3.00656">
        <ele>638.85</ele>
        <time>2026-08-30T08:16:07.178Z</time>
      </trkpt>
      <trkpt lat="43.5987" lon="3.00656">
        <ele>638.15</ele>
        <time>2026-08-30T08:16:12.178Z</time>
      </trkpt>
      <trkpt lat="43.59864" lon="3.00657">
        <ele>638.45</ele>
        <time>2026-08-30T08:16:17.178Z</time>
      </trkpt>
      <trkpt lat="43.59859" lon="3.00658">
        <ele>638.85</ele>
        <time>2026-08-30T08:16:22.178Z</time>
      </trkpt>
      <trkpt lat="43.59852" lon="3.00659">
        <ele>638.45</ele>
        <time>2026-08-30T08:16:27.178Z</time>
      </trkpt>
      <trkpt lat="43.59844" lon="3.00659">
        <ele>637.85</ele>
        <time>2026-08-30T08:16:32.178Z</time>
      </trkpt>
      <trkpt lat="43.59839" lon="3.00658">
        <ele>637.35</ele>
        <time>2026-08-30T08:16:37.178Z</time>
      </trkpt>
      <trkpt lat="43.59834" lon="3.00656">
        <ele>634.75</ele>
        <time>2026-08-30T08:16:42.178Z</time>
      </trkpt>
      <trkpt lat="43.59828" lon="3.00654">
        <ele>633.05</ele>
        <time>2026-08-30T08:16:47.178Z</time>
      </trkpt>
      <trkpt lat="43.5982" lon="3.00654">
        <ele>631.85</ele>
        <time>2026-08-30T08:16:52.178Z</time>
      </trkpt>
      <trkpt lat="43.59815" lon="3.00653">
        <ele>630.75</ele>
        <time>2026-08-30T08:16:57.178Z</time>
      </trkpt>
      <trkpt lat="43.59812" lon="3.00653">
        <ele>630.05</ele>
        <time>2026-08-30T08:17:02.178Z</time>
      </trkpt>
      <trkpt lat="43.59807" lon="3.00654">
        <ele>628.75</ele>
        <time>2026-08-30T08:17:07.178Z</time>
      </trkpt>
      <trkpt lat="43.59799" lon="3.0066">
        <ele>629.35</ele>
        <time>2026-08-30T08:17:13.178Z</time>
      </trkpt>
      <trkpt lat="43.59795" lon="3.00666">
        <ele>629.75</ele>
        <time>2026-08-30T08:17:18.178Z</time>
      </trkpt>
      <trkpt lat="43.5979" lon="3.00671">
        <ele>629.75</ele>
        <time>2026-08-30T08:17:23.178Z</time>
      </trkpt>
      <trkpt lat="43.59788" lon="3.00673">
        <ele>629.65</ele>
        <time>2026-08-30T08:17:28.178Z</time>
      </trkpt>
      <trkpt lat="43.59787" lon="3.00674">
        <ele>629.25</ele>
        <time>2026-08-30T08:17:33.178Z</time>
      </trkpt>
      <trkpt lat="43.59786" lon="3.00674">
        <ele>627.95</ele>
        <time>2026-08-30T08:17:38.178Z</time>
      </trkpt>
      <trkpt lat="43.59785" lon="3.00677">
        <ele>628.05</ele>
        <time>2026-08-30T08:17:43.178Z</time>
      </trkpt>
      <trkpt lat="43.59782" lon="3.00678">
        <ele>626.55</ele>
        <time>2026-08-30T08:17:48.178Z</time>
      </trkpt>
      <trkpt lat="43.59778" lon="3.0068">
        <ele>624.15</ele>
        <time>2026-08-30T08:17:53.178Z</time>
      </trkpt>
      <trkpt lat="43.59773" lon="3.00681">
        <ele>623.35</ele>
        <time>2026-08-30T08:17:59.178Z</time>
      </trkpt>
      <trkpt lat="43.5977" lon="3.00685">
        <ele>622.35</ele>
        <time>2026-08-30T08:18:04.178Z</time>
      </trkpt>
      <trkpt lat="43.59767" lon="3.00687">
        <ele>621.35</ele>
        <time>2026-08-30T08:18:09.178Z</time>
      </trkpt>
      <trkpt lat="43.59766" lon="3.00689">
        <ele>619.95</ele>
        <time>2026-08-30T08:18:14.178Z</time>
      </trkpt>
      <trkpt lat="43.59766" lon="3.00695">
        <ele>619.25</ele>
        <time>2026-08-30T08:18:19.178Z</time>
      </trkpt>
      <trkpt lat="43.59766" lon="3.00698">
        <ele>617.25</ele>
        <time>2026-08-30T08:18:24.178Z</time>
      </trkpt>
      <trkpt lat="43.59771" lon="3.00701">
        <ele>614.65</ele>
        <time>2026-08-30T08:18:29.178Z</time>
      </trkpt>
      <trkpt lat="43.59776" lon="3.007">
        <ele>612.15</ele>
        <time>2026-08-30T08:18:34.178Z</time>
      </trkpt>
      <trkpt lat="43.59779" lon="3.007">
        <ele>612.35</ele>
        <time>2026-08-30T08:18:39.178Z</time>
      </trkpt>
      <trkpt lat="43.59779" lon="3.00703">
        <ele>611.35</ele>
        <time>2026-08-30T08:18:44.178Z</time>
      </trkpt>
      <trkpt lat="43.59782" lon="3.00708">
        <ele>609.65</ele>
        <time>2026-08-30T08:18:49.178Z</time>
      </trkpt>
      <trkpt lat="43.5978" lon="3.00713">
        <ele>606.85</ele>
        <time>2026-08-30T08:18:54.178Z</time>
      </trkpt>
      <trkpt lat="43.59784" lon="3.00717">
        <ele>604.45</ele>
        <time>2026-08-30T08:18:59.178Z</time>
      </trkpt>
      <trkpt lat="43.59786" lon="3.00716">
        <ele>603.85</ele>
        <time>2026-08-30T08:19:04.178Z</time>
      </trkpt>
      <trkpt lat="43.5979" lon="3.00719">
        <ele>600.95</ele>
        <time>2026-08-30T08:19:09.178Z</time>
      </trkpt>
      <trkpt lat="43.59793" lon="3.00725">
        <ele>599.75</ele>
        <time>2026-08-30T08:19:14.178Z</time>
      </trkpt>
      <trkpt lat="43.59797" lon="3.00731">
        <ele>599.45</ele>
        <time>2026-08-30T08:19:19.178Z</time>
      </trkpt>
      <trkpt lat="43.598" lon="3.0073">
        <ele>599.55</ele>
        <time>2026-08-30T08:19:24.178Z</time>
      </trkpt>
      <trkpt lat="43.598" lon="3.00737">
        <ele>598.45</ele>
        <time>2026-08-30T08:19:29.178Z</time>
      </trkpt>
      <trkpt lat="43.59801" lon="3.00742">
        <ele>597.55</ele>
        <time>2026-08-30T08:19:34.178Z</time>
      </trkpt>
      <trkpt lat="43.59797" lon="3.00748">
        <ele>597.75</ele>
        <time>2026-08-30T08:19:39.178Z</time>
      </trkpt>
      <trkpt lat="43.59792" lon="3.0075">
        <ele>596.35</ele>
        <time>2026-08-30T08:19:44.178Z</time>
      </trkpt>
      <trkpt lat="43.59786" lon="3.0075">
        <ele>592.75</ele>
        <time>2026-08-30T08:19:50.177Z</time>
      </trkpt>
      <trkpt lat="43.59783" lon="3.0075">
        <ele>589.75</ele>
        <time>2026-08-30T08:19:55.177Z</time>
      </trkpt>
      <trkpt lat="43.59778" lon="3.00752">
        <ele>587.15</ele>
        <time>2026-08-30T08:20:00.177Z</time>
      </trkpt>
      <trkpt lat="43.59775" lon="3.00756">
        <ele>585.15</ele>
        <time>2026-08-30T08:20:05.177Z</time>
      </trkpt>
      <trkpt lat="43.59774" lon="3.00759">
        <ele>583.65</ele>
        <time>2026-08-30T08:20:10.177Z</time>
      </trkpt>
      <trkpt lat="43.59771" lon="3.00766">
        <ele>584.15</ele>
        <time>2026-08-30T08:20:15.177Z</time>
      </trkpt>
      <trkpt lat="43.59769" lon="3.00768">
        <ele>583.05</ele>
        <time>2026-08-30T08:20:20.177Z</time>
      </trkpt>
      <trkpt lat="43.59767" lon="3.00767">
        <ele>580.25</ele>
        <time>2026-08-30T08:20:25.177Z</time>
      </trkpt>
      <trkpt lat="43.59764" lon="3.00768">
        <ele>577.25</ele>
        <time>2026-08-30T08:20:30.177Z</time>
      </trkpt>
      <trkpt lat="43.59762" lon="3.00771">
        <ele>575.55</ele>
        <time>2026-08-30T08:20:35.177Z</time>
      </trkpt>
      <trkpt lat="43.59759" lon="3.00775">
        <ele>574.25</ele>
        <time>2026-08-30T08:20:40.177Z</time>
      </trkpt>
      <trkpt lat="43.59757" lon="3.00778">
        <ele>574.75</ele>
        <time>2026-08-30T08:20:45.177Z</time>
      </trkpt>
      <trkpt lat="43.59754" lon="3.00779">
        <ele>573.65</ele>
        <time>2026-08-30T08:20:50.177Z</time>
      </trkpt>
      <trkpt lat="43.5975" lon="3.00781">
        <ele>571.65</ele>
        <time>2026-08-30T08:20:55.177Z</time>
      </trkpt>
      <trkpt lat="43.59746" lon="3.00782">
        <ele>569.75</ele>
        <time>2026-08-30T08:21:00.177Z</time>
      </trkpt>
      <trkpt lat="43.5974" lon="3.00784">
        <ele>567.55</ele>
        <time>2026-08-30T08:21:05.177Z</time>
      </trkpt>
      <trkpt lat="43.59736" lon="3.00787">
        <ele>565.45</ele>
        <time>2026-08-30T08:21:10.177Z</time>
      </trkpt>
      <trkpt lat="43.59733" lon="3.00792">
        <ele>563.55</ele>
        <time>2026-08-30T08:21:15.177Z</time>
      </trkpt>
      <trkpt lat="43.59732" lon="3.00795">
        <ele>562.15</ele>
        <time>2026-08-30T08:21:20.177Z</time>
      </trkpt>
      <trkpt lat="43.59729" lon="3.008">
        <ele>561.95</ele>
        <time>2026-08-30T08:21:25.177Z</time>
      </trkpt>
      <trkpt lat="43.59725" lon="3.00804">
        <ele>561.15</ele>
        <time>2026-08-30T08:21:30.177Z</time>
      </trkpt>
      <trkpt lat="43.59721" lon="3.00809">
        <ele>560.35</ele>
        <time>2026-08-30T08:21:35.177Z</time>
      </trkpt>
      <trkpt lat="43.59715" lon="3.00809">
        <ele>559.35</ele>
        <time>2026-08-30T08:21:40.177Z</time>
      </trkpt>
      <trkpt lat="43.5971" lon="3.00809">
        <ele>558.45</ele>
        <time>2026-08-30T08:21:45.177Z</time>
      </trkpt>
      <trkpt lat="43.59704" lon="3.00812">
        <ele>557.65</ele>
        <time>2026-08-30T08:21:50.177Z</time>
      </trkpt>
      <trkpt lat="43.59696" lon="3.00814">
        <ele>559.05</ele>
        <time>2026-08-30T08:21:55.177Z</time>
      </trkpt>
      <trkpt lat="43.59691" lon="3.00814">
        <ele>559.15</ele>
        <time>2026-08-30T08:22:00.177Z</time>
      </trkpt>
      <trkpt lat="43.59685" lon="3.00817">
        <ele>557.95</ele>
        <time>2026-08-30T08:22:05.177Z</time>
      </trkpt>
      <trkpt lat="43.59679" lon="3.00821">
        <ele>557.75</ele>
        <time>2026-08-30T08:22:10.177Z</time>
      </trkpt>
      <trkpt lat="43.59671" lon="3.00823">
        <ele>556.15</ele>
        <time>2026-08-30T08:22:15.177Z</time>
      </trkpt>
      <trkpt lat="43.59664" lon="3.00822">
        <ele>556.95</ele>
        <time>2026-08-30T08:22:20.177Z</time>
      </trkpt>
      <trkpt lat="43.59658" lon="3.00824">
        <ele>557.35</ele>
        <time>2026-08-30T08:22:25.177Z</time>
      </trkpt>
      <trkpt lat="43.59653" lon="3.00826">
        <ele>558.65</ele>
        <time>2026-08-30T08:22:30.177Z</time>
      </trkpt>
      <trkpt lat="43.59651" lon="3.00832">
        <ele>559.05</ele>
        <time>2026-08-30T08:22:35.177Z</time>
      </trkpt>
      <trkpt lat="43.59647" lon="3.00839">
        <ele>557.95</ele>
        <time>2026-08-30T08:22:40.177Z</time>
      </trkpt>
      <trkpt lat="43.5964" lon="3.00842">
        <ele>556.45</ele>
        <time>2026-08-30T08:22:45.177Z</time>
      </trkpt>
      <trkpt lat="43.59636" lon="3.00846">
        <ele>555.75</ele>
        <time>2026-08-30T08:22:50.177Z</time>
      </trkpt>
      <trkpt lat="43.5963" lon="3.00848">
        <ele>554.55</ele>
        <time>2026-08-30T08:22:55.177Z</time>
      </trkpt>
      <trkpt lat="43.59625" lon="3.00849">
        <ele>553.95</ele>
        <time>2026-08-30T08:23:00.177Z</time>
      </trkpt>
      <trkpt lat="43.5962" lon="3.00849">
        <ele>552.05</ele>
        <time>2026-08-30T08:23:05.177Z</time>
      </trkpt>
      <trkpt lat="43.59614" lon="3.00847">
        <ele>550.65</ele>
        <time>2026-08-30T08:23:10.177Z</time>
      </trkpt>
      <trkpt lat="43.59611" lon="3.00848">
        <ele>550.25</ele>
        <time>2026-08-30T08:23:15.177Z</time>
      </trkpt>
      <trkpt lat="43.59611" lon="3.00847">
        <ele>548.55</ele>
        <time>2026-08-30T08:23:20.177Z</time>
      </trkpt>
      <trkpt lat="43.59608" lon="3.00849">
        <ele>547.05</ele>
        <time>2026-08-30T08:23:25.177Z</time>
      </trkpt>
      <trkpt lat="43.59601" lon="3.00851">
        <ele>545.55</ele>
        <time>2026-08-30T08:23:30.177Z</time>
      </trkpt>
      <trkpt lat="43.59594" lon="3.00855">
        <ele>545.35</ele>
        <time>2026-08-30T08:23:35.177Z</time>
      </trkpt>
      <trkpt lat="43.5959" lon="3.00859">
        <ele>544.55</ele>
        <time>2026-08-30T08:23:40.177Z</time>
      </trkpt>
      <trkpt lat="43.59582" lon="3.00863">
        <ele>543.15</ele>
        <time>2026-08-30T08:23:46.177Z</time>
      </trkpt>
      <trkpt lat="43.59576" lon="3.00867">
        <ele>541.95</ele>
        <time>2026-08-30T08:23:51.177Z</time>
      </trkpt>
      <trkpt lat="43.5957" lon="3.0087">
        <ele>543.05</ele>
        <time>2026-08-30T08:23:56.177Z</time>
      </trkpt>
      <trkpt lat="43.59566" lon="3.00871">
        <ele>541.35</ele>
        <time>2026-08-30T08:24:01.177Z</time>
      </trkpt>
      <trkpt lat="43.59559" lon="3.00872">
        <ele>538.35</ele>
        <time>2026-08-30T08:24:06.177Z</time>
      </trkpt>
      <trkpt lat="43.59556" lon="3.00876">
        <ele>535.95</ele>
        <time>2026-08-30T08:24:11.177Z</time>
      </trkpt>
      <trkpt lat="43.59556" lon="3.0088">
        <ele>534.05</ele>
        <time>2026-08-30T08:24:16.177Z</time>
      </trkpt>
      <trkpt lat="43.59551" lon="3.00887">
        <ele>532.45</ele>
        <time>2026-08-30T08:24:21.177Z</time>
      </trkpt>
      <trkpt lat="43.59543" lon="3.00887">
        <ele>530.45</ele>
        <time>2026-08-30T08:24:27.176Z</time>
      </trkpt>
      <trkpt lat="43.59536" lon="3.00885">
        <ele>528.55</ele>
        <time>2026-08-30T08:24:33.176Z</time>
      </trkpt>
      <trkpt lat="43.59528" lon="3.00881">
        <ele>526.75</ele>
        <time>2026-08-30T08:24:38.176Z</time>
      </trkpt>
      <trkpt lat="43.59524" lon="3.00876">
        <ele>524.45</ele>
        <time>2026-08-30T08:24:43.176Z</time>
      </trkpt>
      <trkpt lat="43.59521" lon="3.00879">
        <ele>523.35</ele>
        <time>2026-08-30T08:24:48.176Z</time>
      </trkpt>
      <trkpt lat="43.59517" lon="3.0088">
        <ele>522.75</ele>
        <time>2026-08-30T08:24:53.176Z</time>
      </trkpt>
      <trkpt lat="43.59508" lon="3.00881">
        <ele>520.75</ele>
        <time>2026-08-30T08:24:58.176Z</time>
      </trkpt>
      <trkpt lat="43.59502" lon="3.00878">
        <ele>517.55</ele>
        <time>2026-08-30T08:25:03.176Z</time>
      </trkpt>
      <trkpt lat="43.59497" lon="3.00879">
        <ele>515.25</ele>
        <time>2026-08-30T08:25:08.176Z</time>
      </trkpt>
      <trkpt lat="43.59492" lon="3.00876">
        <ele>513.75</ele>
        <time>2026-08-30T08:25:13.176Z</time>
      </trkpt>
      <trkpt lat="43.59486" lon="3.00874">
        <ele>512.45</ele>
        <time>2026-08-30T08:25:18.176Z</time>
      </trkpt>
      <trkpt lat="43.5948" lon="3.0087">
        <ele>510.75</ele>
        <time>2026-08-30T08:25:23.176Z</time>
      </trkpt>
      <trkpt lat="43.59475" lon="3.00868">
        <ele>509.05</ele>
        <time>2026-08-30T08:25:28.176Z</time>
      </trkpt>
      <trkpt lat="43.5947" lon="3.00867">
        <ele>508.15</ele>
        <time>2026-08-30T08:25:33.176Z</time>
      </trkpt>
      <trkpt lat="43.59465" lon="3.00866">
        <ele>506.45</ele>
        <time>2026-08-30T08:25:38.176Z</time>
      </trkpt>
      <trkpt lat="43.59461" lon="3.00862">
        <ele>504.25</ele>
        <time>2026-08-30T08:25:43.176Z</time>
      </trkpt>
      <trkpt lat="43.59455" lon="3.00859">
        <ele>502.75</ele>
        <time>2026-08-30T08:25:48.176Z</time>
      </trkpt>
      <trkpt lat="43.5945" lon="3.00855">
        <ele>500.45</ele>
        <time>2026-08-30T08:25:53.176Z</time>
      </trkpt>
      <trkpt lat="43.59446" lon="3.00853">
        <ele>498.85</ele>
        <time>2026-08-30T08:25:58.176Z</time>
      </trkpt>
      <trkpt lat="43.5944" lon="3.0085">
        <ele>497.05</ele>
        <time>2026-08-30T08:26:03.176Z</time>
      </trkpt>
      <trkpt lat="43.59437" lon="3.00848">
        <ele>495.85</ele>
        <time>2026-08-30T08:26:08.176Z</time>
      </trkpt>
      <trkpt lat="43.59433" lon="3.00851">
        <ele>493.95</ele>
        <time>2026-08-30T08:26:13.176Z</time>
      </trkpt>
      <trkpt lat="43.59429" lon="3.00854">
        <ele>492.65</ele>
        <time>2026-08-30T08:26:18.176Z</time>
      </trkpt>
      <trkpt lat="43.59425" lon="3.00853">
        <ele>490.85</ele>
        <time>2026-08-30T08:26:23.176Z</time>
      </trkpt>
      <trkpt lat="43.59421" lon="3.00855">
        <ele>489.95</ele>
        <time>2026-08-30T08:26:28.176Z</time>
      </trkpt>
      <trkpt lat="43.59417" lon="3.00855">
        <ele>488.55</ele>
        <time>2026-08-30T08:26:33.176Z</time>
      </trkpt>
      <trkpt lat="43.59412" lon="3.00856">
        <ele>487.55</ele>
        <time>2026-08-30T08:26:38.176Z</time>
      </trkpt>
      <trkpt lat="43.59407" lon="3.00859">
        <ele>486.05</ele>
        <time>2026-08-30T08:26:43.176Z</time>
      </trkpt>
      <trkpt lat="43.59403" lon="3.00859">
        <ele>484.75</ele>
        <time>2026-08-30T08:26:48.176Z</time>
      </trkpt>
      <trkpt lat="43.59399" lon="3.00859">
        <ele>482.65</ele>
        <time>2026-08-30T08:26:53.176Z</time>
      </trkpt>
      <trkpt lat="43.59393" lon="3.00859">
        <ele>480.75</ele>
        <time>2026-08-30T08:26:58.176Z</time>
      </trkpt>
      <trkpt lat="43.59388" lon="3.00857">
        <ele>479.85</ele>
        <time>2026-08-30T08:27:03.176Z</time>
      </trkpt>
      <trkpt lat="43.59384" lon="3.00858">
        <ele>478.35</ele>
        <time>2026-08-30T08:27:08.176Z</time>
      </trkpt>
      <trkpt lat="43.59378" lon="3.00855">
        <ele>476.95</ele>
        <time>2026-08-30T08:27:13.176Z</time>
      </trkpt>
      <trkpt lat="43.59373" lon="3.00852">
        <ele>475.45</ele>
        <time>2026-08-30T08:27:19.176Z</time>
      </trkpt>
      <trkpt lat="43.59367" lon="3.00851">
        <ele>473.55</ele>
        <time>2026-08-30T08:27:24.176Z</time>
      </trkpt>
      <trkpt lat="43.59359" lon="3.00855">
        <ele>471.85</ele>
        <time>2026-08-30T08:27:30.176Z</time>
      </trkpt>
      <trkpt lat="43.59353" lon="3.00851">
        <ele>470.25</ele>
        <time>2026-08-30T08:27:35.176Z</time>
      </trkpt>
      <trkpt lat="43.59348" lon="3.00851">
        <ele>468.55</ele>
        <time>2026-08-30T08:27:40.176Z</time>
      </trkpt>
      <trkpt lat="43.59344" lon="3.00849">
        <ele>468.35</ele>
        <time>2026-08-30T08:27:45.176Z</time>
      </trkpt>
      <trkpt lat="43.59341" lon="3.0085">
        <ele>467.45</ele>
        <time>2026-08-30T08:27:50.176Z</time>
      </trkpt>
      <trkpt lat="43.59344" lon="3.00854">
        <ele>465.95</ele>
        <time>2026-08-30T08:27:55.176Z</time>
      </trkpt>
      <trkpt lat="43.5934" lon="3.0086">
        <ele>464.95</ele>
        <time>2026-08-30T08:28:00.176Z</time>
      </trkpt>
      <trkpt lat="43.59336" lon="3.00859">
        <ele>463.55</ele>
        <time>2026-08-30T08:28:05.176Z</time>
      </trkpt>
      <trkpt lat="43.59332" lon="3.00857">
        <ele>461.75</ele>
        <time>2026-08-30T08:28:10.176Z</time>
      </trkpt>
      <trkpt lat="43.59328" lon="3.00858">
        <ele>461.65</ele>
        <time>2026-08-30T08:28:15.176Z</time>
      </trkpt>
      <trkpt lat="43.59325" lon="3.00856">
        <ele>460.45</ele>
        <time>2026-08-30T08:28:20.176Z</time>
      </trkpt>
      <trkpt lat="43.59321" lon="3.00853">
        <ele>458.55</ele>
        <time>2026-08-30T08:28:25.176Z</time>
      </trkpt>
      <trkpt lat="43.59316" lon="3.00854">
        <ele>455.45</ele>
        <time>2026-08-30T08:28:30.176Z</time>
      </trkpt>
      <trkpt lat="43.59312" lon="3.00855">
        <ele>452.15</ele>
        <time>2026-08-30T08:28:35.176Z</time>
      </trkpt>
      <trkpt lat="43.59309" lon="3.00856">
        <ele>450.35</ele>
        <time>2026-08-30T08:28:40.176Z</time>
      </trkpt>
      <trkpt lat="43.59306" lon="3.00859">
        <ele>448.35</ele>
        <time>2026-08-30T08:28:45.176Z</time>
      </trkpt>
      <trkpt lat="43.59306" lon="3.00864">
        <ele>447.15</ele>
        <time>2026-08-30T08:28:50.176Z</time>
      </trkpt>
      <trkpt lat="43.593" lon="3.00869">
        <ele>446.45</ele>
        <time>2026-08-30T08:28:55.176Z</time>
      </trkpt>
      <trkpt lat="43.59296" lon="3.00871">
        <ele>445.75</ele>
        <time>2026-08-30T08:29:00.176Z</time>
      </trkpt>
      <trkpt lat="43.59292" lon="3.00871">
        <ele>443.85</ele>
        <time>2026-08-30T08:29:05.176Z</time>
      </trkpt>
      <trkpt lat="43.59289" lon="3.00868">
        <ele>440.95</ele>
        <time>2026-08-30T08:29:10.176Z</time>
      </trkpt>
      <trkpt lat="43.59285" lon="3.00864">
        <ele>437.65</ele>
        <time>2026-08-30T08:29:15.176Z</time>
      </trkpt>
      <trkpt lat="43.59281" lon="3.00862">
        <ele>436.15</ele>
        <time>2026-08-30T08:29:20.176Z</time>
      </trkpt>
      <trkpt lat="43.59275" lon="3.00861">
        <ele>434.45</ele>
        <time>2026-08-30T08:29:25.176Z</time>
      </trkpt>
      <trkpt lat="43.59269" lon="3.00861">
        <ele>432.55</ele>
        <time>2026-08-30T08:29:31.175Z</time>
      </trkpt>
      <trkpt lat="43.59264" lon="3.0086">
        <ele>430.85</ele>
        <time>2026-08-30T08:29:36.175Z</time>
      </trkpt>
      <trkpt lat="43.59257" lon="3.00863">
        <ele>429.05</ele>
        <time>2026-08-30T08:29:42.175Z</time>
      </trkpt>
      <trkpt lat="43.59251" lon="3.00863">
        <ele>429.85</ele>
        <time>2026-08-30T08:29:47.175Z</time>
      </trkpt>
      <trkpt lat="43.59246" lon="3.00859">
        <ele>430.35</ele>
        <time>2026-08-30T08:29:52.175Z</time>
      </trkpt>
      <trkpt lat="43.59241" lon="3.00859">
        <ele>429.25</ele>
        <time>2026-08-30T08:29:57.175Z</time>
      </trkpt>
      <trkpt lat="43.59236" lon="3.00857">
        <ele>426.95</ele>
        <time>2026-08-30T08:30:02.175Z</time>
      </trkpt>
      <trkpt lat="43.5923" lon="3.00858">
        <ele>426.35</ele>
        <time>2026-08-30T08:30:07.175Z</time>
      </trkpt>
      <trkpt lat="43.59225" lon="3.00856">
        <ele>423.85</ele>
        <time>2026-08-30T08:30:12.175Z</time>
      </trkpt>
      <trkpt lat="43.59221" lon="3.00857">
        <ele>422.55</ele>
        <time>2026-08-30T08:30:17.175Z</time>
      </trkpt>
      <trkpt lat="43.59216" lon="3.00857">
        <ele>421.75</ele>
        <time>2026-08-30T08:30:22.175Z</time>
      </trkpt>
      <trkpt lat="43.59212" lon="3.00854">
        <ele>419.95</ele>
        <time>2026-08-30T08:30:27.175Z</time>
      </trkpt>
      <trkpt lat="43.59208" lon="3.00855">
        <ele>419.15</ele>
        <time>2026-08-30T08:30:32.175Z</time>
      </trkpt>
      <trkpt lat="43.59203" lon="3.00855">
        <ele>418.25</ele>
        <time>2026-08-30T08:30:37.175Z</time>
      </trkpt>
      <trkpt lat="43.59198" lon="3.00853">
        <ele>415.75</ele>
        <time>2026-08-30T08:30:42.175Z</time>
      </trkpt>
      <trkpt lat="43.5919" lon="3.00854">
        <ele>414.15</ele>
        <time>2026-08-30T08:30:47.175Z</time>
      </trkpt>
      <trkpt lat="43.59182" lon="3.00853">
        <ele>412.15</ele>
        <time>2026-08-30T08:30:52.175Z</time>
      </trkpt>
      <trkpt lat="43.59178" lon="3.00849">
        <ele>408.35</ele>
        <time>2026-08-30T08:30:57.175Z</time>
      </trkpt>
      <trkpt lat="43.59173" lon="3.00839">
        <ele>407.05</ele>
        <time>2026-08-30T08:31:02.175Z</time>
      </trkpt>
      <trkpt lat="43.59169" lon="3.00832">
        <ele>406.15</ele>
        <time>2026-08-30T08:31:07.175Z</time>
      </trkpt>
      <trkpt lat="43.59165" lon="3.00828">
        <ele>404.65</ele>
        <time>2026-08-30T08:31:12.175Z</time>
      </trkpt>
      <trkpt lat="43.5916" lon="3.0083">
        <ele>403.35</ele>
        <time>2026-08-30T08:31:17.175Z</time>
      </trkpt>
      <trkpt lat="43.59157" lon="3.00833">
        <ele>402.85</ele>
        <time>2026-08-30T08:31:22.175Z</time>
      </trkpt>
      <trkpt lat="43.59152" lon="3.00834">
        <ele>402.95</ele>
        <time>2026-08-30T08:31:27.175Z</time>
      </trkpt>
      <trkpt lat="43.59147" lon="3.00836">
        <ele>402.75</ele>
        <time>2026-08-30T08:31:32.175Z</time>
      </trkpt>
      <trkpt lat="43.59142" lon="3.00837">
        <ele>401.05</ele>
        <time>2026-08-30T08:31:37.175Z</time>
      </trkpt>
      <trkpt lat="43.59137" lon="3.0083">
        <ele>400.35</ele>
        <time>2026-08-30T08:31:42.175Z</time>
      </trkpt>
      <trkpt lat="43.59133" lon="3.00824">
        <ele>399.95</ele>
        <time>2026-08-30T08:31:47.175Z</time>
      </trkpt>
      <trkpt lat="43.59129" lon="3.00823">
        <ele>399.65</ele>
        <time>2026-08-30T08:31:52.175Z</time>
      </trkpt>
      <trkpt lat="43.59124" lon="3.00828">
        <ele>399.25</ele>
        <time>2026-08-30T08:31:57.175Z</time>
      </trkpt>
      <trkpt lat="43.59118" lon="3.0083">
        <ele>399.05</ele>
        <time>2026-08-30T08:32:02.175Z</time>
      </trkpt>
      <trkpt lat="43.59111" lon="3.00837">
        <ele>398.55</ele>
        <time>2026-08-30T08:32:07.175Z</time>
      </trkpt>
      <trkpt lat="43.59102" lon="3.00841">
        <ele>398.95</ele>
        <time>2026-08-30T08:32:12.175Z</time>
      </trkpt>
      <trkpt lat="43.59094" lon="3.00838">
        <ele>397.75</ele>
        <time>2026-08-30T08:32:17.175Z</time>
      </trkpt>
      <trkpt lat="43.59089" lon="3.00836">
        <ele>396.35</ele>
        <time>2026-08-30T08:32:22.175Z</time>
      </trkpt>
      <trkpt lat="43.59082" lon="3.00837">
        <ele>394.75</ele>
        <time>2026-08-30T08:32:27.175Z</time>
      </trkpt>
      <trkpt lat="43.59075" lon="3.0084">
        <ele>393.65</ele>
        <time>2026-08-30T08:32:32.175Z</time>
      </trkpt>
      <trkpt lat="43.5907" lon="3.0084">
        <ele>392.35</ele>
        <time>2026-08-30T08:32:37.175Z</time>
      </trkpt>
      <trkpt lat="43.59066" lon="3.0084">
        <ele>391.15</ele>
        <time>2026-08-30T08:32:42.175Z</time>
      </trkpt>
      <trkpt lat="43.5906" lon="3.0084">
        <ele>390.35</ele>
        <time>2026-08-30T08:32:47.175Z</time>
      </trkpt>
      <trkpt lat="43.59054" lon="3.00842">
        <ele>388.85</ele>
        <time>2026-08-30T08:32:52.175Z</time>
      </trkpt>
      <trkpt lat="43.59049" lon="3.00846">
        <ele>387.05</ele>
        <time>2026-08-30T08:32:57.175Z</time>
      </trkpt>
      <trkpt lat="43.59043" lon="3.00845">
        <ele>386.35</ele>
        <time>2026-08-30T08:33:02.175Z</time>
      </trkpt>
      <trkpt lat="43.59037" lon="3.00846">
        <ele>385.75</ele>
        <time>2026-08-30T08:33:07.175Z</time>
      </trkpt>
      <trkpt lat="43.59031" lon="3.00842">
        <ele>385.85</ele>
        <time>2026-08-30T08:33:12.175Z</time>
      </trkpt>
      <trkpt lat="43.59024" lon="3.00847">
        <ele>388.25</ele>
        <time>2026-08-30T08:33:17.175Z</time>
      </trkpt>
      <trkpt lat="43.59016" lon="3.00846">
        <ele>390.15</ele>
        <time>2026-08-30T08:33:22.175Z</time>
      </trkpt>
      <trkpt lat="43.5901" lon="3.00842">
        <ele>390.75</ele>
        <time>2026-08-30T08:33:27.175Z</time>
      </trkpt>
      <trkpt lat="43.59005" lon="3.00837">
        <ele>388.15</ele>
        <time>2026-08-30T08:33:32.175Z</time>
      </trkpt>
      <trkpt lat="43.59001" lon="3.00833">
        <ele>385.15</ele>
        <time>2026-08-30T08:33:37.175Z</time>
      </trkpt>
      <trkpt lat="43.58996" lon="3.00835">
        <ele>385.15</ele>
        <time>2026-08-30T08:33:42.175Z</time>
      </trkpt>
      <trkpt lat="43.58992" lon="3.0084">
        <ele>387.05</ele>
        <time>2026-08-30T08:33:47.175Z</time>
      </trkpt>
      <trkpt lat="43.58988" lon="3.00845">
        <ele>385.65</ele>
        <time>2026-08-30T08:33:52.175Z</time>
      </trkpt>
      <trkpt lat="43.58983" lon="3.0085">
        <ele>383.55</ele>
        <time>2026-08-30T08:33:57.175Z</time>
      </trkpt>
      <trkpt lat="43.58977" lon="3.00853">
        <ele>381.95</ele>
        <time>2026-08-30T08:34:02.175Z</time>
      </trkpt>
      <trkpt lat="43.58972" lon="3.00855">
        <ele>380.15</ele>
        <time>2026-08-30T08:34:07.175Z</time>
      </trkpt>
      <trkpt lat="43.58967" lon="3.00855">
        <ele>378.85</ele>
        <time>2026-08-30T08:34:13.174Z</time>
      </trkpt>
      <trkpt lat="43.5896" lon="3.00855">
        <ele>378.25</ele>
        <time>2026-08-30T08:34:18.174Z</time>
      </trkpt>
      <trkpt lat="43.58954" lon="3.00852">
        <ele>377.05</ele>
        <time>2026-08-30T08:34:23.174Z</time>
      </trkpt>
      <trkpt lat="43.58949" lon="3.00853">
        <ele>376.85</ele>
        <time>2026-08-30T08:34:28.174Z</time>
      </trkpt>
      <trkpt lat="43.58945" lon="3.00855">
        <ele>376.55</ele>
        <time>2026-08-30T08:34:33.174Z</time>
      </trkpt>
      <trkpt lat="43.58939" lon="3.00859">
        <ele>376.05</ele>
        <time>2026-08-30T08:34:38.174Z</time>
      </trkpt>
      <trkpt lat="43.58932" lon="3.0086">
        <ele>375.95</ele>
        <time>2026-08-30T08:34:43.174Z</time>
      </trkpt>
      <trkpt lat="43.58925" lon="3.0086">
        <ele>374.65</ele>
        <time>2026-08-30T08:34:48.174Z</time>
      </trkpt>
      <trkpt lat="43.58918" lon="3.00859">
        <ele>373.25</ele>
        <time>2026-08-30T08:34:53.174Z</time>
      </trkpt>
      <trkpt lat="43.58912" lon="3.0086">
        <ele>372.15</ele>
        <time>2026-08-30T08:34:58.174Z</time>
      </trkpt>
      <trkpt lat="43.58907" lon="3.00859">
        <ele>372.65</ele>
        <time>2026-08-30T08:35:03.174Z</time>
      </trkpt>
      <trkpt lat="43.58901" lon="3.00859">
        <ele>372.15</ele>
        <time>2026-08-30T08:35:08.174Z</time>
      </trkpt>
      <trkpt lat="43.58894" lon="3.00859">
        <ele>372.55</ele>
        <time>2026-08-30T08:35:13.174Z</time>
      </trkpt>
      <trkpt lat="43.58886" lon="3.00861">
        <ele>372.25</ele>
        <time>2026-08-30T08:35:18.174Z</time>
      </trkpt>
      <trkpt lat="43.58878" lon="3.00865">
        <ele>371.05</ele>
        <time>2026-08-30T08:35:23.174Z</time>
      </trkpt>
      <trkpt lat="43.58875" lon="3.00866">
        <ele>369.75</ele>
        <time>2026-08-30T08:35:28.174Z</time>
      </trkpt>
      <trkpt lat="43.5887" lon="3.00866">
        <ele>368.95</ele>
        <time>2026-08-30T08:35:33.174Z</time>
      </trkpt>
      <trkpt lat="43.58865" lon="3.00864">
        <ele>368.35</ele>
        <time>2026-08-30T08:35:38.174Z</time>
      </trkpt>
      <trkpt lat="43.58858" lon="3.00861">
        <ele>367.65</ele>
        <time>2026-08-30T08:35:43.174Z</time>
      </trkpt>
      <trkpt lat="43.58851" lon="3.00861">
        <ele>366.65</ele>
        <time>2026-08-30T08:35:48.174Z</time>
      </trkpt>
      <trkpt lat="43.58847" lon="3.00863">
        <ele>365.85</ele>
        <time>2026-08-30T08:35:53.174Z</time>
      </trkpt>
      <trkpt lat="43.5884" lon="3.00863">
        <ele>365.55</ele>
        <time>2026-08-30T08:35:58.174Z</time>
      </trkpt>
      <trkpt lat="43.58833" lon="3.0086">
        <ele>365.05</ele>
        <time>2026-08-30T08:36:03.174Z</time>
      </trkpt>
      <trkpt lat="43.58828" lon="3.00859">
        <ele>364.95</ele>
        <time>2026-08-30T08:36:08.174Z</time>
      </trkpt>
      <trkpt lat="43.58821" lon="3.0086">
        <ele>365.35</ele>
        <time>2026-08-30T08:36:13.174Z</time>
      </trkpt>
      <trkpt lat="43.58815" lon="3.00858">
        <ele>364.75</ele>
        <time>2026-08-30T08:36:18.174Z</time>
      </trkpt>
      <trkpt lat="43.58809" lon="3.00853">
        <ele>365.15</ele>
        <time>2026-08-30T08:36:23.174Z</time>
      </trkpt>
      <trkpt lat="43.58802" lon="3.00854">
        <ele>364.75</ele>
        <time>2026-08-30T08:36:28.174Z</time>
      </trkpt>
      <trkpt lat="43.58794" lon="3.00857">
        <ele>364.65</ele>
        <time>2026-08-30T08:36:33.174Z</time>
      </trkpt>
      <trkpt lat="43.58786" lon="3.0086">
        <ele>364.35</ele>
        <time>2026-08-30T08:36:38.174Z</time>
      </trkpt>
      <trkpt lat="43.58778" lon="3.00859">
        <ele>364.05</ele>
        <time>2026-08-30T08:36:43.174Z</time>
      </trkpt>
      <trkpt lat="43.58771" lon="3.0086">
        <ele>363.45</ele>
        <time>2026-08-30T08:36:48.174Z</time>
      </trkpt>
      <trkpt lat="43.58765" lon="3.00862">
        <ele>361.45</ele>
        <time>2026-08-30T08:36:53.174Z</time>
      </trkpt>
      <trkpt lat="43.5876" lon="3.00862">
        <ele>358.75</ele>
        <time>2026-08-30T08:36:58.174Z</time>
      </trkpt>
      <trkpt lat="43.58754" lon="3.00858">
        <ele>357.45</ele>
        <time>2026-08-30T08:37:03.174Z</time>
      </trkpt>
      <trkpt lat="43.5875" lon="3.00853">
        <ele>355.95</ele>
        <time>2026-08-30T08:37:08.174Z</time>
      </trkpt>
      <trkpt lat="43.58745" lon="3.00849">
        <ele>354.35</ele>
        <time>2026-08-30T08:37:13.174Z</time>
      </trkpt>
      <trkpt lat="43.5874" lon="3.00847">
        <ele>353.05</ele>
        <time>2026-08-30T08:37:18.174Z</time>
      </trkpt>
      <trkpt lat="43.58733" lon="3.00848">
        <ele>352.95</ele>
        <time>2026-08-30T08:37:23.174Z</time>
      </trkpt>
      <trkpt lat="43.58728" lon="3.00848">
        <ele>351.65</ele>
        <time>2026-08-30T08:37:28.174Z</time>
      </trkpt>
      <trkpt lat="43.58722" lon="3.00852">
        <ele>351.45</ele>
        <time>2026-08-30T08:37:33.174Z</time>
      </trkpt>
      <trkpt lat="43.58718" lon="3.00854">
        <ele>352.55</ele>
        <time>2026-08-30T08:37:38.174Z</time>
      </trkpt>
      <trkpt lat="43.58713" lon="3.00854">
        <ele>353.45</ele>
        <time>2026-08-30T08:37:43.174Z</time>
      </trkpt>
      <trkpt lat="43.58708" lon="3.00858">
        <ele>354.25</ele>
        <time>2026-08-30T08:37:48.174Z</time>
      </trkpt>
      <trkpt lat="43.58702" lon="3.00861">
        <ele>353.75</ele>
        <time>2026-08-30T08:37:53.174Z</time>
      </trkpt>
      <trkpt lat="43.58696" lon="3.0086">
        <ele>351.85</ele>
        <time>2026-08-30T08:37:58.174Z</time>
      </trkpt>
      <trkpt lat="43.5869" lon="3.0086">
        <ele>348.95</ele>
        <time>2026-08-30T08:38:03.174Z</time>
      </trkpt>
      <trkpt lat="43.58683" lon="3.0086">
        <ele>347.95</ele>
        <time>2026-08-30T08:38:08.174Z</time>
      </trkpt>
      <trkpt lat="43.58677" lon="3.0086">
        <ele>346.15</ele>
        <time>2026-08-30T08:38:13.174Z</time>
      </trkpt>
      <trkpt lat="43.58672" lon="3.00865">
        <ele>344.65</ele>
        <time>2026-08-30T08:38:18.174Z</time>
      </trkpt>
      <trkpt lat="43.58665" lon="3.00866">
        <ele>342.35</ele>
        <time>2026-08-30T08:38:23.174Z</time>
      </trkpt>
      <trkpt lat="43.58663" lon="3.00861">
        <ele>339.15</ele>
        <time>2026-08-30T08:38:28.174Z</time>
      </trkpt>
      <trkpt lat="43.58659" lon="3.00855">
        <ele>335.45</ele>
        <time>2026-08-30T08:38:33.174Z</time>
      </trkpt>
      <trkpt lat="43.58655" lon="3.00851">
        <ele>331.85</ele>
        <time>2026-08-30T08:38:38.174Z</time>
      </trkpt>
      <trkpt lat="43.58652" lon="3.00846">
        <ele>329.55</ele>
        <time>2026-08-30T08:38:43.174Z</time>
      </trkpt>
      <trkpt lat="43.58648" lon="3.00849">
        <ele>328.05</ele>
        <time>2026-08-30T08:38:48.174Z</time>
      </trkpt>
      <trkpt lat="43.58649" lon="3.00855">
        <ele>326.75</ele>
        <time>2026-08-30T08:38:53.174Z</time>
      </trkpt>
      <trkpt lat="43.58647" lon="3.00858">
        <ele>324.45</ele>
        <time>2026-08-30T08:38:58.174Z</time>
      </trkpt>
      <trkpt lat="43.58641" lon="3.00855">
        <ele>322.75</ele>
        <time>2026-08-30T08:39:04.173Z</time>
      </trkpt>
      <trkpt lat="43.58637" lon="3.00854">
        <ele>322.05</ele>
        <time>2026-08-30T08:39:09.173Z</time>
      </trkpt>
      <trkpt lat="43.58631" lon="3.00855">
        <ele>320.35</ele>
        <time>2026-08-30T08:39:14.173Z</time>
      </trkpt>
      <trkpt lat="43.58626" lon="3.00855">
        <ele>319.35</ele>
        <time>2026-08-30T08:39:19.173Z</time>
      </trkpt>
      <trkpt lat="43.5862" lon="3.00857">
        <ele>319.95</ele>
        <time>2026-08-30T08:39:24.173Z</time>
      </trkpt>
      <trkpt lat="43.58615" lon="3.00861">
        <ele>321.35</ele>
        <time>2026-08-30T08:39:29.173Z</time>
      </trkpt>
      <trkpt lat="43.5861" lon="3.00864">
        <ele>322.15</ele>
        <time>2026-08-30T08:39:34.173Z</time>
      </trkpt>
      <trkpt lat="43.58602" lon="3.00872">
        <ele>325.85</ele>
        <time>2026-08-30T08:39:39.173Z</time>
      </trkpt>
      <trkpt lat="43.58596" lon="3.0088">
        <ele>328.25</ele>
        <time>2026-08-30T08:39:44.173Z</time>
      </trkpt>
      <trkpt lat="43.58589" lon="3.00885">
        <ele>328.05</ele>
        <time>2026-08-30T08:39:49.173Z</time>
      </trkpt>
      <trkpt lat="43.58586" lon="3.00888">
        <ele>325.75</ele>
        <time>2026-08-30T08:39:54.173Z</time>
      </trkpt>
      <trkpt lat="43.58581" lon="3.0089">
        <ele>324.05</ele>
        <time>2026-08-30T08:39:59.173Z</time>
      </trkpt>
      <trkpt lat="43.5858" lon="3.00895">
        <ele>322.15</ele>
        <time>2026-08-30T08:40:04.173Z</time>
      </trkpt>
      <trkpt lat="43.58581" lon="3.00898">
        <ele>320.45</ele>
        <time>2026-08-30T08:40:09.173Z</time>
      </trkpt>
      <trkpt lat="43.58579" lon="3.00903">
        <ele>318.25</ele>
        <time>2026-08-30T08:40:14.173Z</time>
      </trkpt>
      <trkpt lat="43.58574" lon="3.00906">
        <ele>314.65</ele>
        <time>2026-08-30T08:40:19.173Z</time>
      </trkpt>
      <trkpt lat="43.58568" lon="3.00909">
        <ele>311.25</ele>
        <time>2026-08-30T08:40:24.173Z</time>
      </trkpt>
      <trkpt lat="43.58561" lon="3.00913">
        <ele>308.55</ele>
        <time>2026-08-30T08:40:29.173Z</time>
      </trkpt>
      <trkpt lat="43.58555" lon="3.00918">
        <ele>306.95</ele>
        <time>2026-08-30T08:40:34.173Z</time>
      </trkpt>
      <trkpt lat="43.58551" lon="3.00919">
        <ele>305.45</ele>
        <time>2026-08-30T08:40:39.173Z</time>
      </trkpt>
      <trkpt lat="43.58546" lon="3.00922">
        <ele>302.55</ele>
        <time>2026-08-30T08:40:44.173Z</time>
      </trkpt>
      <trkpt lat="43.58541" lon="3.00923">
        <ele>300.25</ele>
        <time>2026-08-30T08:40:49.173Z</time>
      </trkpt>
      <trkpt lat="43.58537" lon="3.00926">
        <ele>299.25</ele>
        <time>2026-08-30T08:40:54.173Z</time>
      </trkpt>
      <trkpt lat="43.58532" lon="3.0093">
        <ele>299.35</ele>
        <time>2026-08-30T08:40:59.173Z</time>
      </trkpt>
      <trkpt lat="43.58526" lon="3.00933">
        <ele>299.65</ele>
        <time>2026-08-30T08:41:04.173Z</time>
      </trkpt>
      <trkpt lat="43.5852" lon="3.00935">
        <ele>300.75</ele>
        <time>2026-08-30T08:41:09.173Z</time>
      </trkpt>
      <trkpt lat="43.58515" lon="3.00938">
        <ele>299.25</ele>
        <time>2026-08-30T08:41:14.173Z</time>
      </trkpt>
      <trkpt lat="43.58512" lon="3.00941">
        <ele>298.55</ele>
        <time>2026-08-30T08:41:19.173Z</time>
      </trkpt>
      <trkpt lat="43.58507" lon="3.00943">
        <ele>298.15</ele>
        <time>2026-08-30T08:41:24.173Z</time>
      </trkpt>
      <trkpt lat="43.585" lon="3.00946">
        <ele>296.45</ele>
        <time>2026-08-30T08:41:29.173Z</time>
      </trkpt>
      <trkpt lat="43.58494" lon="3.0095">
        <ele>296.45</ele>
        <time>2026-08-30T08:41:34.173Z</time>
      </trkpt>
      <trkpt lat="43.58488" lon="3.00951">
        <ele>296.35</ele>
        <time>2026-08-30T08:41:39.173Z</time>
      </trkpt>
      <trkpt lat="43.58484" lon="3.00956">
        <ele>295.15</ele>
        <time>2026-08-30T08:41:44.173Z</time>
      </trkpt>
      <trkpt lat="43.58479" lon="3.00963">
        <ele>293.95</ele>
        <time>2026-08-30T08:41:49.173Z</time>
      </trkpt>
      <trkpt lat="43.58475" lon="3.00971">
        <ele>292.55</ele>
        <time>2026-08-30T08:41:54.173Z</time>
      </trkpt>
      <trkpt lat="43.5847" lon="3.00978">
        <ele>291.45</ele>
        <time>2026-08-30T08:41:59.173Z</time>
      </trkpt>
      <trkpt lat="43.58465" lon="3.00984">
        <ele>290.05</ele>
        <time>2026-08-30T08:42:04.173Z</time>
      </trkpt>
      <trkpt lat="43.58463" lon="3.0099">
        <ele>290.65</ele>
        <time>2026-08-30T08:42:09.173Z</time>
      </trkpt>
      <trkpt lat="43.5846" lon="3.00996">
        <ele>289.95</ele>
        <time>2026-08-30T08:42:14.173Z</time>
      </trkpt>
      <trkpt lat="43.58458" lon="3.01004">
        <ele>289.05</ele>
        <time>2026-08-30T08:42:19.173Z</time>
      </trkpt>
      <trkpt lat="43.58454" lon="3.01012">
        <ele>288.45</ele>
        <time>2026-08-30T08:42:24.173Z</time>
      </trkpt>
      <trkpt lat="43.5845" lon="3.01018">
        <ele>287.95</ele>
        <time>2026-08-30T08:42:29.173Z</time>
      </trkpt>
      <trkpt lat="43.58445" lon="3.01024">
        <ele>287.25</ele>
        <time>2026-08-30T08:42:34.173Z</time>
      </trkpt>
      <trkpt lat="43.58441" lon="3.01027">
        <ele>286.75</ele>
        <time>2026-08-30T08:42:39.173Z</time>
      </trkpt>
      <trkpt lat="43.58437" lon="3.0103">
        <ele>285.25</ele>
        <time>2026-08-30T08:42:44.173Z</time>
      </trkpt>
      <trkpt lat="43.58434" lon="3.01033">
        <ele>283.85</ele>
        <time>2026-08-30T08:42:49.173Z</time>
      </trkpt>
      <trkpt lat="43.5843" lon="3.01033">
        <ele>283.25</ele>
        <time>2026-08-30T08:42:54.173Z</time>
      </trkpt>
      <trkpt lat="43.58423" lon="3.01033">
        <ele>283.75</ele>
        <time>2026-08-30T08:42:59.173Z</time>
      </trkpt>
      <trkpt lat="43.58416" lon="3.01032">
        <ele>285.45</ele>
        <time>2026-08-30T08:43:04.173Z</time>
      </trkpt>
      <trkpt lat="43.58408" lon="3.01035">
        <ele>285.45</ele>
        <time>2026-08-30T08:43:09.173Z</time>
      </trkpt>
      <trkpt lat="43.584" lon="3.01035">
        <ele>284.85</ele>
        <time>2026-08-30T08:43:14.173Z</time>
      </trkpt>
      <trkpt lat="43.58394" lon="3.01035">
        <ele>285.65</ele>
        <time>2026-08-30T08:43:19.173Z</time>
      </trkpt>
      <trkpt lat="43.58387" lon="3.01034">
        <ele>285.65</ele>
        <time>2026-08-30T08:43:24.173Z</time>
      </trkpt>
      <trkpt lat="43.58379" lon="3.01034">
        <ele>284.75</ele>
        <time>2026-08-30T08:43:30.173Z</time>
      </trkpt>
      <trkpt lat="43.58374" lon="3.01036">
        <ele>282.95</ele>
        <time>2026-08-30T08:43:35.173Z</time>
      </trkpt>
      <trkpt lat="43.58367" lon="3.01036">
        <ele>281.65</ele>
        <time>2026-08-30T08:43:40.173Z</time>
      </trkpt>
      <trkpt lat="43.58361" lon="3.01035">
        <ele>279.85</ele>
        <time>2026-08-30T08:43:46.172Z</time>
      </trkpt>
      <trkpt lat="43.58354" lon="3.01039">
        <ele>277.85</ele>
        <time>2026-08-30T08:43:52.172Z</time>
      </trkpt>
      <trkpt lat="43.5835" lon="3.01041">
        <ele>274.45</ele>
        <time>2026-08-30T08:43:57.172Z</time>
      </trkpt>
      <trkpt lat="43.58345" lon="3.01042">
        <ele>272.75</ele>
        <time>2026-08-30T08:44:02.172Z</time>
      </trkpt>
      <trkpt lat="43.5834" lon="3.01042">
        <ele>272.95</ele>
        <time>2026-08-30T08:44:07.172Z</time>
      </trkpt>
      <trkpt lat="43.58335" lon="3.01044">
        <ele>271.45</ele>
        <time>2026-08-30T08:44:12.172Z</time>
      </trkpt>
      <trkpt lat="43.5833" lon="3.01047">
        <ele>270.05</ele>
        <time>2026-08-30T08:44:17.172Z</time>
      </trkpt>
      <trkpt lat="43.58324" lon="3.01052">
        <ele>267.75</ele>
        <time>2026-08-30T08:44:22.172Z</time>
      </trkpt>
      <trkpt lat="43.5832" lon="3.01056">
        <ele>266.25</ele>
        <time>2026-08-30T08:44:27.172Z</time>
      </trkpt>
      <trkpt lat="43.58315" lon="3.01059">
        <ele>264.95</ele>
        <time>2026-08-30T08:44:32.172Z</time>
      </trkpt>
      <trkpt lat="43.5831" lon="3.01065">
        <ele>263.45</ele>
        <time>2026-08-30T08:44:37.172Z</time>
      </trkpt>
      <trkpt lat="43.58302" lon="3.01069">
        <ele>262.15</ele>
        <time>2026-08-30T08:44:42.172Z</time>
      </trkpt>
      <trkpt lat="43.58297" lon="3.01075">
        <ele>262.15</ele>
        <time>2026-08-30T08:44:47.172Z</time>
      </trkpt>
      <trkpt lat="43.58291" lon="3.01075">
        <ele>262.25</ele>
        <time>2026-08-30T08:44:52.172Z</time>
      </trkpt>
      <trkpt lat="43.58284" lon="3.01075">
        <ele>261.15</ele>
        <time>2026-08-30T08:44:57.172Z</time>
      </trkpt>
      <trkpt lat="43.58278" lon="3.01079">
        <ele>259.15</ele>
        <time>2026-08-30T08:45:02.172Z</time>
      </trkpt>
      <trkpt lat="43.58271" lon="3.01081">
        <ele>258.05</ele>
        <time>2026-08-30T08:45:07.172Z</time>
      </trkpt>
      <trkpt lat="43.58264" lon="3.01082">
        <ele>257.75</ele>
        <time>2026-08-30T08:45:12.172Z</time>
      </trkpt>
      <trkpt lat="43.58257" lon="3.01082">
        <ele>257.95</ele>
        <time>2026-08-30T08:45:17.172Z</time>
      </trkpt>
      <trkpt lat="43.58249" lon="3.01082">
        <ele>258.05</ele>
        <time>2026-08-30T08:45:22.172Z</time>
      </trkpt>
      <trkpt lat="43.58243" lon="3.01082">
        <ele>257.45</ele>
        <time>2026-08-30T08:45:27.172Z</time>
      </trkpt>
      <trkpt lat="43.58236" lon="3.01084">
        <ele>258.25</ele>
        <time>2026-08-30T08:45:32.172Z</time>
      </trkpt>
      <trkpt lat="43.58228" lon="3.01089">
        <ele>259.25</ele>
        <time>2026-08-30T08:45:37.172Z</time>
      </trkpt>
      <trkpt lat="43.58221" lon="3.0109">
        <ele>258.95</ele>
        <time>2026-08-30T08:45:42.172Z</time>
      </trkpt>
      <trkpt lat="43.58215" lon="3.01091">
        <ele>258.45</ele>
        <time>2026-08-30T08:45:47.172Z</time>
      </trkpt>
      <trkpt lat="43.5821" lon="3.0109">
        <ele>257.65</ele>
        <time>2026-08-30T08:45:52.172Z</time>
      </trkpt>
      <trkpt lat="43.58202" lon="3.01093">
        <ele>258.05</ele>
        <time>2026-08-30T08:45:57.172Z</time>
      </trkpt>
      <trkpt lat="43.58196" lon="3.01098">
        <ele>257.45</ele>
        <time>2026-08-30T08:46:02.172Z</time>
      </trkpt>
      <trkpt lat="43.58188" lon="3.01101">
        <ele>256.85</ele>
        <time>2026-08-30T08:46:07.172Z</time>
      </trkpt>
      <trkpt lat="43.58181" lon="3.01103">
        <ele>256.45</ele>
        <time>2026-08-30T08:46:12.172Z</time>
      </trkpt>
      <trkpt lat="43.58175" lon="3.01108">
        <ele>254.25</ele>
        <time>2026-08-30T08:46:17.172Z</time>
      </trkpt>
      <trkpt lat="43.58169" lon="3.0111">
        <ele>253.05</ele>
        <time>2026-08-30T08:46:22.172Z</time>
      </trkpt>
      <trkpt lat="43.58161" lon="3.01113">
        <ele>253.45</ele>
        <time>2026-08-30T08:46:27.172Z</time>
      </trkpt>
      <trkpt lat="43.58155" lon="3.01111">
        <ele>253.95</ele>
        <time>2026-08-30T08:46:32.172Z</time>
      </trkpt>
      <trkpt lat="43.5815" lon="3.01112">
        <ele>252.65</ele>
        <time>2026-08-30T08:46:37.172Z</time>
      </trkpt>
      <trkpt lat="43.58143" lon="3.01116">
        <ele>251.85</ele>
        <time>2026-08-30T08:46:42.172Z</time>
      </trkpt>
      <trkpt lat="43.58139" lon="3.01122">
        <ele>251.55</ele>
        <time>2026-08-30T08:46:47.172Z</time>
      </trkpt>
      <trkpt lat="43.58136" lon="3.01128">
        <ele>250.15</ele>
        <time>2026-08-30T08:46:52.172Z</time>
      </trkpt>
      <trkpt lat="43.58136" lon="3.01134">
        <ele>247.85</ele>
        <time>2026-08-30T08:46:57.172Z</time>
      </trkpt>
      <trkpt lat="43.58137" lon="3.01139">
        <ele>245.25</ele>
        <time>2026-08-30T08:47:02.172Z</time>
      </trkpt>
      <trkpt lat="43.58135" lon="3.01145">
        <ele>243.35</ele>
        <time>2026-08-30T08:47:07.172Z</time>
      </trkpt>
      <trkpt lat="43.58131" lon="3.01151">
        <ele>241.75</ele>
        <time>2026-08-30T08:47:12.172Z</time>
      </trkpt>
      <trkpt lat="43.58128" lon="3.01155">
        <ele>240.45</ele>
        <time>2026-08-30T08:47:17.172Z</time>
      </trkpt>
      <trkpt lat="43.58125" lon="3.01157">
        <ele>238.05</ele>
        <time>2026-08-30T08:47:22.172Z</time>
      </trkpt>
      <trkpt lat="43.58121" lon="3.01158">
        <ele>236.65</ele>
        <time>2026-08-30T08:47:27.172Z</time>
      </trkpt>
      <trkpt lat="43.58117" lon="3.0116">
        <ele>235.15</ele>
        <time>2026-08-30T08:47:33.171Z</time>
      </trkpt>
      <trkpt lat="43.58116" lon="3.01164">
        <ele>233.45</ele>
        <time>2026-08-30T08:47:38.172Z</time>
      </trkpt>
      <trkpt lat="43.58114" lon="3.01169">
        <ele>231.55</ele>
        <time>2026-08-30T08:47:43.172Z</time>
      </trkpt>
      <trkpt lat="43.58109" lon="3.0117">
        <ele>229.65</ele>
        <time>2026-08-30T08:47:48.172Z</time>
      </trkpt>
      <trkpt lat="43.58107" lon="3.01174">
        <ele>229.15</ele>
        <time>2026-08-30T08:47:53.172Z</time>
      </trkpt>
      <trkpt lat="43.58105" lon="3.01178">
        <ele>229.35</ele>
        <time>2026-08-30T08:47:58.172Z</time>
      </trkpt>
      <trkpt lat="43.58097" lon="3.01184">
        <ele>229.25</ele>
        <time>2026-08-30T08:48:03.172Z</time>
      </trkpt>
      <trkpt lat="43.5809" lon="3.01186">
        <ele>229.85</ele>
        <time>2026-08-30T08:48:08.172Z</time>
      </trkpt>
      <trkpt lat="43.58085" lon="3.01194">
        <ele>229.95</ele>
        <time>2026-08-30T08:48:13.172Z</time>
      </trkpt>
      <trkpt lat="43.58085" lon="3.01204">
        <ele>229.85</ele>
        <time>2026-08-30T08:48:18.172Z</time>
      </trkpt>
      <trkpt lat="43.58088" lon="3.01211">
        <ele>228.65</ele>
        <time>2026-08-30T08:48:23.172Z</time>
      </trkpt>
      <trkpt lat="43.5809" lon="3.0122">
        <ele>226.85</ele>
        <time>2026-08-30T08:48:28.172Z</time>
      </trkpt>
      <trkpt lat="43.58093" lon="3.01229">
        <ele>226.75</ele>
        <time>2026-08-30T08:48:33.172Z</time>
      </trkpt>
      <trkpt lat="43.58096" lon="3.01237">
        <ele>226.85</ele>
        <time>2026-08-30T08:48:38.172Z</time>
      </trkpt>
      <trkpt lat="43.58095" lon="3.01246">
        <ele>225.75</ele>
        <time>2026-08-30T08:48:44.171Z</time>
      </trkpt>
      <trkpt lat="43.58098" lon="3.01255">
        <ele>225.75</ele>
        <time>2026-08-30T08:48:49.171Z</time>
      </trkpt>
      <trkpt lat="43.58095" lon="3.01261">
        <ele>225.65</ele>
        <time>2026-08-30T08:48:54.171Z</time>
      </trkpt>
      <trkpt lat="43.58085" lon="3.01268">
        <ele>226.35</ele>
        <time>2026-08-30T08:48:59.171Z</time>
      </trkpt>
      <trkpt lat="43.58079" lon="3.0127">
        <ele>226.65</ele>
        <time>2026-08-30T08:49:04.171Z</time>
      </trkpt>
      <trkpt lat="43.58073" lon="3.01274">
        <ele>227.25</ele>
        <time>2026-08-30T08:49:09.171Z</time>
      </trkpt>
      <trkpt lat="43.58066" lon="3.01275">
        <ele>227.45</ele>
        <time>2026-08-30T08:49:14.171Z</time>
      </trkpt>
      <trkpt lat="43.58056" lon="3.01276">
        <ele>225.45</ele>
        <time>2026-08-30T08:49:19.171Z</time>
      </trkpt>
      <trkpt lat="43.58047" lon="3.0128">
        <ele>225.45</ele>
        <time>2026-08-30T08:49:24.171Z</time>
      </trkpt>
      <trkpt lat="43.58042" lon="3.01285">
        <ele>223.15</ele>
        <time>2026-08-30T08:49:29.171Z</time>
      </trkpt>
      <trkpt lat="43.58039" lon="3.01291">
        <ele>220.85</ele>
        <time>2026-08-30T08:49:34.171Z</time>
      </trkpt>
      <trkpt lat="43.5803" lon="3.0129">
        <ele>220.85</ele>
        <time>2026-08-30T08:49:39.171Z</time>
      </trkpt>
      <trkpt lat="43.58021" lon="3.01289">
        <ele>221.95</ele>
        <time>2026-08-30T08:49:44.171Z</time>
      </trkpt>
      <trkpt lat="43.58012" lon="3.01287">
        <ele>222.35</ele>
        <time>2026-08-30T08:49:49.171Z</time>
      </trkpt>
      <trkpt lat="43.58005" lon="3.01283">
        <ele>224.65</ele>
        <time>2026-08-30T08:49:54.171Z</time>
      </trkpt>
      <trkpt lat="43.58" lon="3.01277">
        <ele>223.25</ele>
        <time>2026-08-30T08:49:59.171Z</time>
      </trkpt>
      <trkpt lat="43.57997" lon="3.01269">
        <ele>221.85</ele>
        <time>2026-08-30T08:50:04.171Z</time>
      </trkpt>
      <trkpt lat="43.57991" lon="3.01263">
        <ele>220.15</ele>
        <time>2026-08-30T08:50:09.171Z</time>
      </trkpt>
      <trkpt lat="43.57984" lon="3.01258">
        <ele>219.45</ele>
        <time>2026-08-30T08:50:14.171Z</time>
      </trkpt>
      <trkpt lat="43.57978" lon="3.01255">
        <ele>217.05</ele>
        <time>2026-08-30T08:50:19.171Z</time>
      </trkpt>
      <trkpt lat="43.57972" lon="3.0125">
        <ele>213.65</ele>
        <time>2026-08-30T08:50:24.171Z</time>
      </trkpt>
      <trkpt lat="43.57965" lon="3.01247">
        <ele>211.95</ele>
        <time>2026-08-30T08:50:29.171Z</time>
      </trkpt>
      <trkpt lat="43.5796" lon="3.01238">
        <ele>212.85</ele>
        <time>2026-08-30T08:50:34.171Z</time>
      </trkpt>
      <trkpt lat="43.57956" lon="3.01227">
        <ele>212.15</ele>
        <time>2026-08-30T08:50:39.171Z</time>
      </trkpt>
      <trkpt lat="43.57952" lon="3.01218">
        <ele>211.15</ele>
        <time>2026-08-30T08:50:44.171Z</time>
      </trkpt>
      <trkpt lat="43.57947" lon="3.01211">
        <ele>210.15</ele>
        <time>2026-08-30T08:50:49.171Z</time>
      </trkpt>
      <trkpt lat="43.57941" lon="3.01206">
        <ele>209.15</ele>
        <time>2026-08-30T08:50:54.171Z</time>
      </trkpt>
      <trkpt lat="43.57936" lon="3.01202">
        <ele>209.15</ele>
        <time>2026-08-30T08:50:59.171Z</time>
      </trkpt>
      <trkpt lat="43.57931" lon="3.01198">
        <ele>209.75</ele>
        <time>2026-08-30T08:51:04.171Z</time>
      </trkpt>
      <trkpt lat="43.57929" lon="3.01193">
        <ele>210.25</ele>
        <time>2026-08-30T08:51:09.171Z</time>
      </trkpt>
      <trkpt lat="43.57928" lon="3.01191">
        <ele>210.35</ele>
        <time>2026-08-30T08:51:14.171Z</time>
      </trkpt>
      <trkpt lat="43.57927" lon="3.01191">
        <ele>209.85</ele>
        <time>2026-08-30T08:51:19.171Z</time>
      </trkpt>
      <trkpt lat="43.57927" lon="3.01191">
        <ele>209.85</ele>
        <time>2026-08-30T08:51:24.171Z</time>
      </trkpt>
      <trkpt lat="43.57927" lon="3.01191">
        <ele>209.85</ele>
        <time>2026-08-30T08:51:29.171Z</time>
      </trkpt>
      <trkpt lat="43.57927" lon="3.01191">
        <ele>209.85</ele>
        <time>2026-08-30T08:51:34.171Z</time>
      </trkpt>
      <trkpt lat="43.57927" lon="3.01191">
        <ele>209.85</ele>
        <time>2026-08-30T08:51:39.171Z</time>
      </trkpt>
      <trkpt lat="43.57927" lon="3.01191">
        <ele>209.85</ele>
        <time>2026-08-30T08:51:44.171Z</time>
      </trkpt>
      <trkpt lat="43.57927" lon="3.01191">
        <ele>209.85</ele>
        <time>2026-08-30T08:51:49.171Z</time>
      </trkpt>
      <trkpt lat="43.57927" lon="3.01191">
        <ele>209.85</ele>
        <time>2026-08-30T08:51:54.171Z</time>
      </trkpt>
      <trkpt lat="43.57927" lon="3.01191">
        <ele>209.85</ele>
        <time>2026-08-30T08:51:59.171Z</time>
      </trkpt>
      <trkpt lat="43.57925" lon="3.01189">
        <ele>205.95</ele>
        <time>2026-08-30T08:52:04.171Z</time>
      </trkpt>
      <trkpt lat="43.57925" lon="3.01187">
        <ele>206.05</ele>
        <time>2026-08-30T08:52:09.171Z</time>
      </trkpt>
      <trkpt lat="43.57925" lon="3.01187">
        <ele>206.05</ele>
        <time>2026-08-30T08:52:14.171Z</time>
      </trkpt>
      <trkpt lat="43.57925" lon="3.01187">
        <ele>206.05</ele>
        <time>2026-08-30T08:52:19.171Z</time>
      </trkpt>
      <trkpt lat="43.57925" lon="3.01187">
        <ele>206.05</ele>
        <time>2026-08-30T08:52:24.171Z</time>
      </trkpt>
      <trkpt lat="43.57925" lon="3.01187">
        <ele>206.05</ele>
        <time>2026-08-30T08:52:29.171Z</time>
      </trkpt>
      <trkpt lat="43.57925" lon="3.01187">
        <ele>206.05</ele>
        <time>2026-08-30T08:52:34.171Z</time>
      </trkpt>
    </trkseg>
  </trk>
</gpx>